<?xml version='1.0' encoding='UTF-8'?><gpx version="1.1" creator="JPX - https://github.com/jenetics/jpx" xmlns="http://www.topografix.com/GPX/1/1"><trk><trkseg><trkpt lat="41.93857694653701" lon="-8.83386448197741"><ele>39.0</ele><time>2026-04-04T19:26:11.999Z</time></trkpt><trkpt lat="41.93851201907825" lon="-8.833873051239934"><ele>39.0</ele><time>2026-04-04T19:27:50.999Z</time></trkpt><trkpt lat="41.93845768412295" lon="-8.83381184040685"><ele>39.0</ele><time>2026-04-04T19:29:34.999Z</time></trkpt><trkpt lat="41.938334240924874" lon="-8.833748561869715"><ele>39.0</ele><time>2026-04-04T19:29:36.999Z</time></trkpt><trkpt lat="41.938264933978104" lon="-8.833722406207023"><ele>39.0</ele><time>2026-04-04T19:29:37.999Z</time></trkpt><trkpt lat="41.938191480853256" lon="-8.833698780582521"><ele>39.0</ele><time>2026-04-04T19:29:38.999Z</time></trkpt><trkpt lat="41.93811751539158" lon="-8.833683224880573"><ele>38.666666666666664</ele><time>2026-04-04T19:29:39.999Z</time></trkpt><trkpt lat="41.93804292112643" lon="-8.83366675642118"><ele>38.333333333333336</ele><time>2026-04-04T19:29:40.999Z</time></trkpt><trkpt lat="41.93795544828676" lon="-8.833675482258661"><ele>38.0</ele><time>2026-04-04T19:29:41.999Z</time></trkpt><trkpt lat="41.937880419021326" lon="-8.83366517851369"><ele>37.66666666666667</ele><time>2026-04-04T19:29:42.999Z</time></trkpt><trkpt lat="41.93776379912188" lon="-8.83361428031848"><ele>37.333333333333336</ele><time>2026-04-04T19:29:44.999Z</time></trkpt><trkpt lat="41.937699671436214" lon="-8.833571778455447"><ele>37.0</ele><time>2026-04-04T19:29:45.999Z</time></trkpt><trkpt lat="41.9376360253594" lon="-8.833517529213887"><ele>37.0</ele><time>2026-04-04T19:29:46.999Z</time></trkpt><trkpt lat="41.937573779660646" lon="-8.833441505094045"><ele>37.0</ele><time>2026-04-04T19:29:48.999Z</time></trkpt><trkpt lat="41.93747805836312" lon="-8.833390399913778"><ele>37.0</ele><time>2026-04-04T19:29:50.999Z</time></trkpt><trkpt lat="41.93740285207598" lon="-8.833357127963026"><ele>37.0</ele><time>2026-04-04T19:30:23Z</time></trkpt><trkpt lat="41.93733773529166" lon="-8.833336691040826"><ele>37.0</ele><time>2026-04-04T19:30:24Z</time></trkpt><trkpt lat="41.9372529591349" lon="-8.833318753738052"><ele>37.0</ele><time>2026-04-04T19:30:25Z</time></trkpt><trkpt lat="41.93717651224796" lon="-8.83330516769807"><ele>37.0</ele><time>2026-04-04T19:30:26Z</time></trkpt><trkpt lat="41.93708343225759" lon="-8.833295459763628"><ele>37.0</ele><time>2026-04-04T19:30:27Z</time></trkpt><trkpt lat="41.93698876043424" lon="-8.833290307435767"><ele>37.0</ele><time>2026-04-04T19:30:28Z</time></trkpt><trkpt lat="41.936895586978935" lon="-8.833292067419462"><ele>37.0</ele><time>2026-04-04T19:30:29Z</time></trkpt><trkpt lat="41.93682304497776" lon="-8.833301040938666"><ele>37.0</ele><time>2026-04-04T19:30:30Z</time></trkpt><trkpt lat="41.93674747286772" lon="-8.833322618551465"><ele>37.0</ele><time>2026-04-04T19:30:31Z</time></trkpt><trkpt lat="41.93667864269869" lon="-8.83334197871541"><ele>36.714285714285715</ele><time>2026-04-04T19:30:32Z</time></trkpt><trkpt lat="41.9366092758004" lon="-8.833336667894288"><ele>36.42857142857143</ele><time>2026-04-04T19:30:32.999Z</time></trkpt><trkpt lat="41.936535132943725" lon="-8.833356671999072"><ele>36.14285714285714</ele><time>2026-04-04T19:30:33.999Z</time></trkpt><trkpt lat="41.93646567134131" lon="-8.833365773541024"><ele>35.85714285714286</ele><time>2026-04-04T19:30:34.999Z</time></trkpt><trkpt lat="41.936399864738455" lon="-8.833366854611649"><ele>35.57142857142857</ele><time>2026-04-04T19:30:35.999Z</time></trkpt><trkpt lat="41.93631892109811" lon="-8.833360027816992"><ele>35.285714285714285</ele><time>2026-04-04T19:30:36.999Z</time></trkpt><trkpt lat="41.93624067027201" lon="-8.83335868665402"><ele>35.0</ele><time>2026-04-04T19:30:37.999Z</time></trkpt><trkpt lat="41.93615634053974" lon="-8.833357007032324"><ele>35.0</ele><time>2026-04-04T19:30:38.999Z</time></trkpt><trkpt lat="41.936080378348386" lon="-8.833358476332002"><ele>35.0</ele><time>2026-04-04T19:30:39.999Z</time></trkpt><trkpt lat="41.93600600318318" lon="-8.833348686665502"><ele>35.0</ele><time>2026-04-04T19:30:40.999Z</time></trkpt><trkpt lat="41.93591934259158" lon="-8.833352638193723"><ele>35.0</ele><time>2026-04-04T19:30:42.999Z</time></trkpt><trkpt lat="41.93584404583781" lon="-8.833180456409476"><ele>35.0</ele><time>2026-04-04T19:31:14.999Z</time></trkpt><trkpt lat="41.93581605728711" lon="-8.833066991297432"><ele>35.166666666666664</ele><time>2026-04-04T19:31:15.999Z</time></trkpt><trkpt lat="41.93579575387417" lon="-8.832952759992866"><ele>35.33333333333333</ele><time>2026-04-04T19:31:16.999Z</time></trkpt><trkpt lat="41.93577252080289" lon="-8.832832875370558"><ele>35.5</ele><time>2026-04-04T19:31:17.999Z</time></trkpt><trkpt lat="41.93575235355147" lon="-8.832732835628283"><ele>35.666666666666664</ele><time>2026-04-04T19:31:18.999Z</time></trkpt><trkpt lat="41.93573014266594" lon="-8.832632351724172"><ele>35.833333333333336</ele><time>2026-04-04T19:31:19.999Z</time></trkpt><trkpt lat="41.93570917149223" lon="-8.832537476351163"><ele>36.0</ele><time>2026-04-04T19:31:20.999Z</time></trkpt><trkpt lat="41.93569050902027" lon="-8.832437262377097"><ele>36.0</ele><time>2026-04-04T19:31:21.999Z</time></trkpt><trkpt lat="41.93567918296693" lon="-8.832349728752282"><ele>36.0</ele><time>2026-04-04T19:31:22.999Z</time></trkpt><trkpt lat="41.93567181627941" lon="-8.832185578071503"><ele>36.0</ele><time>2026-04-04T19:31:24.999Z</time></trkpt><trkpt lat="41.93568971421253" lon="-8.832012636390605"><ele>36.0</ele><time>2026-04-04T19:31:26.999Z</time></trkpt><trkpt lat="41.935739270195214" lon="-8.83189639211407"><ele>36.0</ele><time>2026-04-04T19:31:27.999Z</time></trkpt><trkpt lat="41.93575032237012" lon="-8.831804641190828"><ele>35.5</ele><time>2026-04-04T19:31:28.999Z</time></trkpt><trkpt lat="41.93578405149464" lon="-8.831646650178955"><ele>35.0</ele><time>2026-04-04T19:31:30.999Z</time></trkpt><trkpt lat="41.93574481803552" lon="-8.831522049336025"><ele>34.5</ele><time>2026-04-04T19:31:32.999Z</time></trkpt><trkpt lat="41.935722134866694" lon="-8.831435566478737"><ele>34.0</ele><time>2026-04-04T19:31:33.999Z</time></trkpt><trkpt lat="41.935696788496536" lon="-8.831335784382095"><ele>33.5</ele><time>2026-04-04T19:31:34.999Z</time></trkpt><trkpt lat="41.93567396167004" lon="-8.831242100372"><ele>33.0</ele><time>2026-04-04T19:31:35.999Z</time></trkpt><trkpt lat="41.93565237193335" lon="-8.831135254553613"><ele>33.0</ele><time>2026-04-04T19:31:36.999Z</time></trkpt><trkpt lat="41.9356400823627" lon="-8.831029209028713"><ele>33.0</ele><time>2026-04-04T19:31:37.999Z</time></trkpt><trkpt lat="41.93564661081689" lon="-8.830886485246703"><ele>33.0</ele><time>2026-04-04T19:31:39.999Z</time></trkpt><trkpt lat="41.93565578571064" lon="-8.83078596828913"><ele>33.0</ele><time>2026-04-04T19:31:41.999Z</time></trkpt><trkpt lat="41.9356655683542" lon="-8.830690115948443"><ele>33.0</ele><time>2026-04-04T19:31:43.999Z</time></trkpt><trkpt lat="41.93560191866971" lon="-8.830611929192601"><ele>33.0</ele><time>2026-04-04T19:31:45.999Z</time></trkpt><trkpt lat="41.93553586813601" lon="-8.830552192244916"><ele>31.2</ele><time>2026-04-04T19:31:46.999Z</time></trkpt><trkpt lat="41.93545803795688" lon="-8.830479059931076"><ele>29.4</ele><time>2026-04-04T19:31:47.999Z</time></trkpt><trkpt lat="41.93540446676037" lon="-8.830399583304567"><ele>27.599999999999998</ele><time>2026-04-04T19:31:48.999Z</time></trkpt><trkpt lat="41.93532041622327" lon="-8.830342790623012"><ele>25.799999999999997</ele><time>2026-04-04T19:31:49.999Z</time></trkpt><trkpt lat="41.93524958613089" lon="-8.830264383493068"><ele>24.0</ele><time>2026-04-04T19:31:50.999Z</time></trkpt><trkpt lat="41.93517230687054" lon="-8.830188667301295"><ele>22.0</ele><time>2026-04-04T19:31:51.999Z</time></trkpt><trkpt lat="41.93507651608113" lon="-8.830105921345455"><ele>20.0</ele><time>2026-04-04T19:31:53Z</time></trkpt><trkpt lat="41.934966675879465" lon="-8.830013951521929"><ele>18.0</ele><time>2026-04-04T19:31:54Z</time></trkpt><trkpt lat="41.93484378718252" lon="-8.829922541746464"><ele>16.0</ele><time>2026-04-04T19:31:55Z</time></trkpt><trkpt lat="41.93471578615733" lon="-8.82983132462575"><ele>16.0</ele><time>2026-04-04T19:31:56Z</time></trkpt><trkpt lat="41.93457691432684" lon="-8.829750278797187"><ele>16.0</ele><time>2026-04-04T19:31:57Z</time></trkpt><trkpt lat="41.934456863142934" lon="-8.829739661532539"><ele>16.0</ele><time>2026-04-04T19:31:58Z</time></trkpt><trkpt lat="41.93435334216819" lon="-8.829726606262765"><ele>16.0</ele><time>2026-04-04T19:31:59Z</time></trkpt><trkpt lat="41.934253903978274" lon="-8.829713190843641"><ele>15.8</ele><time>2026-04-04T19:32:00Z</time></trkpt><trkpt lat="41.934164992402835" lon="-8.829690684820552"><ele>15.600000000000001</ele><time>2026-04-04T19:32:01Z</time></trkpt><trkpt lat="41.93407017648569" lon="-8.829705312019128"><ele>15.4</ele><time>2026-04-04T19:32:02Z</time></trkpt><trkpt lat="41.93396761378363" lon="-8.829724523505675"><ele>15.2</ele><time>2026-04-04T19:32:03Z</time></trkpt><trkpt lat="41.93386988225635" lon="-8.829745588837481"><ele>15.0</ele><time>2026-04-04T19:32:04Z</time></trkpt><trkpt lat="41.93375930968522" lon="-8.829765088764015"><ele>15.0</ele><time>2026-04-04T19:32:05Z</time></trkpt><trkpt lat="41.9336391463738" lon="-8.829817326883036"><ele>15.0</ele><time>2026-04-04T19:32:06Z</time></trkpt><trkpt lat="41.933562556181855" lon="-8.829869319221109"><ele>15.0</ele><time>2026-04-04T19:32:07Z</time></trkpt><trkpt lat="41.933493818100395" lon="-8.829902937543588"><ele>15.0</ele><time>2026-04-04T19:32:08Z</time></trkpt><trkpt lat="41.93343799600942" lon="-8.829943730728719"><ele>15.0</ele><time>2026-04-04T19:32:12Z</time></trkpt><trkpt lat="41.93336749588826" lon="-8.829763719577109"><ele>13.5</ele><time>2026-04-04T19:32:14Z</time></trkpt><trkpt lat="41.93335997942552" lon="-8.829596017923896"><ele>12.0</ele><time>2026-04-04T19:32:15Z</time></trkpt><trkpt lat="41.93335108644789" lon="-8.829438263111552"><ele>10.5</ele><time>2026-04-04T19:32:16Z</time></trkpt><trkpt lat="41.93333609920157" lon="-8.829273824133626"><ele>9.0</ele><time>2026-04-04T19:32:17Z</time></trkpt><trkpt lat="41.93332280183688" lon="-8.829109696489317"><ele>9.0</ele><time>2026-04-04T19:32:18Z</time></trkpt><trkpt lat="41.93330010642525" lon="-8.828963331373764"><ele>9.0</ele><time>2026-04-04T19:32:19Z</time></trkpt><trkpt lat="41.93326163089354" lon="-8.828842616468764"><ele>9.0</ele><time>2026-04-04T19:32:20Z</time></trkpt><trkpt lat="41.93320092755293" lon="-8.828735147280394"><ele>9.0</ele><time>2026-04-04T19:32:21Z</time></trkpt><trkpt lat="41.93312285458625" lon="-8.828631709160886"><ele>9.0</ele><time>2026-04-04T19:32:22Z</time></trkpt><trkpt lat="41.93303217658021" lon="-8.828552538101256"><ele>9.0</ele><time>2026-04-04T19:32:23Z</time></trkpt><trkpt lat="41.93294415348252" lon="-8.828508524168234"><ele>9.0</ele><time>2026-04-04T19:32:24Z</time></trkpt><trkpt lat="41.932874377363405" lon="-8.828490694227476"><ele>9.0</ele><time>2026-04-04T19:32:25Z</time></trkpt><trkpt lat="41.93282118993264" lon="-8.828395890861332"><ele>9.0</ele><time>2026-04-04T19:32:27Z</time></trkpt><trkpt lat="41.932790338865146" lon="-8.828253164229638"><ele>9.0</ele><time>2026-04-04T19:32:29Z</time></trkpt><trkpt lat="41.93274434459951" lon="-8.828149318933605"><ele>9.6</ele><time>2026-04-04T19:32:30Z</time></trkpt><trkpt lat="41.932701359792084" lon="-8.828021831117992"><ele>10.2</ele><time>2026-04-04T19:32:31Z</time></trkpt><trkpt lat="41.93267111638999" lon="-8.827882969849973"><ele>10.799999999999999</ele><time>2026-04-04T19:32:32Z</time></trkpt><trkpt lat="41.93264495380489" lon="-8.827753040609414"><ele>11.4</ele><time>2026-04-04T19:32:33Z</time></trkpt><trkpt lat="41.93262029069457" lon="-8.827589338971348"><ele>12.0</ele><time>2026-04-04T19:32:34Z</time></trkpt><trkpt lat="41.932593152730455" lon="-8.827407892188676"><ele>12.5</ele><time>2026-04-04T19:32:35Z</time></trkpt><trkpt lat="41.93256795282405" lon="-8.827212811245998"><ele>13.0</ele><time>2026-04-04T19:32:36Z</time></trkpt><trkpt lat="41.93254195872424" lon="-8.827027994281982"><ele>13.5</ele><time>2026-04-04T19:32:37Z</time></trkpt><trkpt lat="41.93250436227044" lon="-8.826847172639493"><ele>14.0</ele><time>2026-04-04T19:32:38Z</time></trkpt><trkpt lat="41.93246746266836" lon="-8.826670084030704"><ele>12.0</ele><time>2026-04-04T19:32:39Z</time></trkpt><trkpt lat="41.932411383352445" lon="-8.826499455934924"><ele>10.0</ele><time>2026-04-04T19:32:40Z</time></trkpt><trkpt lat="41.93235148641288" lon="-8.826346713122035"><ele>8.0</ele><time>2026-04-04T19:32:41Z</time></trkpt><trkpt lat="41.932293550811956" lon="-8.826213404127992"><ele>6.0</ele><time>2026-04-04T19:32:42Z</time></trkpt><trkpt lat="41.93225723776923" lon="-8.82608726754764"><ele>6.0</ele><time>2026-04-04T19:32:43Z</time></trkpt><trkpt lat="41.93220470436392" lon="-8.826001724903717"><ele>6.0</ele><time>2026-04-04T19:32:44Z</time></trkpt><trkpt lat="41.932159377659445" lon="-8.825899180113646"><ele>6.0</ele><time>2026-04-04T19:32:45Z</time></trkpt><trkpt lat="41.932112827564886" lon="-8.825790218937444"><ele>6.0</ele><time>2026-04-04T19:32:46Z</time></trkpt><trkpt lat="41.932060049469214" lon="-8.825664713701993"><ele>6.0</ele><time>2026-04-04T19:32:47Z</time></trkpt><trkpt lat="41.931995919692596" lon="-8.825523722584238"><ele>6.0</ele><time>2026-04-04T19:32:48Z</time></trkpt><trkpt lat="41.931938861058185" lon="-8.825387042763355"><ele>6.0</ele><time>2026-04-04T19:32:49Z</time></trkpt><trkpt lat="41.93187820814353" lon="-8.825254799013017"><ele>6.0</ele><time>2026-04-04T19:32:50Z</time></trkpt><trkpt lat="41.93181986778508" lon="-8.825141999139106"><ele>6.0</ele><time>2026-04-04T19:32:51Z</time></trkpt><trkpt lat="41.931755930838904" lon="-8.825054658514086"><ele>6.0</ele><time>2026-04-04T19:32:52Z</time></trkpt><trkpt lat="41.93167608685276" lon="-8.825011479226738"><ele>6.0</ele><time>2026-04-04T19:32:53Z</time></trkpt><trkpt lat="41.931613104828244" lon="-8.824951148162784"><ele>6.0</ele><time>2026-04-04T19:32:54Z</time></trkpt><trkpt lat="41.93153464345199" lon="-8.82491104524939"><ele>6.0</ele><time>2026-04-04T19:32:55Z</time></trkpt><trkpt lat="41.931453491090984" lon="-8.824869894731304"><ele>6.0</ele><time>2026-04-04T19:32:56Z</time></trkpt><trkpt lat="41.93136412397124" lon="-8.824821788795093"><ele>6.0</ele><time>2026-04-04T19:32:57Z</time></trkpt><trkpt lat="41.931271504956406" lon="-8.82476543212073"><ele>6.0</ele><time>2026-04-04T19:32:58Z</time></trkpt><trkpt lat="41.93118424366943" lon="-8.824714730509529"><ele>6.0</ele><time>2026-04-04T19:32:59Z</time></trkpt><trkpt lat="41.931101689348544" lon="-8.82466962335762"><ele>6.0</ele><time>2026-04-04T19:33:00Z</time></trkpt><trkpt lat="41.931016611277386" lon="-8.824636702445613"><ele>6.0</ele><time>2026-04-04T19:33:01Z</time></trkpt><trkpt lat="41.930936579679994" lon="-8.824610543323484"><ele>6.0</ele><time>2026-04-04T19:33:02Z</time></trkpt><trkpt lat="41.930844450202" lon="-8.824591803016185"><ele>6.0</ele><time>2026-04-04T19:33:03Z</time></trkpt><trkpt lat="41.930743425125854" lon="-8.824572080082925"><ele>6.0</ele><time>2026-04-04T19:33:04Z</time></trkpt><trkpt lat="41.9306458135648" lon="-8.824550475720478"><ele>6.0</ele><time>2026-04-04T19:33:05Z</time></trkpt><trkpt lat="41.930543383631004" lon="-8.82452344007706"><ele>6.0</ele><time>2026-04-04T19:33:06Z</time></trkpt><trkpt lat="41.930437833299685" lon="-8.824503011235615"><ele>6.0</ele><time>2026-04-04T19:33:07Z</time></trkpt><trkpt lat="41.93033871607527" lon="-8.82448070090936"><ele>6.0</ele><time>2026-04-04T19:33:08Z</time></trkpt><trkpt lat="41.93025265386117" lon="-8.824461528611447"><ele>6.0</ele><time>2026-04-04T19:33:09Z</time></trkpt><trkpt lat="41.930159469458545" lon="-8.824438947171252"><ele>6.0</ele><time>2026-04-04T19:33:10Z</time></trkpt><trkpt lat="41.930075908321" lon="-8.824409512042537"><ele>6.0</ele><time>2026-04-04T19:33:11Z</time></trkpt><trkpt lat="41.92997199684597" lon="-8.824380921521954"><ele>6.0</ele><time>2026-04-04T19:33:12Z</time></trkpt><trkpt lat="41.92985139066862" lon="-8.824327892806062"><ele>6.0</ele><time>2026-04-04T19:33:13Z</time></trkpt><trkpt lat="41.92971808154122" lon="-8.82426267853498"><ele>7.75</ele><time>2026-04-04T19:33:14Z</time></trkpt><trkpt lat="41.92958207982746" lon="-8.824202358746497"><ele>9.5</ele><time>2026-04-04T19:33:14.999Z</time></trkpt><trkpt lat="41.92944998213795" lon="-8.82414819002294"><ele>11.25</ele><time>2026-04-04T19:33:15.999Z</time></trkpt><trkpt lat="41.92932580516462" lon="-8.824101365237743"><ele>13.0</ele><time>2026-04-04T19:33:16.999Z</time></trkpt><trkpt lat="41.9292175884117" lon="-8.824044576516426"><ele>14.0</ele><time>2026-04-04T19:33:17.999Z</time></trkpt><trkpt lat="41.92911998049678" lon="-8.82399906857796"><ele>15.0</ele><time>2026-04-04T19:33:18.999Z</time></trkpt><trkpt lat="41.92902969597704" lon="-8.823956951742804"><ele>16.0</ele><time>2026-04-04T19:33:19.999Z</time></trkpt><trkpt lat="41.92894000358572" lon="-8.823902525982913"><ele>17.0</ele><time>2026-04-04T19:33:20.999Z</time></trkpt><trkpt lat="41.928867425239595" lon="-8.823873967499082"><ele>18.0</ele><time>2026-04-04T19:33:21.999Z</time></trkpt><trkpt lat="41.92878671022625" lon="-8.823842847268791"><ele>18.0</ele><time>2026-04-04T19:33:22.999Z</time></trkpt><trkpt lat="41.92871196769846" lon="-8.823807383745264"><ele>18.0</ele><time>2026-04-04T19:33:23.999Z</time></trkpt><trkpt lat="41.9285980135533" lon="-8.823755130833275"><ele>18.0</ele><time>2026-04-04T19:33:25.999Z</time></trkpt><trkpt lat="41.92852582463395" lon="-8.823719659159371"><ele>18.0</ele><time>2026-04-04T19:33:26.999Z</time></trkpt><trkpt lat="41.92843881152325" lon="-8.823681673916552"><ele>18.0</ele><time>2026-04-04T19:33:27.999Z</time></trkpt><trkpt lat="41.92833450818837" lon="-8.823634756482168"><ele>17.5</ele><time>2026-04-04T19:33:28.999Z</time></trkpt><trkpt lat="41.92821644116639" lon="-8.823580482622516"><ele>17.0</ele><time>2026-04-04T19:33:29.999Z</time></trkpt><trkpt lat="41.9280942577385" lon="-8.82352103819088"><ele>16.5</ele><time>2026-04-04T19:33:30.999Z</time></trkpt><trkpt lat="41.92796613089604" lon="-8.823456457056729"><ele>16.0</ele><time>2026-04-04T19:33:31.999Z</time></trkpt><trkpt lat="41.92782642531058" lon="-8.823408098278627"><ele>16.0</ele><time>2026-04-04T19:33:32.999Z</time></trkpt><trkpt lat="41.92769150929863" lon="-8.823310647150524"><ele>16.0</ele><time>2026-04-04T19:33:33.999Z</time></trkpt><trkpt lat="41.927558469796544" lon="-8.823211677626958"><ele>16.0</ele><time>2026-04-04T19:33:34.999Z</time></trkpt><trkpt lat="41.9274315846228" lon="-8.823086823439303"><ele>17.333333333333332</ele><time>2026-04-04T19:33:35.999Z</time></trkpt><trkpt lat="41.927303288098315" lon="-8.822967594066448"><ele>18.666666666666668</ele><time>2026-04-04T19:33:36.999Z</time></trkpt><trkpt lat="41.92719709158387" lon="-8.82280796756815"><ele>20.0</ele><time>2026-04-04T19:33:37.999Z</time></trkpt><trkpt lat="41.92709211236854" lon="-8.822645166822086"><ele>20.0</ele><time>2026-04-04T19:33:38.999Z</time></trkpt><trkpt lat="41.92699517888374" lon="-8.822465685284213"><ele>20.0</ele><time>2026-04-04T19:33:39.999Z</time></trkpt><trkpt lat="41.92690893052114" lon="-8.822271763806002"><ele>20.0</ele><time>2026-04-04T19:33:40.999Z</time></trkpt><trkpt lat="41.926834771864634" lon="-8.822064126590046"><ele>20.0</ele><time>2026-04-04T19:33:41.999Z</time></trkpt><trkpt lat="41.92677483675613" lon="-8.821850367703167"><ele>20.0</ele><time>2026-04-04T19:33:42.999Z</time></trkpt><trkpt lat="41.92671565484031" lon="-8.821628357962"><ele>20.0</ele><time>2026-04-04T19:33:43.999Z</time></trkpt><trkpt lat="41.92666716140759" lon="-8.821407408201674"><ele>19.666666666666668</ele><time>2026-04-04T19:33:44.999Z</time></trkpt><trkpt lat="41.92659281732205" lon="-8.82120047833487"><ele>19.333333333333332</ele><time>2026-04-04T19:33:45.999Z</time></trkpt><trkpt lat="41.9265390584298" lon="-8.82097628171711"><ele>19.0</ele><time>2026-04-04T19:33:46.999Z</time></trkpt><trkpt lat="41.926446012477946" lon="-8.820772666989617"><ele>19.666666666666664</ele><time>2026-04-04T19:33:47.999Z</time></trkpt><trkpt lat="41.9263412678879" lon="-8.820597482763073"><ele>20.333333333333332</ele><time>2026-04-04T19:33:48.999Z</time></trkpt><trkpt lat="41.92622342177589" lon="-8.820418737005133"><ele>21.0</ele><time>2026-04-04T19:33:49.999Z</time></trkpt><trkpt lat="41.92609364243586" lon="-8.820258722081075"><ele>22.333333333333336</ele><time>2026-04-04T19:33:50.999Z</time></trkpt><trkpt lat="41.925956404889654" lon="-8.820120351241119"><ele>23.666666666666668</ele><time>2026-04-04T19:33:51.999Z</time></trkpt><trkpt lat="41.92579997005842" lon="-8.820014820665188"><ele>25.0</ele><time>2026-04-04T19:33:52.999Z</time></trkpt><trkpt lat="41.92564801945791" lon="-8.81991391340926"><ele>26.0</ele><time>2026-04-04T19:33:54Z</time></trkpt><trkpt lat="41.925491682331625" lon="-8.819835819954701"><ele>27.0</ele><time>2026-04-04T19:33:55Z</time></trkpt><trkpt lat="41.9253406895691" lon="-8.819764162104795"><ele>28.0</ele><time>2026-04-04T19:33:56Z</time></trkpt><trkpt lat="41.925183334877055" lon="-8.819728217122323"><ele>29.75</ele><time>2026-04-04T19:33:57Z</time></trkpt><trkpt lat="41.92504185290793" lon="-8.819707380546825"><ele>31.5</ele><time>2026-04-04T19:33:58Z</time></trkpt><trkpt lat="41.92491456689514" lon="-8.81970012781146"><ele>33.25</ele><time>2026-04-04T19:33:59Z</time></trkpt><trkpt lat="41.924784408652314" lon="-8.819704535046831"><ele>35.0</ele><time>2026-04-04T19:34:00Z</time></trkpt><trkpt lat="41.92466422026877" lon="-8.81970901154376"><ele>35.0</ele><time>2026-04-04T19:34:01Z</time></trkpt><trkpt lat="41.92454868511489" lon="-8.81972122233738"><ele>35.0</ele><time>2026-04-04T19:34:02Z</time></trkpt><trkpt lat="41.9244457196932" lon="-8.819737413943603"><ele>35.0</ele><time>2026-04-04T19:34:03Z</time></trkpt><trkpt lat="41.92436598281022" lon="-8.819766401532194"><ele>35.0</ele><time>2026-04-04T19:34:04Z</time></trkpt><trkpt lat="41.92429538455837" lon="-8.819796028358061"><ele>35.0</ele><time>2026-04-04T19:34:05Z</time></trkpt><trkpt lat="41.924186146345534" lon="-8.819852251330342"><ele>36.5</ele><time>2026-04-04T19:34:07Z</time></trkpt><trkpt lat="41.92413287542345" lon="-8.819911270001642"><ele>38.0</ele><time>2026-04-04T19:34:08Z</time></trkpt><trkpt lat="41.924071296515436" lon="-8.819981067986923"><ele>39.5</ele><time>2026-04-04T19:34:09Z</time></trkpt><trkpt lat="41.92400137134168" lon="-8.820026233448646"><ele>41.0</ele><time>2026-04-04T19:34:10Z</time></trkpt><trkpt lat="41.923921632813794" lon="-8.82004055673432"><ele>42.5</ele><time>2026-04-04T19:34:11Z</time></trkpt><trkpt lat="41.9238439472012" lon="-8.82001786688668"><ele>44.0</ele><time>2026-04-04T19:34:12Z</time></trkpt><trkpt lat="41.92377355496639" lon="-8.819955717437168"><ele>44.0</ele><time>2026-04-04T19:34:13Z</time></trkpt><trkpt lat="41.92372171341814" lon="-8.819871733161085"><ele>44.0</ele><time>2026-04-04T19:34:14Z</time></trkpt><trkpt lat="41.92369305164136" lon="-8.819777040077932"><ele>44.0</ele><time>2026-04-04T19:34:15Z</time></trkpt><trkpt lat="41.923686661032974" lon="-8.819670230672951"><ele>44.0</ele><time>2026-04-04T19:34:16Z</time></trkpt><trkpt lat="41.923706866476316" lon="-8.819555022509457"><ele>44.0</ele><time>2026-04-04T19:34:17Z</time></trkpt><trkpt lat="41.923752582761956" lon="-8.819436317339356"><ele>44.0</ele><time>2026-04-04T19:34:18Z</time></trkpt><trkpt lat="41.92380992594484" lon="-8.819296504759766"><ele>45.5</ele><time>2026-04-04T19:34:19Z</time></trkpt><trkpt lat="41.92385294085343" lon="-8.81913176987154"><ele>47.0</ele><time>2026-04-04T19:34:20Z</time></trkpt><trkpt lat="41.9238730690083" lon="-8.818954551781093"><ele>48.5</ele><time>2026-04-04T19:34:21Z</time></trkpt><trkpt lat="41.923880891425334" lon="-8.818761310934738"><ele>50.0</ele><time>2026-04-04T19:34:22Z</time></trkpt><trkpt lat="41.92388054268168" lon="-8.818550276598348"><ele>53.75</ele><time>2026-04-04T19:34:23Z</time></trkpt><trkpt lat="41.9238702265971" lon="-8.818334624449589"><ele>57.5</ele><time>2026-04-04T19:34:24Z</time></trkpt><trkpt lat="41.92387015579376" lon="-8.818154690221592"><ele>61.25</ele><time>2026-04-04T19:34:25Z</time></trkpt><trkpt lat="41.923851157911805" lon="-8.817951797363056"><ele>65.0</ele><time>2026-04-04T19:34:26Z</time></trkpt><trkpt lat="41.92383590608982" lon="-8.81773824912794"><ele>69.33333333333334</ele><time>2026-04-04T19:34:27Z</time></trkpt><trkpt lat="41.9238252517947" lon="-8.817516995103192"><ele>73.66666666666667</ele><time>2026-04-04T19:34:28Z</time></trkpt><trkpt lat="41.92381639007935" lon="-8.817290966011488"><ele>78.0</ele><time>2026-04-04T19:34:29Z</time></trkpt><trkpt lat="41.92380931259984" lon="-8.817062342840902"><ele>78.0</ele><time>2026-04-04T19:34:30Z</time></trkpt><trkpt lat="41.92380378588521" lon="-8.816829322838661"><ele>78.0</ele><time>2026-04-04T19:34:31Z</time></trkpt><trkpt lat="41.92380581318578" lon="-8.816586327741907"><ele>78.0</ele><time>2026-04-04T19:34:32Z</time></trkpt><trkpt lat="41.9238145598074" lon="-8.816328856899618"><ele>80.66666666666667</ele><time>2026-04-04T19:34:33Z</time></trkpt><trkpt lat="41.92383383709216" lon="-8.816095421652705"><ele>83.33333333333334</ele><time>2026-04-04T19:34:34Z</time></trkpt><trkpt lat="41.923869334308996" lon="-8.815857643236606"><ele>86.0</ele><time>2026-04-04T19:34:35Z</time></trkpt><trkpt lat="41.92389334826965" lon="-8.815614980221882"><ele>88.0</ele><time>2026-04-04T19:34:36Z</time></trkpt><trkpt lat="41.923931471338065" lon="-8.81537315006847"><ele>90.0</ele><time>2026-04-04T19:34:37Z</time></trkpt><trkpt lat="41.92396748182336" lon="-8.815134503974361"><ele>92.0</ele><time>2026-04-04T19:34:38Z</time></trkpt><trkpt lat="41.924011814299156" lon="-8.814894611036824"><ele>92.66666666666667</ele><time>2026-04-04T19:34:39Z</time></trkpt><trkpt lat="41.9240612816653" lon="-8.814652649938495"><ele>93.33333333333333</ele><time>2026-04-04T19:34:40Z</time></trkpt><trkpt lat="41.92412665048015" lon="-8.814413173991337"><ele>94.0</ele><time>2026-04-04T19:34:41Z</time></trkpt><trkpt lat="41.92418675280401" lon="-8.814173245870432"><ele>94.0</ele><time>2026-04-04T19:34:42Z</time></trkpt><trkpt lat="41.92425619189985" lon="-8.813934932328532"><ele>94.0</ele><time>2026-04-04T19:34:43Z</time></trkpt><trkpt lat="41.92431483464557" lon="-8.813685680441173"><ele>94.0</ele><time>2026-04-04T19:34:44Z</time></trkpt><trkpt lat="41.924396180970426" lon="-8.813445853809785"><ele>89.66666666666666</ele><time>2026-04-04T19:34:45Z</time></trkpt><trkpt lat="41.92448491037281" lon="-8.813209210913008"><ele>85.33333333333333</ele><time>2026-04-04T19:34:46Z</time></trkpt><trkpt lat="41.92457812346451" lon="-8.812978139405066"><ele>81.0</ele><time>2026-04-04T19:34:47Z</time></trkpt><trkpt lat="41.92467693410907" lon="-8.812755243532244"><ele>76.0</ele><time>2026-04-04T19:34:48Z</time></trkpt><trkpt lat="41.92478087936198" lon="-8.812539014771952"><ele>71.0</ele><time>2026-04-04T19:34:49Z</time></trkpt><trkpt lat="41.924892568922026" lon="-8.812323483850859"><ele>66.0</ele><time>2026-04-04T19:34:50Z</time></trkpt><trkpt lat="41.92500991484256" lon="-8.812109525693504"><ele>69.33333333333333</ele><time>2026-04-04T19:34:51Z</time></trkpt><trkpt lat="41.92513300521453" lon="-8.811900059386994"><ele>72.66666666666666</ele><time>2026-04-04T19:34:52Z</time></trkpt><trkpt lat="41.925264833235985" lon="-8.811691016787222"><ele>76.0</ele><time>2026-04-04T19:34:53Z</time></trkpt><trkpt lat="41.92540080520302" lon="-8.81149079107523"><ele>76.0</ele><time>2026-04-04T19:34:54Z</time></trkpt><trkpt lat="41.92554442090891" lon="-8.81129595179444"><ele>76.0</ele><time>2026-04-04T19:34:55Z</time></trkpt><trkpt lat="41.92569970411162" lon="-8.811128464571624"><ele>76.0</ele><time>2026-04-04T19:34:56Z</time></trkpt><trkpt lat="41.92585032130114" lon="-8.810948762685786"><ele>77.0</ele><time>2026-04-04T19:34:57Z</time></trkpt><trkpt lat="41.92599313430036" lon="-8.81075644706111"><ele>78.0</ele><time>2026-04-04T19:34:58Z</time></trkpt><trkpt lat="41.92615577137684" lon="-8.810590388835886"><ele>79.0</ele><time>2026-04-04T19:34:59Z</time></trkpt><trkpt lat="41.926327003876544" lon="-8.810429322637761"><ele>79.0</ele><time>2026-04-04T19:35:00Z</time></trkpt><trkpt lat="41.926495927499545" lon="-8.810278363483201"><ele>79.0</ele><time>2026-04-04T19:35:01Z</time></trkpt><trkpt lat="41.926670023750056" lon="-8.810134251456963"><ele>79.0</ele><time>2026-04-04T19:35:02Z</time></trkpt><trkpt lat="41.92684532244177" lon="-8.810000395584122"><ele>80.66666666666666</ele><time>2026-04-04T19:35:03Z</time></trkpt><trkpt lat="41.927024440282615" lon="-8.8098722522299"><ele>82.33333333333333</ele><time>2026-04-04T19:35:04Z</time></trkpt><trkpt lat="41.92721415174213" lon="-8.809772789463254"><ele>84.0</ele><time>2026-04-04T19:35:05Z</time></trkpt><trkpt lat="41.927401188096304" lon="-8.809649303621743"><ele>84.66666666666667</ele><time>2026-04-04T19:35:06Z</time></trkpt><trkpt lat="41.927590707480334" lon="-8.809543772089345"><ele>85.33333333333334</ele><time>2026-04-04T19:35:07Z</time></trkpt><trkpt lat="41.927784154975434" lon="-8.80943942267307"><ele>86.0</ele><time>2026-04-04T19:35:08Z</time></trkpt><trkpt lat="41.92796928203471" lon="-8.809311073891985"><ele>86.0</ele><time>2026-04-04T19:35:09Z</time></trkpt><trkpt lat="41.928161030250095" lon="-8.809199417495273"><ele>86.0</ele><time>2026-04-04T19:35:10Z</time></trkpt><trkpt lat="41.92835826660766" lon="-8.809098325439775"><ele>86.0</ele><time>2026-04-04T19:35:11Z</time></trkpt><trkpt lat="41.92854693626989" lon="-8.808970918805384"><ele>89.66666666666667</ele><time>2026-04-04T19:35:12Z</time></trkpt><trkpt lat="41.92873334330719" lon="-8.808837454659102"><ele>93.33333333333334</ele><time>2026-04-04T19:35:13Z</time></trkpt><trkpt lat="41.92891320114277" lon="-8.808691049567688"><ele>97.0</ele><time>2026-04-04T19:35:14Z</time></trkpt><trkpt lat="41.929095524474626" lon="-8.808541837597586"><ele>99.33333333333334</ele><time>2026-04-04T19:35:15Z</time></trkpt><trkpt lat="41.929273230787544" lon="-8.808379213851802"><ele>101.66666666666666</ele><time>2026-04-04T19:35:16Z</time></trkpt><trkpt lat="41.92944692103939" lon="-8.808204450516852"><ele>104.0</ele><time>2026-04-04T19:35:17Z</time></trkpt><trkpt lat="41.929617420585394" lon="-8.808023785173816"><ele>104.0</ele><time>2026-04-04T19:35:18Z</time></trkpt><trkpt lat="41.929784012849616" lon="-8.807835058538894"><ele>104.0</ele><time>2026-04-04T19:35:19Z</time></trkpt><trkpt lat="41.929946001114104" lon="-8.80763518602408"><ele>104.0</ele><time>2026-04-04T19:35:20Z</time></trkpt><trkpt lat="41.93009955777117" lon="-8.80742849028937"><ele>103.33333333333333</ele><time>2026-04-04T19:35:21Z</time></trkpt><trkpt lat="41.93024767185559" lon="-8.807211510719272"><ele>102.66666666666666</ele><time>2026-04-04T19:35:22Z</time></trkpt><trkpt lat="41.9303900799563" lon="-8.806981758270245"><ele>102.0</ele><time>2026-04-04T19:35:23Z</time></trkpt><trkpt lat="41.93053255244653" lon="-8.806751508429615"><ele>99.66666666666667</ele><time>2026-04-04T19:35:24Z</time></trkpt><trkpt lat="41.930664682745274" lon="-8.806518805625801"><ele>97.33333333333334</ele><time>2026-04-04T19:35:25Z</time></trkpt><trkpt lat="41.93079299981075" lon="-8.806273009948976"><ele>95.0</ele><time>2026-04-04T19:35:26Z</time></trkpt><trkpt lat="41.930913754665276" lon="-8.806021199037561"><ele>101.0</ele><time>2026-04-04T19:35:27Z</time></trkpt><trkpt lat="41.931025630917794" lon="-8.805758500263966"><ele>107.0</ele><time>2026-04-04T19:35:28Z</time></trkpt><trkpt lat="41.931127845364315" lon="-8.805493446418899"><ele>113.0</ele><time>2026-04-04T19:35:29Z</time></trkpt><trkpt lat="41.93122659505164" lon="-8.805219000890663"><ele>109.0</ele><time>2026-04-04T19:35:30Z</time></trkpt><trkpt lat="41.93132012254029" lon="-8.804943120639344"><ele>105.0</ele><time>2026-04-04T19:35:31Z</time></trkpt><trkpt lat="41.93140511006507" lon="-8.804661088798992"><ele>105.0</ele><time>2026-04-04T19:35:32Z</time></trkpt><trkpt lat="41.931486007533024" lon="-8.80437576970781"><ele>105.0</ele><time>2026-04-04T19:35:33Z</time></trkpt><trkpt lat="41.93156330242155" lon="-8.804086530148025"><ele>101.0</ele><time>2026-04-04T19:35:34Z</time></trkpt><trkpt lat="41.931641162190196" lon="-8.803797631097785"><ele>97.0</ele><time>2026-04-04T19:35:35Z</time></trkpt><trkpt lat="41.931721559911004" lon="-8.803506481273649"><ele>106.5</ele><time>2026-04-04T19:35:36Z</time></trkpt><trkpt lat="41.931804371745635" lon="-8.803219470815872"><ele>116.0</ele><time>2026-04-04T19:35:37Z</time></trkpt><trkpt lat="41.93189418724985" lon="-8.802930139371783"><ele>113.0</ele><time>2026-04-04T19:35:38Z</time></trkpt><trkpt lat="41.93199295087342" lon="-8.802647363292998"><ele>110.0</ele><time>2026-04-04T19:35:39Z</time></trkpt><trkpt lat="41.932099321607666" lon="-8.80236779486502"><ele>110.0</ele><time>2026-04-04T19:35:40Z</time></trkpt><trkpt lat="41.93221787970133" lon="-8.802091046983373"><ele>110.0</ele><time>2026-04-04T19:35:41Z</time></trkpt><trkpt lat="41.93233528261643" lon="-8.801820378043999"><ele>112.0</ele><time>2026-04-04T19:35:42Z</time></trkpt><trkpt lat="41.93245945076209" lon="-8.801550782249784"><ele>114.0</ele><time>2026-04-04T19:35:43Z</time></trkpt><trkpt lat="41.932594135463674" lon="-8.801289663317238"><ele>114.0</ele><time>2026-04-04T19:35:44Z</time></trkpt><trkpt lat="41.93274095883894" lon="-8.801035328509165"><ele>114.0</ele><time>2026-04-04T19:35:45Z</time></trkpt><trkpt lat="41.93289668663078" lon="-8.800787792112331"><ele>110.0</ele><time>2026-04-04T19:35:46Z</time></trkpt><trkpt lat="41.93305542980685" lon="-8.800544188700169"><ele>106.0</ele><time>2026-04-04T19:35:47Z</time></trkpt><trkpt lat="41.933224885246695" lon="-8.800318274875565"><ele>108.0</ele><time>2026-04-04T19:35:48Z</time></trkpt><trkpt lat="41.93340080851831" lon="-8.800088178862376"><ele>110.0</ele><time>2026-04-04T19:35:49Z</time></trkpt><trkpt lat="41.933584273446655" lon="-8.799866731972665"><ele>110.0</ele><time>2026-04-04T19:35:50Z</time></trkpt><trkpt lat="41.93377162041002" lon="-8.799651814389756"><ele>110.0</ele><time>2026-04-04T19:35:51Z</time></trkpt><trkpt lat="41.933966085039174" lon="-8.799452742505565"><ele>107.0</ele><time>2026-04-04T19:35:52Z</time></trkpt><trkpt lat="41.93416562304799" lon="-8.799255503728245"><ele>104.0</ele><time>2026-04-04T19:35:53Z</time></trkpt><trkpt lat="41.93437114039822" lon="-8.799072633461314"><ele>102.5</ele><time>2026-04-04T19:35:54Z</time></trkpt><trkpt lat="41.93458635982884" lon="-8.798904967899572"><ele>101.0</ele><time>2026-04-04T19:35:55Z</time></trkpt><trkpt lat="41.93480681643928" lon="-8.798747780641172"><ele>101.0</ele><time>2026-04-04T19:35:56Z</time></trkpt><trkpt lat="41.93503392644996" lon="-8.79860016930617"><ele>101.0</ele><time>2026-04-04T19:35:57Z</time></trkpt><trkpt lat="41.93526578914214" lon="-8.7984635175317"><ele>95.0</ele><time>2026-04-04T19:35:58Z</time></trkpt><trkpt lat="41.93550194433921" lon="-8.798340034083068"><ele>89.0</ele><time>2026-04-04T19:35:59Z</time></trkpt><trkpt lat="41.935742735136245" lon="-8.798228959997493"><ele>86.0</ele><time>2026-04-04T19:36:00.001Z</time></trkpt><trkpt lat="41.935986903672635" lon="-8.798123253350436"><ele>83.0</ele><time>2026-04-04T19:36:01.001Z</time></trkpt><trkpt lat="41.93623141609819" lon="-8.798023343218839"><ele>83.0</ele><time>2026-04-04T19:36:02.001Z</time></trkpt><trkpt lat="41.93647774839201" lon="-8.797923834849483"><ele>83.0</ele><time>2026-04-04T19:36:03.001Z</time></trkpt><trkpt lat="41.936723610165146" lon="-8.797828167843088"><ele>80.0</ele><time>2026-04-04T19:36:04.001Z</time></trkpt><trkpt lat="41.93697150212436" lon="-8.797722111177219"><ele>77.0</ele><time>2026-04-04T19:36:05.001Z</time></trkpt><trkpt lat="41.93721703165389" lon="-8.797616600297996"><ele>74.0</ele><time>2026-04-04T19:36:06.001Z</time></trkpt><trkpt lat="41.937457192846914" lon="-8.797512987094919"><ele>71.0</ele><time>2026-04-04T19:36:07.001Z</time></trkpt><trkpt lat="41.93769959402649" lon="-8.797408696906714"><ele>71.0</ele><time>2026-04-04T19:36:08.001Z</time></trkpt><trkpt lat="41.937940432374056" lon="-8.797309841266532"><ele>71.0</ele><time>2026-04-04T19:36:09.001Z</time></trkpt><trkpt lat="41.93817857217095" lon="-8.797211221320001"><ele>77.5</ele><time>2026-04-04T19:36:10.001Z</time></trkpt><trkpt lat="41.93841913186435" lon="-8.797109089869661"><ele>84.0</ele><time>2026-04-04T19:36:11.001Z</time></trkpt><trkpt lat="41.938652602506565" lon="-8.797011585140812"><ele>84.0</ele><time>2026-04-04T19:36:12.001Z</time></trkpt><trkpt lat="41.93888871799825" lon="-8.796914625098257"><ele>84.0</ele><time>2026-04-04T19:36:13.001Z</time></trkpt><trkpt lat="41.93911894624261" lon="-8.796818547242598"><ele>83.0</ele><time>2026-04-04T19:36:14.001Z</time></trkpt><trkpt lat="41.93934838998649" lon="-8.79672278463517"><ele>82.0</ele><time>2026-04-04T19:36:15.001Z</time></trkpt><trkpt lat="41.93957785858722" lon="-8.796628075901777"><ele>82.0</ele><time>2026-04-04T19:36:16.001Z</time></trkpt><trkpt lat="41.9398105350943" lon="-8.796532775865515"><ele>82.0</ele><time>2026-04-04T19:36:17.001Z</time></trkpt><trkpt lat="41.94004139040003" lon="-8.796437829265797"><ele>84.5</ele><time>2026-04-04T19:36:18.001Z</time></trkpt><trkpt lat="41.94026463681564" lon="-8.796342609229447"><ele>87.0</ele><time>2026-04-04T19:36:19.001Z</time></trkpt><trkpt lat="41.94047905904852" lon="-8.79625347683403"><ele>87.0</ele><time>2026-04-04T19:36:20Z</time></trkpt><trkpt lat="41.9406970139487" lon="-8.796158174856746"><ele>87.0</ele><time>2026-04-04T19:36:21Z</time></trkpt><trkpt lat="41.94091483889305" lon="-8.796063593424421"><ele>84.0</ele><time>2026-04-04T19:36:22Z</time></trkpt><trkpt lat="41.94113712430641" lon="-8.7959728436758"><ele>81.0</ele><time>2026-04-04T19:36:23Z</time></trkpt><trkpt lat="41.94135796007581" lon="-8.795890747361486"><ele>81.0</ele><time>2026-04-04T19:36:24Z</time></trkpt><trkpt lat="41.941582361937336" lon="-8.795813617975575"><ele>81.0</ele><time>2026-04-04T19:36:25Z</time></trkpt><trkpt lat="41.94180775547625" lon="-8.795741687628816"><ele>82.0</ele><time>2026-04-04T19:36:26Z</time></trkpt><trkpt lat="41.94203615723628" lon="-8.795681479314416"><ele>83.0</ele><time>2026-04-04T19:36:27Z</time></trkpt><trkpt lat="41.942266248885055" lon="-8.795636172884041"><ele>83.0</ele><time>2026-04-04T19:36:28Z</time></trkpt><trkpt lat="41.94249948800746" lon="-8.795598502877368"><ele>83.0</ele><time>2026-04-04T19:36:29Z</time></trkpt><trkpt lat="41.94273413474456" lon="-8.795573593193302"><ele>84.5</ele><time>2026-04-04T19:36:30Z</time></trkpt><trkpt lat="41.94297168331467" lon="-8.795561451587512"><ele>86.0</ele><time>2026-04-04T19:36:31Z</time></trkpt><trkpt lat="41.94321377439583" lon="-8.795557828504585"><ele>83.5</ele><time>2026-04-04T19:36:32Z</time></trkpt><trkpt lat="41.943451617748764" lon="-8.795545260868959"><ele>81.0</ele><time>2026-04-04T19:36:33Z</time></trkpt><trkpt lat="41.94368807850842" lon="-8.79558052668613"><ele>81.0</ele><time>2026-04-04T19:36:34Z</time></trkpt><trkpt lat="41.94392825359538" lon="-8.79560960559532"><ele>81.0</ele><time>2026-04-04T19:36:35Z</time></trkpt><trkpt lat="41.94416779062242" lon="-8.795649033051438"><ele>78.0</ele><time>2026-04-04T19:36:36Z</time></trkpt><trkpt lat="41.94440765737392" lon="-8.795699148859415"><ele>75.0</ele><time>2026-04-04T19:36:37Z</time></trkpt><trkpt lat="41.94464557363699" lon="-8.795763767518983"><ele>75.0</ele><time>2026-04-04T19:36:38Z</time></trkpt><trkpt lat="41.944883183295886" lon="-8.795835729021316"><ele>75.0</ele><time>2026-04-04T19:36:39Z</time></trkpt><trkpt lat="41.94510998224812" lon="-8.795920222876063"><ele>74.66666666666667</ele><time>2026-04-04T19:36:40Z</time></trkpt><trkpt lat="41.94533011287084" lon="-8.796001739920571"><ele>74.33333333333334</ele><time>2026-04-04T19:36:41Z</time></trkpt><trkpt lat="41.94553856183244" lon="-8.796075121916559"><ele>74.0</ele><time>2026-04-04T19:36:42Z</time></trkpt><trkpt lat="41.945746434289745" lon="-8.796153893218985"><ele>72.33333333333334</ele><time>2026-04-04T19:36:43Z</time></trkpt><trkpt lat="41.945946685989746" lon="-8.79623197653783"><ele>70.66666666666667</ele><time>2026-04-04T19:36:44Z</time></trkpt><trkpt lat="41.94615024447421" lon="-8.796305523050307"><ele>69.0</ele><time>2026-04-04T19:36:45Z</time></trkpt><trkpt lat="41.94635082640586" lon="-8.796370892565273"><ele>69.0</ele><time>2026-04-04T19:36:46Z</time></trkpt><trkpt lat="41.94655366829546" lon="-8.796422849582237"><ele>69.0</ele><time>2026-04-04T19:36:47Z</time></trkpt><trkpt lat="41.94675170408035" lon="-8.796468742089885"><ele>69.0</ele><time>2026-04-04T19:36:48Z</time></trkpt><trkpt lat="41.946948774268066" lon="-8.796506528703329"><ele>69.0</ele><time>2026-04-04T19:36:49Z</time></trkpt><trkpt lat="41.94714662398667" lon="-8.796535689143374"><ele>69.0</ele><time>2026-04-04T19:36:50Z</time></trkpt><trkpt lat="41.94734305809123" lon="-8.796556676649926"><ele>69.0</ele><time>2026-04-04T19:36:51Z</time></trkpt><trkpt lat="41.947546182507985" lon="-8.796571942108987"><ele>67.66666666666667</ele><time>2026-04-04T19:36:52Z</time></trkpt><trkpt lat="41.94774735013515" lon="-8.796576688296158"><ele>66.33333333333334</ele><time>2026-04-04T19:36:53Z</time></trkpt><trkpt lat="41.94795725355264" lon="-8.796570808997764"><ele>65.0</ele><time>2026-04-04T19:36:54Z</time></trkpt><trkpt lat="41.94817002757212" lon="-8.796553965665101"><ele>65.33333333333334</ele><time>2026-04-04T19:36:55Z</time></trkpt><trkpt lat="41.948384242952365" lon="-8.796524098222338"><ele>65.66666666666667</ele><time>2026-04-04T19:36:56Z</time></trkpt><trkpt lat="41.94860240221377" lon="-8.796483316697492"><ele>66.0</ele><time>2026-04-04T19:36:57Z</time></trkpt><trkpt lat="41.948821772102086" lon="-8.796434902320874"><ele>66.0</ele><time>2026-04-04T19:36:58Z</time></trkpt><trkpt lat="41.94904365844977" lon="-8.796372627711015"><ele>66.0</ele><time>2026-04-04T19:36:59Z</time></trkpt><trkpt lat="41.949267283693814" lon="-8.796299357989101"><ele>67.0</ele><time>2026-04-04T19:37:00Z</time></trkpt><trkpt lat="41.949489533343" lon="-8.796214020706069"><ele>68.0</ele><time>2026-04-04T19:37:01Z</time></trkpt><trkpt lat="41.94971043414021" lon="-8.79611438568633"><ele>68.0</ele><time>2026-04-04T19:37:02Z</time></trkpt><trkpt lat="41.949931085489375" lon="-8.795999938698488"><ele>68.0</ele><time>2026-04-04T19:37:03Z</time></trkpt><trkpt lat="41.95014790634574" lon="-8.79587537295783"><ele>72.5</ele><time>2026-04-04T19:37:04Z</time></trkpt><trkpt lat="41.95036125146867" lon="-8.795740246224522"><ele>77.0</ele><time>2026-04-04T19:37:05Z</time></trkpt><trkpt lat="41.95057282896707" lon="-8.795589191972839"><ele>77.0</ele><time>2026-04-04T19:37:06Z</time></trkpt><trkpt lat="41.95078302451245" lon="-8.795424590714449"><ele>77.0</ele><time>2026-04-04T19:37:07Z</time></trkpt><trkpt lat="41.95098424676466" lon="-8.795249272462712"><ele>77.0</ele><time>2026-04-04T19:37:08Z</time></trkpt><trkpt lat="41.9511816129396" lon="-8.795063737857182"><ele>77.0</ele><time>2026-04-04T19:37:09Z</time></trkpt><trkpt lat="41.95137059077838" lon="-8.794877943798232"><ele>77.0</ele><time>2026-04-04T19:37:10Z</time></trkpt><trkpt lat="41.95155305243394" lon="-8.794683793692904"><ele>77.0</ele><time>2026-04-04T19:37:11Z</time></trkpt><trkpt lat="41.95173152620273" lon="-8.794478082138895"><ele>74.5</ele><time>2026-04-04T19:37:12Z</time></trkpt><trkpt lat="41.951904507806255" lon="-8.794261809769328"><ele>72.0</ele><time>2026-04-04T19:37:13Z</time></trkpt><trkpt lat="41.952072532621685" lon="-8.794035505361771"><ele>72.0</ele><time>2026-04-04T19:37:14Z</time></trkpt><trkpt lat="41.9522367362021" lon="-8.793799450067084"><ele>72.0</ele><time>2026-04-04T19:37:15Z</time></trkpt><trkpt lat="41.95238850140585" lon="-8.793552775539188"><ele>70.0</ele><time>2026-04-04T19:37:16Z</time></trkpt><trkpt lat="41.952534842664384" lon="-8.793289905548647"><ele>68.0</ele><time>2026-04-04T19:37:17Z</time></trkpt><trkpt lat="41.952668156064426" lon="-8.793018614520431"><ele>68.0</ele><time>2026-04-04T19:37:18Z</time></trkpt><trkpt lat="41.9527995987827" lon="-8.792739899418065"><ele>68.0</ele><time>2026-04-04T19:37:19Z</time></trkpt><trkpt lat="41.952918726505004" lon="-8.792464219313135"><ele>67.5</ele><time>2026-04-04T19:37:20Z</time></trkpt><trkpt lat="41.95302999637219" lon="-8.792184442144675"><ele>67.0</ele><time>2026-04-04T19:37:21Z</time></trkpt><trkpt lat="41.95313004402737" lon="-8.791900049784735"><ele>65.0</ele><time>2026-04-04T19:37:22Z</time></trkpt><trkpt lat="41.95322862447062" lon="-8.791606783445907"><ele>63.0</ele><time>2026-04-04T19:37:23Z</time></trkpt><trkpt lat="41.953320060837285" lon="-8.791307608657412"><ele>60.5</ele><time>2026-04-04T19:37:24Z</time></trkpt><trkpt lat="41.95340147593597" lon="-8.791003328004395"><ele>58.0</ele><time>2026-04-04T19:37:25Z</time></trkpt><trkpt lat="41.953470375498796" lon="-8.790695998002635"><ele>58.0</ele><time>2026-04-04T19:37:26Z</time></trkpt><trkpt lat="41.95353105518818" lon="-8.790377263076596"><ele>58.0</ele><time>2026-04-04T19:37:27Z</time></trkpt><trkpt lat="41.95358128358859" lon="-8.790057744190278"><ele>56.0</ele><time>2026-04-04T19:37:28Z</time></trkpt><trkpt lat="41.95362533074763" lon="-8.78973807400401"><ele>54.0</ele><time>2026-04-04T19:37:29Z</time></trkpt><trkpt lat="41.95365626560819" lon="-8.789414085513137"><ele>55.0</ele><time>2026-04-04T19:37:30Z</time></trkpt><trkpt lat="41.953674174770434" lon="-8.789086206005639"><ele>56.0</ele><time>2026-04-04T19:37:31Z</time></trkpt><trkpt lat="41.95368202593145" lon="-8.788751901551509"><ele>52.5</ele><time>2026-04-04T19:37:32Z</time></trkpt><trkpt lat="41.953684282036335" lon="-8.788422697159183"><ele>49.0</ele><time>2026-04-04T19:37:33Z</time></trkpt><trkpt lat="41.95367417502575" lon="-8.78809340184615"><ele>49.0</ele><time>2026-04-04T19:37:34Z</time></trkpt><trkpt lat="41.95365785771521" lon="-8.787761214958087"><ele>49.0</ele><time>2026-04-04T19:37:35Z</time></trkpt><trkpt lat="41.95362722194861" lon="-8.78743449700184"><ele>44.5</ele><time>2026-04-04T19:37:36Z</time></trkpt><trkpt lat="41.95359212129273" lon="-8.787105563584939"><ele>40.0</ele><time>2026-04-04T19:37:37Z</time></trkpt><trkpt lat="41.953551538132125" lon="-8.78677123732496"><ele>39.5</ele><time>2026-04-04T19:37:38Z</time></trkpt><trkpt lat="41.95351329127394" lon="-8.786437996158659"><ele>39.0</ele><time>2026-04-04T19:37:39Z</time></trkpt><trkpt lat="41.95347390833124" lon="-8.78610565629698"><ele>39.0</ele><time>2026-04-04T19:37:40Z</time></trkpt><trkpt lat="41.95343500237382" lon="-8.785772117633048"><ele>39.0</ele><time>2026-04-04T19:37:41Z</time></trkpt><trkpt lat="41.95339384287096" lon="-8.785440027436929"><ele>38.0</ele><time>2026-04-04T19:37:42Z</time></trkpt><trkpt lat="41.953356466133165" lon="-8.785107976866044"><ele>37.0</ele><time>2026-04-04T19:37:43Z</time></trkpt><trkpt lat="41.95331861885281" lon="-8.784772761482294"><ele>37.0</ele><time>2026-04-04T19:37:44Z</time></trkpt><trkpt lat="41.953281964246436" lon="-8.784441048018348"><ele>37.0</ele><time>2026-04-04T19:37:45Z</time></trkpt><trkpt lat="41.95324190737066" lon="-8.784111638444978"><ele>36.5</ele><time>2026-04-04T19:37:46Z</time></trkpt><trkpt lat="41.95319931036634" lon="-8.783782684263315"><ele>36.0</ele><time>2026-04-04T19:37:47Z</time></trkpt><trkpt lat="41.95315651742112" lon="-8.783450395495246"><ele>34.5</ele><time>2026-04-04T19:37:48Z</time></trkpt><trkpt lat="41.95311448946362" lon="-8.783120725125272"><ele>33.0</ele><time>2026-04-04T19:37:49Z</time></trkpt><trkpt lat="41.953072230911424" lon="-8.782784283224215"><ele>30.5</ele><time>2026-04-04T19:37:50Z</time></trkpt><trkpt lat="41.953031195581126" lon="-8.782452062478393"><ele>28.0</ele><time>2026-04-04T19:37:51Z</time></trkpt><trkpt lat="41.9529915511635" lon="-8.782119309421278"><ele>27.0</ele><time>2026-04-04T19:37:52Z</time></trkpt><trkpt lat="41.95295536374473" lon="-8.781785987122326"><ele>26.0</ele><time>2026-04-04T19:37:53Z</time></trkpt><trkpt lat="41.95291614436393" lon="-8.78145127307295"><ele>26.0</ele><time>2026-04-04T19:37:54Z</time></trkpt><trkpt lat="41.95287549764764" lon="-8.781117440905389"><ele>26.0</ele><time>2026-04-04T19:37:55Z</time></trkpt><trkpt lat="41.95283367244523" lon="-8.780779461708903"><ele>25.5</ele><time>2026-04-04T19:37:56Z</time></trkpt><trkpt lat="41.9527942058424" lon="-8.78044888586371"><ele>25.0</ele><time>2026-04-04T19:37:57Z</time></trkpt><trkpt lat="41.95275430137554" lon="-8.780114014467626"><ele>25.0</ele><time>2026-04-04T19:37:58Z</time></trkpt><trkpt lat="41.95271617368181" lon="-8.77978207693628"><ele>25.0</ele><time>2026-04-04T19:37:59Z</time></trkpt><trkpt lat="41.952673538453" lon="-8.7794473593478"><ele>23.5</ele><time>2026-04-04T19:38:00Z</time></trkpt><trkpt lat="41.95263257437738" lon="-8.779125523622488"><ele>22.0</ele><time>2026-04-04T19:38:01Z</time></trkpt><trkpt lat="41.952598866195956" lon="-8.778820713844988"><ele>22.0</ele><time>2026-04-04T19:38:02Z</time></trkpt><trkpt lat="41.95256554799917" lon="-8.778529800170894"><ele>22.0</ele><time>2026-04-04T19:38:03Z</time></trkpt><trkpt lat="41.95253238930679" lon="-8.77823502885362"><ele>22.0</ele><time>2026-04-04T19:38:04Z</time></trkpt><trkpt lat="41.95250719363866" lon="-8.777931067522882"><ele>23.0</ele><time>2026-04-04T19:38:05Z</time></trkpt><trkpt lat="41.95249444008669" lon="-8.77762067378924"><ele>24.0</ele><time>2026-04-04T19:38:06.001Z</time></trkpt><trkpt lat="41.9524948287069" lon="-8.777311453952391"><ele>24.0</ele><time>2026-04-04T19:38:07.001Z</time></trkpt><trkpt lat="41.95250573843686" lon="-8.77700133505109"><ele>24.0</ele><time>2026-04-04T19:38:08.001Z</time></trkpt><trkpt lat="41.952519590880975" lon="-8.77668775424745"><ele>24.0</ele><time>2026-04-04T19:38:09.001Z</time></trkpt><trkpt lat="41.95253737705744" lon="-8.776374796427106"><ele>24.0</ele><time>2026-04-04T19:38:10.001Z</time></trkpt><trkpt lat="41.95255888476018" lon="-8.776059902218703"><ele>24.0</ele><time>2026-04-04T19:38:11.001Z</time></trkpt><trkpt lat="41.95258681207722" lon="-8.775744998526877"><ele>24.0</ele><time>2026-04-04T19:38:12.001Z</time></trkpt><trkpt lat="41.952626355422616" lon="-8.775425585342004"><ele>23.5</ele><time>2026-04-04T19:38:13.001Z</time></trkpt><trkpt lat="41.95267795193923" lon="-8.775106766338498"><ele>23.0</ele><time>2026-04-04T19:38:14.001Z</time></trkpt><trkpt lat="41.95273799498014" lon="-8.774792700763417"><ele>23.0</ele><time>2026-04-04T19:38:15.001Z</time></trkpt><trkpt lat="41.95281026661085" lon="-8.774477076940018"><ele>23.0</ele><time>2026-04-04T19:38:16.001Z</time></trkpt><trkpt lat="41.95289396371231" lon="-8.774169447128793"><ele>23.0</ele><time>2026-04-04T19:38:17.001Z</time></trkpt><trkpt lat="41.9529846675576" lon="-8.773882581182692"><ele>23.0</ele><time>2026-04-04T19:38:18.001Z</time></trkpt><trkpt lat="41.953076851483154" lon="-8.77358786611479"><ele>22.333333333333336</ele><time>2026-04-04T19:38:19.001Z</time></trkpt><trkpt lat="41.95317179662883" lon="-8.773307035793241"><ele>21.666666666666668</ele><time>2026-04-04T19:38:20.001Z</time></trkpt><trkpt lat="41.95327210959602" lon="-8.773044197853098"><ele>21.0</ele><time>2026-04-04T19:38:21.001Z</time></trkpt><trkpt lat="41.95336015512133" lon="-8.772761375932914"><ele>21.0</ele><time>2026-04-04T19:38:22.001Z</time></trkpt><trkpt lat="41.95346682011445" lon="-8.77248215203378"><ele>21.0</ele><time>2026-04-04T19:38:23.001Z</time></trkpt><trkpt lat="41.95358352966682" lon="-8.772210262009859"><ele>21.0</ele><time>2026-04-04T19:38:24.001Z</time></trkpt><trkpt lat="41.95366756028273" lon="-8.771917083781764"><ele>21.0</ele><time>2026-04-04T19:38:25.001Z</time></trkpt><trkpt lat="41.95376244502545" lon="-8.771624165069428"><ele>21.0</ele><time>2026-04-04T19:38:26.001Z</time></trkpt><trkpt lat="41.95385960954051" lon="-8.771346250721336"><ele>21.0</ele><time>2026-04-04T19:38:27.001Z</time></trkpt><trkpt lat="41.953935530412906" lon="-8.771057198976834"><ele>20.0</ele><time>2026-04-04T19:38:28.001Z</time></trkpt><trkpt lat="41.954003730563066" lon="-8.770774987104863"><ele>19.0</ele><time>2026-04-04T19:38:29.001Z</time></trkpt><trkpt lat="41.954066055465454" lon="-8.77048422124969"><ele>18.0</ele><time>2026-04-04T19:38:30.001Z</time></trkpt><trkpt lat="41.95410290740672" lon="-8.770183193550913"><ele>16.666666666666668</ele><time>2026-04-04T19:38:31Z</time></trkpt><trkpt lat="41.954163047265574" lon="-8.769894938098307"><ele>15.333333333333334</ele><time>2026-04-04T19:38:32Z</time></trkpt><trkpt lat="41.9541833723661" lon="-8.769599104230775"><ele>14.0</ele><time>2026-04-04T19:38:33Z</time></trkpt><trkpt lat="41.95422911484471" lon="-8.76930058301331"><ele>14.0</ele><time>2026-04-04T19:38:34Z</time></trkpt><trkpt lat="41.954246723071506" lon="-8.769006833391117"><ele>14.0</ele><time>2026-04-04T19:38:35Z</time></trkpt><trkpt lat="41.954260233111654" lon="-8.768733110971713"><ele>14.0</ele><time>2026-04-04T19:38:36Z</time></trkpt><trkpt lat="41.95425010798562" lon="-8.768474420614238"><ele>14.666666666666668</ele><time>2026-04-04T19:38:37Z</time></trkpt><trkpt lat="41.95424888409578" lon="-8.768226948846833"><ele>15.333333333333332</ele><time>2026-04-04T19:38:38Z</time></trkpt><trkpt lat="41.95424273246972" lon="-8.767990278415315"><ele>16.0</ele><time>2026-04-04T19:38:39Z</time></trkpt><trkpt lat="41.95425307325117" lon="-8.767793373701192"><ele>15.600000000000001</ele><time>2026-04-04T19:38:40Z</time></trkpt><trkpt lat="41.954236652582104" lon="-8.76762087621062"><ele>15.200000000000001</ele><time>2026-04-04T19:38:41Z</time></trkpt><trkpt lat="41.95420933630116" lon="-8.767470810166863"><ele>14.799999999999999</ele><time>2026-04-04T19:38:42Z</time></trkpt><trkpt lat="41.95418702071192" lon="-8.767350271352793"><ele>14.399999999999999</ele><time>2026-04-04T19:38:43Z</time></trkpt><trkpt lat="41.954155806304044" lon="-8.767242161212698"><ele>14.0</ele><time>2026-04-04T19:38:44Z</time></trkpt><trkpt lat="41.95412233590572" lon="-8.76716017983635"><ele>13.333333333333334</ele><time>2026-04-04T19:38:45Z</time></trkpt><trkpt lat="41.95407844994434" lon="-8.767074765051124"><ele>12.666666666666668</ele><time>2026-04-04T19:38:48Z</time></trkpt><trkpt lat="41.9539798512525" lon="-8.766947087597883"><ele>12.0</ele><time>2026-04-04T19:38:50Z</time></trkpt><trkpt lat="41.95393496126068" lon="-8.766870782366368"><ele>11.333333333333334</ele><time>2026-04-04T19:38:51Z</time></trkpt><trkpt lat="41.953917717110436" lon="-8.76677788403251"><ele>10.666666666666668</ele><time>2026-04-04T19:38:52Z</time></trkpt><trkpt lat="41.95392742601495" lon="-8.766670392382103"><ele>10.0</ele><time>2026-04-04T19:38:53Z</time></trkpt><trkpt lat="41.953962304266966" lon="-8.766574032652581"><ele>10.0</ele><time>2026-04-04T19:38:54Z</time></trkpt><trkpt lat="41.95401839866331" lon="-8.766503890139052"><ele>10.0</ele><time>2026-04-04T19:38:55Z</time></trkpt><trkpt lat="41.95410365690638" lon="-8.766455884755088"><ele>10.0</ele><time>2026-04-04T19:38:56Z</time></trkpt><trkpt lat="41.95420231745516" lon="-8.766448516129993"><ele>10.0</ele><time>2026-04-04T19:38:57Z</time></trkpt><trkpt lat="41.954324103383534" lon="-8.766434572514518"><ele>10.0</ele><time>2026-04-04T19:38:58Z</time></trkpt><trkpt lat="41.95444874684742" lon="-8.766393595136131"><ele>10.666666666666668</ele><time>2026-04-04T19:38:59Z</time></trkpt><trkpt lat="41.95458204941916" lon="-8.766320398715989"><ele>11.333333333333334</ele><time>2026-04-04T19:39:00Z</time></trkpt><trkpt lat="41.95471747458153" lon="-8.766227889968095"><ele>12.0</ele><time>2026-04-04T19:39:01Z</time></trkpt><trkpt lat="41.95485509114626" lon="-8.766116912416662"><ele>11.333333333333334</ele><time>2026-04-04T19:39:02Z</time></trkpt><trkpt lat="41.95499747817627" lon="-8.765991288590035"><ele>10.666666666666668</ele><time>2026-04-04T19:39:03Z</time></trkpt><trkpt lat="41.95514437680936" lon="-8.76585660874851"><ele>10.0</ele><time>2026-04-04T19:39:04Z</time></trkpt><trkpt lat="41.95529165505101" lon="-8.765721943690261"><ele>10.0</ele><time>2026-04-04T19:39:05Z</time></trkpt><trkpt lat="41.95544872081146" lon="-8.76557846675625"><ele>10.0</ele><time>2026-04-04T19:39:06Z</time></trkpt><trkpt lat="41.9556181212998" lon="-8.765421167619712"><ele>10.0</ele><time>2026-04-04T19:39:07Z</time></trkpt><trkpt lat="41.95577713969392" lon="-8.765280032041439"><ele>9.666666666666668</ele><time>2026-04-04T19:39:08Z</time></trkpt><trkpt lat="41.95595134758233" lon="-8.765135224824844"><ele>9.333333333333334</ele><time>2026-04-04T19:39:09Z</time></trkpt><trkpt lat="41.95613500157874" lon="-8.765006356467419"><ele>9.0</ele><time>2026-04-04T19:39:10Z</time></trkpt><trkpt lat="41.956337732237124" lon="-8.764899637521763"><ele>9.0</ele><time>2026-04-04T19:39:11Z</time></trkpt><trkpt lat="41.95654924503508" lon="-8.764826102104063"><ele>9.0</ele><time>2026-04-04T19:39:12Z</time></trkpt><trkpt lat="41.956791906018836" lon="-8.764776904963806"><ele>8.333333333333334</ele><time>2026-04-04T19:39:13Z</time></trkpt><trkpt lat="41.95699543467764" lon="-8.764695239636204"><ele>7.666666666666667</ele><time>2026-04-04T19:39:14Z</time></trkpt><trkpt lat="41.957216556134526" lon="-8.764611295104418"><ele>7.0</ele><time>2026-04-04T19:39:15Z</time></trkpt><trkpt lat="41.957440353204724" lon="-8.7645294556983"><ele>7.0</ele><time>2026-04-04T19:39:16Z</time></trkpt><trkpt lat="41.957651707065004" lon="-8.764454977794722"><ele>7.0</ele><time>2026-04-04T19:39:17Z</time></trkpt><trkpt lat="41.95784654952639" lon="-8.764386635159816"><ele>7.0</ele><time>2026-04-04T19:39:18Z</time></trkpt><trkpt lat="41.958028270505835" lon="-8.764316698995726"><ele>7.0</ele><time>2026-04-04T19:39:19Z</time></trkpt><trkpt lat="41.95820744546497" lon="-8.76425462363584"><ele>7.0</ele><time>2026-04-04T19:39:20Z</time></trkpt><trkpt lat="41.95836958977175" lon="-8.764191614024545"><ele>7.0</ele><time>2026-04-04T19:39:21Z</time></trkpt><trkpt lat="41.95852674009858" lon="-8.764128054517851"><ele>7.25</ele><time>2026-04-04T19:39:22Z</time></trkpt><trkpt lat="41.95867553948979" lon="-8.764070152329175"><ele>7.5</ele><time>2026-04-04T19:39:23Z</time></trkpt><trkpt lat="41.958815753952436" lon="-8.764007932855458"><ele>7.75</ele><time>2026-04-04T19:39:24Z</time></trkpt><trkpt lat="41.958941725088366" lon="-8.763937800786229"><ele>8.0</ele><time>2026-04-04T19:39:25Z</time></trkpt><trkpt lat="41.959068644012625" lon="-8.763874697254344"><ele>8.0</ele><time>2026-04-04T19:39:26Z</time></trkpt><trkpt lat="41.959196551000886" lon="-8.763803517394752"><ele>8.0</ele><time>2026-04-04T19:39:27Z</time></trkpt><trkpt lat="41.959324901629095" lon="-8.763739502869266"><ele>8.0</ele><time>2026-04-04T19:39:28Z</time></trkpt><trkpt lat="41.959458623727066" lon="-8.763662058723805"><ele>8.0</ele><time>2026-04-04T19:39:29Z</time></trkpt><trkpt lat="41.959591052612495" lon="-8.763584549643511"><ele>8.0</ele><time>2026-04-04T19:39:30Z</time></trkpt><trkpt lat="41.95971877671023" lon="-8.763505657284394"><ele>8.0</ele><time>2026-04-04T19:39:31Z</time></trkpt><trkpt lat="41.9598538180383" lon="-8.76343172869339"><ele>8.0</ele><time>2026-04-04T19:39:32Z</time></trkpt><trkpt lat="41.959991973383275" lon="-8.763351553809876"><ele>8.0</ele><time>2026-04-04T19:39:33Z</time></trkpt><trkpt lat="41.96012844066015" lon="-8.763268969762853"><ele>8.25</ele><time>2026-04-04T19:39:34Z</time></trkpt><trkpt lat="41.96026870821373" lon="-8.763179767465854"><ele>8.5</ele><time>2026-04-04T19:39:35Z</time></trkpt><trkpt lat="41.9604037876971" lon="-8.763095463959989"><ele>8.75</ele><time>2026-04-04T19:39:36Z</time></trkpt><trkpt lat="41.96053605477851" lon="-8.763016842353101"><ele>9.0</ele><time>2026-04-04T19:39:37Z</time></trkpt><trkpt lat="41.960663324180125" lon="-8.762938599854001"><ele>9.0</ele><time>2026-04-04T19:39:38Z</time></trkpt><trkpt lat="41.960790089923314" lon="-8.76286437590145"><ele>9.0</ele><time>2026-04-04T19:39:39Z</time></trkpt><trkpt lat="41.96090832184584" lon="-8.762794345688054"><ele>9.0</ele><time>2026-04-04T19:39:40Z</time></trkpt><trkpt lat="41.961019803265195" lon="-8.762724431529223"><ele>9.0</ele><time>2026-04-04T19:39:41Z</time></trkpt><trkpt lat="41.96112585020053" lon="-8.762661249895983"><ele>8.0</ele><time>2026-04-04T19:39:42Z</time></trkpt><trkpt lat="41.96123234648879" lon="-8.762592917585765"><ele>7.0</ele><time>2026-04-04T19:39:43Z</time></trkpt><trkpt lat="41.961338297114565" lon="-8.762528313741697"><ele>6.0</ele><time>2026-04-04T19:39:44Z</time></trkpt><trkpt lat="41.96144053888097" lon="-8.76246289862053"><ele>5.0</ele><time>2026-04-04T19:39:45Z</time></trkpt><trkpt lat="41.961538577504186" lon="-8.762402865699107"><ele>5.0</ele><time>2026-04-04T19:39:46Z</time></trkpt><trkpt lat="41.961633011014854" lon="-8.76233610653061"><ele>5.0</ele><time>2026-04-04T19:39:47Z</time></trkpt><trkpt lat="41.961727279228995" lon="-8.76226716711632"><ele>5.0</ele><time>2026-04-04T19:39:48Z</time></trkpt><trkpt lat="41.961826268223945" lon="-8.762189167331169"><ele>5.0</ele><time>2026-04-04T19:39:49Z</time></trkpt><trkpt lat="41.96193781069434" lon="-8.762111646113839"><ele>5.5</ele><time>2026-04-04T19:39:50Z</time></trkpt><trkpt lat="41.96206892347052" lon="-8.762038169360196"><ele>6.0</ele><time>2026-04-04T19:39:51Z</time></trkpt><trkpt lat="41.962182137552816" lon="-8.762017364317533"><ele>6.5</ele><time>2026-04-04T19:39:52Z</time></trkpt><trkpt lat="41.96232263767088" lon="-8.761944455277558"><ele>7.0</ele><time>2026-04-04T19:39:53Z</time></trkpt><trkpt lat="41.96247011539638" lon="-8.76185835908012"><ele>6.333333333333334</ele><time>2026-04-04T19:39:53.999Z</time></trkpt><trkpt lat="41.96261864819016" lon="-8.761746113911963"><ele>5.666666666666667</ele><time>2026-04-04T19:39:54.999Z</time></trkpt><trkpt lat="41.96276827494272" lon="-8.761656706412968"><ele>5.0</ele><time>2026-04-04T19:39:55.999Z</time></trkpt><trkpt lat="41.96290229680032" lon="-8.761576623527858"><ele>5.0</ele><time>2026-04-04T19:39:56.999Z</time></trkpt><trkpt lat="41.96304350301208" lon="-8.761515710909839"><ele>5.0</ele><time>2026-04-04T19:39:57.999Z</time></trkpt><trkpt lat="41.96317790890437" lon="-8.761425512663191"><ele>5.0</ele><time>2026-04-04T19:39:58.999Z</time></trkpt><trkpt lat="41.963309375429596" lon="-8.76135202167351"><ele>5.0</ele><time>2026-04-04T19:39:59.999Z</time></trkpt><trkpt lat="41.963432078817604" lon="-8.761277401619024"><ele>6.0</ele><time>2026-04-04T19:40:00.999Z</time></trkpt><trkpt lat="41.963550511013146" lon="-8.76120817199724"><ele>7.0</ele><time>2026-04-04T19:40:01.999Z</time></trkpt><trkpt lat="41.96366102434267" lon="-8.76113919291213"><ele>8.0</ele><time>2026-04-04T19:40:02.999Z</time></trkpt><trkpt lat="41.963766481620425" lon="-8.761076596311826"><ele>9.0</ele><time>2026-04-04T19:40:03.999Z</time></trkpt><trkpt lat="41.96386944862645" lon="-8.761017743493285"><ele>9.0</ele><time>2026-04-04T19:40:04.999Z</time></trkpt><trkpt lat="41.963971314776806" lon="-8.760946598107678"><ele>9.0</ele><time>2026-04-04T19:40:05.999Z</time></trkpt><trkpt lat="41.96407952022665" lon="-8.760882184841961"><ele>9.0</ele><time>2026-04-04T19:40:06.999Z</time></trkpt><trkpt lat="41.9641817193357" lon="-8.760818561713732"><ele>9.0</ele><time>2026-04-04T19:40:07.999Z</time></trkpt><trkpt lat="41.964281648188106" lon="-8.76075754689974"><ele>9.0</ele><time>2026-04-04T19:40:08.999Z</time></trkpt><trkpt lat="41.964378868499274" lon="-8.76069926821211"><ele>9.0</ele><time>2026-04-04T19:40:09.999Z</time></trkpt><trkpt lat="41.964482181707005" lon="-8.76064067446572"><ele>9.0</ele><time>2026-04-04T19:40:10.999Z</time></trkpt><trkpt lat="41.96459346617147" lon="-8.760575262235443"><ele>9.0</ele><time>2026-04-04T19:40:12.001Z</time></trkpt><trkpt lat="41.96471660777845" lon="-8.760502035487905"><ele>9.0</ele><time>2026-04-04T19:40:13.001Z</time></trkpt><trkpt lat="41.96484044561926" lon="-8.76041948220185"><ele>9.0</ele><time>2026-04-04T19:40:14.001Z</time></trkpt><trkpt lat="41.96497337910644" lon="-8.76035150396042"><ele>9.0</ele><time>2026-04-04T19:40:15.001Z</time></trkpt><trkpt lat="41.965081904087995" lon="-8.760276731434043"><ele>9.0</ele><time>2026-04-04T19:40:16.001Z</time></trkpt><trkpt lat="41.96519017902345" lon="-8.760210657688276"><ele>8.2</ele><time>2026-04-04T19:40:17.001Z</time></trkpt><trkpt lat="41.965292007560535" lon="-8.760151213148207"><ele>7.4</ele><time>2026-04-04T19:40:18.001Z</time></trkpt><trkpt lat="41.96538848194733" lon="-8.760090163472945"><ele>6.6</ele><time>2026-04-04T19:40:19.001Z</time></trkpt><trkpt lat="41.96547572413835" lon="-8.760035255408217"><ele>5.8</ele><time>2026-04-04T19:40:20.001Z</time></trkpt><trkpt lat="41.96556794523187" lon="-8.75997970649887"><ele>5.0</ele><time>2026-04-04T19:40:21.001Z</time></trkpt><trkpt lat="41.96567486548339" lon="-8.759910361199276"><ele>5.0</ele><time>2026-04-04T19:40:22.001Z</time></trkpt><trkpt lat="41.96579667986458" lon="-8.759831803057018"><ele>5.0</ele><time>2026-04-04T19:40:23.001Z</time></trkpt><trkpt lat="41.96592718289022" lon="-8.759753055972775"><ele>5.0</ele><time>2026-04-04T19:40:24.001Z</time></trkpt><trkpt lat="41.96606626829148" lon="-8.759674434915478"><ele>5.0</ele><time>2026-04-04T19:40:25.001Z</time></trkpt><trkpt lat="41.96620436991857" lon="-8.75960156824203"><ele>5.25</ele><time>2026-04-04T19:40:26.001Z</time></trkpt><trkpt lat="41.96632774574202" lon="-8.75951904885006"><ele>5.5</ele><time>2026-04-04T19:40:27.001Z</time></trkpt><trkpt lat="41.966445699541886" lon="-8.759454115680622"><ele>5.75</ele><time>2026-04-04T19:40:28.001Z</time></trkpt><trkpt lat="41.96656610077003" lon="-8.759385047912787"><ele>6.0</ele><time>2026-04-04T19:40:29.001Z</time></trkpt><trkpt lat="41.96667361993911" lon="-8.759321512317818"><ele>5.5</ele><time>2026-04-04T19:40:30.001Z</time></trkpt><trkpt lat="41.96677468801857" lon="-8.759254071688142"><ele>5.0</ele><time>2026-04-04T19:40:31Z</time></trkpt><trkpt lat="41.96687914253693" lon="-8.759196465646918"><ele>4.5</ele><time>2026-04-04T19:40:32Z</time></trkpt><trkpt lat="41.96699350799678" lon="-8.759129065656696"><ele>4.0</ele><time>2026-04-04T19:40:33Z</time></trkpt><trkpt lat="41.96711088323745" lon="-8.759057806194038"><ele>4.0</ele><time>2026-04-04T19:40:34Z</time></trkpt><trkpt lat="41.967228161865606" lon="-8.758987644858381"><ele>4.0</ele><time>2026-04-04T19:40:35Z</time></trkpt><trkpt lat="41.96734496643004" lon="-8.758916022890208"><ele>4.0</ele><time>2026-04-04T19:40:36Z</time></trkpt><trkpt lat="41.96746464655902" lon="-8.758843089275993"><ele>4.0</ele><time>2026-04-04T19:40:37Z</time></trkpt><trkpt lat="41.96757931911922" lon="-8.758773854746464"><ele>4.25</ele><time>2026-04-04T19:40:38Z</time></trkpt><trkpt lat="41.967695166617844" lon="-8.75869952884793"><ele>4.5</ele><time>2026-04-04T19:40:39Z</time></trkpt><trkpt lat="41.967804221831855" lon="-8.758634954553667"><ele>4.75</ele><time>2026-04-04T19:40:40Z</time></trkpt><trkpt lat="41.967919534587566" lon="-8.758559038480902"><ele>5.0</ele><time>2026-04-04T19:40:41Z</time></trkpt><trkpt lat="41.96803303590351" lon="-8.758497004448465"><ele>5.0</ele><time>2026-04-04T19:40:42Z</time></trkpt><trkpt lat="41.96814780177231" lon="-8.758432884807549"><ele>5.0</ele><time>2026-04-04T19:40:43Z</time></trkpt><trkpt lat="41.96826507626265" lon="-8.758360504161598"><ele>5.0</ele><time>2026-04-04T19:40:44Z</time></trkpt><trkpt lat="41.96837690258869" lon="-8.758288200282292"><ele>5.0</ele><time>2026-04-04T19:40:45Z</time></trkpt><trkpt lat="41.9684964797004" lon="-8.758212315673767"><ele>5.25</ele><time>2026-04-04T19:40:46Z</time></trkpt><trkpt lat="41.968617980152914" lon="-8.758143548538378"><ele>5.5</ele><time>2026-04-04T19:40:47Z</time></trkpt><trkpt lat="41.96874105817575" lon="-8.758069436651661"><ele>5.75</ele><time>2026-04-04T19:40:48Z</time></trkpt><trkpt lat="41.968863297058626" lon="-8.757998473849911"><ele>6.0</ele><time>2026-04-04T19:40:49Z</time></trkpt><trkpt lat="41.96899451649767" lon="-8.757925400046659"><ele>6.0</ele><time>2026-04-04T19:40:50Z</time></trkpt><trkpt lat="41.9691274259908" lon="-8.757853615727907"><ele>6.0</ele><time>2026-04-04T19:40:51Z</time></trkpt><trkpt lat="41.96925778401117" lon="-8.757773039937947"><ele>6.0</ele><time>2026-04-04T19:40:52Z</time></trkpt><trkpt lat="41.969391274507366" lon="-8.75768922519594"><ele>6.0</ele><time>2026-04-04T19:40:53Z</time></trkpt><trkpt lat="41.96952195727856" lon="-8.757609715391354"><ele>6.0</ele><time>2026-04-04T19:40:54Z</time></trkpt><trkpt lat="41.9696542277552" lon="-8.757530062785941"><ele>6.0</ele><time>2026-04-04T19:40:55Z</time></trkpt><trkpt lat="41.96978572583584" lon="-8.757450078308809"><ele>6.0</ele><time>2026-04-04T19:40:56Z</time></trkpt><trkpt lat="41.96991414514033" lon="-8.757368710625933"><ele>6.0</ele><time>2026-04-04T19:40:57Z</time></trkpt><trkpt lat="41.970034687145606" lon="-8.757289432751962"><ele>6.75</ele><time>2026-04-04T19:40:58Z</time></trkpt><trkpt lat="41.97015120352867" lon="-8.75720934237572"><ele>7.5</ele><time>2026-04-04T19:40:59Z</time></trkpt><trkpt lat="41.97026555774682" lon="-8.757112912430498"><ele>8.25</ele><time>2026-04-04T19:41:00Z</time></trkpt><trkpt lat="41.97037480566172" lon="-8.757004041346816"><ele>9.0</ele><time>2026-04-04T19:41:01Z</time></trkpt><trkpt lat="41.9704765729109" lon="-8.756897548999932"><ele>9.0</ele><time>2026-04-04T19:41:02Z</time></trkpt><trkpt lat="41.9705790924306" lon="-8.756772113106612"><ele>9.0</ele><time>2026-04-04T19:41:03Z</time></trkpt><trkpt lat="41.97067379905523" lon="-8.756639722507627"><ele>9.0</ele><time>2026-04-04T19:41:04Z</time></trkpt><trkpt lat="41.970774387727616" lon="-8.75650140877652"><ele>9.0</ele><time>2026-04-04T19:41:05Z</time></trkpt><trkpt lat="41.97087376432571" lon="-8.756347133872035"><ele>9.0</ele><time>2026-04-04T19:41:06Z</time></trkpt><trkpt lat="41.970967580709576" lon="-8.756189857373165"><ele>9.0</ele><time>2026-04-04T19:41:07Z</time></trkpt><trkpt lat="41.971057225057784" lon="-8.756015051477267"><ele>9.0</ele><time>2026-04-04T19:41:08Z</time></trkpt><trkpt lat="41.971129695861784" lon="-8.755838360688537"><ele>8.5</ele><time>2026-04-04T19:41:09Z</time></trkpt><trkpt lat="41.971193913205546" lon="-8.755654906336456"><ele>8.0</ele><time>2026-04-04T19:41:10Z</time></trkpt><trkpt lat="41.97124980358479" lon="-8.755479166266937"><ele>7.5</ele><time>2026-04-04T19:41:11Z</time></trkpt><trkpt lat="41.971295475111596" lon="-8.755314186678396"><ele>7.0</ele><time>2026-04-04T19:41:12Z</time></trkpt><trkpt lat="41.97133772922311" lon="-8.755151432257508"><ele>7.0</ele><time>2026-04-04T19:41:13Z</time></trkpt><trkpt lat="41.971377895822485" lon="-8.75499380322696"><ele>7.0</ele><time>2026-04-04T19:41:14Z</time></trkpt><trkpt lat="41.971419673942115" lon="-8.754830753432055"><ele>7.0</ele><time>2026-04-04T19:41:15Z</time></trkpt><trkpt lat="41.971459062454564" lon="-8.754660940088995"><ele>7.0</ele><time>2026-04-04T19:41:16Z</time></trkpt><trkpt lat="41.97149953821207" lon="-8.754504656616819"><ele>6.75</ele><time>2026-04-04T19:41:17Z</time></trkpt><trkpt lat="41.97153555342421" lon="-8.754343825655699"><ele>6.5</ele><time>2026-04-04T19:41:18Z</time></trkpt><trkpt lat="41.97157381197718" lon="-8.754177896646446"><ele>6.25</ele><time>2026-04-04T19:41:19Z</time></trkpt><trkpt lat="41.97161189963708" lon="-8.754011830209864"><ele>6.0</ele><time>2026-04-04T19:41:20Z</time></trkpt><trkpt lat="41.97165476836553" lon="-8.753844562423652"><ele>6.0</ele><time>2026-04-04T19:41:21Z</time></trkpt><trkpt lat="41.971699280085154" lon="-8.753671305173002"><ele>6.0</ele><time>2026-04-04T19:41:22Z</time></trkpt><trkpt lat="41.971742011838685" lon="-8.753496269047673"><ele>6.0</ele><time>2026-04-04T19:41:23Z</time></trkpt><trkpt lat="41.97178414082272" lon="-8.753314335574492"><ele>6.0</ele><time>2026-04-04T19:41:24Z</time></trkpt><trkpt lat="41.97182856431417" lon="-8.753134438449537"><ele>6.0</ele><time>2026-04-04T19:41:25Z</time></trkpt><trkpt lat="41.97187042646449" lon="-8.752957835778991"><ele>6.0</ele><time>2026-04-04T19:41:26Z</time></trkpt><trkpt lat="41.9719160553153" lon="-8.752788622009646"><ele>6.0</ele><time>2026-04-04T19:41:27Z</time></trkpt><trkpt lat="41.971959072224415" lon="-8.752620125971863"><ele>6.0</ele><time>2026-04-04T19:41:28Z</time></trkpt><trkpt lat="41.972002356949496" lon="-8.752454390690385"><ele>6.25</ele><time>2026-04-04T19:41:29Z</time></trkpt><trkpt lat="41.97204420535603" lon="-8.752283956770144"><ele>6.5</ele><time>2026-04-04T19:41:30Z</time></trkpt><trkpt lat="41.97208078937874" lon="-8.752113886324235"><ele>6.75</ele><time>2026-04-04T19:41:31Z</time></trkpt><trkpt lat="41.9721242741709" lon="-8.751951477339835"><ele>7.0</ele><time>2026-04-04T19:41:32Z</time></trkpt><trkpt lat="41.97216534408306" lon="-8.751776861853765"><ele>7.0</ele><time>2026-04-04T19:41:33Z</time></trkpt><trkpt lat="41.9722046268387" lon="-8.751601958659865"><ele>7.0</ele><time>2026-04-04T19:41:33.999Z</time></trkpt><trkpt lat="41.972248174223616" lon="-8.75143705635322"><ele>7.0</ele><time>2026-04-04T19:41:34.999Z</time></trkpt><trkpt lat="41.97228029707051" lon="-8.751246617563487"><ele>7.0</ele><time>2026-04-04T19:41:35.999Z</time></trkpt><trkpt lat="41.97232688494632" lon="-8.75111134155111"><ele>7.0</ele><time>2026-04-04T19:41:36.999Z</time></trkpt><trkpt lat="41.97236432822325" lon="-8.750942966678872"><ele>7.0</ele><time>2026-04-04T19:41:37.999Z</time></trkpt><trkpt lat="41.97240456587302" lon="-8.750789903605478"><ele>7.0</ele><time>2026-04-04T19:41:38.999Z</time></trkpt><trkpt lat="41.972443053807325" lon="-8.75064064547911"><ele>7.0</ele><time>2026-04-04T19:41:39.999Z</time></trkpt><trkpt lat="41.972479996062255" lon="-8.750491610507936"><ele>7.0</ele><time>2026-04-04T19:41:40.999Z</time></trkpt><trkpt lat="41.972515954467895" lon="-8.750340526899274"><ele>7.0</ele><time>2026-04-04T19:41:41.999Z</time></trkpt><trkpt lat="41.972553516120875" lon="-8.750193386165485"><ele>7.0</ele><time>2026-04-04T19:41:42.999Z</time></trkpt><trkpt lat="41.972594880164074" lon="-8.750045891797972"><ele>7.0</ele><time>2026-04-04T19:41:43.999Z</time></trkpt><trkpt lat="41.97263617329414" lon="-8.749883235490662"><ele>8.25</ele><time>2026-04-04T19:41:44.999Z</time></trkpt><trkpt lat="41.97267681410367" lon="-8.749709404924024"><ele>9.5</ele><time>2026-04-04T19:41:45.999Z</time></trkpt><trkpt lat="41.97270689494792" lon="-8.749532357072209"><ele>10.75</ele><time>2026-04-04T19:41:46.999Z</time></trkpt><trkpt lat="41.97274486053098" lon="-8.749372784956183"><ele>12.0</ele><time>2026-04-04T19:41:47.999Z</time></trkpt><trkpt lat="41.972782856620555" lon="-8.749199935115815"><ele>12.0</ele><time>2026-04-04T19:41:48.999Z</time></trkpt><trkpt lat="41.97282731171239" lon="-8.749041106559375"><ele>12.0</ele><time>2026-04-04T19:41:49.999Z</time></trkpt><trkpt lat="41.972860328248636" lon="-8.748884220401758"><ele>12.0</ele><time>2026-04-04T19:41:50.999Z</time></trkpt><trkpt lat="41.97290129236784" lon="-8.74873374012172"><ele>12.0</ele><time>2026-04-04T19:41:51.999Z</time></trkpt><trkpt lat="41.97293938009169" lon="-8.74857982820901"><ele>11.75</ele><time>2026-04-04T19:41:52.999Z</time></trkpt><trkpt lat="41.97297579175754" lon="-8.748439692784194"><ele>11.5</ele><time>2026-04-04T19:41:53.999Z</time></trkpt><trkpt lat="41.9730155248571" lon="-8.748291350196217"><ele>11.25</ele><time>2026-04-04T19:41:54.999Z</time></trkpt><trkpt lat="41.97305899114916" lon="-8.748139845301464"><ele>11.0</ele><time>2026-04-04T19:41:55.999Z</time></trkpt><trkpt lat="41.973112509268695" lon="-8.748000867219057"><ele>11.0</ele><time>2026-04-04T19:41:56.999Z</time></trkpt><trkpt lat="41.97317332468757" lon="-8.747899389483587"><ele>11.0</ele><time>2026-04-04T19:41:57.999Z</time></trkpt><trkpt lat="41.97321187378553" lon="-8.7477956018663"><ele>11.0</ele><time>2026-04-04T19:41:58.999Z</time></trkpt><trkpt lat="41.973243037504375" lon="-8.747706013674788"><ele>11.0</ele><time>2026-04-04T19:41:59.999Z</time></trkpt><trkpt lat="41.9732640092677" lon="-8.747612156022786"><ele>11.0</ele><time>2026-04-04T19:42:00.999Z</time></trkpt><trkpt lat="41.9732787652715" lon="-8.747495069782186"><ele>11.0</ele><time>2026-04-04T19:42:01.999Z</time></trkpt><trkpt lat="41.97328975745487" lon="-8.747360898892698"><ele>11.0</ele><time>2026-04-04T19:42:02.999Z</time></trkpt><trkpt lat="41.97330299571433" lon="-8.747207387060458"><ele>11.0</ele><time>2026-04-04T19:42:03.999Z</time></trkpt><trkpt lat="41.97333127542202" lon="-8.747044216217352"><ele>11.0</ele><time>2026-04-04T19:42:04.999Z</time></trkpt><trkpt lat="41.97336294582504" lon="-8.746859896234119"><ele>11.0</ele><time>2026-04-04T19:42:05.999Z</time></trkpt><trkpt lat="41.97341117743123" lon="-8.746667333759119"><ele>11.75</ele><time>2026-04-04T19:42:06.999Z</time></trkpt><trkpt lat="41.97346024176603" lon="-8.746478167806943"><ele>12.5</ele><time>2026-04-04T19:42:07.999Z</time></trkpt><trkpt lat="41.97350632975464" lon="-8.746293789400466"><ele>13.25</ele><time>2026-04-04T19:42:08.999Z</time></trkpt><trkpt lat="41.973546852810486" lon="-8.746131673795404"><ele>14.0</ele><time>2026-04-04T19:42:09.999Z</time></trkpt><trkpt lat="41.97358522553307" lon="-8.745978160841643"><ele>14.25</ele><time>2026-04-04T19:42:10.999Z</time></trkpt><trkpt lat="41.97362180276028" lon="-8.745831830762324"><ele>14.5</ele><time>2026-04-04T19:42:11.999Z</time></trkpt><trkpt lat="41.97365702996231" lon="-8.745690901673571"><ele>14.75</ele><time>2026-04-04T19:42:12.999Z</time></trkpt><trkpt lat="41.9736922660041" lon="-8.745549937295076"><ele>15.0</ele><time>2026-04-04T19:42:13.999Z</time></trkpt><trkpt lat="41.973730312993105" lon="-8.745397727336444"><ele>15.0</ele><time>2026-04-04T19:42:14.999Z</time></trkpt><trkpt lat="41.97377278317362" lon="-8.745227822144747"><ele>15.0</ele><time>2026-04-04T19:42:15.999Z</time></trkpt><trkpt lat="41.97382714004291" lon="-8.745054025124553"><ele>15.0</ele><time>2026-04-04T19:42:16.999Z</time></trkpt><trkpt lat="41.97386467085737" lon="-8.744889105615751"><ele>15.0</ele><time>2026-04-04T19:42:18.001Z</time></trkpt><trkpt lat="41.97391096953517" lon="-8.744728696824987"><ele>15.25</ele><time>2026-04-04T19:42:19.001Z</time></trkpt><trkpt lat="41.97394369326079" lon="-8.744579339531002"><ele>15.5</ele><time>2026-04-04T19:42:20.001Z</time></trkpt><trkpt lat="41.973972719812906" lon="-8.744433834801752"><ele>15.75</ele><time>2026-04-04T19:42:21.001Z</time></trkpt><trkpt lat="41.97400374197692" lon="-8.744291187246292"><ele>16.0</ele><time>2026-04-04T19:42:22.001Z</time></trkpt><trkpt lat="41.97404199471104" lon="-8.744144239935435"><ele>16.0</ele><time>2026-04-04T19:42:23.001Z</time></trkpt><trkpt lat="41.97408105994681" lon="-8.743991377907907"><ele>16.0</ele><time>2026-04-04T19:42:24.001Z</time></trkpt><trkpt lat="41.97411863086386" lon="-8.743838297905906"><ele>16.0</ele><time>2026-04-04T19:42:25.001Z</time></trkpt><trkpt lat="41.974152899801254" lon="-8.743681401785496"><ele>16.0</ele><time>2026-04-04T19:42:26.001Z</time></trkpt><trkpt lat="41.97418790031672" lon="-8.743517121468575"><ele>17.5</ele><time>2026-04-04T19:42:27Z</time></trkpt><trkpt lat="41.974235373678326" lon="-8.743365517801664"><ele>19.0</ele><time>2026-04-04T19:42:28Z</time></trkpt><trkpt lat="41.974275376033" lon="-8.743204958233012"><ele>20.5</ele><time>2026-04-04T19:42:29Z</time></trkpt><trkpt lat="41.974317330310654" lon="-8.743037606141938"><ele>22.0</ele><time>2026-04-04T19:42:30Z</time></trkpt><trkpt lat="41.97435851164029" lon="-8.742869462460416"><ele>21.5</ele><time>2026-04-04T19:42:31Z</time></trkpt><trkpt lat="41.97440453600059" lon="-8.742699614197525"><ele>21.0</ele><time>2026-04-04T19:42:32Z</time></trkpt><trkpt lat="41.97444282426874" lon="-8.742532766705207"><ele>20.5</ele><time>2026-04-04T19:42:33Z</time></trkpt><trkpt lat="41.974482308590815" lon="-8.742367689554577"><ele>20.0</ele><time>2026-04-04T19:42:34Z</time></trkpt><trkpt lat="41.974528170735525" lon="-8.742207426615586"><ele>20.0</ele><time>2026-04-04T19:42:35Z</time></trkpt><trkpt lat="41.97457666025406" lon="-8.74204256199877"><ele>20.0</ele><time>2026-04-04T19:42:36Z</time></trkpt><trkpt lat="41.97463064470221" lon="-8.741877514557125"><ele>20.0</ele><time>2026-04-04T19:42:37Z</time></trkpt><trkpt lat="41.97468249998133" lon="-8.741706721499298"><ele>20.0</ele><time>2026-04-04T19:42:38Z</time></trkpt><trkpt lat="41.974729912082445" lon="-8.741542780440014"><ele>19.5</ele><time>2026-04-04T19:42:39Z</time></trkpt><trkpt lat="41.97478526823975" lon="-8.741386647296215"><ele>19.0</ele><time>2026-04-04T19:42:40Z</time></trkpt><trkpt lat="41.9748456683372" lon="-8.741229661870891"><ele>18.5</ele><time>2026-04-04T19:42:41Z</time></trkpt><trkpt lat="41.974906922237196" lon="-8.741074513639466"><ele>18.0</ele><time>2026-04-04T19:42:42Z</time></trkpt><trkpt lat="41.974967192127636" lon="-8.740920224410287"><ele>19.5</ele><time>2026-04-04T19:42:43Z</time></trkpt><trkpt lat="41.97502959268494" lon="-8.740760142301754"><ele>21.0</ele><time>2026-04-04T19:42:44Z</time></trkpt><trkpt lat="41.975082620025674" lon="-8.740597618015801"><ele>22.5</ele><time>2026-04-04T19:42:45Z</time></trkpt><trkpt lat="41.97514550514874" lon="-8.740431100611287"><ele>24.0</ele><time>2026-04-04T19:42:46Z</time></trkpt><trkpt lat="41.97521130474772" lon="-8.740273127721233"><ele>23.25</ele><time>2026-04-04T19:42:47Z</time></trkpt><trkpt lat="41.97527182780798" lon="-8.740112620688594"><ele>22.5</ele><time>2026-04-04T19:42:48Z</time></trkpt><trkpt lat="41.97533295520661" lon="-8.73995661228495"><ele>21.75</ele><time>2026-04-04T19:42:49Z</time></trkpt><trkpt lat="41.975400845567854" lon="-8.739801042224732"><ele>21.0</ele><time>2026-04-04T19:42:50Z</time></trkpt><trkpt lat="41.97547331004476" lon="-8.739655541233432"><ele>21.0</ele><time>2026-04-04T19:42:51Z</time></trkpt><trkpt lat="41.97554109901402" lon="-8.739509943031441"><ele>21.0</ele><time>2026-04-04T19:42:52Z</time></trkpt><trkpt lat="41.97560850870925" lon="-8.73937961566809"><ele>21.0</ele><time>2026-04-04T19:42:53Z</time></trkpt><trkpt lat="41.97567431823711" lon="-8.73924106372888"><ele>21.0</ele><time>2026-04-04T19:42:54Z</time></trkpt><trkpt lat="41.97574918362492" lon="-8.739119728374211"><ele>21.5</ele><time>2026-04-04T19:42:55Z</time></trkpt><trkpt lat="41.97582981259069" lon="-8.739001105167429"><ele>22.0</ele><time>2026-04-04T19:42:56Z</time></trkpt><trkpt lat="41.975911255888605" lon="-8.738896947629527"><ele>22.5</ele><time>2026-04-04T19:42:57Z</time></trkpt><trkpt lat="41.97599715708306" lon="-8.73877388665385"><ele>23.0</ele><time>2026-04-04T19:42:58Z</time></trkpt><trkpt lat="41.97607543153195" lon="-8.738659710896627"><ele>21.5</ele><time>2026-04-04T19:42:59Z</time></trkpt><trkpt lat="41.97615759421722" lon="-8.738547638259677"><ele>20.0</ele><time>2026-04-04T19:43:00Z</time></trkpt><trkpt lat="41.97623829889143" lon="-8.73843620874739"><ele>18.5</ele><time>2026-04-04T19:43:01Z</time></trkpt><trkpt lat="41.976315053692645" lon="-8.738322632811059"><ele>17.0</ele><time>2026-04-04T19:43:02Z</time></trkpt><trkpt lat="41.97639282118011" lon="-8.738208785984868"><ele>17.0</ele><time>2026-04-04T19:43:03Z</time></trkpt><trkpt lat="41.97647573251425" lon="-8.73809859500194"><ele>17.0</ele><time>2026-04-04T19:43:04Z</time></trkpt><trkpt lat="41.9765662283567" lon="-8.737989624261596"><ele>17.0</ele><time>2026-04-04T19:43:05Z</time></trkpt><trkpt lat="41.97664926948675" lon="-8.737869304846301"><ele>17.0</ele><time>2026-04-04T19:43:06Z</time></trkpt><trkpt lat="41.97673470209028" lon="-8.737747147446637"><ele>16.75</ele><time>2026-04-04T19:43:07Z</time></trkpt><trkpt lat="41.976824590894154" lon="-8.737626376314042"><ele>16.5</ele><time>2026-04-04T19:43:08Z</time></trkpt><trkpt lat="41.97690880372075" lon="-8.737488132002582"><ele>16.25</ele><time>2026-04-04T19:43:09Z</time></trkpt><trkpt lat="41.97701298548735" lon="-8.737368480601097"><ele>16.0</ele><time>2026-04-04T19:43:10Z</time></trkpt><trkpt lat="41.97710030537422" lon="-8.737240622181105"><ele>16.0</ele><time>2026-04-04T19:43:11Z</time></trkpt><trkpt lat="41.9771990675942" lon="-8.737109397694006"><ele>16.0</ele><time>2026-04-04T19:43:12Z</time></trkpt><trkpt lat="41.97727765401573" lon="-8.736972308847806"><ele>16.0</ele><time>2026-04-04T19:43:13Z</time></trkpt><trkpt lat="41.97738443893475" lon="-8.7368447547997"><ele>16.0</ele><time>2026-04-04T19:43:14Z</time></trkpt><trkpt lat="41.97747682295196" lon="-8.736719676017463"><ele>15.75</ele><time>2026-04-04T19:43:15Z</time></trkpt><trkpt lat="41.9775636711937" lon="-8.736569295471595"><ele>15.5</ele><time>2026-04-04T19:43:16Z</time></trkpt><trkpt lat="41.97765355282114" lon="-8.736442774740766"><ele>15.25</ele><time>2026-04-04T19:43:17Z</time></trkpt><trkpt lat="41.977750679122714" lon="-8.73630617324283"><ele>15.0</ele><time>2026-04-04T19:43:18Z</time></trkpt><trkpt lat="41.97786000976939" lon="-8.736180376617503"><ele>15.0</ele><time>2026-04-04T19:43:19Z</time></trkpt><trkpt lat="41.97796461162211" lon="-8.736060973112297"><ele>15.0</ele><time>2026-04-04T19:43:20Z</time></trkpt><trkpt lat="41.97806053969247" lon="-8.735926475297896"><ele>15.0</ele><time>2026-04-04T19:43:21Z</time></trkpt><trkpt lat="41.97815319304642" lon="-8.735784940584168"><ele>15.0</ele><time>2026-04-04T19:43:22Z</time></trkpt><trkpt lat="41.97822993199844" lon="-8.735626159530165"><ele>15.0</ele><time>2026-04-04T19:43:23Z</time></trkpt><trkpt lat="41.97832446566474" lon="-8.735490462543892"><ele>15.0</ele><time>2026-04-04T19:43:23.999Z</time></trkpt><trkpt lat="41.97841975357217" lon="-8.735353199993733"><ele>15.0</ele><time>2026-04-04T19:43:24.999Z</time></trkpt><trkpt lat="41.9785221685141" lon="-8.73523429864561"><ele>15.0</ele><time>2026-04-04T19:43:25.999Z</time></trkpt><trkpt lat="41.97861006714956" lon="-8.735095804503805"><ele>15.0</ele><time>2026-04-04T19:43:26.999Z</time></trkpt><trkpt lat="41.97869803558747" lon="-8.734958391336727"><ele>15.0</ele><time>2026-04-04T19:43:27.999Z</time></trkpt><trkpt lat="41.97878413792054" lon="-8.734819841300354"><ele>15.0</ele><time>2026-04-04T19:43:28.999Z</time></trkpt><trkpt lat="41.97887682499283" lon="-8.734694586352585"><ele>15.0</ele><time>2026-04-04T19:43:29.999Z</time></trkpt><trkpt lat="41.9789737972826" lon="-8.734561742977123"><ele>15.0</ele><time>2026-04-04T19:43:30.999Z</time></trkpt><trkpt lat="41.97907121343616" lon="-8.734427873792187"><ele>15.0</ele><time>2026-04-04T19:43:31.999Z</time></trkpt><trkpt lat="41.97916491112682" lon="-8.734284984499398"><ele>15.0</ele><time>2026-04-04T19:43:32.999Z</time></trkpt><trkpt lat="41.97925449593085" lon="-8.734138021585387"><ele>15.0</ele><time>2026-04-04T19:43:33.999Z</time></trkpt><trkpt lat="41.97934741349541" lon="-8.733996535582826"><ele>15.0</ele><time>2026-04-04T19:43:34.999Z</time></trkpt><trkpt lat="41.979439572708614" lon="-8.73385359920977"><ele>15.0</ele><time>2026-04-04T19:43:35.999Z</time></trkpt><trkpt lat="41.97952349435347" lon="-8.733689337238003"><ele>15.0</ele><time>2026-04-04T19:43:36.999Z</time></trkpt><trkpt lat="41.979602844585244" lon="-8.733518658601529"><ele>15.0</ele><time>2026-04-04T19:43:37.999Z</time></trkpt><trkpt lat="41.97968057001991" lon="-8.733348966018202"><ele>14.666666666666668</ele><time>2026-04-04T19:43:38.999Z</time></trkpt><trkpt lat="41.97975165964745" lon="-8.73317235544958"><ele>14.333333333333334</ele><time>2026-04-04T19:43:39.999Z</time></trkpt><trkpt lat="41.97980910386232" lon="-8.73298044328963"><ele>14.0</ele><time>2026-04-04T19:43:40.999Z</time></trkpt><trkpt lat="41.97986794154419" lon="-8.732779087017203"><ele>13.666666666666668</ele><time>2026-04-04T19:43:41.999Z</time></trkpt><trkpt lat="41.97992611255029" lon="-8.732581097069543"><ele>13.333333333333332</ele><time>2026-04-04T19:43:42.999Z</time></trkpt><trkpt lat="41.97997672558268" lon="-8.7323638676348"><ele>13.0</ele><time>2026-04-04T19:43:43.999Z</time></trkpt><trkpt lat="41.980027168751626" lon="-8.732141386471481"><ele>13.0</ele><time>2026-04-04T19:43:44.999Z</time></trkpt><trkpt lat="41.98007416086323" lon="-8.731904450372818"><ele>13.0</ele><time>2026-04-04T19:43:45.999Z</time></trkpt><trkpt lat="41.98010974175285" lon="-8.731657973897349"><ele>13.0</ele><time>2026-04-04T19:43:46.999Z</time></trkpt><trkpt lat="41.98012330178791" lon="-8.731400617587724"><ele>12.0</ele><time>2026-04-04T19:43:47.999Z</time></trkpt><trkpt lat="41.98012583557012" lon="-8.731148142492954"><ele>11.0</ele><time>2026-04-04T19:43:48.999Z</time></trkpt><trkpt lat="41.98012084496853" lon="-8.730881976955425"><ele>10.0</ele><time>2026-04-04T19:43:49.999Z</time></trkpt><trkpt lat="41.9801053411685" lon="-8.73060754402735"><ele>9.333333333333334</ele><time>2026-04-04T19:43:50.999Z</time></trkpt><trkpt lat="41.98008035792586" lon="-8.730332828369667"><ele>8.666666666666666</ele><time>2026-04-04T19:43:51.999Z</time></trkpt><trkpt lat="41.98006510732363" lon="-8.730045402141487"><ele>8.0</ele><time>2026-04-04T19:43:52.999Z</time></trkpt><trkpt lat="41.98004128981746" lon="-8.72976263522118"><ele>8.0</ele><time>2026-04-04T19:43:53.999Z</time></trkpt><trkpt lat="41.98002141957937" lon="-8.729461850782934"><ele>8.0</ele><time>2026-04-04T19:43:54.999Z</time></trkpt><trkpt lat="41.98001176027441" lon="-8.729163138589527"><ele>8.0</ele><time>2026-04-04T19:43:55.999Z</time></trkpt><trkpt lat="41.980008159886204" lon="-8.728862872750941"><ele>8.0</ele><time>2026-04-04T19:43:56.999Z</time></trkpt><trkpt lat="41.98001488646119" lon="-8.728555480842328"><ele>8.0</ele><time>2026-04-04T19:43:57.999Z</time></trkpt><trkpt lat="41.98004019345626" lon="-8.72825543001767"><ele>8.0</ele><time>2026-04-04T19:43:58.999Z</time></trkpt><trkpt lat="41.98007681040973" lon="-8.727974342283245"><ele>8.0</ele><time>2026-04-04T19:43:59.999Z</time></trkpt><trkpt lat="41.98013005651297" lon="-8.7276855371393"><ele>8.0</ele><time>2026-04-04T19:44:00.999Z</time></trkpt><trkpt lat="41.98019623275553" lon="-8.727396030488148"><ele>8.0</ele><time>2026-04-04T19:44:01.999Z</time></trkpt><trkpt lat="41.980272667259634" lon="-8.727113035569802"><ele>8.0</ele><time>2026-04-04T19:44:02.999Z</time></trkpt><trkpt lat="41.98036729746633" lon="-8.726834011106272"><ele>8.0</ele><time>2026-04-04T19:44:03.999Z</time></trkpt><trkpt lat="41.9804725111938" lon="-8.72656197623798"><ele>8.0</ele><time>2026-04-04T19:44:04.999Z</time></trkpt><trkpt lat="41.9805902748635" lon="-8.726290330992907"><ele>7.0</ele><time>2026-04-04T19:44:05.999Z</time></trkpt><trkpt lat="41.98070653605743" lon="-8.72602688747699"><ele>6.0</ele><time>2026-04-04T19:44:06.999Z</time></trkpt><trkpt lat="41.98082810870593" lon="-8.72575774660815"><ele>6.0</ele><time>2026-04-04T19:44:07.999Z</time></trkpt><trkpt lat="41.98095311289653" lon="-8.725482809396231"><ele>6.0</ele><time>2026-04-04T19:44:08.999Z</time></trkpt><trkpt lat="41.98108202268693" lon="-8.725217747996124"><ele>6.0</ele><time>2026-04-04T19:44:09.999Z</time></trkpt><trkpt lat="41.98120665166669" lon="-8.724951860282362"><ele>6.0</ele><time>2026-04-04T19:44:10.999Z</time></trkpt><trkpt lat="41.98133230213879" lon="-8.724674831887402"><ele>6.0</ele><time>2026-04-04T19:44:11.999Z</time></trkpt><trkpt lat="41.981459362503436" lon="-8.724402573297779"><ele>6.0</ele><time>2026-04-04T19:44:12.999Z</time></trkpt><trkpt lat="41.9815783254633" lon="-8.724134486478182"><ele>5.666666666666667</ele><time>2026-04-04T19:44:13.999Z</time></trkpt><trkpt lat="41.981684413629885" lon="-8.72388616259999"><ele>5.333333333333334</ele><time>2026-04-04T19:44:14.999Z</time></trkpt><trkpt lat="41.98179189776953" lon="-8.723650430023135"><ele>5.0</ele><time>2026-04-04T19:44:15.999Z</time></trkpt><trkpt lat="41.98190289328096" lon="-8.72340699633769"><ele>5.0</ele><time>2026-04-04T19:44:16.999Z</time></trkpt><trkpt lat="41.98202037910483" lon="-8.723149328208828"><ele>5.0</ele><time>2026-04-04T19:44:17.999Z</time></trkpt><trkpt lat="41.98213998350173" lon="-8.722889284233375"><ele>7.5</ele><time>2026-04-04T19:44:18.999Z</time></trkpt><trkpt lat="41.98225821422084" lon="-8.722632377649603"><ele>10.0</ele><time>2026-04-04T19:44:19.999Z</time></trkpt><trkpt lat="41.98238043238981" lon="-8.722366806614332"><ele>10.0</ele><time>2026-04-04T19:44:20.999Z</time></trkpt><trkpt lat="41.98250270228108" lon="-8.722101123235236"><ele>10.0</ele><time>2026-04-04T19:44:21.999Z</time></trkpt><trkpt lat="41.982625972527366" lon="-8.721833266164571"><ele>8.5</ele><time>2026-04-04T19:44:22.999Z</time></trkpt><trkpt lat="41.98275015609229" lon="-8.721563423602657"><ele>7.0</ele><time>2026-04-04T19:44:24Z</time></trkpt><trkpt lat="41.98287280948499" lon="-8.721297213586821"><ele>6.5</ele><time>2026-04-04T19:44:25Z</time></trkpt><trkpt lat="41.98299746895734" lon="-8.721026579248356"><ele>6.0</ele><time>2026-04-04T19:44:26Z</time></trkpt><trkpt lat="41.983126288953315" lon="-8.720788746794948"><ele>6.0</ele><time>2026-04-04T19:44:27Z</time></trkpt><trkpt lat="41.983223498136695" lon="-8.720532448405363"><ele>6.0</ele><time>2026-04-04T19:44:28Z</time></trkpt><trkpt lat="41.98334140762384" lon="-8.72027382397853"><ele>6.0</ele><time>2026-04-04T19:44:29Z</time></trkpt><trkpt lat="41.98346989561884" lon="-8.720013367868347"><ele>5.5</ele><time>2026-04-04T19:44:30Z</time></trkpt><trkpt lat="41.98361699848377" lon="-8.71977066513831"><ele>5.0</ele><time>2026-04-04T19:44:31Z</time></trkpt><trkpt lat="41.98376344994738" lon="-8.719534558930947"><ele>4.666666666666667</ele><time>2026-04-04T19:44:32Z</time></trkpt><trkpt lat="41.98392393082709" lon="-8.71930686071784"><ele>4.333333333333333</ele><time>2026-04-04T19:44:33Z</time></trkpt><trkpt lat="41.98408187584502" lon="-8.719115838194961"><ele>4.0</ele><time>2026-04-04T19:44:34Z</time></trkpt><trkpt lat="41.98422014661084" lon="-8.718904976804616"><ele>3.6666666666666665</ele><time>2026-04-04T19:44:35Z</time></trkpt><trkpt lat="41.98436907366919" lon="-8.718713470076137"><ele>3.333333333333333</ele><time>2026-04-04T19:44:36Z</time></trkpt><trkpt lat="41.984514087573984" lon="-8.718526888955397"><ele>3.0</ele><time>2026-04-04T19:44:37Z</time></trkpt><trkpt lat="41.98464224104541" lon="-8.718360134080418"><ele>3.0</ele><time>2026-04-04T19:44:38Z</time></trkpt><trkpt lat="41.984795178967445" lon="-8.718190846883838"><ele>3.0</ele><time>2026-04-04T19:44:39Z</time></trkpt><trkpt lat="41.98492736018469" lon="-8.718003552609911"><ele>3.0</ele><time>2026-04-04T19:44:40Z</time></trkpt><trkpt lat="41.98506228737585" lon="-8.717830064689537"><ele>4.333333333333334</ele><time>2026-04-04T19:44:41Z</time></trkpt><trkpt lat="41.9851992101955" lon="-8.71765568514562"><ele>5.666666666666667</ele><time>2026-04-04T19:44:42Z</time></trkpt><trkpt lat="41.98533723341896" lon="-8.717485493957781"><ele>7.0</ele><time>2026-04-04T19:44:43Z</time></trkpt><trkpt lat="41.98548670656727" lon="-8.71731498725242"><ele>7.0</ele><time>2026-04-04T19:44:44Z</time></trkpt><trkpt lat="41.98564984022197" lon="-8.717156879515374"><ele>7.0</ele><time>2026-04-04T19:44:45Z</time></trkpt><trkpt lat="41.98582699653176" lon="-8.717014605035988"><ele>7.0</ele><time>2026-04-04T19:44:46Z</time></trkpt><trkpt lat="41.98601593865771" lon="-8.716887786454462"><ele>8.0</ele><time>2026-04-04T19:44:47Z</time></trkpt><trkpt lat="41.98621823990115" lon="-8.716780732779892"><ele>9.0</ele><time>2026-04-04T19:44:48Z</time></trkpt><trkpt lat="41.98642409431804" lon="-8.716688996612584"><ele>10.0</ele><time>2026-04-04T19:44:49Z</time></trkpt><trkpt lat="41.98663071228541" lon="-8.716619944501359"><ele>9.666666666666668</ele><time>2026-04-04T19:44:50Z</time></trkpt><trkpt lat="41.986825275235674" lon="-8.716568896389933"><ele>9.333333333333334</ele><time>2026-04-04T19:44:51Z</time></trkpt><trkpt lat="41.987007610442305" lon="-8.716524225497857"><ele>9.0</ele><time>2026-04-04T19:44:52Z</time></trkpt><trkpt lat="41.987178924828434" lon="-8.7164810989051"><ele>9.0</ele><time>2026-04-04T19:44:53Z</time></trkpt><trkpt lat="41.9873426583542" lon="-8.716439250191144"><ele>9.0</ele><time>2026-04-04T19:44:54Z</time></trkpt><trkpt lat="41.9874936870732" lon="-8.716390938358188"><ele>9.0</ele><time>2026-04-04T19:44:55Z</time></trkpt><trkpt lat="41.98764266931627" lon="-8.716325781841167"><ele>8.666666666666666</ele><time>2026-04-04T19:44:56Z</time></trkpt><trkpt lat="41.98779547704202" lon="-8.71625418343765"><ele>8.333333333333332</ele><time>2026-04-04T19:44:57Z</time></trkpt><trkpt lat="41.987948878786" lon="-8.716177824564053"><ele>8.0</ele><time>2026-04-04T19:44:58Z</time></trkpt><trkpt lat="41.98810056922809" lon="-8.716080910952298"><ele>8.666666666666666</ele><time>2026-04-04T19:44:59Z</time></trkpt><trkpt lat="41.9882546188198" lon="-8.71596949502099"><ele>9.333333333333334</ele><time>2026-04-04T19:45:00Z</time></trkpt><trkpt lat="41.9884065307612" lon="-8.715846269653216"><ele>10.0</ele><time>2026-04-04T19:45:01Z</time></trkpt><trkpt lat="41.988555929533035" lon="-8.715703164322342"><ele>11.333333333333334</ele><time>2026-04-04T19:45:02Z</time></trkpt><trkpt lat="41.9886970313284" lon="-8.71554430149414"><ele>12.666666666666668</ele><time>2026-04-04T19:45:03Z</time></trkpt><trkpt lat="41.98882759323821" lon="-8.715368065505487"><ele>14.0</ele><time>2026-04-04T19:45:04Z</time></trkpt><trkpt lat="41.988959721471446" lon="-8.715177287482998"><ele>13.666666666666668</ele><time>2026-04-04T19:45:05Z</time></trkpt><trkpt lat="41.989089216175856" lon="-8.714982882627266"><ele>13.333333333333332</ele><time>2026-04-04T19:45:06Z</time></trkpt><trkpt lat="41.989218973435285" lon="-8.714786167775673"><ele>13.0</ele><time>2026-04-04T19:45:07Z</time></trkpt><trkpt lat="41.98934128091349" lon="-8.714601088914485"><ele>13.0</ele><time>2026-04-04T19:45:08Z</time></trkpt><trkpt lat="41.9894569970955" lon="-8.71443019550466"><ele>13.0</ele><time>2026-04-04T19:45:09Z</time></trkpt><trkpt lat="41.989566839212436" lon="-8.714254862833156"><ele>13.0</ele><time>2026-04-04T19:45:10Z</time></trkpt><trkpt lat="41.989683071512104" lon="-8.714081176021054"><ele>12.666666666666666</ele><time>2026-04-04T19:45:11Z</time></trkpt><trkpt lat="41.98979774867327" lon="-8.713903955587906"><ele>12.333333333333332</ele><time>2026-04-04T19:45:12Z</time></trkpt><trkpt lat="41.989915157886784" lon="-8.713723823107376"><ele>12.0</ele><time>2026-04-04T19:45:13Z</time></trkpt><trkpt lat="41.990013692686695" lon="-8.713530134877601"><ele>11.666666666666666</ele><time>2026-04-04T19:45:14Z</time></trkpt><trkpt lat="41.99013113790881" lon="-8.713331517811783"><ele>11.333333333333332</ele><time>2026-04-04T19:45:15Z</time></trkpt><trkpt lat="41.99024668393336" lon="-8.71312347136234"><ele>11.0</ele><time>2026-04-04T19:45:16Z</time></trkpt><trkpt lat="41.99036863124921" lon="-8.712917016409644"><ele>11.333333333333332</ele><time>2026-04-04T19:45:16.999Z</time></trkpt><trkpt lat="41.990471579441405" lon="-8.712697448025711"><ele>11.666666666666666</ele><time>2026-04-04T19:45:17.999Z</time></trkpt><trkpt lat="41.9905653268328" lon="-8.712488871453498"><ele>12.0</ele><time>2026-04-04T19:45:18.999Z</time></trkpt><trkpt lat="41.9906534707736" lon="-8.712274228826285"><ele>12.0</ele><time>2026-04-04T19:45:19.999Z</time></trkpt><trkpt lat="41.99074329637216" lon="-8.712062018571975"><ele>12.0</ele><time>2026-04-04T19:45:20.999Z</time></trkpt><trkpt lat="41.99082672430557" lon="-8.711847629625941"><ele>12.0</ele><time>2026-04-04T19:45:21.999Z</time></trkpt><trkpt lat="41.99091173660432" lon="-8.71163700064714"><ele>14.0</ele><time>2026-04-04T19:45:22.999Z</time></trkpt><trkpt lat="41.99099225181837" lon="-8.71141847222499"><ele>16.0</ele><time>2026-04-04T19:45:23.999Z</time></trkpt><trkpt lat="41.99106699292636" lon="-8.711195564797046"><ele>18.0</ele><time>2026-04-04T19:45:24.999Z</time></trkpt><trkpt lat="41.99113873821562" lon="-8.710967156855375"><ele>18.0</ele><time>2026-04-04T19:45:25.999Z</time></trkpt><trkpt lat="41.991207587259524" lon="-8.710734062410554"><ele>18.0</ele><time>2026-04-04T19:45:26.999Z</time></trkpt><trkpt lat="41.991270750273" lon="-8.710495664422288"><ele>18.0</ele><time>2026-04-04T19:45:27.999Z</time></trkpt><trkpt lat="41.991333306969565" lon="-8.710256619663095"><ele>16.333333333333332</ele><time>2026-04-04T19:45:28.999Z</time></trkpt><trkpt lat="41.99139393918142" lon="-8.710020257456321"><ele>14.666666666666666</ele><time>2026-04-04T19:45:29.999Z</time></trkpt><trkpt lat="41.99144625398467" lon="-8.709792780494597"><ele>13.0</ele><time>2026-04-04T19:45:30.999Z</time></trkpt><trkpt lat="41.991479742653695" lon="-8.709575283506998"><ele>13.0</ele><time>2026-04-04T19:45:31.999Z</time></trkpt><trkpt lat="41.99152737002267" lon="-8.709363726791347"><ele>13.0</ele><time>2026-04-04T19:45:32.999Z</time></trkpt><trkpt lat="41.99157829579283" lon="-8.709135235823913"><ele>13.0</ele><time>2026-04-04T19:45:33.999Z</time></trkpt><trkpt lat="41.99164644867225" lon="-8.70890290841513"><ele>13.333333333333332</ele><time>2026-04-04T19:45:34.999Z</time></trkpt><trkpt lat="41.99168459200629" lon="-8.708660781829424"><ele>13.666666666666668</ele><time>2026-04-04T19:45:35.999Z</time></trkpt><trkpt lat="41.99173339001235" lon="-8.708441364367241"><ele>14.0</ele><time>2026-04-04T19:45:36.999Z</time></trkpt><trkpt lat="41.99177978718618" lon="-8.708232661588422"><ele>14.0</ele><time>2026-04-04T19:45:37.999Z</time></trkpt><trkpt lat="41.99183900875609" lon="-8.708043255810896"><ele>14.0</ele><time>2026-04-04T19:45:38.999Z</time></trkpt><trkpt lat="41.99187748069264" lon="-8.707853790129317"><ele>14.0</ele><time>2026-04-04T19:45:39.999Z</time></trkpt><trkpt lat="41.99191777369649" lon="-8.707674524445736"><ele>14.0</ele><time>2026-04-04T19:45:40.999Z</time></trkpt><trkpt lat="41.9919575355274" lon="-8.707504598645853"><ele>14.0</ele><time>2026-04-04T19:45:41.999Z</time></trkpt><trkpt lat="41.992000558904614" lon="-8.707316228906077"><ele>14.0</ele><time>2026-04-04T19:45:42.999Z</time></trkpt><trkpt lat="41.99204651535252" lon="-8.707113163724122"><ele>14.0</ele><time>2026-04-04T19:45:43.999Z</time></trkpt><trkpt lat="41.99209408328776" lon="-8.70690730332183"><ele>13.666666666666668</ele><time>2026-04-04T19:45:44.999Z</time></trkpt><trkpt lat="41.99213990858322" lon="-8.70668848787933"><ele>13.333333333333332</ele><time>2026-04-04T19:45:45.999Z</time></trkpt><trkpt lat="41.99217418727487" lon="-8.706470906271877"><ele>13.0</ele><time>2026-04-04T19:45:46.999Z</time></trkpt><trkpt lat="41.99222135525182" lon="-8.70626078277736"><ele>13.666666666666666</ele><time>2026-04-04T19:45:47.999Z</time></trkpt><trkpt lat="41.992267535612044" lon="-8.706055061147131"><ele>14.333333333333332</ele><time>2026-04-04T19:45:48.999Z</time></trkpt><trkpt lat="41.99231103683751" lon="-8.705860870644429"><ele>15.0</ele><time>2026-04-04T19:45:49.999Z</time></trkpt><trkpt lat="41.992368555357196" lon="-8.7056816349982"><ele>15.0</ele><time>2026-04-04T19:45:50.999Z</time></trkpt><trkpt lat="41.9924042508813" lon="-8.705501603157197"><ele>15.0</ele><time>2026-04-04T19:45:51.999Z</time></trkpt><trkpt lat="41.9924423699391" lon="-8.705329256329945"><ele>15.0</ele><time>2026-04-04T19:45:52.999Z</time></trkpt><trkpt lat="41.99248105454181" lon="-8.70515895208572"><ele>15.0</ele><time>2026-04-04T19:45:53.999Z</time></trkpt><trkpt lat="41.99251914816198" lon="-8.70497867987771"><ele>15.0</ele><time>2026-04-04T19:45:54.999Z</time></trkpt><trkpt lat="41.992562724640294" lon="-8.704792622661108"><ele>15.0</ele><time>2026-04-04T19:45:55.999Z</time></trkpt><trkpt lat="41.9926010953465" lon="-8.70459562785671"><ele>15.0</ele><time>2026-04-04T19:45:56.999Z</time></trkpt><trkpt lat="41.992642007314544" lon="-8.704400660660987"><ele>15.0</ele><time>2026-04-04T19:45:57.999Z</time></trkpt><trkpt lat="41.9926838505346" lon="-8.704211718053514"><ele>15.0</ele><time>2026-04-04T19:45:58.999Z</time></trkpt><trkpt lat="41.99272652892004" lon="-8.70402043686773"><ele>15.0</ele><time>2026-04-04T19:45:59.999Z</time></trkpt><trkpt lat="41.99277460635345" lon="-8.70383180719725"><ele>15.0</ele><time>2026-04-04T19:46:00.999Z</time></trkpt><trkpt lat="41.99280730346737" lon="-8.703634053906107"><ele>15.0</ele><time>2026-04-04T19:46:01.999Z</time></trkpt><trkpt lat="41.992852325559724" lon="-8.7034324835859"><ele>15.333333333333332</ele><time>2026-04-04T19:46:02.999Z</time></trkpt><trkpt lat="41.99289908887069" lon="-8.703223117967868"><ele>15.666666666666666</ele><time>2026-04-04T19:46:03.999Z</time></trkpt><trkpt lat="41.9929484728762" lon="-8.703002019307672"><ele>16.0</ele><time>2026-04-04T19:46:04.999Z</time></trkpt><trkpt lat="41.992998924218305" lon="-8.7027714201122"><ele>16.0</ele><time>2026-04-04T19:46:05.999Z</time></trkpt><trkpt lat="41.99305021486528" lon="-8.702543748788793"><ele>16.0</ele><time>2026-04-04T19:46:06.999Z</time></trkpt><trkpt lat="41.99310092710975" lon="-8.702321670905883"><ele>16.0</ele><time>2026-04-04T19:46:07.999Z</time></trkpt><trkpt lat="41.993149686252394" lon="-8.702105273389083"><ele>16.0</ele><time>2026-04-04T19:46:08.999Z</time></trkpt><trkpt lat="41.993211706499594" lon="-8.701894282628233"><ele>16.0</ele><time>2026-04-04T19:46:09.999Z</time></trkpt><trkpt lat="41.99325033327318" lon="-8.701672610408075"><ele>16.0</ele><time>2026-04-04T19:46:10.999Z</time></trkpt><trkpt lat="41.99328288687894" lon="-8.70144494776922"><ele>16.0</ele><time>2026-04-04T19:46:11.999Z</time></trkpt><trkpt lat="41.99331686662685" lon="-8.701213446582779"><ele>16.0</ele><time>2026-04-04T19:46:12.999Z</time></trkpt><trkpt lat="41.9933479876076" lon="-8.700994321215871"><ele>16.0</ele><time>2026-04-04T19:46:13.999Z</time></trkpt><trkpt lat="41.993379435027656" lon="-8.700789702501373"><ele>17.666666666666664</ele><time>2026-04-04T19:46:14.999Z</time></trkpt><trkpt lat="41.993412068472985" lon="-8.700589983555657"><ele>19.333333333333332</ele><time>2026-04-04T19:46:15.999Z</time></trkpt><trkpt lat="41.99344315118377" lon="-8.700389113425478"><ele>21.0</ele><time>2026-04-04T19:46:16.999Z</time></trkpt><trkpt lat="41.99347408603301" lon="-8.700170973588895"><ele>21.0</ele><time>2026-04-04T19:46:17.999Z</time></trkpt><trkpt lat="41.99350522874159" lon="-8.699945469600998"><ele>21.0</ele><time>2026-04-04T19:46:18.999Z</time></trkpt><trkpt lat="41.99353713063926" lon="-8.699713423991243"><ele>21.0</ele><time>2026-04-04T19:46:19.999Z</time></trkpt><trkpt lat="41.99357058553717" lon="-8.699479978886284"><ele>21.666666666666668</ele><time>2026-04-04T19:46:20.999Z</time></trkpt><trkpt lat="41.993603702983926" lon="-8.699262695733784"><ele>22.333333333333336</ele><time>2026-04-04T19:46:21.999Z</time></trkpt><trkpt lat="41.99361538090767" lon="-8.699057076756253"><ele>23.0</ele><time>2026-04-04T19:46:22.999Z</time></trkpt><trkpt lat="41.99365646966053" lon="-8.698859054984553"><ele>23.0</ele><time>2026-04-04T19:46:23.999Z</time></trkpt><trkpt lat="41.99368353317158" lon="-8.698652882969066"><ele>23.0</ele><time>2026-04-04T19:46:24.999Z</time></trkpt><trkpt lat="41.99370686338202" lon="-8.698438134465867"><ele>23.0</ele><time>2026-04-04T19:46:25.999Z</time></trkpt><trkpt lat="41.993731892068666" lon="-8.698212508552203"><ele>23.333333333333336</ele><time>2026-04-04T19:46:26.999Z</time></trkpt><trkpt lat="41.99376316024786" lon="-8.697988097872235"><ele>23.666666666666668</ele><time>2026-04-04T19:46:27.999Z</time></trkpt><trkpt lat="41.993799425744385" lon="-8.697771653414092"><ele>24.0</ele><time>2026-04-04T19:46:28.999Z</time></trkpt><trkpt lat="41.993829064871846" lon="-8.69757275838699"><ele>24.0</ele><time>2026-04-04T19:46:30Z</time></trkpt><trkpt lat="41.99384531393718" lon="-8.697382170984103"><ele>24.0</ele><time>2026-04-04T19:46:31Z</time></trkpt><trkpt lat="41.993870871114986" lon="-8.697195952153342"><ele>24.0</ele><time>2026-04-04T19:46:32Z</time></trkpt><trkpt lat="41.99389728726316" lon="-8.697003474160054"><ele>24.0</ele><time>2026-04-04T19:46:33Z</time></trkpt><trkpt lat="41.99393970433162" lon="-8.696809293764806"><ele>23.5</ele><time>2026-04-04T19:46:34Z</time></trkpt><trkpt lat="41.99395791016765" lon="-8.696613828636696"><ele>23.0</ele><time>2026-04-04T19:46:35Z</time></trkpt><trkpt lat="41.993985558690945" lon="-8.69642261084044"><ele>22.5</ele><time>2026-04-04T19:46:36Z</time></trkpt><trkpt lat="41.99401115451468" lon="-8.696240589373044"><ele>22.0</ele><time>2026-04-04T19:46:37Z</time></trkpt><trkpt lat="41.994032762534886" lon="-8.696063485264977"><ele>21.0</ele><time>2026-04-04T19:46:38Z</time></trkpt><trkpt lat="41.994055580697825" lon="-8.695893644788937"><ele>20.0</ele><time>2026-04-04T19:46:39Z</time></trkpt><trkpt lat="41.99407910416489" lon="-8.695718697253842"><ele>19.0</ele><time>2026-04-04T19:46:40Z</time></trkpt><trkpt lat="41.99410676601943" lon="-8.695531937759231"><ele>18.0</ele><time>2026-04-04T19:46:41Z</time></trkpt><trkpt lat="41.99413703440933" lon="-8.695346821128348"><ele>17.75</ele><time>2026-04-04T19:46:42Z</time></trkpt><trkpt lat="41.99416405183561" lon="-8.69517027091555"><ele>17.5</ele><time>2026-04-04T19:46:43Z</time></trkpt><trkpt lat="41.99418823976678" lon="-8.694989794271667"><ele>17.25</ele><time>2026-04-04T19:46:44Z</time></trkpt><trkpt lat="41.99421287891151" lon="-8.694806558034225"><ele>17.0</ele><time>2026-04-04T19:46:45Z</time></trkpt><trkpt lat="41.99423526538794" lon="-8.694623413706298"><ele>16.75</ele><time>2026-04-04T19:46:46Z</time></trkpt><trkpt lat="41.99425779473425" lon="-8.694434969322252"><ele>16.5</ele><time>2026-04-04T19:46:47Z</time></trkpt><trkpt lat="41.99428350180883" lon="-8.694247630789436"><ele>16.25</ele><time>2026-04-04T19:46:48Z</time></trkpt><trkpt lat="41.9943112039739" lon="-8.694052577114737"><ele>16.0</ele><time>2026-04-04T19:46:49Z</time></trkpt><trkpt lat="41.99433942028308" lon="-8.69386062332364"><ele>16.0</ele><time>2026-04-04T19:46:50Z</time></trkpt><trkpt lat="41.99436692029227" lon="-8.69366813299379"><ele>16.0</ele><time>2026-04-04T19:46:51Z</time></trkpt><trkpt lat="41.99439420586346" lon="-8.693477938497535"><ele>16.0</ele><time>2026-04-04T19:46:52Z</time></trkpt><trkpt lat="41.99441772129023" lon="-8.693289243540884"><ele>16.0</ele><time>2026-04-04T19:46:53Z</time></trkpt><trkpt lat="41.99444549803247" lon="-8.693102829227639"><ele>15.75</ele><time>2026-04-04T19:46:54Z</time></trkpt><trkpt lat="41.99447118735887" lon="-8.692909680289402"><ele>15.5</ele><time>2026-04-04T19:46:55Z</time></trkpt><trkpt lat="41.99448777154082" lon="-8.692716092619168"><ele>15.25</ele><time>2026-04-04T19:46:56Z</time></trkpt><trkpt lat="41.99452182500412" lon="-8.69251679324945"><ele>15.0</ele><time>2026-04-04T19:46:57Z</time></trkpt><trkpt lat="41.99457788163723" lon="-8.692317890326967"><ele>14.25</ele><time>2026-04-04T19:46:58Z</time></trkpt><trkpt lat="41.99461926531457" lon="-8.69212140979234"><ele>13.5</ele><time>2026-04-04T19:46:59Z</time></trkpt><trkpt lat="41.99466638283196" lon="-8.691934584119233"><ele>12.75</ele><time>2026-04-04T19:47:00Z</time></trkpt><trkpt lat="41.994721202498035" lon="-8.691760028224396"><ele>12.0</ele><time>2026-04-04T19:47:01Z</time></trkpt><trkpt lat="41.99478411205754" lon="-8.691581113865926"><ele>11.333333333333334</ele><time>2026-04-04T19:47:02Z</time></trkpt><trkpt lat="41.99485250675291" lon="-8.69140491261668"><ele>10.666666666666668</ele><time>2026-04-04T19:47:03Z</time></trkpt><trkpt lat="41.99492475399045" lon="-8.691225423242892"><ele>10.0</ele><time>2026-04-04T19:47:04Z</time></trkpt><trkpt lat="41.99500720035591" lon="-8.691043687321892"><ele>9.0</ele><time>2026-04-04T19:47:05Z</time></trkpt><trkpt lat="41.99508517388742" lon="-8.690850207594382"><ele>8.0</ele><time>2026-04-04T19:47:06Z</time></trkpt><trkpt lat="41.99515561017526" lon="-8.690664350760587"><ele>7.0</ele><time>2026-04-04T19:47:07Z</time></trkpt><trkpt lat="41.995229635846755" lon="-8.690493472090704"><ele>7.0</ele><time>2026-04-04T19:47:08Z</time></trkpt><trkpt lat="41.9952981450171" lon="-8.690329565949654"><ele>7.0</ele><time>2026-04-04T19:47:09Z</time></trkpt><trkpt lat="41.995369617234104" lon="-8.690166135352413"><ele>7.0</ele><time>2026-04-04T19:47:10Z</time></trkpt><trkpt lat="41.995447068604605" lon="-8.690000540284617"><ele>7.0</ele><time>2026-04-04T19:47:11Z</time></trkpt><trkpt lat="41.995521764965375" lon="-8.689835394911544"><ele>8.25</ele><time>2026-04-04T19:47:12Z</time></trkpt><trkpt lat="41.99557951967525" lon="-8.689659027925554"><ele>9.5</ele><time>2026-04-04T19:47:13Z</time></trkpt><trkpt lat="41.99564984708416" lon="-8.689497997038542"><ele>10.75</ele><time>2026-04-04T19:47:14Z</time></trkpt><trkpt lat="41.995727931577754" lon="-8.68932810059716"><ele>12.0</ele><time>2026-04-04T19:47:15Z</time></trkpt><trkpt lat="41.99580935027518" lon="-8.689164951096771"><ele>12.666666666666668</ele><time>2026-04-04T19:47:16Z</time></trkpt><trkpt lat="41.99590106890239" lon="-8.688996346986348"><ele>13.333333333333334</ele><time>2026-04-04T19:47:17Z</time></trkpt><trkpt lat="41.99600021315091" lon="-8.688831726957027"><ele>14.0</ele><time>2026-04-04T19:47:18Z</time></trkpt><trkpt lat="41.99610968440246" lon="-8.68866885095412"><ele>15.666666666666668</ele><time>2026-04-04T19:47:19Z</time></trkpt><trkpt lat="41.99622294452337" lon="-8.688514967753074"><ele>17.333333333333332</ele><time>2026-04-04T19:47:20Z</time></trkpt><trkpt lat="41.996328014470414" lon="-8.688379610040228"><ele>19.0</ele><time>2026-04-04T19:47:20.999Z</time></trkpt><trkpt lat="41.996439721001614" lon="-8.688249183351537"><ele>19.0</ele><time>2026-04-04T19:47:21.999Z</time></trkpt><trkpt lat="41.99655859096682" lon="-8.688121903756086"><ele>19.0</ele><time>2026-04-04T19:47:22.999Z</time></trkpt><trkpt lat="41.996678359308156" lon="-8.688004471855992"><ele>19.0</ele><time>2026-04-04T19:47:23.999Z</time></trkpt><trkpt lat="41.99680489538734" lon="-8.687890185707614"><ele>21.25</ele><time>2026-04-04T19:47:24.999Z</time></trkpt><trkpt lat="41.99692664172256" lon="-8.687787728147981"><ele>23.5</ele><time>2026-04-04T19:47:25.999Z</time></trkpt><trkpt lat="41.997054858849225" lon="-8.687689101049875"><ele>25.75</ele><time>2026-04-04T19:47:26.999Z</time></trkpt><trkpt lat="41.997188361726856" lon="-8.687599555527944"><ele>28.0</ele><time>2026-04-04T19:47:27.999Z</time></trkpt><trkpt lat="41.997324085694046" lon="-8.687515020735633"><ele>28.666666666666668</ele><time>2026-04-04T19:47:28.999Z</time></trkpt><trkpt lat="41.99746251703004" lon="-8.687438658004567"><ele>29.333333333333336</ele><time>2026-04-04T19:47:29.999Z</time></trkpt><trkpt lat="41.9976086667352" lon="-8.687368404144715"><ele>30.0</ele><time>2026-04-04T19:47:30.999Z</time></trkpt><trkpt lat="41.997759446616044" lon="-8.68731429984406"><ele>31.333333333333336</ele><time>2026-04-04T19:47:31.999Z</time></trkpt><trkpt lat="41.997906210971976" lon="-8.687239426195323"><ele>32.66666666666667</ele><time>2026-04-04T19:47:32.999Z</time></trkpt><trkpt lat="41.99805861823452" lon="-8.687176761024283"><ele>34.0</ele><time>2026-04-04T19:47:33.999Z</time></trkpt><trkpt lat="41.99820073326942" lon="-8.687112589108086"><ele>34.0</ele><time>2026-04-04T19:47:34.999Z</time></trkpt><trkpt lat="41.99833615042556" lon="-8.687056851584655"><ele>34.0</ele><time>2026-04-04T19:47:35.999Z</time></trkpt><trkpt lat="41.99845481910811" lon="-8.686997506881525"><ele>34.0</ele><time>2026-04-04T19:47:36.999Z</time></trkpt><trkpt lat="41.99857498255951" lon="-8.68694065323068"><ele>34.0</ele><time>2026-04-04T19:47:37.999Z</time></trkpt><trkpt lat="41.998700570730556" lon="-8.686886197680153"><ele>33.75</ele><time>2026-04-04T19:47:38.999Z</time></trkpt><trkpt lat="41.99881693016228" lon="-8.686822276350245"><ele>33.5</ele><time>2026-04-04T19:47:39.999Z</time></trkpt><trkpt lat="41.99894661203058" lon="-8.686762638189965"><ele>33.25</ele><time>2026-04-04T19:47:40.999Z</time></trkpt><trkpt lat="41.9990790187091" lon="-8.686701011500707"><ele>33.0</ele><time>2026-04-04T19:47:41.999Z</time></trkpt><trkpt lat="41.999219849374974" lon="-8.68663684434879"><ele>33.666666666666664</ele><time>2026-04-04T19:47:42.999Z</time></trkpt><trkpt lat="41.999363891601" lon="-8.686575162793858"><ele>34.33333333333333</ele><time>2026-04-04T19:47:43.999Z</time></trkpt><trkpt lat="41.99951410515124" lon="-8.68651441344268"><ele>35.0</ele><time>2026-04-04T19:47:44.999Z</time></trkpt><trkpt lat="41.99964298807617" lon="-8.686433644208348"><ele>35.0</ele><time>2026-04-04T19:47:45.999Z</time></trkpt><trkpt lat="41.999774482194816" lon="-8.686371462626838"><ele>35.0</ele><time>2026-04-04T19:47:46.999Z</time></trkpt><trkpt lat="41.99991005927664" lon="-8.68630735028089"><ele>35.0</ele><time>2026-04-04T19:47:47.999Z</time></trkpt><trkpt lat="42.000048583015015" lon="-8.68624184448264"><ele>35.0</ele><time>2026-04-04T19:47:48.999Z</time></trkpt><trkpt lat="42.00018809232608" lon="-8.686178203604971"><ele>35.0</ele><time>2026-04-04T19:47:49.999Z</time></trkpt><trkpt lat="42.000331712131825" lon="-8.686113844560174"><ele>35.0</ele><time>2026-04-04T19:47:50.999Z</time></trkpt><trkpt lat="42.00046291947462" lon="-8.686055604778092"><ele>35.0</ele><time>2026-04-04T19:47:51.999Z</time></trkpt><trkpt lat="42.00059864037487" lon="-8.686013529804805"><ele>35.0</ele><time>2026-04-04T19:47:52.999Z</time></trkpt><trkpt lat="42.00073399762376" lon="-8.685933902530174"><ele>35.5</ele><time>2026-04-04T19:47:53.999Z</time></trkpt><trkpt lat="42.00087512933443" lon="-8.685863381561724"><ele>36.0</ele><time>2026-04-04T19:47:54.999Z</time></trkpt><trkpt lat="42.00102035935609" lon="-8.68579716167043"><ele>36.5</ele><time>2026-04-04T19:47:55.999Z</time></trkpt><trkpt lat="42.0011567614018" lon="-8.685735349944819"><ele>37.0</ele><time>2026-04-04T19:47:56.999Z</time></trkpt><trkpt lat="42.001292523249816" lon="-8.685676134783542"><ele>37.0</ele><time>2026-04-04T19:47:57.999Z</time></trkpt><trkpt lat="42.00143170695318" lon="-8.68561251201741"><ele>37.0</ele><time>2026-04-04T19:47:58.999Z</time></trkpt><trkpt lat="42.001574272917814" lon="-8.685550612601565"><ele>37.0</ele><time>2026-04-04T19:47:59.999Z</time></trkpt><trkpt lat="42.001713480860595" lon="-8.685490717976645"><ele>37.0</ele><time>2026-04-04T19:48:00.999Z</time></trkpt><trkpt lat="42.001853783777456" lon="-8.685428546149703"><ele>37.66666666666667</ele><time>2026-04-04T19:48:01.999Z</time></trkpt><trkpt lat="42.001996346921956" lon="-8.685367688608777"><ele>38.333333333333336</ele><time>2026-04-04T19:48:02.999Z</time></trkpt><trkpt lat="42.002146022532" lon="-8.685296730075413"><ele>39.0</ele><time>2026-04-04T19:48:03.999Z</time></trkpt><trkpt lat="42.00229033658236" lon="-8.685234786995963"><ele>41.333333333333336</ele><time>2026-04-04T19:48:04.999Z</time></trkpt><trkpt lat="42.002440762928565" lon="-8.685161794900575"><ele>43.66666666666667</ele><time>2026-04-04T19:48:05.999Z</time></trkpt><trkpt lat="42.00258868450032" lon="-8.685096563621686"><ele>46.0</ele><time>2026-04-04T19:48:06.999Z</time></trkpt><trkpt lat="42.00273495512848" lon="-8.68503008652137"><ele>46.25</ele><time>2026-04-04T19:48:07.999Z</time></trkpt><trkpt lat="42.002861686183394" lon="-8.684938992668735"><ele>46.5</ele><time>2026-04-04T19:48:08.999Z</time></trkpt><trkpt lat="42.00298494600403" lon="-8.68485679393902"><ele>46.75</ele><time>2026-04-04T19:48:09.999Z</time></trkpt><trkpt lat="42.00310670693686" lon="-8.684761946713271"><ele>47.0</ele><time>2026-04-04T19:48:10.999Z</time></trkpt><trkpt lat="42.0032201231738" lon="-8.684656446769463"><ele>47.0</ele><time>2026-04-04T19:48:11.999Z</time></trkpt><trkpt lat="42.00332991092948" lon="-8.68454593868095"><ele>47.0</ele><time>2026-04-04T19:48:12.999Z</time></trkpt><trkpt lat="42.0034364332372" lon="-8.684423388491766"><ele>47.0</ele><time>2026-04-04T19:48:13.999Z</time></trkpt><trkpt lat="42.00353875098992" lon="-8.684289721519232"><ele>47.0</ele><time>2026-04-04T19:48:14.999Z</time></trkpt><trkpt lat="42.00364205971281" lon="-8.684134740240241"><ele>48.666666666666664</ele><time>2026-04-04T19:48:15.999Z</time></trkpt><trkpt lat="42.00373937551029" lon="-8.683960619351794"><ele>50.33333333333333</ele><time>2026-04-04T19:48:16.999Z</time></trkpt><trkpt lat="42.00382847253508" lon="-8.683767725066412"><ele>52.0</ele><time>2026-04-04T19:48:17.999Z</time></trkpt><trkpt lat="42.003910283916056" lon="-8.683556781457426"><ele>52.33333333333333</ele><time>2026-04-04T19:48:18.999Z</time></trkpt><trkpt lat="42.00398604255983" lon="-8.683333350351173"><ele>52.66666666666667</ele><time>2026-04-04T19:48:19.999Z</time></trkpt><trkpt lat="42.004059485548964" lon="-8.683121029523091"><ele>53.0</ele><time>2026-04-04T19:48:20.999Z</time></trkpt><trkpt lat="42.004132805738195" lon="-8.682933344088536"><ele>53.0</ele><time>2026-04-04T19:48:21.999Z</time></trkpt><trkpt lat="42.00421372893378" lon="-8.682775700519716"><ele>53.0</ele><time>2026-04-04T19:48:22.999Z</time></trkpt><trkpt lat="42.00431603217938" lon="-8.682643359458451"><ele>53.0</ele><time>2026-04-04T19:48:23.999Z</time></trkpt><trkpt lat="42.00441651294378" lon="-8.68251385888867"><ele>53.0</ele><time>2026-04-04T19:48:24.999Z</time></trkpt><trkpt lat="42.004524272578074" lon="-8.682392150373307"><ele>53.0</ele><time>2026-04-04T19:48:25.999Z</time></trkpt><trkpt lat="42.00463588620738" lon="-8.68228577581012"><ele>53.0</ele><time>2026-04-04T19:48:26.999Z</time></trkpt><trkpt lat="42.00474968399834" lon="-8.682187234805957"><ele>53.0</ele><time>2026-04-04T19:48:27.999Z</time></trkpt><trkpt lat="42.00486370433303" lon="-8.682088392160404"><ele>53.0</ele><time>2026-04-04T19:48:28.999Z</time></trkpt><trkpt lat="42.0049717166857" lon="-8.681955024853908"><ele>53.333333333333336</ele><time>2026-04-04T19:48:29.999Z</time></trkpt><trkpt lat="42.00509765551117" lon="-8.681841297535081"><ele>53.66666666666667</ele><time>2026-04-04T19:48:30.999Z</time></trkpt><trkpt lat="42.00522915936893" lon="-8.681722524261966"><ele>54.0</ele><time>2026-04-04T19:48:31.999Z</time></trkpt><trkpt lat="42.00537445063017" lon="-8.681610883328947"><ele>54.0</ele><time>2026-04-04T19:48:32.998Z</time></trkpt><trkpt lat="42.00550765301504" lon="-8.681476959771494"><ele>54.0</ele><time>2026-04-04T19:48:33.998Z</time></trkpt><trkpt lat="42.00563805029086" lon="-8.681355257602627"><ele>54.0</ele><time>2026-04-04T19:48:34.998Z</time></trkpt><trkpt lat="42.00576021716363" lon="-8.681245786565729"><ele>54.25</ele><time>2026-04-04T19:48:36Z</time></trkpt><trkpt lat="42.005874966399695" lon="-8.681147809094908"><ele>54.5</ele><time>2026-04-04T19:48:37Z</time></trkpt><trkpt lat="42.00598033632472" lon="-8.681053184623655"><ele>54.75</ele><time>2026-04-04T19:48:38Z</time></trkpt><trkpt lat="42.00608350024056" lon="-8.680964084514153"><ele>55.0</ele><time>2026-04-04T19:48:39Z</time></trkpt><trkpt lat="42.006195620340904" lon="-8.680871335293647"><ele>55.0</ele><time>2026-04-04T19:48:40Z</time></trkpt><trkpt lat="42.00630685945359" lon="-8.680767141835634"><ele>55.0</ele><time>2026-04-04T19:48:41Z</time></trkpt><trkpt lat="42.00642935785092" lon="-8.680654912620817"><ele>55.0</ele><time>2026-04-04T19:48:42Z</time></trkpt><trkpt lat="42.00654908438286" lon="-8.680543359070388"><ele>55.0</ele><time>2026-04-04T19:48:43Z</time></trkpt><trkpt lat="42.00666675207288" lon="-8.68043559650533"><ele>55.666666666666664</ele><time>2026-04-04T19:48:44Z</time></trkpt><trkpt lat="42.006797688373695" lon="-8.680322253763903"><ele>56.33333333333333</ele><time>2026-04-04T19:48:45Z</time></trkpt><trkpt lat="42.00693153440299" lon="-8.680194976065357"><ele>57.0</ele><time>2026-04-04T19:48:46Z</time></trkpt><trkpt lat="42.00706812273889" lon="-8.680080010929276"><ele>57.0</ele><time>2026-04-04T19:48:47Z</time></trkpt><trkpt lat="42.007197661699735" lon="-8.67995861223842"><ele>57.0</ele><time>2026-04-04T19:48:48Z</time></trkpt><trkpt lat="42.00731979120513" lon="-8.679841542057888"><ele>57.0</ele><time>2026-04-04T19:48:49Z</time></trkpt><trkpt lat="42.007446530857955" lon="-8.679722854126222"><ele>56.5</ele><time>2026-04-04T19:48:50Z</time></trkpt><trkpt lat="42.007575939822004" lon="-8.679611936590339"><ele>56.0</ele><time>2026-04-04T19:48:51Z</time></trkpt><trkpt lat="42.00769455351731" lon="-8.679511041349455"><ele>55.5</ele><time>2026-04-04T19:48:52Z</time></trkpt><trkpt lat="42.00780746074206" lon="-8.679407478285643"><ele>55.0</ele><time>2026-04-04T19:48:53Z</time></trkpt><trkpt lat="42.007913248004755" lon="-8.679314654748001"><ele>54.75</ele><time>2026-04-04T19:48:54Z</time></trkpt><trkpt lat="42.00801429742049" lon="-8.679222219793507"><ele>54.5</ele><time>2026-04-04T19:48:55Z</time></trkpt><trkpt lat="42.008116128214496" lon="-8.679128897210559"><ele>54.25</ele><time>2026-04-04T19:48:56Z</time></trkpt><trkpt lat="42.008221637330934" lon="-8.679034212085654"><ele>54.0</ele><time>2026-04-04T19:48:57Z</time></trkpt><trkpt lat="42.00832566786146" lon="-8.678939421116809"><ele>54.25</ele><time>2026-04-04T19:48:58Z</time></trkpt><trkpt lat="42.00843010983626" lon="-8.678845611402721"><ele>54.5</ele><time>2026-04-04T19:48:59Z</time></trkpt><trkpt lat="42.008536217693766" lon="-8.678754337688579"><ele>54.75</ele><time>2026-04-04T19:49:00Z</time></trkpt><trkpt lat="42.00864340135649" lon="-8.678659271102562"><ele>55.0</ele><time>2026-04-04T19:49:01Z</time></trkpt><trkpt lat="42.00873933960838" lon="-8.67855050647834"><ele>55.25</ele><time>2026-04-04T19:49:02Z</time></trkpt><trkpt lat="42.00884255265091" lon="-8.678457299994664"><ele>55.5</ele><time>2026-04-04T19:49:03Z</time></trkpt><trkpt lat="42.00894841957677" lon="-8.678361696895957"><ele>55.75</ele><time>2026-04-04T19:49:04Z</time></trkpt><trkpt lat="42.00905397827733" lon="-8.678266372170595"><ele>56.0</ele><time>2026-04-04T19:49:05Z</time></trkpt><trkpt lat="42.00915613722617" lon="-8.678174117607753"><ele>56.5</ele><time>2026-04-04T19:49:06Z</time></trkpt><trkpt lat="42.00926590183963" lon="-8.678087546225088"><ele>57.0</ele><time>2026-04-04T19:49:07Z</time></trkpt><trkpt lat="42.00936636890619" lon="-8.678000849068468"><ele>57.5</ele><time>2026-04-04T19:49:08Z</time></trkpt><trkpt lat="42.00946000660666" lon="-8.677920672927213"><ele>58.0</ele><time>2026-04-04T19:49:09Z</time></trkpt><trkpt lat="42.00955310985081" lon="-8.677839582999988"><ele>58.75</ele><time>2026-04-04T19:49:10Z</time></trkpt><trkpt lat="42.009641467524645" lon="-8.677735242390186"><ele>59.5</ele><time>2026-04-04T19:49:11Z</time></trkpt><trkpt lat="42.009749883758055" lon="-8.677661288167284"><ele>60.25</ele><time>2026-04-04T19:49:12Z</time></trkpt><trkpt lat="42.00984550369685" lon="-8.677554735182042"><ele>61.0</ele><time>2026-04-04T19:49:13Z</time></trkpt><trkpt lat="42.00993944643832" lon="-8.677478167904622"><ele>60.8</ele><time>2026-04-04T19:49:14Z</time></trkpt><trkpt lat="42.01003510834533" lon="-8.677387445743221"><ele>60.599999999999994</ele><time>2026-04-04T19:49:15Z</time></trkpt><trkpt lat="42.010131760609994" lon="-8.677298121101725"><ele>60.4</ele><time>2026-04-04T19:49:16Z</time></trkpt><trkpt lat="42.01022128081932" lon="-8.67721913733621"><ele>60.2</ele><time>2026-04-04T19:49:17Z</time></trkpt><trkpt lat="42.01030613368021" lon="-8.677135676252057"><ele>60.0</ele><time>2026-04-04T19:49:18Z</time></trkpt><trkpt lat="42.01038908585235" lon="-8.677059171691734"><ele>60.0</ele><time>2026-04-04T19:49:19Z</time></trkpt><trkpt lat="42.01047404959245" lon="-8.676988713474085"><ele>60.0</ele><time>2026-04-04T19:49:20Z</time></trkpt><trkpt lat="42.01055413704842" lon="-8.67691583759524"><ele>60.0</ele><time>2026-04-04T19:49:21Z</time></trkpt><trkpt lat="42.01063563568829" lon="-8.676841491950698"><ele>60.0</ele><time>2026-04-04T19:49:22Z</time></trkpt><trkpt lat="42.01071046291629" lon="-8.676774668070275"><ele>60.0</ele><time>2026-04-04T19:49:22.999Z</time></trkpt><trkpt lat="42.01078818851721" lon="-8.676704579509488"><ele>59.75</ele><time>2026-04-04T19:49:23.999Z</time></trkpt><trkpt lat="42.010874591184425" lon="-8.676635159000321"><ele>59.5</ele><time>2026-04-04T19:49:24.999Z</time></trkpt><trkpt lat="42.01097594984978" lon="-8.676543805129834"><ele>59.25</ele><time>2026-04-04T19:49:25.999Z</time></trkpt><trkpt lat="42.01108155982575" lon="-8.676438350824606"><ele>59.0</ele><time>2026-04-04T19:49:26.999Z</time></trkpt><trkpt lat="42.01120021380078" lon="-8.676327194982147"><ele>59.0</ele><time>2026-04-04T19:49:27.999Z</time></trkpt><trkpt lat="42.011326755190986" lon="-8.676210258661195"><ele>59.0</ele><time>2026-04-04T19:49:28.999Z</time></trkpt><trkpt lat="42.01144360480051" lon="-8.676107265994247"><ele>59.0</ele><time>2026-04-04T19:49:29.999Z</time></trkpt><trkpt lat="42.01155557586201" lon="-8.67600651953029"><ele>59.0</ele><time>2026-04-04T19:49:30.999Z</time></trkpt><trkpt lat="42.01166648483421" lon="-8.675911400867912"><ele>58.75</ele><time>2026-04-04T19:49:31.999Z</time></trkpt><trkpt lat="42.011779008599206" lon="-8.67580921605379"><ele>58.5</ele><time>2026-04-04T19:49:32.999Z</time></trkpt><trkpt lat="42.01189216720709" lon="-8.675711617445213"><ele>58.25</ele><time>2026-04-04T19:49:33.999Z</time></trkpt><trkpt lat="42.012009968821474" lon="-8.675610992022207"><ele>58.0</ele><time>2026-04-04T19:49:34.999Z</time></trkpt><trkpt lat="42.01212931886792" lon="-8.675520965915956"><ele>58.0</ele><time>2026-04-04T19:49:35.999Z</time></trkpt><trkpt lat="42.0122569912991" lon="-8.675431508271993"><ele>58.0</ele><time>2026-04-04T19:49:36.999Z</time></trkpt><trkpt lat="42.01238820790005" lon="-8.675351217456145"><ele>58.0</ele><time>2026-04-04T19:49:37.999Z</time></trkpt><trkpt lat="42.012514325499396" lon="-8.67527658089453"><ele>58.0</ele><time>2026-04-04T19:49:38.999Z</time></trkpt><trkpt lat="42.012636939398575" lon="-8.675198479229804"><ele>57.0</ele><time>2026-04-04T19:49:39.999Z</time></trkpt><trkpt lat="42.0127544679554" lon="-8.675124868511322"><ele>56.0</ele><time>2026-04-04T19:49:40.999Z</time></trkpt><trkpt lat="42.012863222963254" lon="-8.675050002313348"><ele>55.0</ele><time>2026-04-04T19:49:41.999Z</time></trkpt><trkpt lat="42.01296807920244" lon="-8.674982861185132"><ele>54.0</ele><time>2026-04-04T19:49:42.999Z</time></trkpt><trkpt lat="42.01306656265759" lon="-8.674912798963385"><ele>54.0</ele><time>2026-04-04T19:49:43.999Z</time></trkpt><trkpt lat="42.01315459859895" lon="-8.674847939227607"><ele>54.0</ele><time>2026-04-04T19:49:44.999Z</time></trkpt><trkpt lat="42.01322091323723" lon="-8.674793181945578"><ele>54.0</ele><time>2026-04-04T19:49:45.999Z</time></trkpt><trkpt lat="42.01331529648098" lon="-8.674729930144636"><ele>54.0</ele><time>2026-04-04T19:49:47.999Z</time></trkpt><trkpt lat="42.01339821886566" lon="-8.674685034483021"><ele>54.0</ele><time>2026-04-04T19:50:09.999Z</time></trkpt><trkpt lat="42.013456459752625" lon="-8.674641070729736"><ele>54.0</ele><time>2026-04-04T19:50:11.999Z</time></trkpt><trkpt lat="42.01352547618276" lon="-8.674598352755163"><ele>53.800000000000004</ele><time>2026-04-04T19:50:14.999Z</time></trkpt><trkpt lat="42.01361155041722" lon="-8.674534743875341"><ele>53.60000000000001</ele><time>2026-04-04T19:51:40.999Z</time></trkpt><trkpt lat="42.0136800683409" lon="-8.674490138675436"><ele>53.4</ele><time>2026-04-04T19:51:41.999Z</time></trkpt><trkpt lat="42.01377255142358" lon="-8.674439747373649"><ele>53.2</ele><time>2026-04-04T19:51:42.999Z</time></trkpt><trkpt lat="42.01388323983997" lon="-8.674393196605147"><ele>53.0</ele><time>2026-04-04T19:51:43.999Z</time></trkpt><trkpt lat="42.013997832288965" lon="-8.674334837004544"><ele>53.0</ele><time>2026-04-04T19:51:44.999Z</time></trkpt><trkpt lat="42.014124528591005" lon="-8.674262358965327"><ele>53.0</ele><time>2026-04-04T19:51:45.999Z</time></trkpt><trkpt lat="42.01425406691518" lon="-8.674181209972994"><ele>53.0</ele><time>2026-04-04T19:51:46.999Z</time></trkpt><trkpt lat="42.01438132771185" lon="-8.674076506367847"><ele>53.0</ele><time>2026-04-04T19:51:47.999Z</time></trkpt><trkpt lat="42.01452458822634" lon="-8.673984976065206"><ele>54.333333333333336</ele><time>2026-04-04T19:51:48.999Z</time></trkpt><trkpt lat="42.014669471633965" lon="-8.673892425496858"><ele>55.66666666666667</ele><time>2026-04-04T19:51:49.999Z</time></trkpt><trkpt lat="42.01481995966152" lon="-8.673795118216304"><ele>57.0</ele><time>2026-04-04T19:51:50.999Z</time></trkpt><trkpt lat="42.014973021532164" lon="-8.673696146624545"><ele>56.66666666666667</ele><time>2026-04-04T19:51:51.999Z</time></trkpt><trkpt lat="42.015148775908855" lon="-8.673605049922312"><ele>56.333333333333336</ele><time>2026-04-04T19:51:52.999Z</time></trkpt><trkpt lat="42.01531372313432" lon="-8.673485602067935"><ele>56.0</ele><time>2026-04-04T19:51:53.999Z</time></trkpt><trkpt lat="42.01548174014204" lon="-8.67336181603898"><ele>56.0</ele><time>2026-04-04T19:51:54.999Z</time></trkpt><trkpt lat="42.01565173535955" lon="-8.673222079143525"><ele>56.0</ele><time>2026-04-04T19:51:55.999Z</time></trkpt><trkpt lat="42.01582128189166" lon="-8.673066434322077"><ele>56.0</ele><time>2026-04-04T19:51:56.999Z</time></trkpt><trkpt lat="42.01598849293086" lon="-8.672908444757125"><ele>55.0</ele><time>2026-04-04T19:51:57.999Z</time></trkpt><trkpt lat="42.01615343056875" lon="-8.672750332615745"><ele>54.0</ele><time>2026-04-04T19:51:58.999Z</time></trkpt><trkpt lat="42.01630577531328" lon="-8.672608372663946"><ele>53.0</ele><time>2026-04-04T19:51:59.999Z</time></trkpt><trkpt lat="42.01644891894423" lon="-8.672476253498873"><ele>53.0</ele><time>2026-04-04T19:52:00.999Z</time></trkpt><trkpt lat="42.01658160948512" lon="-8.672350952046006"><ele>53.0</ele><time>2026-04-04T19:52:01.999Z</time></trkpt><trkpt lat="42.016705192495955" lon="-8.6722296540776"><ele>53.0</ele><time>2026-04-04T19:52:02.999Z</time></trkpt><trkpt lat="42.016819646009594" lon="-8.672120732113457"><ele>53.4</ele><time>2026-04-04T19:52:03.999Z</time></trkpt><trkpt lat="42.0169277398825" lon="-8.672022617889576"><ele>53.8</ele><time>2026-04-04T19:52:04.999Z</time></trkpt><trkpt lat="42.01701745453086" lon="-8.671932478503464"><ele>54.2</ele><time>2026-04-04T19:52:05.999Z</time></trkpt><trkpt lat="42.01707079214579" lon="-8.671850894357986"><ele>54.6</ele><time>2026-04-04T19:52:06.999Z</time></trkpt><trkpt lat="42.01713430669228" lon="-8.671781328564975"><ele>55.0</ele><time>2026-04-04T19:52:08.999Z</time></trkpt><trkpt lat="42.01718607880157" lon="-8.671724308430017"><ele>55.0</ele><time>2026-04-04T19:52:11.999Z</time></trkpt><trkpt lat="42.01713497247731" lon="-8.67178059534379"><ele>55.0</ele><time>2026-04-04T19:52:16.999Z</time></trkpt><trkpt lat="42.01707671360703" lon="-8.671844656505126"><ele>55.0</ele><time>2026-04-04T19:54:16.999Z</time></trkpt><trkpt lat="42.016935914510164" lon="-8.672040678507244"><ele>55.0</ele><time>2026-04-04T19:54:26.999Z</time></trkpt><trkpt lat="42.01685693266178" lon="-8.672083687218645"><ele>55.0</ele><time>2026-04-04T19:54:28.999Z</time></trkpt><trkpt lat="42.01688589256755" lon="-8.671980811967133"><ele>55.0</ele><time>2026-04-04T19:54:30.999Z</time></trkpt><trkpt lat="42.01701220847283" lon="-8.671891800236828"><ele>55.0</ele><time>2026-04-04T19:54:32.999Z</time></trkpt><trkpt lat="42.017076230866316" lon="-8.67181626393394"><ele>55.0</ele><time>2026-04-04T19:54:33.999Z</time></trkpt><trkpt lat="42.01714058996451" lon="-8.671750647351535"><ele>55.0</ele><time>2026-04-04T19:54:34.999Z</time></trkpt><trkpt lat="42.017217353577436" lon="-8.671676927923862"><ele>55.0</ele><time>2026-04-04T19:54:35.999Z</time></trkpt><trkpt lat="42.01729734604089" lon="-8.671598273583582"><ele>55.0</ele><time>2026-04-04T19:54:36.999Z</time></trkpt><trkpt lat="42.017383324475176" lon="-8.671501609522366"><ele>55.0</ele><time>2026-04-04T19:54:37.999Z</time></trkpt><trkpt lat="42.01746635379623" lon="-8.671413657394003"><ele>55.0</ele><time>2026-04-04T19:54:38.999Z</time></trkpt><trkpt lat="42.01754247530551" lon="-8.671336525495848"><ele>55.0</ele><time>2026-04-04T19:54:39.999Z</time></trkpt><trkpt lat="42.01762239847896" lon="-8.671245943737953"><ele>55.0</ele><time>2026-04-04T19:54:40.999Z</time></trkpt><trkpt lat="42.01770300386097" lon="-8.671152233975775"><ele>54.8</ele><time>2026-04-04T19:54:41.999Z</time></trkpt><trkpt lat="42.017780334382145" lon="-8.671064434094813"><ele>54.6</ele><time>2026-04-04T19:54:42.999Z</time></trkpt><trkpt lat="42.01786008465824" lon="-8.670978130612925"><ele>54.400000000000006</ele><time>2026-04-04T19:54:43.999Z</time></trkpt><trkpt lat="42.017954080440774" lon="-8.670879638290398"><ele>54.2</ele><time>2026-04-04T19:54:44.999Z</time></trkpt><trkpt lat="42.0180478035053" lon="-8.67077862921787"><ele>54.0</ele><time>2026-04-04T19:54:45.999Z</time></trkpt><trkpt lat="42.018137384473945" lon="-8.670677449467231"><ele>54.0</ele><time>2026-04-04T19:54:46.999Z</time></trkpt><trkpt lat="42.018223467679746" lon="-8.67057628207775"><ele>54.0</ele><time>2026-04-04T19:54:47.999Z</time></trkpt><trkpt lat="42.01831461310237" lon="-8.67047495022633"><ele>54.0</ele><time>2026-04-04T19:54:48.999Z</time></trkpt><trkpt lat="42.0184100171887" lon="-8.670361461566593"><ele>54.0</ele><time>2026-04-04T19:54:49.999Z</time></trkpt><trkpt lat="42.01850163485234" lon="-8.670248413929707"><ele>53.25</ele><time>2026-04-04T19:54:50.998Z</time></trkpt><trkpt lat="42.018595974907726" lon="-8.670139931451788"><ele>52.5</ele><time>2026-04-04T19:54:51.998Z</time></trkpt><trkpt lat="42.01869288017308" lon="-8.670031905751202"><ele>51.75</ele><time>2026-04-04T19:54:52.998Z</time></trkpt><trkpt lat="42.01879104262184" lon="-8.66992609169631"><ele>51.0</ele><time>2026-04-04T19:54:54Z</time></trkpt><trkpt lat="42.01889016528917" lon="-8.669825503307308"><ele>51.0</ele><time>2026-04-04T19:54:55Z</time></trkpt><trkpt lat="42.018990896201686" lon="-8.669721360920933"><ele>51.0</ele><time>2026-04-04T19:54:56Z</time></trkpt><trkpt lat="42.019090617711214" lon="-8.669618322846695"><ele>51.0</ele><time>2026-04-04T19:54:57Z</time></trkpt><trkpt lat="42.01919408073897" lon="-8.669519712756014"><ele>51.0</ele><time>2026-04-04T19:54:58Z</time></trkpt><trkpt lat="42.01929567636053" lon="-8.669418294117845"><ele>51.25</ele><time>2026-04-04T19:54:59Z</time></trkpt><trkpt lat="42.01939860690265" lon="-8.669317290000357"><ele>51.5</ele><time>2026-04-04T19:55:00Z</time></trkpt><trkpt lat="42.0195009052598" lon="-8.669221813567916"><ele>51.75</ele><time>2026-04-04T19:55:01Z</time></trkpt><trkpt lat="42.01960515434046" lon="-8.669127127574352"><ele>52.0</ele><time>2026-04-04T19:55:02Z</time></trkpt><trkpt lat="42.019715514343666" lon="-8.669036975696763"><ele>52.0</ele><time>2026-04-04T19:55:03Z</time></trkpt><trkpt lat="42.019822698598745" lon="-8.668948458230535"><ele>52.0</ele><time>2026-04-04T19:55:04Z</time></trkpt><trkpt lat="42.019934129947515" lon="-8.668864723023823"><ele>52.0</ele><time>2026-04-04T19:55:05Z</time></trkpt><trkpt lat="42.020047509089984" lon="-8.668777410580518"><ele>52.0</ele><time>2026-04-04T19:55:06Z</time></trkpt><trkpt lat="42.02017018569184" lon="-8.66868982079191"><ele>52.25</ele><time>2026-04-04T19:55:07Z</time></trkpt><trkpt lat="42.02029465717284" lon="-8.668612703340758"><ele>52.5</ele><time>2026-04-04T19:55:08Z</time></trkpt><trkpt lat="42.020421134422584" lon="-8.668534092829875"><ele>52.75</ele><time>2026-04-04T19:55:09Z</time></trkpt><trkpt lat="42.02054837626069" lon="-8.668458921609375"><ele>53.0</ele><time>2026-04-04T19:55:10Z</time></trkpt><trkpt lat="42.020682958119366" lon="-8.668377360047458"><ele>53.0</ele><time>2026-04-04T19:55:11Z</time></trkpt><trkpt lat="42.020820636867974" lon="-8.668293933005291"><ele>53.0</ele><time>2026-04-04T19:55:12Z</time></trkpt><trkpt lat="42.020959504570385" lon="-8.6682175615846"><ele>53.0</ele><time>2026-04-04T19:55:13Z</time></trkpt><trkpt lat="42.02110018773032" lon="-8.66814223348947"><ele>53.0</ele><time>2026-04-04T19:55:14Z</time></trkpt><trkpt lat="42.021245363646" lon="-8.66806357468316"><ele>53.0</ele><time>2026-04-04T19:55:15Z</time></trkpt><trkpt lat="42.02139146132577" lon="-8.667983294764959"><ele>53.0</ele><time>2026-04-04T19:55:16Z</time></trkpt><trkpt lat="42.0215373588247" lon="-8.667901883232759"><ele>52.66666666666667</ele><time>2026-04-04T19:55:17Z</time></trkpt><trkpt lat="42.021685168484076" lon="-8.667824383842646"><ele>52.33333333333333</ele><time>2026-04-04T19:55:18Z</time></trkpt><trkpt lat="42.02182996030442" lon="-8.667734577936672"><ele>52.0</ele><time>2026-04-04T19:55:19Z</time></trkpt><trkpt lat="42.0219781973447" lon="-8.667644226459338"><ele>52.0</ele><time>2026-04-04T19:55:20Z</time></trkpt><trkpt lat="42.02212830793901" lon="-8.667556404251043"><ele>52.0</ele><time>2026-04-04T19:55:21Z</time></trkpt><trkpt lat="42.02227764354796" lon="-8.667474436302637"><ele>52.0</ele><time>2026-04-04T19:55:22Z</time></trkpt><trkpt lat="42.022422193130346" lon="-8.66738475171744"><ele>47.666666666666664</ele><time>2026-04-04T19:55:23Z</time></trkpt><trkpt lat="42.022570398568774" lon="-8.667297919012723"><ele>43.33333333333333</ele><time>2026-04-04T19:55:24Z</time></trkpt><trkpt lat="42.022722377341424" lon="-8.667216165081465"><ele>39.0</ele><time>2026-04-04T19:55:25Z</time></trkpt><trkpt lat="42.02286546544194" lon="-8.667135562141942"><ele>39.0</ele><time>2026-04-04T19:55:26Z</time></trkpt><trkpt lat="42.02301635803211" lon="-8.667054962585471"><ele>39.0</ele><time>2026-04-04T19:55:27Z</time></trkpt><trkpt lat="42.02316330848501" lon="-8.66697735047892"><ele>39.0</ele><time>2026-04-04T19:55:28Z</time></trkpt><trkpt lat="42.02330741161433" lon="-8.666895052841532"><ele>37.0</ele><time>2026-04-04T19:55:29Z</time></trkpt><trkpt lat="42.02344890305503" lon="-8.666813998321192"><ele>35.0</ele><time>2026-04-04T19:55:30Z</time></trkpt><trkpt lat="42.023590941963064" lon="-8.66673196356618"><ele>33.0</ele><time>2026-04-04T19:55:31Z</time></trkpt><trkpt lat="42.02373413594056" lon="-8.666645968116756"><ele>33.0</ele><time>2026-04-04T19:55:32Z</time></trkpt><trkpt lat="42.02387981061074" lon="-8.666562369574438"><ele>33.0</ele><time>2026-04-04T19:55:33Z</time></trkpt><trkpt lat="42.02402678922593" lon="-8.666472703748038"><ele>33.0</ele><time>2026-04-04T19:55:34Z</time></trkpt><trkpt lat="42.024175933895194" lon="-8.6663915415218"><ele>33.333333333333336</ele><time>2026-04-04T19:55:35Z</time></trkpt><trkpt lat="42.024328546681666" lon="-8.666305313221072"><ele>33.66666666666667</ele><time>2026-04-04T19:55:36Z</time></trkpt><trkpt lat="42.024482572899664" lon="-8.666220772452206"><ele>34.0</ele><time>2026-04-04T19:55:37Z</time></trkpt><trkpt lat="42.02463287949679" lon="-8.66613510948026"><ele>33.0</ele><time>2026-04-04T19:55:38Z</time></trkpt><trkpt lat="42.02478577068874" lon="-8.66604801057088"><ele>32.0</ele><time>2026-04-04T19:55:39Z</time></trkpt><trkpt lat="42.02493580681212" lon="-8.665963962281687"><ele>31.0</ele><time>2026-04-04T19:55:40Z</time></trkpt><trkpt lat="42.02508981713127" lon="-8.665882222793412"><ele>31.0</ele><time>2026-04-04T19:55:41Z</time></trkpt><trkpt lat="42.02523909562079" lon="-8.665798646178928"><ele>31.0</ele><time>2026-04-04T19:55:42Z</time></trkpt><trkpt lat="42.02539320633231" lon="-8.665718387338364"><ele>31.0</ele><time>2026-04-04T19:55:43Z</time></trkpt><trkpt lat="42.02554361795719" lon="-8.665637372905028"><ele>31.0</ele><time>2026-04-04T19:55:44Z</time></trkpt><trkpt lat="42.02569412855204" lon="-8.665552342448786"><ele>31.0</ele><time>2026-04-04T19:55:45Z</time></trkpt><trkpt lat="42.025844189242875" lon="-8.66546495010249"><ele>31.0</ele><time>2026-04-04T19:55:46Z</time></trkpt><trkpt lat="42.02599162173045" lon="-8.665381023019972"><ele>32.0</ele><time>2026-04-04T19:55:47Z</time></trkpt><trkpt lat="42.026140577832905" lon="-8.665300210599694"><ele>33.0</ele><time>2026-04-04T19:55:48Z</time></trkpt><trkpt lat="42.026288709609254" lon="-8.665215426041364"><ele>34.0</ele><time>2026-04-04T19:55:49Z</time></trkpt><trkpt lat="42.02644268037415" lon="-8.665124645010662"><ele>33.66666666666667</ele><time>2026-04-04T19:55:50Z</time></trkpt><trkpt lat="42.0265954485891" lon="-8.665035680078933"><ele>33.333333333333336</ele><time>2026-04-04T19:55:50.999Z</time></trkpt><trkpt lat="42.0267505943206" lon="-8.664945146889407"><ele>33.0</ele><time>2026-04-04T19:55:51.999Z</time></trkpt><trkpt lat="42.026915360723585" lon="-8.664857694088248"><ele>33.0</ele><time>2026-04-04T19:55:52.999Z</time></trkpt><trkpt lat="42.02707277053473" lon="-8.664769023199101"><ele>33.0</ele><time>2026-04-04T19:55:53.999Z</time></trkpt><trkpt lat="42.02723618410723" lon="-8.66468739727579"><ele>33.0</ele><time>2026-04-04T19:55:54.999Z</time></trkpt><trkpt lat="42.02739913794795" lon="-8.66459287932589"><ele>33.0</ele><time>2026-04-04T19:55:55.999Z</time></trkpt><trkpt lat="42.02756723890092" lon="-8.664517895823723"><ele>33.0</ele><time>2026-04-04T19:55:56.999Z</time></trkpt><trkpt lat="42.02774633427003" lon="-8.664458006658094"><ele>33.0</ele><time>2026-04-04T19:55:57.999Z</time></trkpt><trkpt lat="42.027927764242506" lon="-8.664413847551343"><ele>29.0</ele><time>2026-04-04T19:55:58.999Z</time></trkpt><trkpt lat="42.02809785032569" lon="-8.664366652740407"><ele>25.0</ele><time>2026-04-04T19:55:59.999Z</time></trkpt><trkpt lat="42.02827324355954" lon="-8.664322202740355"><ele>21.0</ele><time>2026-04-04T19:56:00.999Z</time></trkpt><trkpt lat="42.02843304766879" lon="-8.664267593237941"><ele>19.666666666666668</ele><time>2026-04-04T19:56:01.999Z</time></trkpt><trkpt lat="42.02858781404177" lon="-8.664222418769818"><ele>18.333333333333336</ele><time>2026-04-04T19:56:02.999Z</time></trkpt><trkpt lat="42.02873612705114" lon="-8.664175572221783"><ele>17.0</ele><time>2026-04-04T19:56:03.999Z</time></trkpt><trkpt lat="42.02890267160387" lon="-8.664117579316727"><ele>17.0</ele><time>2026-04-04T19:56:04.999Z</time></trkpt><trkpt lat="42.029077822124655" lon="-8.664067861266254"><ele>17.0</ele><time>2026-04-04T19:56:05.999Z</time></trkpt><trkpt lat="42.029253089082445" lon="-8.664013551259323"><ele>17.0</ele><time>2026-04-04T19:56:06.999Z</time></trkpt><trkpt lat="42.02943742468295" lon="-8.6639581264814"><ele>17.0</ele><time>2026-04-04T19:56:07.999Z</time></trkpt><trkpt lat="42.02961846153429" lon="-8.66391079869056"><ele>17.0</ele><time>2026-04-04T19:56:08.999Z</time></trkpt><trkpt lat="42.02979668374095" lon="-8.663848344656243"><ele>17.0</ele><time>2026-04-04T19:56:09.999Z</time></trkpt><trkpt lat="42.029967513444646" lon="-8.663786898216362"><ele>17.333333333333336</ele><time>2026-04-04T19:56:10.999Z</time></trkpt><trkpt lat="42.03013279332589" lon="-8.663717656734823"><ele>17.666666666666668</ele><time>2026-04-04T19:56:11.999Z</time></trkpt><trkpt lat="42.030288632362286" lon="-8.663636018586413"><ele>18.0</ele><time>2026-04-04T19:56:12.999Z</time></trkpt><trkpt lat="42.03043252127008" lon="-8.663543335169411"><ele>17.5</ele><time>2026-04-04T19:56:13.999Z</time></trkpt><trkpt lat="42.03056717198684" lon="-8.663454778234582"><ele>17.0</ele><time>2026-04-04T19:56:14.999Z</time></trkpt><trkpt lat="42.03069001579368" lon="-8.663370608677749"><ele>16.5</ele><time>2026-04-04T19:56:15.999Z</time></trkpt><trkpt lat="42.03080624343885" lon="-8.663294659901066"><ele>16.0</ele><time>2026-04-04T19:56:16.999Z</time></trkpt><trkpt lat="42.03092247360155" lon="-8.663219245706719"><ele>16.0</ele><time>2026-04-04T19:56:17.999Z</time></trkpt><trkpt lat="42.03103504837969" lon="-8.66314845702043"><ele>16.0</ele><time>2026-04-04T19:56:18.999Z</time></trkpt><trkpt lat="42.03114147880105" lon="-8.66308046380971"><ele>16.0</ele><time>2026-04-04T19:56:19.999Z</time></trkpt><trkpt lat="42.0312481145235" lon="-8.663012589700026"><ele>16.0</ele><time>2026-04-04T19:56:20.999Z</time></trkpt><trkpt lat="42.03134835889158" lon="-8.66295004100682"><ele>16.0</ele><time>2026-04-04T19:56:21.999Z</time></trkpt><trkpt lat="42.03144502059168" lon="-8.662893321004182"><ele>16.0</ele><time>2026-04-04T19:56:22.999Z</time></trkpt><trkpt lat="42.031537920013974" lon="-8.662834921685569"><ele>16.0</ele><time>2026-04-04T19:56:23.999Z</time></trkpt><trkpt lat="42.03162205187172" lon="-8.662781335720567"><ele>16.0</ele><time>2026-04-04T19:56:24.999Z</time></trkpt><trkpt lat="42.031696395004325" lon="-8.662735893120464"><ele>16.0</ele><time>2026-04-04T19:56:25.999Z</time></trkpt><trkpt lat="42.03177035079088" lon="-8.662689198980713"><ele>16.666666666666664</ele><time>2026-04-04T19:56:26.999Z</time></trkpt><trkpt lat="42.03183489777277" lon="-8.662642064397598"><ele>17.333333333333332</ele><time>2026-04-04T19:56:27.999Z</time></trkpt><trkpt lat="42.031893816391694" lon="-8.662592337987451"><ele>18.0</ele><time>2026-04-04T19:56:28.999Z</time></trkpt><trkpt lat="42.03199646831129" lon="-8.662484996793289"><ele>18.666666666666668</ele><time>2026-04-04T19:56:30.999Z</time></trkpt><trkpt lat="42.03204716756157" lon="-8.662421026235524"><ele>19.333333333333336</ele><time>2026-04-04T19:56:31.999Z</time></trkpt><trkpt lat="42.03210469226534" lon="-8.662360706444087"><ele>20.0</ele><time>2026-04-04T19:56:32.999Z</time></trkpt><trkpt lat="42.03219029164698" lon="-8.662320758135033"><ele>20.0</ele><time>2026-04-04T19:56:33.999Z</time></trkpt><trkpt lat="42.032276313958754" lon="-8.662317901789319"><ele>20.0</ele><time>2026-04-04T19:56:34.999Z</time></trkpt><trkpt lat="42.03235814748114" lon="-8.66230077773805"><ele>20.0</ele><time>2026-04-04T19:56:35.999Z</time></trkpt><trkpt lat="42.03245516260459" lon="-8.662257314628203"><ele>20.0</ele><time>2026-04-04T19:56:36.999Z</time></trkpt><trkpt lat="42.03256041264063" lon="-8.662184841410348"><ele>20.0</ele><time>2026-04-04T19:56:37.999Z</time></trkpt><trkpt lat="42.03267243921614" lon="-8.66211305011133"><ele>20.25</ele><time>2026-04-04T19:56:38.999Z</time></trkpt><trkpt lat="42.03277894148441" lon="-8.662048998426757"><ele>20.5</ele><time>2026-04-04T19:56:39.999Z</time></trkpt><trkpt lat="42.0328826012247" lon="-8.661984644900425"><ele>20.75</ele><time>2026-04-04T19:56:40.999Z</time></trkpt><trkpt lat="42.03298668334176" lon="-8.661918708355984"><ele>21.0</ele><time>2026-04-04T19:56:41.999Z</time></trkpt><trkpt lat="42.03309297802148" lon="-8.6618540045363"><ele>21.0</ele><time>2026-04-04T19:56:42.999Z</time></trkpt><trkpt lat="42.03319601352668" lon="-8.661788804648795"><ele>21.0</ele><time>2026-04-04T19:56:43.999Z</time></trkpt><trkpt lat="42.033301640080055" lon="-8.661723174133035"><ele>21.0</ele><time>2026-04-04T19:56:44.999Z</time></trkpt><trkpt lat="42.03341770404534" lon="-8.661645147219916"><ele>21.0</ele><time>2026-04-04T19:56:45.999Z</time></trkpt><trkpt lat="42.03352011188728" lon="-8.661576211529628"><ele>21.0</ele><time>2026-04-04T19:56:46.999Z</time></trkpt><trkpt lat="42.03364311304337" lon="-8.66150399608127"><ele>21.0</ele><time>2026-04-04T19:56:47.999Z</time></trkpt><trkpt lat="42.0337736549603" lon="-8.661425449854079"><ele>21.0</ele><time>2026-04-04T19:56:48.999Z</time></trkpt><trkpt lat="42.033911277397344" lon="-8.6613317825439"><ele>21.0</ele><time>2026-04-04T19:56:49.999Z</time></trkpt><trkpt lat="42.03404653838899" lon="-8.661242300440604"><ele>21.0</ele><time>2026-04-04T19:56:50.999Z</time></trkpt><trkpt lat="42.03416417699196" lon="-8.661173324577273"><ele>21.0</ele><time>2026-04-04T19:56:51.999Z</time></trkpt><trkpt lat="42.0342761171069" lon="-8.661095950256406"><ele>21.0</ele><time>2026-04-04T19:56:52.999Z</time></trkpt><trkpt lat="42.034397384627965" lon="-8.661011642322048"><ele>21.0</ele><time>2026-04-04T19:56:53.999Z</time></trkpt><trkpt lat="42.03452318883112" lon="-8.660925799770043"><ele>21.0</ele><time>2026-04-04T19:56:54.999Z</time></trkpt><trkpt lat="42.034653577338695" lon="-8.660851869824944"><ele>21.0</ele><time>2026-04-04T19:56:55.999Z</time></trkpt><trkpt lat="42.03478407682478" lon="-8.66076809212611"><ele>21.0</ele><time>2026-04-04T19:56:56.999Z</time></trkpt><trkpt lat="42.03493530323682" lon="-8.66068653791829"><ele>21.0</ele><time>2026-04-04T19:56:57.999Z</time></trkpt><trkpt lat="42.035056945277006" lon="-8.660611313359798"><ele>21.0</ele><time>2026-04-04T19:56:58.999Z</time></trkpt><trkpt lat="42.035181915958326" lon="-8.660527880776925"><ele>21.0</ele><time>2026-04-04T19:57:00Z</time></trkpt><trkpt lat="42.03529808216984" lon="-8.660453845878497"><ele>21.0</ele><time>2026-04-04T19:57:01Z</time></trkpt><trkpt lat="42.0354096726718" lon="-8.660378575713828"><ele>21.0</ele><time>2026-04-04T19:57:02Z</time></trkpt><trkpt lat="42.035523173387396" lon="-8.660309233612193"><ele>21.0</ele><time>2026-04-04T19:57:03Z</time></trkpt><trkpt lat="42.03563806320223" lon="-8.660226082446524"><ele>21.0</ele><time>2026-04-04T19:57:04Z</time></trkpt><trkpt lat="42.03574748869579" lon="-8.660143260986207"><ele>21.0</ele><time>2026-04-04T19:57:05Z</time></trkpt><trkpt lat="42.035844718487205" lon="-8.660046260065155"><ele>21.0</ele><time>2026-04-04T19:57:06Z</time></trkpt><trkpt lat="42.03593258195751" lon="-8.659946670750825"><ele>21.0</ele><time>2026-04-04T19:57:07Z</time></trkpt><trkpt lat="42.03601625505918" lon="-8.659849411742679"><ele>21.0</ele><time>2026-04-04T19:57:08Z</time></trkpt><trkpt lat="42.036095159300054" lon="-8.65975586793855"><ele>21.0</ele><time>2026-04-04T19:57:09Z</time></trkpt><trkpt lat="42.03617465189309" lon="-8.659662051122655"><ele>21.0</ele><time>2026-04-04T19:57:10Z</time></trkpt><trkpt lat="42.03623786864996" lon="-8.659591158472514"><ele>21.0</ele><time>2026-04-04T19:57:11Z</time></trkpt><trkpt lat="42.03628804033221" lon="-8.659533009505425"><ele>21.0</ele><time>2026-04-04T19:57:12Z</time></trkpt><trkpt lat="42.03633756837588" lon="-8.659467602443797"><ele>21.0</ele><time>2026-04-04T19:57:13Z</time></trkpt><trkpt lat="42.03639193877915" lon="-8.659399161529485"><ele>21.0</ele><time>2026-04-04T19:57:14Z</time></trkpt><trkpt lat="42.03645303120104" lon="-8.659319973932933"><ele>21.0</ele><time>2026-04-04T19:57:15Z</time></trkpt><trkpt lat="42.036518869527065" lon="-8.659242434377214"><ele>21.0</ele><time>2026-04-04T19:57:16Z</time></trkpt><trkpt lat="42.0365794821715" lon="-8.659166244847937"><ele>21.0</ele><time>2026-04-04T19:57:17Z</time></trkpt><trkpt lat="42.036639303567426" lon="-8.659096769898003"><ele>20.666666666666668</ele><time>2026-04-04T19:57:18Z</time></trkpt><trkpt lat="42.03670460934739" lon="-8.659018813878156"><ele>20.333333333333332</ele><time>2026-04-04T19:57:19Z</time></trkpt><trkpt lat="42.03676864675668" lon="-8.658934795973446"><ele>20.0</ele><time>2026-04-04T19:57:20Z</time></trkpt><trkpt lat="42.03682933541225" lon="-8.658847998357269"><ele>19.666666666666664</ele><time>2026-04-04T19:57:21Z</time></trkpt><trkpt lat="42.03687646923245" lon="-8.658780747371534"><ele>19.333333333333332</ele><time>2026-04-04T19:57:22Z</time></trkpt><trkpt lat="42.03691943093699" lon="-8.658714984555147"><ele>19.0</ele><time>2026-04-04T19:57:23Z</time></trkpt><trkpt lat="42.03696216902448" lon="-8.658642654625817"><ele>18.833333333333332</ele><time>2026-04-04T19:57:24Z</time></trkpt><trkpt lat="42.03699711262285" lon="-8.65855831017733"><ele>18.666666666666664</ele><time>2026-04-04T19:57:25Z</time></trkpt><trkpt lat="42.03703590744996" lon="-8.65846535235234"><ele>18.5</ele><time>2026-04-04T19:57:26Z</time></trkpt><trkpt lat="42.037090478658186" lon="-8.658373765248749"><ele>18.333333333333332</ele><time>2026-04-04T19:57:27Z</time></trkpt><trkpt lat="42.037163846618064" lon="-8.658283894251547"><ele>18.166666666666668</ele><time>2026-04-04T19:57:28Z</time></trkpt><trkpt lat="42.037243478657686" lon="-8.658185783224383"><ele>18.0</ele><time>2026-04-04T19:57:29Z</time></trkpt><trkpt lat="42.0373289478894" lon="-8.658074739900814"><ele>18.0</ele><time>2026-04-04T19:57:30Z</time></trkpt><trkpt lat="42.037409616088944" lon="-8.657960161243297"><ele>18.0</ele><time>2026-04-04T19:57:31Z</time></trkpt><trkpt lat="42.03748061699024" lon="-8.657846983412433"><ele>18.0</ele><time>2026-04-04T19:57:32Z</time></trkpt><trkpt lat="42.03754593256424" lon="-8.657731763814647"><ele>18.0</ele><time>2026-04-04T19:57:33Z</time></trkpt><trkpt lat="42.03759766231506" lon="-8.657624915453319"><ele>18.0</ele><time>2026-04-04T19:57:34Z</time></trkpt><trkpt lat="42.03764430430411" lon="-8.657525629804509"><ele>17.833333333333332</ele><time>2026-04-04T19:57:35Z</time></trkpt><trkpt lat="42.037682051014954" lon="-8.657425174618796"><ele>17.666666666666668</ele><time>2026-04-04T19:57:36Z</time></trkpt><trkpt lat="42.037710729786006" lon="-8.657327929906995"><ele>17.5</ele><time>2026-04-04T19:57:37Z</time></trkpt><trkpt lat="42.0377508150781" lon="-8.657228554288617"><ele>17.333333333333336</ele><time>2026-04-04T19:57:39Z</time></trkpt><trkpt lat="42.03776717664376" lon="-8.657124273686472"><ele>17.166666666666668</ele><time>2026-04-04T19:57:41Z</time></trkpt><trkpt lat="42.037779063384264" lon="-8.65703352919083"><ele>17.0</ele><time>2026-04-04T19:57:42Z</time></trkpt><trkpt lat="42.03779440677635" lon="-8.656950189872575"><ele>17.0</ele><time>2026-04-04T19:57:43Z</time></trkpt><trkpt lat="42.03788844529143" lon="-8.656851481007724"><ele>17.0</ele><time>2026-04-04T19:57:45Z</time></trkpt><trkpt lat="42.038036761004015" lon="-8.656918435245144"><ele>17.0</ele><time>2026-04-04T19:57:47Z</time></trkpt><trkpt lat="42.03811934412368" lon="-8.656993471523132"><ele>17.0</ele><time>2026-04-04T19:57:48Z</time></trkpt><trkpt lat="42.03822441499579" lon="-8.65708004794977"><ele>16.75</ele><time>2026-04-04T19:57:49Z</time></trkpt><trkpt lat="42.03833967347693" lon="-8.657137794590975"><ele>16.5</ele><time>2026-04-04T19:57:50Z</time></trkpt><trkpt lat="42.03847045722672" lon="-8.657179372320023"><ele>16.25</ele><time>2026-04-04T19:57:51Z</time></trkpt><trkpt lat="42.03860557388042" lon="-8.65722093419461"><ele>16.0</ele><time>2026-04-04T19:57:52Z</time></trkpt><trkpt lat="42.03874562203582" lon="-8.657263936746386"><ele>16.0</ele><time>2026-04-04T19:57:53Z</time></trkpt><trkpt lat="42.03888590550185" lon="-8.657308025021885"><ele>16.0</ele><time>2026-04-04T19:57:54Z</time></trkpt><trkpt lat="42.03902824580004" lon="-8.657357043632764"><ele>16.0</ele><time>2026-04-04T19:57:55Z</time></trkpt><trkpt lat="42.03917168435681" lon="-8.657414084997441"><ele>16.0</ele><time>2026-04-04T19:57:56Z</time></trkpt><trkpt lat="42.03931985893709" lon="-8.657469072219616"><ele>18.0</ele><time>2026-04-04T19:57:57Z</time></trkpt><trkpt lat="42.03947073395598" lon="-8.657520922494788"><ele>20.0</ele><time>2026-04-04T19:57:57.999Z</time></trkpt><trkpt lat="42.039615398492984" lon="-8.657579947352186"><ele>22.0</ele><time>2026-04-04T19:57:58.999Z</time></trkpt><trkpt lat="42.0397611463752" lon="-8.657650750181817"><ele>22.0</ele><time>2026-04-04T19:57:59.999Z</time></trkpt><trkpt lat="42.039917981572074" lon="-8.657722308055332"><ele>22.0</ele><time>2026-04-04T19:58:00.999Z</time></trkpt><trkpt lat="42.04007496276216" lon="-8.657787274387276"><ele>22.0</ele><time>2026-04-04T19:58:01.999Z</time></trkpt><trkpt lat="42.04023070647238" lon="-8.657860203147859"><ele>22.666666666666664</ele><time>2026-04-04T19:58:02.999Z</time></trkpt><trkpt lat="42.04038878298825" lon="-8.657928440438434"><ele>23.333333333333332</ele><time>2026-04-04T19:58:03.999Z</time></trkpt><trkpt lat="42.04054780635047" lon="-8.658000236597506"><ele>24.0</ele><time>2026-04-04T19:58:04.999Z</time></trkpt><trkpt lat="42.040703108915615" lon="-8.658071971029354"><ele>26.333333333333336</ele><time>2026-04-04T19:58:05.999Z</time></trkpt><trkpt lat="42.040860470325434" lon="-8.65814707762374"><ele>28.666666666666668</ele><time>2026-04-04T19:58:06.999Z</time></trkpt><trkpt lat="42.041014162725254" lon="-8.658222624080105"><ele>31.0</ele><time>2026-04-04T19:58:07.999Z</time></trkpt><trkpt lat="42.04116938068898" lon="-8.658299135498988"><ele>31.0</ele><time>2026-04-04T19:58:08.999Z</time></trkpt><trkpt lat="42.04130678313747" lon="-8.658372881061231"><ele>31.0</ele><time>2026-04-04T19:58:09.999Z</time></trkpt><trkpt lat="42.04142524132779" lon="-8.658435955909225"><ele>31.0</ele><time>2026-04-04T19:58:10.999Z</time></trkpt><trkpt lat="42.041546503613496" lon="-8.65851475352915"><ele>31.0</ele><time>2026-04-04T19:58:11.999Z</time></trkpt><trkpt lat="42.04165834114645" lon="-8.658597232767146"><ele>32.6</ele><time>2026-04-04T19:58:12.999Z</time></trkpt><trkpt lat="42.04175608896248" lon="-8.658677932181384"><ele>34.2</ele><time>2026-04-04T19:58:13.999Z</time></trkpt><trkpt lat="42.041836819564665" lon="-8.658780580296881"><ele>35.8</ele><time>2026-04-04T19:58:14.999Z</time></trkpt><trkpt lat="42.04192501430656" lon="-8.658848799085302"><ele>37.4</ele><time>2026-04-04T19:58:15.999Z</time></trkpt><trkpt lat="42.042008376219904" lon="-8.658913445141986"><ele>39.0</ele><time>2026-04-04T19:58:16.999Z</time></trkpt><trkpt lat="42.042095055180944" lon="-8.658980376673487"><ele>39.0</ele><time>2026-04-04T19:58:17.999Z</time></trkpt><trkpt lat="42.0422114020548" lon="-8.659004011883583"><ele>39.0</ele><time>2026-04-04T19:58:18.999Z</time></trkpt><trkpt lat="42.04230753142903" lon="-8.659044578577225"><ele>39.0</ele><time>2026-04-04T19:58:19.999Z</time></trkpt><trkpt lat="42.04239953051148" lon="-8.65907480432145"><ele>39.0</ele><time>2026-04-04T19:58:20.999Z</time></trkpt><trkpt lat="42.04249519865137" lon="-8.65909123570665"><ele>39.0</ele><time>2026-04-04T19:58:21.999Z</time></trkpt><trkpt lat="42.042590390325586" lon="-8.659094344998167"><ele>42.5</ele><time>2026-04-04T19:58:22.999Z</time></trkpt><trkpt lat="42.0426927094122" lon="-8.659085418287715"><ele>46.0</ele><time>2026-04-04T19:58:23.999Z</time></trkpt><trkpt lat="42.04280512782658" lon="-8.65906880224307"><ele>49.5</ele><time>2026-04-04T19:58:24.999Z</time></trkpt><trkpt lat="42.04292414221143" lon="-8.659031818408394"><ele>53.0</ele><time>2026-04-04T19:58:25.999Z</time></trkpt><trkpt lat="42.0430550834555" lon="-8.658977550753006"><ele>53.0</ele><time>2026-04-04T19:58:26.999Z</time></trkpt><trkpt lat="42.043194926493484" lon="-8.658916027415414"><ele>53.0</ele><time>2026-04-04T19:58:27.999Z</time></trkpt><trkpt lat="42.04334031925903" lon="-8.658840947746263"><ele>53.0</ele><time>2026-04-04T19:58:28.999Z</time></trkpt><trkpt lat="42.04349061723607" lon="-8.658755095522547"><ele>54.0</ele><time>2026-04-04T19:58:29.999Z</time></trkpt><trkpt lat="42.04364390963097" lon="-8.658659318748578"><ele>55.0</ele><time>2026-04-04T19:58:30.999Z</time></trkpt><trkpt lat="42.043796935409866" lon="-8.658554021554275"><ele>56.0</ele><time>2026-04-04T19:58:31.999Z</time></trkpt><trkpt lat="42.04395402901346" lon="-8.658441119047689"><ele>55.333333333333336</ele><time>2026-04-04T19:58:32.999Z</time></trkpt><trkpt lat="42.044105884610445" lon="-8.658318866181638"><ele>54.66666666666667</ele><time>2026-04-04T19:58:33.999Z</time></trkpt><trkpt lat="42.04425402397843" lon="-8.658189499570812"><ele>54.0</ele><time>2026-04-04T19:58:34.999Z</time></trkpt><trkpt lat="42.04439934497138" lon="-8.658045375671753"><ele>54.0</ele><time>2026-04-04T19:58:35.999Z</time></trkpt><trkpt lat="42.04454611049889" lon="-8.657901538017159"><ele>54.0</ele><time>2026-04-04T19:58:36.999Z</time></trkpt><trkpt lat="42.04469291729481" lon="-8.657753830983882"><ele>54.0</ele><time>2026-04-04T19:58:37.999Z</time></trkpt><trkpt lat="42.04483754806797" lon="-8.657607078435936"><ele>54.66666666666667</ele><time>2026-04-04T19:58:38.999Z</time></trkpt><trkpt lat="42.044978683443304" lon="-8.657475129698515"><ele>55.333333333333336</ele><time>2026-04-04T19:58:39.999Z</time></trkpt><trkpt lat="42.045107560067066" lon="-8.65736015830619"><ele>56.0</ele><time>2026-04-04T19:58:40.999Z</time></trkpt><trkpt lat="42.04524047154354" lon="-8.657249896323945"><ele>56.0</ele><time>2026-04-04T19:58:41.999Z</time></trkpt><trkpt lat="42.045382184976944" lon="-8.65713925945687"><ele>56.0</ele><time>2026-04-04T19:58:42.999Z</time></trkpt><trkpt lat="42.045529895461996" lon="-8.657036610633124"><ele>56.0</ele><time>2026-04-04T19:58:43.999Z</time></trkpt><trkpt lat="42.04568556106352" lon="-8.656938917262734"><ele>58.0</ele><time>2026-04-04T19:58:44.999Z</time></trkpt><trkpt lat="42.04584597958805" lon="-8.6568515843987"><ele>60.0</ele><time>2026-04-04T19:58:45.999Z</time></trkpt><trkpt lat="42.04601051206541" lon="-8.656779850026865"><ele>62.0</ele><time>2026-04-04T19:58:46.999Z</time></trkpt><trkpt lat="42.046162674542686" lon="-8.656728159831237"><ele>62.0</ele><time>2026-04-04T19:58:47.999Z</time></trkpt><trkpt lat="42.04630635878899" lon="-8.65669051593942"><ele>62.0</ele><time>2026-04-04T19:58:48.999Z</time></trkpt><trkpt lat="42.04646197659644" lon="-8.656651866360214"><ele>62.0</ele><time>2026-04-04T19:58:49.999Z</time></trkpt><trkpt lat="42.04662222862372" lon="-8.656627565362053"><ele>63.66666666666667</ele><time>2026-04-04T19:58:50.999Z</time></trkpt><trkpt lat="42.046785433387804" lon="-8.656609744727291"><ele>65.33333333333333</ele><time>2026-04-04T19:58:51.999Z</time></trkpt><trkpt lat="42.046951766137425" lon="-8.65659120802599"><ele>67.0</ele><time>2026-04-04T19:58:52.999Z</time></trkpt><trkpt lat="42.04711735001506" lon="-8.656564693168814"><ele>67.0</ele><time>2026-04-04T19:58:53.999Z</time></trkpt><trkpt lat="42.047268498092656" lon="-8.656543300322628"><ele>67.0</ele><time>2026-04-04T19:58:54.999Z</time></trkpt><trkpt lat="42.04741706775576" lon="-8.656525927365097"><ele>67.0</ele><time>2026-04-04T19:58:55.999Z</time></trkpt><trkpt lat="42.04756284657825" lon="-8.656511854247503"><ele>67.0</ele><time>2026-04-04T19:58:56.999Z</time></trkpt><trkpt lat="42.04770710341883" lon="-8.656494870785528"><ele>69.0</ele><time>2026-04-04T19:58:57.999Z</time></trkpt><trkpt lat="42.047849194311745" lon="-8.656480493823715"><ele>71.0</ele><time>2026-04-04T19:58:58.999Z</time></trkpt><trkpt lat="42.047977875162836" lon="-8.656463290093985"><ele>73.0</ele><time>2026-04-04T19:58:59.999Z</time></trkpt><trkpt lat="42.04811589599047" lon="-8.65643368436151"><ele>75.0</ele><time>2026-04-04T19:59:00.999Z</time></trkpt><trkpt lat="42.04826361556393" lon="-8.656402664749407"><ele>76.75</ele><time>2026-04-04T19:59:01.999Z</time></trkpt><trkpt lat="42.048413774713055" lon="-8.656362291283529"><ele>78.5</ele><time>2026-04-04T19:59:02.999Z</time></trkpt><trkpt lat="42.04856072976865" lon="-8.656321347494064"><ele>80.25</ele><time>2026-04-04T19:59:03.999Z</time></trkpt><trkpt lat="42.048699082812334" lon="-8.656275415232605"><ele>82.0</ele><time>2026-04-04T19:59:04.999Z</time></trkpt><trkpt lat="42.04883400464016" lon="-8.656225530614053"><ele>82.0</ele><time>2026-04-04T19:59:06Z</time></trkpt><trkpt lat="42.04898055490412" lon="-8.656165792126812"><ele>82.0</ele><time>2026-04-04T19:59:07Z</time></trkpt><trkpt lat="42.04912283350897" lon="-8.656110019568413"><ele>82.0</ele><time>2026-04-04T19:59:08Z</time></trkpt><trkpt lat="42.04926162612254" lon="-8.656051029109415"><ele>82.0</ele><time>2026-04-04T19:59:09Z</time></trkpt><trkpt lat="42.04939328205092" lon="-8.655987742330199"><ele>80.5</ele><time>2026-04-04T19:59:10Z</time></trkpt><trkpt lat="42.049522267064624" lon="-8.655928109687274"><ele>79.0</ele><time>2026-04-04T19:59:11Z</time></trkpt><trkpt lat="42.049644852579824" lon="-8.655869627098292"><ele>77.5</ele><time>2026-04-04T19:59:12Z</time></trkpt><trkpt lat="42.04976999829173" lon="-8.655803432635231"><ele>76.0</ele><time>2026-04-04T19:59:13Z</time></trkpt><trkpt lat="42.04990005371837" lon="-8.655732630257251"><ele>77.0</ele><time>2026-04-04T19:59:14Z</time></trkpt><trkpt lat="42.05003762440359" lon="-8.6556652293981"><ele>78.0</ele><time>2026-04-04T19:59:15Z</time></trkpt><trkpt lat="42.05017823414799" lon="-8.655596979755337"><ele>79.0</ele><time>2026-04-04T19:59:16Z</time></trkpt><trkpt lat="42.05031677815545" lon="-8.655533668040778"><ele>80.0</ele><time>2026-04-04T19:59:17Z</time></trkpt><trkpt lat="42.05045771033716" lon="-8.655469952580583"><ele>80.0</ele><time>2026-04-04T19:59:18Z</time></trkpt><trkpt lat="42.05060853115056" lon="-8.655404969358372"><ele>80.0</ele><time>2026-04-04T19:59:19Z</time></trkpt><trkpt lat="42.05077189146848" lon="-8.655341219275936"><ele>80.0</ele><time>2026-04-04T19:59:20Z</time></trkpt><trkpt lat="42.05094384698294" lon="-8.655282207958466"><ele>76.0</ele><time>2026-04-04T19:59:21Z</time></trkpt><trkpt lat="42.051119116622374" lon="-8.655233563038951"><ele>72.0</ele><time>2026-04-04T19:59:22Z</time></trkpt><trkpt lat="42.051291108180784" lon="-8.655196040799677"><ele>68.0</ele><time>2026-04-04T19:59:23Z</time></trkpt><trkpt lat="42.051455572172635" lon="-8.655163921728276"><ele>68.0</ele><time>2026-04-04T19:59:24Z</time></trkpt><trkpt lat="42.051616572056425" lon="-8.655140724769002"><ele>68.0</ele><time>2026-04-04T19:59:25Z</time></trkpt><trkpt lat="42.051787372439016" lon="-8.655119432467494"><ele>68.0</ele><time>2026-04-04T19:59:26Z</time></trkpt><trkpt lat="42.051968841224316" lon="-8.655111398982331"><ele>68.33333333333334</ele><time>2026-04-04T19:59:27Z</time></trkpt><trkpt lat="42.052158385520094" lon="-8.655103587837575"><ele>68.66666666666667</ele><time>2026-04-04T19:59:28Z</time></trkpt><trkpt lat="42.05235956638222" lon="-8.655102000895074"><ele>69.0</ele><time>2026-04-04T19:59:29Z</time></trkpt><trkpt lat="42.05256863928431" lon="-8.655089875726729"><ele>69.0</ele><time>2026-04-04T19:59:30Z</time></trkpt><trkpt lat="42.05278083673574" lon="-8.655078769192434"><ele>69.0</ele><time>2026-04-04T19:59:31Z</time></trkpt><trkpt lat="42.05299615732236" lon="-8.655067811265795"><ele>69.0</ele><time>2026-04-04T19:59:32Z</time></trkpt><trkpt lat="42.05321840039529" lon="-8.655051105414291"><ele>67.0</ele><time>2026-04-04T19:59:33Z</time></trkpt><trkpt lat="42.05344863651501" lon="-8.655019087697616"><ele>65.0</ele><time>2026-04-04T19:59:34Z</time></trkpt><trkpt lat="42.05368444245177" lon="-8.65498245688193"><ele>65.0</ele><time>2026-04-04T19:59:35Z</time></trkpt><trkpt lat="42.05392686445008" lon="-8.654953185632527"><ele>65.0</ele><time>2026-04-04T19:59:36Z</time></trkpt><trkpt lat="42.054171850572295" lon="-8.6549211453631"><ele>63.0</ele><time>2026-04-04T19:59:37Z</time></trkpt><trkpt lat="42.05442326190322" lon="-8.654886703105753"><ele>61.0</ele><time>2026-04-04T19:59:38Z</time></trkpt><trkpt lat="42.05467194080903" lon="-8.654846557019209"><ele>61.0</ele><time>2026-04-04T19:59:39Z</time></trkpt><trkpt lat="42.054921762501095" lon="-8.654797976838818"><ele>61.0</ele><time>2026-04-04T19:59:40Z</time></trkpt><trkpt lat="42.05516989198947" lon="-8.654733893527139"><ele>56.0</ele><time>2026-04-04T19:59:41Z</time></trkpt><trkpt lat="42.055418717865585" lon="-8.654679293516352"><ele>51.0</ele><time>2026-04-04T19:59:42Z</time></trkpt><trkpt lat="42.05566658829056" lon="-8.654590198078324"><ele>49.0</ele><time>2026-04-04T19:59:43Z</time></trkpt><trkpt lat="42.055907242620016" lon="-8.654476436870679"><ele>47.0</ele><time>2026-04-04T19:59:44Z</time></trkpt><trkpt lat="42.05614649147033" lon="-8.654351671860447"><ele>47.0</ele><time>2026-04-04T19:59:45Z</time></trkpt><trkpt lat="42.05638649982663" lon="-8.654216234229153"><ele>47.0</ele><time>2026-04-04T19:59:46Z</time></trkpt><trkpt lat="42.05661471714824" lon="-8.654061108562056"><ele>48.5</ele><time>2026-04-04T19:59:47Z</time></trkpt><trkpt lat="42.0568337552117" lon="-8.653884985816179"><ele>50.0</ele><time>2026-04-04T19:59:48Z</time></trkpt><trkpt lat="42.05704435460369" lon="-8.653698926883335"><ele>49.0</ele><time>2026-04-04T19:59:49Z</time></trkpt><trkpt lat="42.057244028184094" lon="-8.653503719522028"><ele>48.0</ele><time>2026-04-04T19:59:50Z</time></trkpt><trkpt lat="42.0574438358397" lon="-8.653296739420536"><ele>50.5</ele><time>2026-04-04T19:59:51Z</time></trkpt><trkpt lat="42.05762677349376" lon="-8.653068090181327"><ele>53.0</ele><time>2026-04-04T19:59:52Z</time></trkpt><trkpt lat="42.05780166030407" lon="-8.652831390934834"><ele>54.0</ele><time>2026-04-04T19:59:53Z</time></trkpt><trkpt lat="42.05796966705668" lon="-8.652585799302228"><ele>55.0</ele><time>2026-04-04T19:59:54Z</time></trkpt><trkpt lat="42.05813359040777" lon="-8.652338113900917"><ele>58.0</ele><time>2026-04-04T19:59:55Z</time></trkpt><trkpt lat="42.058290890460064" lon="-8.652083677414396"><ele>61.0</ele><time>2026-04-04T19:59:56Z</time></trkpt><trkpt lat="42.0584521468677" lon="-8.651845512000229"><ele>61.0</ele><time>2026-04-04T19:59:56.999Z</time></trkpt><trkpt lat="42.05860924430266" lon="-8.651605687398238"><ele>61.0</ele><time>2026-04-04T19:59:57.999Z</time></trkpt><trkpt lat="42.058776588651355" lon="-8.651378292749698"><ele>61.0</ele><time>2026-04-04T19:59:58.999Z</time></trkpt><trkpt lat="42.058944581898444" lon="-8.651165179828961"><ele>61.0</ele><time>2026-04-04T19:59:59.999Z</time></trkpt><trkpt lat="42.059124622158556" lon="-8.650964757392005"><ele>60.5</ele><time>2026-04-04T20:00:00.999Z</time></trkpt><trkpt lat="42.059315139204976" lon="-8.650779596959367"><ele>60.0</ele><time>2026-04-04T20:00:01.999Z</time></trkpt><trkpt lat="42.05950960637718" lon="-8.650598606736825"><ele>60.0</ele><time>2026-04-04T20:00:02.999Z</time></trkpt><trkpt lat="42.05971150578246" lon="-8.650434893685123"><ele>60.0</ele><time>2026-04-04T20:00:03.999Z</time></trkpt><trkpt lat="42.05991848542921" lon="-8.650285612787872"><ele>59.5</ele><time>2026-04-04T20:00:04.999Z</time></trkpt><trkpt lat="42.0601288199926" lon="-8.650145098391164"><ele>59.0</ele><time>2026-04-04T20:00:05.999Z</time></trkpt><trkpt lat="42.060342473861986" lon="-8.650028428891092"><ele>59.0</ele><time>2026-04-04T20:00:06.999Z</time></trkpt><trkpt lat="42.06055919920552" lon="-8.649928040001736"><ele>59.0</ele><time>2026-04-04T20:00:07.999Z</time></trkpt><trkpt lat="42.06078028014844" lon="-8.649833392397019"><ele>63.5</ele><time>2026-04-04T20:00:08.999Z</time></trkpt><trkpt lat="42.06100066013925" lon="-8.649748462137335"><ele>68.0</ele><time>2026-04-04T20:00:09.999Z</time></trkpt><trkpt lat="42.06122574167874" lon="-8.649678826301706"><ele>68.0</ele><time>2026-04-04T20:00:10.999Z</time></trkpt><trkpt lat="42.061452553428964" lon="-8.64960988325257"><ele>68.0</ele><time>2026-04-04T20:00:11.999Z</time></trkpt><trkpt lat="42.0616815980921" lon="-8.64953485865303"><ele>66.0</ele><time>2026-04-04T20:00:12.999Z</time></trkpt><trkpt lat="42.06190870870156" lon="-8.649454711051124"><ele>64.0</ele><time>2026-04-04T20:00:13.999Z</time></trkpt><trkpt lat="42.06213748051315" lon="-8.649373898630516"><ele>64.0</ele><time>2026-04-04T20:00:14.999Z</time></trkpt><trkpt lat="42.062368326577314" lon="-8.64928321397045"><ele>64.0</ele><time>2026-04-04T20:00:15.999Z</time></trkpt><trkpt lat="42.06260267519931" lon="-8.649183212303134"><ele>65.5</ele><time>2026-04-04T20:00:16.999Z</time></trkpt><trkpt lat="42.06283465136035" lon="-8.649078853530472"><ele>67.0</ele><time>2026-04-04T20:00:17.999Z</time></trkpt><trkpt lat="42.06307148609973" lon="-8.648965948823218"><ele>68.5</ele><time>2026-04-04T20:00:18.999Z</time></trkpt><trkpt lat="42.063302503453976" lon="-8.648839716049666"><ele>70.0</ele><time>2026-04-04T20:00:19.999Z</time></trkpt><trkpt lat="42.063531052604766" lon="-8.64869644081892"><ele>64.5</ele><time>2026-04-04T20:00:20.999Z</time></trkpt><trkpt lat="42.06375412628623" lon="-8.6485382491063"><ele>59.0</ele><time>2026-04-04T20:00:21.999Z</time></trkpt><trkpt lat="42.063962619429745" lon="-8.648378119605036"><ele>60.0</ele><time>2026-04-04T20:00:22.999Z</time></trkpt><trkpt lat="42.06416584761147" lon="-8.648231262677122"><ele>61.0</ele><time>2026-04-04T20:00:23.999Z</time></trkpt><trkpt lat="42.0643567095798" lon="-8.648076738277355"><ele>61.0</ele><time>2026-04-04T20:00:24.999Z</time></trkpt><trkpt lat="42.06454203946651" lon="-8.647927673609303"><ele>61.0</ele><time>2026-04-04T20:00:25.999Z</time></trkpt><trkpt lat="42.06472964063018" lon="-8.647778887782353"><ele>61.0</ele><time>2026-04-04T20:00:26.999Z</time></trkpt><trkpt lat="42.06492558641973" lon="-8.647626515752147"><ele>60.666666666666664</ele><time>2026-04-04T20:00:27.999Z</time></trkpt><trkpt lat="42.06511908905039" lon="-8.647477365652184"><ele>60.33333333333333</ele><time>2026-04-04T20:00:28.999Z</time></trkpt><trkpt lat="42.06530858622691" lon="-8.647332442363933"><ele>60.0</ele><time>2026-04-04T20:00:29.999Z</time></trkpt><trkpt lat="42.06549297632409" lon="-8.647192704517142"><ele>60.0</ele><time>2026-04-04T20:00:30.999Z</time></trkpt><trkpt lat="42.06567013987551" lon="-8.647057455946085"><ele>60.0</ele><time>2026-04-04T20:00:31.999Z</time></trkpt><trkpt lat="42.065842898462314" lon="-8.646922524595514"><ele>60.0</ele><time>2026-04-04T20:00:32.999Z</time></trkpt><trkpt lat="42.06601863951414" lon="-8.646785296499855"><ele>52.0</ele><time>2026-04-04T20:00:33.999Z</time></trkpt><trkpt lat="42.06619313351978" lon="-8.646643631589964"><ele>44.0</ele><time>2026-04-04T20:00:34.999Z</time></trkpt><trkpt lat="42.066368689693014" lon="-8.646509561502215"><ele>36.0</ele><time>2026-04-04T20:00:35.999Z</time></trkpt><trkpt lat="42.0665430844647" lon="-8.646369224274597"><ele>35.0</ele><time>2026-04-04T20:00:36.999Z</time></trkpt><trkpt lat="42.06671442802542" lon="-8.646228693400241"><ele>34.0</ele><time>2026-04-04T20:00:37.999Z</time></trkpt><trkpt lat="42.06687833814609" lon="-8.64609349623982"><ele>33.0</ele><time>2026-04-04T20:00:38.999Z</time></trkpt><trkpt lat="42.06704361989722" lon="-8.645955339156796"><ele>33.0</ele><time>2026-04-04T20:00:39.999Z</time></trkpt><trkpt lat="42.067200478544855" lon="-8.645811383894856"><ele>33.0</ele><time>2026-04-04T20:00:40.999Z</time></trkpt><trkpt lat="42.06734748076145" lon="-8.645654338162245"><ele>33.0</ele><time>2026-04-04T20:00:41.999Z</time></trkpt><trkpt lat="42.06749172463818" lon="-8.645478718673028"><ele>33.0</ele><time>2026-04-04T20:00:42.999Z</time></trkpt><trkpt lat="42.06761764910276" lon="-8.645294545955934"><ele>33.0</ele><time>2026-04-04T20:00:43.999Z</time></trkpt><trkpt lat="42.067723235698566" lon="-8.64510193401855"><ele>33.0</ele><time>2026-04-04T20:00:44.999Z</time></trkpt><trkpt lat="42.06782185772012" lon="-8.644894961724408"><ele>33.0</ele><time>2026-04-04T20:00:45.999Z</time></trkpt><trkpt lat="42.06790606158981" lon="-8.644675867615394"><ele>33.0</ele><time>2026-04-04T20:00:46.999Z</time></trkpt><trkpt lat="42.06798109559725" lon="-8.64444794878825"><ele>33.0</ele><time>2026-04-04T20:00:47.999Z</time></trkpt><trkpt lat="42.068043837140344" lon="-8.644202299778943"><ele>33.0</ele><time>2026-04-04T20:00:48.999Z</time></trkpt><trkpt lat="42.068091439633655" lon="-8.64393883324384"><ele>33.0</ele><time>2026-04-04T20:00:49.999Z</time></trkpt><trkpt lat="42.068119836831734" lon="-8.64366601802338"><ele>33.0</ele><time>2026-04-04T20:00:50.999Z</time></trkpt><trkpt lat="42.068133239942476" lon="-8.64338696795317"><ele>32.0</ele><time>2026-04-04T20:00:51.999Z</time></trkpt><trkpt lat="42.06811889602284" lon="-8.643112767865274"><ele>31.0</ele><time>2026-04-04T20:00:52.999Z</time></trkpt><trkpt lat="42.06808641136787" lon="-8.642838580475468"><ele>30.0</ele><time>2026-04-04T20:00:53.999Z</time></trkpt><trkpt lat="42.06804080550482" lon="-8.642562183394944"><ele>29.666666666666664</ele><time>2026-04-04T20:00:54.999Z</time></trkpt><trkpt lat="42.067969919532274" lon="-8.642287737513945"><ele>29.333333333333332</ele><time>2026-04-04T20:00:55.999Z</time></trkpt><trkpt lat="42.06788540129424" lon="-8.642014224222303"><ele>29.0</ele><time>2026-04-04T20:00:56.999Z</time></trkpt><trkpt lat="42.06779249879339" lon="-8.64173850828063"><ele>29.0</ele><time>2026-04-04T20:00:57.999Z</time></trkpt><trkpt lat="42.06770578851003" lon="-8.64146646034126"><ele>29.0</ele><time>2026-04-04T20:00:58.999Z</time></trkpt><trkpt lat="42.067618016235244" lon="-8.64119831049084"><ele>29.0</ele><time>2026-04-04T20:00:59.999Z</time></trkpt><trkpt lat="42.067544957551576" lon="-8.640947747771062"><ele>27.666666666666664</ele><time>2026-04-04T20:01:00.999Z</time></trkpt><trkpt lat="42.067472676148896" lon="-8.640705211470115"><ele>26.333333333333336</ele><time>2026-04-04T20:01:01.999Z</time></trkpt><trkpt lat="42.06739209169813" lon="-8.640462354716371"><ele>25.0</ele><time>2026-04-04T20:01:02.999Z</time></trkpt><trkpt lat="42.06731936577863" lon="-8.640200454152762"><ele>24.333333333333336</ele><time>2026-04-04T20:01:03.999Z</time></trkpt><trkpt lat="42.06725829362514" lon="-8.639927974868082"><ele>23.666666666666668</ele><time>2026-04-04T20:01:04.999Z</time></trkpt><trkpt lat="42.06720287959814" lon="-8.639636878158486"><ele>23.0</ele><time>2026-04-04T20:01:05.999Z</time></trkpt><trkpt lat="42.06715497844635" lon="-8.63933844086379"><ele>23.0</ele><time>2026-04-04T20:01:06.999Z</time></trkpt><trkpt lat="42.06711656493848" lon="-8.639031702767099"><ele>23.0</ele><time>2026-04-04T20:01:07.999Z</time></trkpt><trkpt lat="42.06708363729803" lon="-8.63871288749882"><ele>22.0</ele><time>2026-04-04T20:01:08.999Z</time></trkpt><trkpt lat="42.06706208712656" lon="-8.638388353930564"><ele>21.0</ele><time>2026-04-04T20:01:09.999Z</time></trkpt><trkpt lat="42.06705097007449" lon="-8.638058338186223"><ele>19.0</ele><time>2026-04-04T20:01:10.999Z</time></trkpt><trkpt lat="42.06705466965988" lon="-8.637740724405143"><ele>17.0</ele><time>2026-04-04T20:01:12Z</time></trkpt><trkpt lat="42.06707094790354" lon="-8.63742742169814"><ele>17.0</ele><time>2026-04-04T20:01:13Z</time></trkpt><trkpt lat="42.06709491728951" lon="-8.637112345677526"><ele>17.0</ele><time>2026-04-04T20:01:14Z</time></trkpt><trkpt lat="42.067130081593824" lon="-8.636798288198671"><ele>16.0</ele><time>2026-04-04T20:01:15Z</time></trkpt><trkpt lat="42.06718536458639" lon="-8.636507102947562"><ele>15.0</ele><time>2026-04-04T20:01:16Z</time></trkpt><trkpt lat="42.06724269981234" lon="-8.636221636707509"><ele>14.0</ele><time>2026-04-04T20:01:17Z</time></trkpt><trkpt lat="42.06732248033488" lon="-8.635959874852741"><ele>14.0</ele><time>2026-04-04T20:01:18Z</time></trkpt><trkpt lat="42.06741695678181" lon="-8.635715136530948"><ele>14.0</ele><time>2026-04-04T20:01:19Z</time></trkpt><trkpt lat="42.06751430982894" lon="-8.635496258564226"><ele>14.0</ele><time>2026-04-04T20:01:20Z</time></trkpt><trkpt lat="42.06761676458174" lon="-8.635295701349792"><ele>16.0</ele><time>2026-04-04T20:01:21Z</time></trkpt><trkpt lat="42.06772051259704" lon="-8.635115881912709"><ele>18.0</ele><time>2026-04-04T20:01:22Z</time></trkpt><trkpt lat="42.067835621176755" lon="-8.634940335540024"><ele>20.0</ele><time>2026-04-04T20:01:23Z</time></trkpt><trkpt lat="42.067963818361385" lon="-8.634772521041885"><ele>20.0</ele><time>2026-04-04T20:01:24Z</time></trkpt><trkpt lat="42.06810009802441" lon="-8.63460759335196"><ele>20.0</ele><time>2026-04-04T20:01:25Z</time></trkpt><trkpt lat="42.068241043778144" lon="-8.634453058535131"><ele>20.0</ele><time>2026-04-04T20:01:26Z</time></trkpt><trkpt lat="42.068388328831716" lon="-8.634297897712578"><ele>23.0</ele><time>2026-04-04T20:01:27Z</time></trkpt><trkpt lat="42.068537608608636" lon="-8.634139570084725"><ele>26.0</ele><time>2026-04-04T20:01:28Z</time></trkpt><trkpt lat="42.06868883701991" lon="-8.633989051694892"><ele>29.0</ele><time>2026-04-04T20:01:29Z</time></trkpt><trkpt lat="42.068848906411375" lon="-8.63384122521624"><ele>29.0</ele><time>2026-04-04T20:01:30Z</time></trkpt><trkpt lat="42.06900820654934" lon="-8.633684883798077"><ele>29.0</ele><time>2026-04-04T20:01:31Z</time></trkpt><trkpt lat="42.06916819438633" lon="-8.633530762278786"><ele>29.0</ele><time>2026-04-04T20:01:32Z</time></trkpt><trkpt lat="42.06932993619499" lon="-8.633372435509608"><ele>30.333333333333332</ele><time>2026-04-04T20:01:33Z</time></trkpt><trkpt lat="42.06949448185146" lon="-8.633214755302893"><ele>31.666666666666664</ele><time>2026-04-04T20:01:34Z</time></trkpt><trkpt lat="42.06965749929745" lon="-8.63306079583463"><ele>33.0</ele><time>2026-04-04T20:01:35Z</time></trkpt><trkpt lat="42.069823504213765" lon="-8.632903515416821"><ele>34.666666666666664</ele><time>2026-04-04T20:01:36Z</time></trkpt><trkpt lat="42.06998865852914" lon="-8.632744932490517"><ele>36.33333333333333</ele><time>2026-04-04T20:01:37Z</time></trkpt><trkpt lat="42.07015590289959" lon="-8.632583677126178"><ele>38.0</ele><time>2026-04-04T20:01:38Z</time></trkpt><trkpt lat="42.07032510532602" lon="-8.63242104809367"><ele>38.0</ele><time>2026-04-04T20:01:39Z</time></trkpt><trkpt lat="42.0704962935416" lon="-8.632262740696037"><ele>38.0</ele><time>2026-04-04T20:01:40Z</time></trkpt><trkpt lat="42.07066942541438" lon="-8.632106821765774"><ele>38.0</ele><time>2026-04-04T20:01:41Z</time></trkpt><trkpt lat="42.0708316110008" lon="-8.631977469632432"><ele>39.0</ele><time>2026-04-04T20:01:42Z</time></trkpt><trkpt lat="42.07099017879912" lon="-8.631873430138493"><ele>40.0</ele><time>2026-04-04T20:01:43Z</time></trkpt><trkpt lat="42.07115800730154" lon="-8.631775930730543"><ele>41.0</ele><time>2026-04-04T20:01:44Z</time></trkpt><trkpt lat="42.07133951142648" lon="-8.631697329500659"><ele>41.0</ele><time>2026-04-04T20:01:45Z</time></trkpt><trkpt lat="42.071532349863375" lon="-8.631619352831994"><ele>41.0</ele><time>2026-04-04T20:01:46Z</time></trkpt><trkpt lat="42.071720194508515" lon="-8.631576138653362"><ele>41.0</ele><time>2026-04-04T20:01:47Z</time></trkpt><trkpt lat="42.071920934644226" lon="-8.6315502643068"><ele>43.0</ele><time>2026-04-04T20:01:48Z</time></trkpt><trkpt lat="42.072125287868396" lon="-8.631558021136732"><ele>45.0</ele><time>2026-04-04T20:01:49Z</time></trkpt><trkpt lat="42.07233017379726" lon="-8.631579975489128"><ele>47.0</ele><time>2026-04-04T20:01:50Z</time></trkpt><trkpt lat="42.07254326452414" lon="-8.631611180483997"><ele>48.666666666666664</ele><time>2026-04-04T20:01:51Z</time></trkpt><trkpt lat="42.0727531464193" lon="-8.631659123221175"><ele>50.33333333333333</ele><time>2026-04-04T20:01:52Z</time></trkpt><trkpt lat="42.072970543310404" lon="-8.63171671180488"><ele>52.0</ele><time>2026-04-04T20:01:53Z</time></trkpt><trkpt lat="42.07318541114872" lon="-8.631779580221249"><ele>51.0</ele><time>2026-04-04T20:01:54Z</time></trkpt><trkpt lat="42.073411007359326" lon="-8.631844097335529"><ele>50.0</ele><time>2026-04-04T20:01:55Z</time></trkpt><trkpt lat="42.07362900453541" lon="-8.631909499065204"><ele>50.0</ele><time>2026-04-04T20:01:56Z</time></trkpt><trkpt lat="42.073854435688794" lon="-8.631970227833003"><ele>50.0</ele><time>2026-04-04T20:01:57Z</time></trkpt><trkpt lat="42.07407823787737" lon="-8.632032749353705"><ele>51.0</ele><time>2026-04-04T20:01:58Z</time></trkpt><trkpt lat="42.07430449419933" lon="-8.632099370228705"><ele>52.0</ele><time>2026-04-04T20:01:59Z</time></trkpt><trkpt lat="42.07453575724508" lon="-8.632161293219205"><ele>52.0</ele><time>2026-04-04T20:02:00Z</time></trkpt><trkpt lat="42.07476595643259" lon="-8.632220806316248"><ele>52.0</ele><time>2026-04-04T20:02:00.999Z</time></trkpt><trkpt lat="42.07499794863336" lon="-8.63227589568223"><ele>49.0</ele><time>2026-04-04T20:02:01.999Z</time></trkpt><trkpt lat="42.07523434040224" lon="-8.632327300920318"><ele>46.0</ele><time>2026-04-04T20:02:02.999Z</time></trkpt><trkpt lat="42.07546755770688" lon="-8.63238807951562"><ele>46.0</ele><time>2026-04-04T20:02:03.999Z</time></trkpt><trkpt lat="42.07570158266661" lon="-8.632445300370204"><ele>46.0</ele><time>2026-04-04T20:02:04.999Z</time></trkpt><trkpt lat="42.075936617544734" lon="-8.632517046035305"><ele>46.5</ele><time>2026-04-04T20:02:05.999Z</time></trkpt><trkpt lat="42.076163970421305" lon="-8.63257931168163"><ele>47.0</ele><time>2026-04-04T20:02:06.999Z</time></trkpt><trkpt lat="42.07638623834298" lon="-8.632647461481069"><ele>47.5</ele><time>2026-04-04T20:02:07.999Z</time></trkpt><trkpt lat="42.076615672378914" lon="-8.632712687713505"><ele>48.0</ele><time>2026-04-04T20:02:08.999Z</time></trkpt><trkpt lat="42.07684657325915" lon="-8.632769935221834"><ele>48.0</ele><time>2026-04-04T20:02:09.999Z</time></trkpt><trkpt lat="42.07707924140679" lon="-8.632828695487065"><ele>48.0</ele><time>2026-04-04T20:02:10.999Z</time></trkpt><trkpt lat="42.07731477508549" lon="-8.632874759489129"><ele>47.5</ele><time>2026-04-04T20:02:11.999Z</time></trkpt><trkpt lat="42.077545889512464" lon="-8.632899388702933"><ele>47.0</ele><time>2026-04-04T20:02:12.999Z</time></trkpt><trkpt lat="42.07778414861978" lon="-8.6328943172016"><ele>47.0</ele><time>2026-04-04T20:02:13.999Z</time></trkpt><trkpt lat="42.07801651611833" lon="-8.632867389583701"><ele>47.0</ele><time>2026-04-04T20:02:14.999Z</time></trkpt><trkpt lat="42.07825069826872" lon="-8.632796650704057"><ele>51.5</ele><time>2026-04-04T20:02:15.999Z</time></trkpt><trkpt lat="42.07847562132587" lon="-8.632709458432258"><ele>56.0</ele><time>2026-04-04T20:02:16.999Z</time></trkpt><trkpt lat="42.07869217390356" lon="-8.632592433429563"><ele>56.0</ele><time>2026-04-04T20:02:17.999Z</time></trkpt><trkpt lat="42.078904123567014" lon="-8.632450768980645"><ele>56.0</ele><time>2026-04-04T20:02:18.999Z</time></trkpt><trkpt lat="42.07910115955705" lon="-8.632284237520633"><ele>55.0</ele><time>2026-04-04T20:02:19.999Z</time></trkpt><trkpt lat="42.079290250574324" lon="-8.632097219297728"><ele>54.0</ele><time>2026-04-04T20:02:20.999Z</time></trkpt><trkpt lat="42.07946411766631" lon="-8.631882019037441"><ele>56.0</ele><time>2026-04-04T20:02:21.999Z</time></trkpt><trkpt lat="42.07963086358371" lon="-8.631659502324599"><ele>58.0</ele><time>2026-04-04T20:02:22.999Z</time></trkpt><trkpt lat="42.079794399310885" lon="-8.631430890151783"><ele>55.5</ele><time>2026-04-04T20:02:23.999Z</time></trkpt><trkpt lat="42.07995849337591" lon="-8.631196898473704"><ele>53.0</ele><time>2026-04-04T20:02:24.999Z</time></trkpt><trkpt lat="42.08012887159525" lon="-8.630961962156503"><ele>53.0</ele><time>2026-04-04T20:02:25.999Z</time></trkpt><trkpt lat="42.080308571437136" lon="-8.630746373158948"><ele>53.0</ele><time>2026-04-04T20:02:26.999Z</time></trkpt><trkpt lat="42.08049612765571" lon="-8.630544253573461"><ele>53.0</ele><time>2026-04-04T20:02:27.999Z</time></trkpt><trkpt lat="42.08068982540309" lon="-8.63033891224381"><ele>53.0</ele><time>2026-04-04T20:02:28.999Z</time></trkpt><trkpt lat="42.08088921439188" lon="-8.630150796699937"><ele>47.0</ele><time>2026-04-04T20:02:29.999Z</time></trkpt><trkpt lat="42.08109598203212" lon="-8.62996789528437"><ele>41.0</ele><time>2026-04-04T20:02:30.999Z</time></trkpt><trkpt lat="42.08130037977201" lon="-8.629806807584211"><ele>41.0</ele><time>2026-04-04T20:02:31.999Z</time></trkpt><trkpt lat="42.08149789602961" lon="-8.629657182199937"><ele>41.0</ele><time>2026-04-04T20:02:32.999Z</time></trkpt><trkpt lat="42.081683425504465" lon="-8.629510095539214"><ele>41.0</ele><time>2026-04-04T20:02:33.999Z</time></trkpt><trkpt lat="42.08186475101783" lon="-8.629370472672566"><ele>42.33333333333333</ele><time>2026-04-04T20:02:34.999Z</time></trkpt><trkpt lat="42.08204067113293" lon="-8.62923289060385"><ele>43.666666666666664</ele><time>2026-04-04T20:02:35.999Z</time></trkpt><trkpt lat="42.08222130678646" lon="-8.629091630415802"><ele>45.0</ele><time>2026-04-04T20:02:36.999Z</time></trkpt><trkpt lat="42.08240651012262" lon="-8.628943219830676"><ele>44.333333333333336</ele><time>2026-04-04T20:02:37.999Z</time></trkpt><trkpt lat="42.08259823432359" lon="-8.628795334108167"><ele>43.66666666666667</ele><time>2026-04-04T20:02:38.999Z</time></trkpt><trkpt lat="42.082792681960775" lon="-8.62864969975009"><ele>43.0</ele><time>2026-04-04T20:02:39.999Z</time></trkpt><trkpt lat="42.08298600362425" lon="-8.628505664102148"><ele>43.0</ele><time>2026-04-04T20:02:40.999Z</time></trkpt><trkpt lat="42.08317447818651" lon="-8.628361734339565"><ele>43.0</ele><time>2026-04-04T20:02:41.999Z</time></trkpt><trkpt lat="42.08336370575741" lon="-8.628218180108258"><ele>43.0</ele><time>2026-04-04T20:02:42.999Z</time></trkpt><trkpt lat="42.08354880837513" lon="-8.6280702533971"><ele>40.333333333333336</ele><time>2026-04-04T20:02:43.999Z</time></trkpt><trkpt lat="42.083731608075865" lon="-8.627914784406876"><ele>37.666666666666664</ele><time>2026-04-04T20:02:44.999Z</time></trkpt><trkpt lat="42.08392016498181" lon="-8.6277735640896"><ele>35.0</ele><time>2026-04-04T20:02:45.999Z</time></trkpt><trkpt lat="42.084108330009926" lon="-8.627629015912197"><ele>32.666666666666664</ele><time>2026-04-04T20:02:46.999Z</time></trkpt><trkpt lat="42.08429091346038" lon="-8.627482323943898"><ele>30.333333333333336</ele><time>2026-04-04T20:02:47.999Z</time></trkpt><trkpt lat="42.084475274433636" lon="-8.627340072408042"><ele>28.0</ele><time>2026-04-04T20:02:48.999Z</time></trkpt><trkpt lat="42.084661877837625" lon="-8.62719338229825"><ele>28.0</ele><time>2026-04-04T20:02:49.999Z</time></trkpt><trkpt lat="42.08484985253373" lon="-8.627043858533312"><ele>28.0</ele><time>2026-04-04T20:02:50.999Z</time></trkpt><trkpt lat="42.08503919854161" lon="-8.626903636175511"><ele>28.0</ele><time>2026-04-04T20:02:51.999Z</time></trkpt><trkpt lat="42.08521698842783" lon="-8.626771820612664"><ele>25.666666666666668</ele><time>2026-04-04T20:02:52.999Z</time></trkpt><trkpt lat="42.085388849563365" lon="-8.626651181281636"><ele>23.333333333333336</ele><time>2026-04-04T20:02:53.999Z</time></trkpt><trkpt lat="42.08555422890855" lon="-8.626563174008473"><ele>21.0</ele><time>2026-04-04T20:02:54.999Z</time></trkpt><trkpt lat="42.08572276961911" lon="-8.626501342161829"><ele>21.0</ele><time>2026-04-04T20:02:55.999Z</time></trkpt><trkpt lat="42.085897453157195" lon="-8.626451608571399"><ele>21.0</ele><time>2026-04-04T20:02:56.999Z</time></trkpt><trkpt lat="42.08607540551559" lon="-8.626412218548456"><ele>21.0</ele><time>2026-04-04T20:02:57.999Z</time></trkpt><trkpt lat="42.08625628036381" lon="-8.626392725410955"><ele>21.0</ele><time>2026-04-04T20:02:58.999Z</time></trkpt><trkpt lat="42.08644502230198" lon="-8.626392287164371"><ele>21.0</ele><time>2026-04-04T20:02:59.999Z</time></trkpt><trkpt lat="42.08664353313706" lon="-8.62639948765336"><ele>21.0</ele><time>2026-04-04T20:03:00.999Z</time></trkpt><trkpt lat="42.08684460659466" lon="-8.626410976722157"><ele>20.666666666666668</ele><time>2026-04-04T20:03:01.999Z</time></trkpt><trkpt lat="42.087058591500586" lon="-8.626433973789515"><ele>20.333333333333336</ele><time>2026-04-04T20:03:02.999Z</time></trkpt><trkpt lat="42.087275574509235" lon="-8.626452221361324"><ele>20.0</ele><time>2026-04-04T20:03:03.999Z</time></trkpt><trkpt lat="42.08749449347145" lon="-8.626468986153652"><ele>19.0</ele><time>2026-04-04T20:03:04.999Z</time></trkpt><trkpt lat="42.0877218459424" lon="-8.62649229258854"><ele>18.0</ele><time>2026-04-04T20:03:05.999Z</time></trkpt><trkpt lat="42.08794961202904" lon="-8.626516688180807"><ele>18.0</ele><time>2026-04-04T20:03:06.999Z</time></trkpt><trkpt lat="42.08817978133461" lon="-8.626538819788374"><ele>18.0</ele><time>2026-04-04T20:03:07.999Z</time></trkpt><trkpt lat="42.08840986586412" lon="-8.626562702676097"><ele>16.5</ele><time>2026-04-04T20:03:08.999Z</time></trkpt><trkpt lat="42.08864033920014" lon="-8.626589917895904"><ele>15.0</ele><time>2026-04-04T20:03:09.999Z</time></trkpt><trkpt lat="42.08887376409371" lon="-8.626611125244821"><ele>13.5</ele><time>2026-04-04T20:03:10.999Z</time></trkpt><trkpt lat="42.08910591283736" lon="-8.626632109571059"><ele>12.0</ele><time>2026-04-04T20:03:11.999Z</time></trkpt><trkpt lat="42.089338077108245" lon="-8.626650382031027"><ele>12.0</ele><time>2026-04-04T20:03:12.999Z</time></trkpt><trkpt lat="42.08957118765625" lon="-8.626670184989438"><ele>12.0</ele><time>2026-04-04T20:03:13.999Z</time></trkpt><trkpt lat="42.08980310469896" lon="-8.626690513026155"><ele>12.0</ele><time>2026-04-04T20:03:14.999Z</time></trkpt><trkpt lat="42.09003226963409" lon="-8.626714793125458"><ele>12.0</ele><time>2026-04-04T20:03:15.999Z</time></trkpt><trkpt lat="42.09026144342595" lon="-8.626735365568248"><ele>12.0</ele><time>2026-04-04T20:03:16.999Z</time></trkpt><trkpt lat="42.090487130264464" lon="-8.62675488385032"><ele>12.0</ele><time>2026-04-04T20:03:18Z</time></trkpt><trkpt lat="42.090713131959184" lon="-8.62677490341037"><ele>12.0</ele><time>2026-04-04T20:03:19Z</time></trkpt><trkpt lat="42.09093557854237" lon="-8.626794799437976"><ele>12.0</ele><time>2026-04-04T20:03:20Z</time></trkpt><trkpt lat="42.09116364576412" lon="-8.62681335296002"><ele>12.0</ele><time>2026-04-04T20:03:21Z</time></trkpt><trkpt lat="42.09139082943906" lon="-8.626831105347115"><ele>12.0</ele><time>2026-04-04T20:03:22Z</time></trkpt><trkpt lat="42.091613807305436" lon="-8.6268515283508"><ele>13.333333333333332</ele><time>2026-04-04T20:03:23Z</time></trkpt><trkpt lat="42.09183707886695" lon="-8.626872324358427"><ele>14.666666666666666</ele><time>2026-04-04T20:03:24Z</time></trkpt><trkpt lat="42.09206006448174" lon="-8.6268870685128"><ele>16.0</ele><time>2026-04-04T20:03:25Z</time></trkpt><trkpt lat="42.092283501028405" lon="-8.62690986662296"><ele>16.666666666666664</ele><time>2026-04-04T20:03:26Z</time></trkpt><trkpt lat="42.09250210788353" lon="-8.626924565906574"><ele>17.333333333333332</ele><time>2026-04-04T20:03:27Z</time></trkpt><trkpt lat="42.09272609474113" lon="-8.626912513136178"><ele>18.0</ele><time>2026-04-04T20:03:28Z</time></trkpt><trkpt lat="42.09294936832902" lon="-8.626889104309523"><ele>18.0</ele><time>2026-04-04T20:03:29Z</time></trkpt><trkpt lat="42.09317069516219" lon="-8.626861435148454"><ele>18.0</ele><time>2026-04-04T20:03:30Z</time></trkpt><trkpt lat="42.09339221934062" lon="-8.626833316006689"><ele>18.0</ele><time>2026-04-04T20:03:31Z</time></trkpt><trkpt lat="42.09361495071312" lon="-8.626792284887614"><ele>16.0</ele><time>2026-04-04T20:03:32Z</time></trkpt><trkpt lat="42.09383441773712" lon="-8.626737216911403"><ele>14.0</ele><time>2026-04-04T20:03:33Z</time></trkpt><trkpt lat="42.0940566327521" lon="-8.62666187811808"><ele>14.5</ele><time>2026-04-04T20:03:34Z</time></trkpt><trkpt lat="42.094275700936144" lon="-8.626586376705614"><ele>15.0</ele><time>2026-04-04T20:03:35Z</time></trkpt><trkpt lat="42.094493963020945" lon="-8.626503431438854"><ele>15.0</ele><time>2026-04-04T20:03:36Z</time></trkpt><trkpt lat="42.09469673805634" lon="-8.626409895965455"><ele>15.0</ele><time>2026-04-04T20:03:37Z</time></trkpt><trkpt lat="42.09489408448581" lon="-8.626302889627967"><ele>15.0</ele><time>2026-04-04T20:03:38Z</time></trkpt><trkpt lat="42.09509114713469" lon="-8.626197451739236"><ele>15.666666666666668</ele><time>2026-04-04T20:03:39Z</time></trkpt><trkpt lat="42.095277419154996" lon="-8.626084190396798"><ele>16.333333333333336</ele><time>2026-04-04T20:03:40Z</time></trkpt><trkpt lat="42.095460870019686" lon="-8.62596812359941"><ele>17.0</ele><time>2026-04-04T20:03:41Z</time></trkpt><trkpt lat="42.09563701817071" lon="-8.625839200489043"><ele>17.0</ele><time>2026-04-04T20:03:42Z</time></trkpt><trkpt lat="42.095811465082114" lon="-8.625706493721395"><ele>17.0</ele><time>2026-04-04T20:03:43Z</time></trkpt><trkpt lat="42.095979732577874" lon="-8.625572319662503"><ele>17.0</ele><time>2026-04-04T20:03:44Z</time></trkpt><trkpt lat="42.096138331621916" lon="-8.625441842294864"><ele>17.0</ele><time>2026-04-04T20:03:45Z</time></trkpt><trkpt lat="42.09628346186349" lon="-8.625313524842515"><ele>17.0</ele><time>2026-04-04T20:03:46Z</time></trkpt><trkpt lat="42.09642401133023" lon="-8.625177582630872"><ele>17.0</ele><time>2026-04-04T20:03:47Z</time></trkpt><trkpt lat="42.096562122844986" lon="-8.625033419772356"><ele>17.666666666666668</ele><time>2026-04-04T20:03:48Z</time></trkpt><trkpt lat="42.09670325531568" lon="-8.624879097685502"><ele>18.333333333333332</ele><time>2026-04-04T20:03:49Z</time></trkpt><trkpt lat="42.09684121702802" lon="-8.624720428796623"><ele>19.0</ele><time>2026-04-04T20:03:50Z</time></trkpt><trkpt lat="42.09697749835227" lon="-8.624556586470362"><ele>19.0</ele><time>2026-04-04T20:03:51Z</time></trkpt><trkpt lat="42.0971122943039" lon="-8.624386534301289"><ele>19.0</ele><time>2026-04-04T20:03:52Z</time></trkpt><trkpt lat="42.09723270190564" lon="-8.624218415366103"><ele>19.0</ele><time>2026-04-04T20:03:53Z</time></trkpt><trkpt lat="42.0973545581352" lon="-8.62405433245318"><ele>20.0</ele><time>2026-04-04T20:03:54Z</time></trkpt><trkpt lat="42.0974749374577" lon="-8.623883598387513"><ele>21.0</ele><time>2026-04-04T20:03:55Z</time></trkpt><trkpt lat="42.09759748040523" lon="-8.623706010486112"><ele>22.0</ele><time>2026-04-04T20:03:56Z</time></trkpt><trkpt lat="42.09772200850864" lon="-8.623525405313295"><ele>23.333333333333332</ele><time>2026-04-04T20:03:57Z</time></trkpt><trkpt lat="42.09784642593841" lon="-8.623341837516259"><ele>24.666666666666664</ele><time>2026-04-04T20:03:58Z</time></trkpt><trkpt lat="42.09796989175485" lon="-8.62315386263619"><ele>26.0</ele><time>2026-04-04T20:03:59Z</time></trkpt><trkpt lat="42.09809964030781" lon="-8.62296690058549"><ele>25.666666666666664</ele><time>2026-04-04T20:04:00Z</time></trkpt><trkpt lat="42.09822962544828" lon="-8.622779154876111"><ele>25.333333333333336</ele><time>2026-04-04T20:04:01Z</time></trkpt><trkpt lat="42.098364782553276" lon="-8.622590843600447"><ele>25.0</ele><time>2026-04-04T20:04:02Z</time></trkpt><trkpt lat="42.09849853223453" lon="-8.62240212555103"><ele>25.0</ele><time>2026-04-04T20:04:03Z</time></trkpt><trkpt lat="42.098632408104464" lon="-8.62220869918252"><ele>25.0</ele><time>2026-04-04T20:04:04Z</time></trkpt><trkpt lat="42.09875476182977" lon="-8.622030524247483"><ele>25.0</ele><time>2026-04-04T20:04:05Z</time></trkpt><trkpt lat="42.098871674975896" lon="-8.62186447198995"><ele>24.666666666666668</ele><time>2026-04-04T20:04:06Z</time></trkpt><trkpt lat="42.098981945625326" lon="-8.62170672852872"><ele>24.333333333333336</ele><time>2026-04-04T20:04:07Z</time></trkpt><trkpt lat="42.09909456560107" lon="-8.621544884339837"><ele>24.0</ele><time>2026-04-04T20:04:08Z</time></trkpt><trkpt lat="42.09920750626134" lon="-8.62139231724697"><ele>25.333333333333336</ele><time>2026-04-04T20:04:09Z</time></trkpt><trkpt lat="42.0993196847198" lon="-8.621242570724872"><ele>26.666666666666668</ele><time>2026-04-04T20:04:10Z</time></trkpt><trkpt lat="42.099428400813565" lon="-8.621102377769018"><ele>28.0</ele><time>2026-04-04T20:04:11Z</time></trkpt><trkpt lat="42.099541487871335" lon="-8.620967673375018"><ele>28.0</ele><time>2026-04-04T20:04:12Z</time></trkpt><trkpt lat="42.0996644038582" lon="-8.620843623910764"><ele>28.0</ele><time>2026-04-04T20:04:13Z</time></trkpt><trkpt lat="42.0997962835307" lon="-8.62072163403188"><ele>28.0</ele><time>2026-04-04T20:04:13.999Z</time></trkpt><trkpt lat="42.099934460019774" lon="-8.620615216536052"><ele>29.333333333333336</ele><time>2026-04-04T20:04:14.999Z</time></trkpt><trkpt lat="42.10007348426856" lon="-8.620522742572508"><ele>30.666666666666664</ele><time>2026-04-04T20:04:15.999Z</time></trkpt><trkpt lat="42.10021525672274" lon="-8.620445957879493"><ele>32.0</ele><time>2026-04-04T20:04:16.999Z</time></trkpt><trkpt lat="42.100358367479" lon="-8.620380430915686"><ele>32.0</ele><time>2026-04-04T20:04:17.999Z</time></trkpt><trkpt lat="42.10050417994287" lon="-8.620326163905277"><ele>32.0</ele><time>2026-04-04T20:04:18.999Z</time></trkpt><trkpt lat="42.100649849642316" lon="-8.620280829487164"><ele>32.0</ele><time>2026-04-04T20:04:19.999Z</time></trkpt><trkpt lat="42.10079801849458" lon="-8.620239000277232"><ele>30.666666666666664</ele><time>2026-04-04T20:04:20.999Z</time></trkpt><trkpt lat="42.10094626847327" lon="-8.620198380963311"><ele>29.333333333333336</ele><time>2026-04-04T20:04:21.999Z</time></trkpt><trkpt lat="42.10109862566806" lon="-8.620150298487454"><ele>28.0</ele><time>2026-04-04T20:04:22.999Z</time></trkpt><trkpt lat="42.10125798926803" lon="-8.62009880814965"><ele>28.0</ele><time>2026-04-04T20:04:23.999Z</time></trkpt><trkpt lat="42.10142383554786" lon="-8.620051034972564"><ele>28.0</ele><time>2026-04-04T20:04:24.999Z</time></trkpt><trkpt lat="42.10158326492501" lon="-8.620013964588729"><ele>28.0</ele><time>2026-04-04T20:04:25.999Z</time></trkpt><trkpt lat="42.101735250221715" lon="-8.619993499182735"><ele>27.0</ele><time>2026-04-04T20:04:26.999Z</time></trkpt><trkpt lat="42.10189047846807" lon="-8.61998187138151"><ele>26.0</ele><time>2026-04-04T20:04:27.999Z</time></trkpt><trkpt lat="42.102044230841116" lon="-8.619987162205419"><ele>25.0</ele><time>2026-04-04T20:04:28.999Z</time></trkpt><trkpt lat="42.102201614317025" lon="-8.620016820658265"><ele>25.0</ele><time>2026-04-04T20:04:29.999Z</time></trkpt><trkpt lat="42.102359440786074" lon="-8.620060851618943"><ele>25.0</ele><time>2026-04-04T20:04:30.999Z</time></trkpt><trkpt lat="42.1025213178087" lon="-8.620111505425651"><ele>25.0</ele><time>2026-04-04T20:04:31.999Z</time></trkpt><trkpt lat="42.10268776671201" lon="-8.620168515881364"><ele>24.0</ele><time>2026-04-04T20:04:32.999Z</time></trkpt><trkpt lat="42.10286235309365" lon="-8.62022824634997"><ele>23.0</ele><time>2026-04-04T20:04:33.999Z</time></trkpt><trkpt lat="42.10304563698538" lon="-8.620287462569975"><ele>22.0</ele><time>2026-04-04T20:04:34.999Z</time></trkpt><trkpt lat="42.103223190121916" lon="-8.620343232995337"><ele>21.0</ele><time>2026-04-04T20:04:35.999Z</time></trkpt><trkpt lat="42.103408905274705" lon="-8.620400454547022"><ele>20.0</ele><time>2026-04-04T20:04:36.999Z</time></trkpt><trkpt lat="42.103605223471014" lon="-8.620454941593952"><ele>19.0</ele><time>2026-04-04T20:04:37.999Z</time></trkpt><trkpt lat="42.10379940616007" lon="-8.62049902245574"><ele>19.0</ele><time>2026-04-04T20:04:38.999Z</time></trkpt><trkpt lat="42.10399676052922" lon="-8.620539008670447"><ele>19.0</ele><time>2026-04-04T20:04:39.999Z</time></trkpt><trkpt lat="42.10420162728232" lon="-8.620572932501528"><ele>19.0</ele><time>2026-04-04T20:04:40.999Z</time></trkpt><trkpt lat="42.10441344600991" lon="-8.620596558463257"><ele>18.666666666666664</ele><time>2026-04-04T20:04:41.999Z</time></trkpt><trkpt lat="42.104627239982094" lon="-8.620622209895197"><ele>18.333333333333332</ele><time>2026-04-04T20:04:42.999Z</time></trkpt><trkpt lat="42.10484879386452" lon="-8.620644648956999"><ele>18.0</ele><time>2026-04-04T20:04:43.999Z</time></trkpt><trkpt lat="42.10507434826244" lon="-8.620672195729458"><ele>18.0</ele><time>2026-04-04T20:04:44.999Z</time></trkpt><trkpt lat="42.10530587289976" lon="-8.620702298061039"><ele>18.0</ele><time>2026-04-04T20:04:45.999Z</time></trkpt><trkpt lat="42.10553223114662" lon="-8.620732691253128"><ele>17.0</ele><time>2026-04-04T20:04:46.999Z</time></trkpt><trkpt lat="42.10576420121948" lon="-8.620757902912938"><ele>16.0</ele><time>2026-04-04T20:04:47.999Z</time></trkpt><trkpt lat="42.105995639174864" lon="-8.620775025208236"><ele>16.0</ele><time>2026-04-04T20:04:48.999Z</time></trkpt><trkpt lat="42.10623129921372" lon="-8.620779434128165"><ele>16.0</ele><time>2026-04-04T20:04:49.999Z</time></trkpt><trkpt lat="42.10646062341865" lon="-8.620799325826818"><ele>17.333333333333332</ele><time>2026-04-04T20:04:50.999Z</time></trkpt><trkpt lat="42.10669120289562" lon="-8.620813539925258"><ele>18.666666666666668</ele><time>2026-04-04T20:04:51.999Z</time></trkpt><trkpt lat="42.10690691518309" lon="-8.620822563612156"><ele>20.0</ele><time>2026-04-04T20:04:52.999Z</time></trkpt><trkpt lat="42.107108187843714" lon="-8.620833380607486"><ele>20.0</ele><time>2026-04-04T20:04:53.999Z</time></trkpt><trkpt lat="42.107292232935166" lon="-8.62085669584937"><ele>20.0</ele><time>2026-04-04T20:04:54.999Z</time></trkpt><trkpt lat="42.107477361393116" lon="-8.620872990630023"><ele>20.0</ele><time>2026-04-04T20:04:55.999Z</time></trkpt><trkpt lat="42.10765423942298" lon="-8.62088262341007"><ele>20.0</ele><time>2026-04-04T20:04:56.999Z</time></trkpt><trkpt lat="42.1078337722312" lon="-8.620892055167287"><ele>20.0</ele><time>2026-04-04T20:04:57.999Z</time></trkpt><trkpt lat="42.10800861603083" lon="-8.620908275503655"><ele>20.0</ele><time>2026-04-04T20:04:58.999Z</time></trkpt><trkpt lat="42.108191955296995" lon="-8.62091957795835"><ele>21.333333333333336</ele><time>2026-04-04T20:04:59.999Z</time></trkpt><trkpt lat="42.1083827054548" lon="-8.620932442670165"><ele>22.666666666666668</ele><time>2026-04-04T20:05:00.999Z</time></trkpt><trkpt lat="42.108569550275334" lon="-8.620938284651919"><ele>24.0</ele><time>2026-04-04T20:05:01.999Z</time></trkpt><trkpt lat="42.10875769838637" lon="-8.620956327054586"><ele>24.0</ele><time>2026-04-04T20:05:02.999Z</time></trkpt><trkpt lat="42.108948925967425" lon="-8.620970933734661"><ele>24.0</ele><time>2026-04-04T20:05:03.999Z</time></trkpt><trkpt lat="42.10914452212714" lon="-8.6209844309348"><ele>24.0</ele><time>2026-04-04T20:05:04.999Z</time></trkpt><trkpt lat="42.10932592187709" lon="-8.620992826361253"><ele>23.666666666666668</ele><time>2026-04-04T20:05:05.999Z</time></trkpt><trkpt lat="42.10949782264886" lon="-8.621011398875297"><ele>23.333333333333336</ele><time>2026-04-04T20:05:06.999Z</time></trkpt><trkpt lat="42.1096603703672" lon="-8.62102534835595"><ele>23.0</ele><time>2026-04-04T20:05:07.999Z</time></trkpt><trkpt lat="42.10982264208513" lon="-8.621039836942181"><ele>21.666666666666668</ele><time>2026-04-04T20:05:08.999Z</time></trkpt><trkpt lat="42.1099825997867" lon="-8.621056981697894"><ele>20.333333333333332</ele><time>2026-04-04T20:05:09.999Z</time></trkpt><trkpt lat="42.110139099003845" lon="-8.621063107268567"><ele>19.0</ele><time>2026-04-04T20:05:10.999Z</time></trkpt><trkpt lat="42.11029205018801" lon="-8.621067326570197"><ele>19.0</ele><time>2026-04-04T20:05:11.999Z</time></trkpt><trkpt lat="42.11044106988855" lon="-8.621089672157721"><ele>19.0</ele><time>2026-04-04T20:05:12.999Z</time></trkpt><trkpt lat="42.110589817215335" lon="-8.621103223532709"><ele>19.0</ele><time>2026-04-04T20:05:13.999Z</time></trkpt><trkpt lat="42.11074393247598" lon="-8.621122865708054"><ele>18.666666666666664</ele><time>2026-04-04T20:05:14.999Z</time></trkpt><trkpt lat="42.11089554152219" lon="-8.621135319176839"><ele>18.333333333333332</ele><time>2026-04-04T20:05:15.999Z</time></trkpt><trkpt lat="42.11104402588283" lon="-8.62114982009023"><ele>18.0</ele><time>2026-04-04T20:05:16.999Z</time></trkpt><trkpt lat="42.111194036200864" lon="-8.621167861934971"><ele>18.0</ele><time>2026-04-04T20:05:17.999Z</time></trkpt><trkpt lat="42.111340360857334" lon="-8.621186014306929"><ele>18.0</ele><time>2026-04-04T20:05:18.999Z</time></trkpt><trkpt lat="42.11148791434345" lon="-8.621194980333291"><ele>18.0</ele><time>2026-04-04T20:05:19.999Z</time></trkpt><trkpt lat="42.111638501225904" lon="-8.62120681234763"><ele>18.0</ele><time>2026-04-04T20:05:20.999Z</time></trkpt><trkpt lat="42.111784038146325" lon="-8.62122000209873"><ele>18.0</ele><time>2026-04-04T20:05:21.999Z</time></trkpt><trkpt lat="42.11192397276019" lon="-8.62122971445395"><ele>18.0</ele><time>2026-04-04T20:05:22.999Z</time></trkpt><trkpt lat="42.112069714378585" lon="-8.621239499780375"><ele>18.0</ele><time>2026-04-04T20:05:24Z</time></trkpt><trkpt lat="42.112213776800154" lon="-8.621249911328807"><ele>18.0</ele><time>2026-04-04T20:05:25Z</time></trkpt><trkpt lat="42.11235470947842" lon="-8.621260521351498"><ele>17.75</ele><time>2026-04-04T20:05:26Z</time></trkpt><trkpt lat="42.11249534310381" lon="-8.621273286991078"><ele>17.5</ele><time>2026-04-04T20:05:27Z</time></trkpt><trkpt lat="42.112632501636746" lon="-8.621290410960869"><ele>17.25</ele><time>2026-04-04T20:05:28Z</time></trkpt><trkpt lat="42.112771885572606" lon="-8.62130521584446"><ele>17.0</ele><time>2026-04-04T20:05:29Z</time></trkpt><trkpt lat="42.112909351830325" lon="-8.621316125104398"><ele>17.0</ele><time>2026-04-04T20:05:30Z</time></trkpt><trkpt lat="42.11305782371564" lon="-8.621329899607634"><ele>17.0</ele><time>2026-04-04T20:05:31Z</time></trkpt><trkpt lat="42.113206563015886" lon="-8.621340206188233"><ele>17.0</ele><time>2026-04-04T20:05:32Z</time></trkpt><trkpt lat="42.1133557186" lon="-8.62135317079945"><ele>17.0</ele><time>2026-04-04T20:05:33Z</time></trkpt><trkpt lat="42.11350746470831" lon="-8.621369879444659"><ele>16.75</ele><time>2026-04-04T20:05:34Z</time></trkpt><trkpt lat="42.11365872578451" lon="-8.621379202477018"><ele>16.5</ele><time>2026-04-04T20:05:35Z</time></trkpt><trkpt lat="42.11379904622239" lon="-8.621396468405662"><ele>16.25</ele><time>2026-04-04T20:05:36Z</time></trkpt><trkpt lat="42.11393608654886" lon="-8.621409062805558"><ele>16.0</ele><time>2026-04-04T20:05:37Z</time></trkpt><trkpt lat="42.114081195700535" lon="-8.621421520184331"><ele>16.0</ele><time>2026-04-04T20:05:38Z</time></trkpt><trkpt lat="42.11422023695476" lon="-8.621431563582876"><ele>16.0</ele><time>2026-04-04T20:05:39Z</time></trkpt><trkpt lat="42.114362794177545" lon="-8.621440476551001"><ele>16.0</ele><time>2026-04-04T20:05:40Z</time></trkpt><trkpt lat="42.11450658684783" lon="-8.62145327039809"><ele>16.0</ele><time>2026-04-04T20:05:41Z</time></trkpt><trkpt lat="42.114648188869786" lon="-8.621465899993048"><ele>16.0</ele><time>2026-04-04T20:05:42Z</time></trkpt><trkpt lat="42.114793679606706" lon="-8.621473381135864"><ele>16.0</ele><time>2026-04-04T20:05:43Z</time></trkpt><trkpt lat="42.11494420606395" lon="-8.621478262559018"><ele>16.0</ele><time>2026-04-04T20:05:44Z</time></trkpt><trkpt lat="42.11509273414827" lon="-8.621491441506915"><ele>16.0</ele><time>2026-04-04T20:05:45Z</time></trkpt><trkpt lat="42.1152337628448" lon="-8.62150974956688"><ele>16.0</ele><time>2026-04-04T20:05:46Z</time></trkpt><trkpt lat="42.11538105571583" lon="-8.621522771147731"><ele>16.0</ele><time>2026-04-04T20:05:47Z</time></trkpt><trkpt lat="42.11552948241115" lon="-8.621528455001542"><ele>16.0</ele><time>2026-04-04T20:05:48Z</time></trkpt><trkpt lat="42.115683814452034" lon="-8.621537623828837"><ele>16.333333333333332</ele><time>2026-04-04T20:05:49Z</time></trkpt><trkpt lat="42.11583887225276" lon="-8.621547866051166"><ele>16.666666666666668</ele><time>2026-04-04T20:05:50Z</time></trkpt><trkpt lat="42.115996668705634" lon="-8.621558844150679"><ele>17.0</ele><time>2026-04-04T20:05:51Z</time></trkpt><trkpt lat="42.11613286472538" lon="-8.621588397133332"><ele>17.0</ele><time>2026-04-04T20:05:52Z</time></trkpt><trkpt lat="42.11628904402308" lon="-8.62160011871828"><ele>17.0</ele><time>2026-04-04T20:05:53Z</time></trkpt><trkpt lat="42.1164553432444" lon="-8.621615998475397"><ele>17.0</ele><time>2026-04-04T20:05:54Z</time></trkpt><trkpt lat="42.11661565919034" lon="-8.621621674623633"><ele>17.0</ele><time>2026-04-04T20:05:55Z</time></trkpt><trkpt lat="42.11679573557249" lon="-8.621637294398232"><ele>17.0</ele><time>2026-04-04T20:05:56Z</time></trkpt><trkpt lat="42.11697678443734" lon="-8.621648637133724"><ele>17.0</ele><time>2026-04-04T20:05:57Z</time></trkpt><trkpt lat="42.1171584169618" lon="-8.621664487233128"><ele>17.0</ele><time>2026-04-04T20:05:58Z</time></trkpt><trkpt lat="42.11734587936363" lon="-8.621682483074508"><ele>17.0</ele><time>2026-04-04T20:05:59Z</time></trkpt><trkpt lat="42.117530251696905" lon="-8.621695630712495"><ele>17.0</ele><time>2026-04-04T20:06:00Z</time></trkpt><trkpt lat="42.11771946469556" lon="-8.621718877478774"><ele>17.333333333333336</ele><time>2026-04-04T20:06:01Z</time></trkpt><trkpt lat="42.117911880993255" lon="-8.621730994511374"><ele>17.666666666666668</ele><time>2026-04-04T20:06:02Z</time></trkpt><trkpt lat="42.118097745374186" lon="-8.621743523160342"><ele>18.0</ele><time>2026-04-04T20:06:03Z</time></trkpt><trkpt lat="42.11828635365036" lon="-8.621756010142485"><ele>18.333333333333332</ele><time>2026-04-04T20:06:04Z</time></trkpt><trkpt lat="42.11847416643964" lon="-8.621770412058853"><ele>18.666666666666664</ele><time>2026-04-04T20:06:05Z</time></trkpt><trkpt lat="42.11865620234616" lon="-8.621790685922983"><ele>19.0</ele><time>2026-04-04T20:06:06Z</time></trkpt><trkpt lat="42.118834698251035" lon="-8.621809803408784"><ele>19.0</ele><time>2026-04-04T20:06:07Z</time></trkpt><trkpt lat="42.11901412482224" lon="-8.621830643232991"><ele>19.0</ele><time>2026-04-04T20:06:08Z</time></trkpt><trkpt lat="42.119190852731016" lon="-8.621847284920342"><ele>19.0</ele><time>2026-04-04T20:06:09Z</time></trkpt><trkpt lat="42.1193699198783" lon="-8.62185701852161"><ele>18.666666666666664</ele><time>2026-04-04T20:06:10Z</time></trkpt><trkpt lat="42.1195452495061" lon="-8.62187081128743"><ele>18.333333333333332</ele><time>2026-04-04T20:06:11Z</time></trkpt><trkpt lat="42.11971707422318" lon="-8.621887910465869"><ele>18.0</ele><time>2026-04-04T20:06:12Z</time></trkpt><trkpt lat="42.11989331267053" lon="-8.621901780809088"><ele>18.333333333333332</ele><time>2026-04-04T20:06:13Z</time></trkpt><trkpt lat="42.12007187487892" lon="-8.621921732490636"><ele>18.666666666666664</ele><time>2026-04-04T20:06:14Z</time></trkpt><trkpt lat="42.12024477507579" lon="-8.621930782477747"><ele>19.0</ele><time>2026-04-04T20:06:15Z</time></trkpt><trkpt lat="42.12041342635839" lon="-8.62195723480176"><ele>19.0</ele><time>2026-04-04T20:06:16Z</time></trkpt><trkpt lat="42.12060100731797" lon="-8.621975886219529"><ele>19.0</ele><time>2026-04-04T20:06:17Z</time></trkpt><trkpt lat="42.12077079945747" lon="-8.621981724510304"><ele>19.0</ele><time>2026-04-04T20:06:18Z</time></trkpt><trkpt lat="42.12094616967661" lon="-8.621994243786913"><ele>17.333333333333332</ele><time>2026-04-04T20:06:19Z</time></trkpt><trkpt lat="42.12112323104122" lon="-8.622006538534249"><ele>15.666666666666668</ele><time>2026-04-04T20:06:20Z</time></trkpt><trkpt lat="42.12129915126578" lon="-8.622024636207517"><ele>14.0</ele><time>2026-04-04T20:06:21Z</time></trkpt><trkpt lat="42.12147547598078" lon="-8.62204323015532"><ele>14.333333333333334</ele><time>2026-04-04T20:06:22Z</time></trkpt><trkpt lat="42.121652854191545" lon="-8.622060223636732"><ele>14.666666666666668</ele><time>2026-04-04T20:06:23Z</time></trkpt><trkpt lat="42.121820853817425" lon="-8.62207632513548"><ele>15.0</ele><time>2026-04-04T20:06:24Z</time></trkpt><trkpt lat="42.12199849403981" lon="-8.622081571768692"><ele>15.0</ele><time>2026-04-04T20:06:25Z</time></trkpt><trkpt lat="42.12217332068903" lon="-8.622108903951823"><ele>15.0</ele><time>2026-04-04T20:06:26Z</time></trkpt><trkpt lat="42.12235056251763" lon="-8.622117113233342"><ele>15.0</ele><time>2026-04-04T20:06:26.999Z</time></trkpt><trkpt lat="42.12252757477976" lon="-8.622133717377714"><ele>15.0</ele><time>2026-04-04T20:06:27.999Z</time></trkpt><trkpt lat="42.12271035420435" lon="-8.622152664352397"><ele>15.0</ele><time>2026-04-04T20:06:28.999Z</time></trkpt><trkpt lat="42.12288599628113" lon="-8.622159997291552"><ele>15.0</ele><time>2026-04-04T20:06:29.999Z</time></trkpt><trkpt lat="42.12306229551997" lon="-8.62217630201822"><ele>16.666666666666668</ele><time>2026-04-04T20:06:30.999Z</time></trkpt><trkpt lat="42.12323756521217" lon="-8.622186896328794"><ele>18.333333333333336</ele><time>2026-04-04T20:06:31.999Z</time></trkpt><trkpt lat="42.123414517270724" lon="-8.622209629158377"><ele>20.0</ele><time>2026-04-04T20:06:32.999Z</time></trkpt><trkpt lat="42.12358147483486" lon="-8.622224584020357"><ele>20.0</ele><time>2026-04-04T20:06:33.999Z</time></trkpt><trkpt lat="42.12374865447757" lon="-8.622234599748099"><ele>20.0</ele><time>2026-04-04T20:06:34.999Z</time></trkpt><trkpt lat="42.12391873104084" lon="-8.622253482254573"><ele>20.0</ele><time>2026-04-04T20:06:35.999Z</time></trkpt><trkpt lat="42.12409093687807" lon="-8.622269479976932"><ele>20.0</ele><time>2026-04-04T20:06:36.999Z</time></trkpt><trkpt lat="42.124254628194635" lon="-8.622285113023617"><ele>20.0</ele><time>2026-04-04T20:06:37.999Z</time></trkpt><trkpt lat="42.12443355546946" lon="-8.62229607524693"><ele>20.0</ele><time>2026-04-04T20:06:38.999Z</time></trkpt><trkpt lat="42.124611983975726" lon="-8.622305416874731"><ele>20.0</ele><time>2026-04-04T20:06:39.999Z</time></trkpt><trkpt lat="42.124789768404206" lon="-8.622322279151113"><ele>20.0</ele><time>2026-04-04T20:06:40.999Z</time></trkpt><trkpt lat="42.124970532779045" lon="-8.622339628430952"><ele>20.0</ele><time>2026-04-04T20:06:41.999Z</time></trkpt><trkpt lat="42.12516081018196" lon="-8.622357508583852"><ele>19.333333333333336</ele><time>2026-04-04T20:06:42.999Z</time></trkpt><trkpt lat="42.12534436843012" lon="-8.622371887851541"><ele>18.666666666666668</ele><time>2026-04-04T20:06:43.999Z</time></trkpt><trkpt lat="42.12553177185372" lon="-8.622386976626567"><ele>18.0</ele><time>2026-04-04T20:06:44.999Z</time></trkpt><trkpt lat="42.12572468391361" lon="-8.622399501947772"><ele>18.666666666666668</ele><time>2026-04-04T20:06:45.999Z</time></trkpt><trkpt lat="42.125911946939546" lon="-8.622411595239514"><ele>19.333333333333336</ele><time>2026-04-04T20:06:46.999Z</time></trkpt><trkpt lat="42.126094079871244" lon="-8.622421575674798"><ele>20.0</ele><time>2026-04-04T20:06:47.999Z</time></trkpt><trkpt lat="42.12627506619462" lon="-8.62244025625851"><ele>20.0</ele><time>2026-04-04T20:06:48.999Z</time></trkpt><trkpt lat="42.126445069498" lon="-8.622459804774213"><ele>20.0</ele><time>2026-04-04T20:06:49.999Z</time></trkpt><trkpt lat="42.126609980400595" lon="-8.622476471950943"><ele>20.0</ele><time>2026-04-04T20:06:50.999Z</time></trkpt><trkpt lat="42.12678192322164" lon="-8.622487678691238"><ele>20.0</ele><time>2026-04-04T20:06:51.999Z</time></trkpt><trkpt lat="42.12694612876859" lon="-8.622503619890974"><ele>20.0</ele><time>2026-04-04T20:06:52.999Z</time></trkpt><trkpt lat="42.12711176415898" lon="-8.62251917381648"><ele>20.0</ele><time>2026-04-04T20:06:53.999Z</time></trkpt><trkpt lat="42.12727179038862" lon="-8.622523629577413"><ele>21.0</ele><time>2026-04-04T20:06:54.999Z</time></trkpt><trkpt lat="42.127438206662056" lon="-8.622537362587755"><ele>22.0</ele><time>2026-04-04T20:06:55.999Z</time></trkpt><trkpt lat="42.12759347119318" lon="-8.622551300709787"><ele>23.0</ele><time>2026-04-04T20:06:56.999Z</time></trkpt><trkpt lat="42.12774727514876" lon="-8.622563617215468"><ele>23.0</ele><time>2026-04-04T20:06:57.999Z</time></trkpt><trkpt lat="42.12790249654376" lon="-8.622574448108688"><ele>23.0</ele><time>2026-04-04T20:06:58.999Z</time></trkpt><trkpt lat="42.12805567863869" lon="-8.622586827436125"><ele>23.0</ele><time>2026-04-04T20:06:59.999Z</time></trkpt><trkpt lat="42.12821171482576" lon="-8.622596613895247"><ele>22.666666666666668</ele><time>2026-04-04T20:07:00.999Z</time></trkpt><trkpt lat="42.12836265427924" lon="-8.622611495885897"><ele>22.333333333333332</ele><time>2026-04-04T20:07:01.999Z</time></trkpt><trkpt lat="42.12851812039568" lon="-8.622626564977743"><ele>22.0</ele><time>2026-04-04T20:07:02.999Z</time></trkpt><trkpt lat="42.128667937957474" lon="-8.622637961687"><ele>22.0</ele><time>2026-04-04T20:07:03.999Z</time></trkpt><trkpt lat="42.12882235103541" lon="-8.622650050858859"><ele>22.0</ele><time>2026-04-04T20:07:04.999Z</time></trkpt><trkpt lat="42.128975699453854" lon="-8.62266348922668"><ele>22.0</ele><time>2026-04-04T20:07:05.999Z</time></trkpt><trkpt lat="42.12911906308861" lon="-8.622677814001214"><ele>22.0</ele><time>2026-04-04T20:07:06.999Z</time></trkpt><trkpt lat="42.12927461125086" lon="-8.622684793201676"><ele>22.0</ele><time>2026-04-04T20:07:07.999Z</time></trkpt><trkpt lat="42.129426611124806" lon="-8.622702052312539"><ele>22.0</ele><time>2026-04-04T20:07:08.999Z</time></trkpt><trkpt lat="42.12957806079763" lon="-8.622708797526334"><ele>22.0</ele><time>2026-04-04T20:07:09.999Z</time></trkpt><trkpt lat="42.12973835568483" lon="-8.622728200881204"><ele>22.0</ele><time>2026-04-04T20:07:10.999Z</time></trkpt><trkpt lat="42.12989244448721" lon="-8.622736400045493"><ele>22.0</ele><time>2026-04-04T20:07:11.999Z</time></trkpt><trkpt lat="42.13006017226876" lon="-8.622751687661982"><ele>22.333333333333332</ele><time>2026-04-04T20:07:12.999Z</time></trkpt><trkpt lat="42.1302242970298" lon="-8.622765643717159"><ele>22.666666666666668</ele><time>2026-04-04T20:07:13.999Z</time></trkpt><trkpt lat="42.13039516134503" lon="-8.622774523855679"><ele>23.0</ele><time>2026-04-04T20:07:14.999Z</time></trkpt><trkpt lat="42.13056813003111" lon="-8.622793935385438"><ele>23.0</ele><time>2026-04-04T20:07:15.999Z</time></trkpt><trkpt lat="42.13074413165157" lon="-8.622809632084731"><ele>23.0</ele><time>2026-04-04T20:07:16.999Z</time></trkpt><trkpt lat="42.1309154757332" lon="-8.622831318323467"><ele>23.0</ele><time>2026-04-04T20:07:17.999Z</time></trkpt><trkpt lat="42.131077257612944" lon="-8.62284335232322"><ele>23.0</ele><time>2026-04-04T20:07:18.999Z</time></trkpt><trkpt lat="42.13124994861488" lon="-8.622849555047816"><ele>23.0</ele><time>2026-04-04T20:07:19.999Z</time></trkpt><trkpt lat="42.13141726096667" lon="-8.622858950663195"><ele>23.0</ele><time>2026-04-04T20:07:20.999Z</time></trkpt><trkpt lat="42.131578606095395" lon="-8.62287483567291"><ele>22.666666666666668</ele><time>2026-04-04T20:07:21.999Z</time></trkpt><trkpt lat="42.13174089956624" lon="-8.622887866160536"><ele>22.333333333333332</ele><time>2026-04-04T20:07:22.999Z</time></trkpt><trkpt lat="42.13190104705222" lon="-8.622903035085079"><ele>22.0</ele><time>2026-04-04T20:07:23.999Z</time></trkpt><trkpt lat="42.13206663114208" lon="-8.622918012378658"><ele>22.0</ele><time>2026-04-04T20:07:24.999Z</time></trkpt><trkpt lat="42.132224261918665" lon="-8.62293421969409"><ele>22.0</ele><time>2026-04-04T20:07:25.999Z</time></trkpt><trkpt lat="42.13239079862617" lon="-8.622949776004683"><ele>22.0</ele><time>2026-04-04T20:07:26.999Z</time></trkpt><trkpt lat="42.132557800210904" lon="-8.622958617682512"><ele>22.666666666666664</ele><time>2026-04-04T20:07:27.999Z</time></trkpt><trkpt lat="42.13272383142021" lon="-8.622969906804165"><ele>23.333333333333332</ele><time>2026-04-04T20:07:28.999Z</time></trkpt><trkpt lat="42.13290459258057" lon="-8.62298889846882"><ele>24.0</ele><time>2026-04-04T20:07:30Z</time></trkpt><trkpt lat="42.13307689624913" lon="-8.62300634700906"><ele>24.333333333333336</ele><time>2026-04-04T20:07:31Z</time></trkpt><trkpt lat="42.133250631392194" lon="-8.623027533772442"><ele>24.666666666666668</ele><time>2026-04-04T20:07:32Z</time></trkpt><trkpt lat="42.1334217354168" lon="-8.623040363755262"><ele>25.0</ele><time>2026-04-04T20:07:33Z</time></trkpt><trkpt lat="42.13357162040061" lon="-8.623054049218052"><ele>25.0</ele><time>2026-04-04T20:07:34Z</time></trkpt><trkpt lat="42.133723985602174" lon="-8.623054021794065"><ele>25.0</ele><time>2026-04-04T20:07:35Z</time></trkpt><trkpt lat="42.13388482573257" lon="-8.62303740367833"><ele>25.0</ele><time>2026-04-04T20:07:36Z</time></trkpt><trkpt lat="42.13403993494609" lon="-8.622998834142464"><ele>25.333333333333336</ele><time>2026-04-04T20:07:37Z</time></trkpt><trkpt lat="42.13419510283302" lon="-8.622949208959309"><ele>25.666666666666664</ele><time>2026-04-04T20:07:38Z</time></trkpt><trkpt lat="42.134363657772624" lon="-8.622868999935191"><ele>26.0</ele><time>2026-04-04T20:07:39Z</time></trkpt><trkpt lat="42.13452428863524" lon="-8.622797059885341"><ele>26.0</ele><time>2026-04-04T20:07:40Z</time></trkpt><trkpt lat="42.134690135327396" lon="-8.622713998807134"><ele>26.0</ele><time>2026-04-04T20:07:41Z</time></trkpt><trkpt lat="42.13485816711552" lon="-8.622630112874507"><ele>26.0</ele><time>2026-04-04T20:07:42Z</time></trkpt><trkpt lat="42.13503316824727" lon="-8.622552641569136"><ele>26.666666666666664</ele><time>2026-04-04T20:07:43Z</time></trkpt><trkpt lat="42.13521144256074" lon="-8.622491020614437"><ele>27.333333333333336</ele><time>2026-04-04T20:07:44Z</time></trkpt><trkpt lat="42.135398263380985" lon="-8.622446706106082"><ele>28.0</ele><time>2026-04-04T20:07:45Z</time></trkpt><trkpt lat="42.13559133654265" lon="-8.622432411464047"><ele>27.666666666666668</ele><time>2026-04-04T20:07:46Z</time></trkpt><trkpt lat="42.13578238467408" lon="-8.622430375687614"><ele>27.333333333333336</ele><time>2026-04-04T20:07:47Z</time></trkpt><trkpt lat="42.1359773614263" lon="-8.622454922474605"><ele>27.0</ele><time>2026-04-04T20:07:48Z</time></trkpt><trkpt lat="42.136164449779145" lon="-8.622503654192087"><ele>27.0</ele><time>2026-04-04T20:07:49Z</time></trkpt><trkpt lat="42.13634719438227" lon="-8.622576228356724"><ele>27.0</ele><time>2026-04-04T20:07:50Z</time></trkpt><trkpt lat="42.136525061443834" lon="-8.622673685256045"><ele>27.0</ele><time>2026-04-04T20:07:51Z</time></trkpt><trkpt lat="42.136695454173065" lon="-8.622791600969089"><ele>26.333333333333336</ele><time>2026-04-04T20:07:52Z</time></trkpt><trkpt lat="42.13686390915284" lon="-8.622922122754387"><ele>25.666666666666668</ele><time>2026-04-04T20:07:53Z</time></trkpt><trkpt lat="42.13703313928459" lon="-8.623051903611971"><ele>25.0</ele><time>2026-04-04T20:07:54Z</time></trkpt><trkpt lat="42.137194477104664" lon="-8.623193406200265"><ele>25.0</ele><time>2026-04-04T20:07:55Z</time></trkpt><trkpt lat="42.13734678878833" lon="-8.623329326378984"><ele>25.0</ele><time>2026-04-04T20:07:56Z</time></trkpt><trkpt lat="42.137498261292315" lon="-8.623446149460857"><ele>25.0</ele><time>2026-04-04T20:07:57Z</time></trkpt><trkpt lat="42.13765141033581" lon="-8.623563590490344"><ele>25.333333333333336</ele><time>2026-04-04T20:07:58Z</time></trkpt><trkpt lat="42.1378061110464" lon="-8.623665391348847"><ele>25.666666666666664</ele><time>2026-04-04T20:07:59Z</time></trkpt><trkpt lat="42.137962923861394" lon="-8.623748910625304"><ele>26.0</ele><time>2026-04-04T20:08:00Z</time></trkpt><trkpt lat="42.138113473488154" lon="-8.62382031026241"><ele>25.25</ele><time>2026-04-04T20:08:01Z</time></trkpt><trkpt lat="42.13825651666868" lon="-8.623868374813359"><ele>24.5</ele><time>2026-04-04T20:08:02Z</time></trkpt><trkpt lat="42.1384051012774" lon="-8.62390521309301"><ele>23.75</ele><time>2026-04-04T20:08:03Z</time></trkpt><trkpt lat="42.138547974357486" lon="-8.623938443393683"><ele>23.0</ele><time>2026-04-04T20:08:04Z</time></trkpt><trkpt lat="42.138693362951024" lon="-8.62397405897091"><ele>23.0</ele><time>2026-04-04T20:08:05Z</time></trkpt><trkpt lat="42.13884318858712" lon="-8.62400647889965"><ele>23.0</ele><time>2026-04-04T20:08:06Z</time></trkpt><trkpt lat="42.13899970464693" lon="-8.624044428333868"><ele>23.0</ele><time>2026-04-04T20:08:07Z</time></trkpt><trkpt lat="42.13915154066528" lon="-8.624078224285762"><ele>22.666666666666668</ele><time>2026-04-04T20:08:08Z</time></trkpt><trkpt lat="42.13930835902015" lon="-8.624112300327596"><ele>22.333333333333332</ele><time>2026-04-04T20:08:09Z</time></trkpt><trkpt lat="42.13946132698157" lon="-8.624152617162702"><ele>22.0</ele><time>2026-04-04T20:08:10Z</time></trkpt><trkpt lat="42.13962262150312" lon="-8.624190563007607"><ele>22.0</ele><time>2026-04-04T20:08:11Z</time></trkpt><trkpt lat="42.13978124814642" lon="-8.624226561588888"><ele>22.0</ele><time>2026-04-04T20:08:12Z</time></trkpt><trkpt lat="42.13994359408997" lon="-8.624266308196907"><ele>22.0</ele><time>2026-04-04T20:08:13Z</time></trkpt><trkpt lat="42.140110674070726" lon="-8.624307088902091"><ele>21.333333333333332</ele><time>2026-04-04T20:08:14Z</time></trkpt><trkpt lat="42.14028127078382" lon="-8.62434991432809"><ele>20.666666666666668</ele><time>2026-04-04T20:08:15Z</time></trkpt><trkpt lat="42.14045700533039" lon="-8.624399575970926"><ele>20.0</ele><time>2026-04-04T20:08:16Z</time></trkpt><trkpt lat="42.14062269535946" lon="-8.624445699298114"><ele>20.666666666666668</ele><time>2026-04-04T20:08:17Z</time></trkpt><trkpt lat="42.140798764689066" lon="-8.624491992297077"><ele>21.333333333333332</ele><time>2026-04-04T20:08:18Z</time></trkpt><trkpt lat="42.14097398060833" lon="-8.624533866066807"><ele>22.0</ele><time>2026-04-04T20:08:19Z</time></trkpt><trkpt lat="42.14115146300999" lon="-8.624582379091336"><ele>22.0</ele><time>2026-04-04T20:08:20Z</time></trkpt><trkpt lat="42.14133320833257" lon="-8.624616294642149"><ele>22.0</ele><time>2026-04-04T20:08:21Z</time></trkpt><trkpt lat="42.141517398743225" lon="-8.624665712609389"><ele>22.0</ele><time>2026-04-04T20:08:22Z</time></trkpt><trkpt lat="42.14170290161129" lon="-8.624709078640622"><ele>21.0</ele><time>2026-04-04T20:08:23Z</time></trkpt><trkpt lat="42.14188806104818" lon="-8.624757214779565"><ele>20.0</ele><time>2026-04-04T20:08:24Z</time></trkpt><trkpt lat="42.14207599805904" lon="-8.624800531618755"><ele>19.0</ele><time>2026-04-04T20:08:25Z</time></trkpt><trkpt lat="42.14227824556667" lon="-8.624846226866078"><ele>19.0</ele><time>2026-04-04T20:08:26Z</time></trkpt><trkpt lat="42.14246214268245" lon="-8.624892112198912"><ele>19.0</ele><time>2026-04-04T20:08:27Z</time></trkpt><trkpt lat="42.14266670772976" lon="-8.624926178461909"><ele>19.0</ele><time>2026-04-04T20:08:28Z</time></trkpt><trkpt lat="42.14286981439105" lon="-8.624965616968069"><ele>19.0</ele><time>2026-04-04T20:08:29Z</time></trkpt><trkpt lat="42.14306603062582" lon="-8.624989019792622"><ele>19.0</ele><time>2026-04-04T20:08:29.999Z</time></trkpt><trkpt lat="42.143262066391955" lon="-8.62501278387586"><ele>19.0</ele><time>2026-04-04T20:08:30.999Z</time></trkpt><trkpt lat="42.14345788046914" lon="-8.62504395191591"><ele>19.0</ele><time>2026-04-04T20:08:31.999Z</time></trkpt><trkpt lat="42.14366255074822" lon="-8.62507028232131"><ele>19.0</ele><time>2026-04-04T20:08:32.999Z</time></trkpt><trkpt lat="42.14385601303797" lon="-8.625100155099577"><ele>19.0</ele><time>2026-04-04T20:08:33.999Z</time></trkpt><trkpt lat="42.14405221033074" lon="-8.625120632854072"><ele>19.0</ele><time>2026-04-04T20:08:34.999Z</time></trkpt><trkpt lat="42.144250025595944" lon="-8.625135900794856"><ele>19.0</ele><time>2026-04-04T20:08:35.999Z</time></trkpt><trkpt lat="42.1444395665665" lon="-8.625146893419673"><ele>19.0</ele><time>2026-04-04T20:08:36.999Z</time></trkpt><trkpt lat="42.14462803947052" lon="-8.625163888668451"><ele>19.0</ele><time>2026-04-04T20:08:37.999Z</time></trkpt><trkpt lat="42.144808691111066" lon="-8.625180340032149"><ele>19.0</ele><time>2026-04-04T20:08:38.999Z</time></trkpt><trkpt lat="42.14499565478649" lon="-8.625195012207483"><ele>19.0</ele><time>2026-04-04T20:08:39.999Z</time></trkpt><trkpt lat="42.14517409325791" lon="-8.62521292942948"><ele>19.666666666666664</ele><time>2026-04-04T20:08:40.999Z</time></trkpt><trkpt lat="42.145360112966976" lon="-8.625225042690271"><ele>20.333333333333332</ele><time>2026-04-04T20:08:41.999Z</time></trkpt><trkpt lat="42.14554970289648" lon="-8.625245389701087"><ele>21.0</ele><time>2026-04-04T20:08:42.999Z</time></trkpt><trkpt lat="42.14574263125807" lon="-8.625265907517434"><ele>21.0</ele><time>2026-04-04T20:08:43.999Z</time></trkpt><trkpt lat="42.14593160936486" lon="-8.62528158493906"><ele>21.0</ele><time>2026-04-04T20:08:44.999Z</time></trkpt><trkpt lat="42.14612632305504" lon="-8.625302081666675"><ele>21.0</ele><time>2026-04-04T20:08:45.999Z</time></trkpt><trkpt lat="42.1463217250926" lon="-8.625321657040576"><ele>21.333333333333332</ele><time>2026-04-04T20:08:46.999Z</time></trkpt><trkpt lat="42.146507270322076" lon="-8.62533878550894"><ele>21.666666666666664</ele><time>2026-04-04T20:08:47.999Z</time></trkpt><trkpt lat="42.14670391309473" lon="-8.625361286646951"><ele>22.0</ele><time>2026-04-04T20:08:48.999Z</time></trkpt><trkpt lat="42.14689821287255" lon="-8.62537692662778"><ele>22.333333333333332</ele><time>2026-04-04T20:08:49.999Z</time></trkpt><trkpt lat="42.14709131477911" lon="-8.625398025045836"><ele>22.666666666666668</ele><time>2026-04-04T20:08:50.999Z</time></trkpt><trkpt lat="42.14729484906402" lon="-8.625413326796707"><ele>23.0</ele><time>2026-04-04T20:08:51.999Z</time></trkpt><trkpt lat="42.14749660273996" lon="-8.625432064376893"><ele>23.333333333333336</ele><time>2026-04-04T20:08:52.999Z</time></trkpt><trkpt lat="42.147697640114686" lon="-8.625452470263193"><ele>23.666666666666668</ele><time>2026-04-04T20:08:53.999Z</time></trkpt><trkpt lat="42.1478994593871" lon="-8.625465581957792"><ele>24.0</ele><time>2026-04-04T20:08:54.999Z</time></trkpt><trkpt lat="42.148109398374295" lon="-8.625482618518188"><ele>23.666666666666668</ele><time>2026-04-04T20:08:55.999Z</time></trkpt><trkpt lat="42.14831885604557" lon="-8.625500833697222"><ele>23.333333333333336</ele><time>2026-04-04T20:08:56.999Z</time></trkpt><trkpt lat="42.14849894080022" lon="-8.625531035814497"><ele>23.0</ele><time>2026-04-04T20:08:57.999Z</time></trkpt><trkpt lat="42.14867340908274" lon="-8.625563089304258"><ele>23.0</ele><time>2026-04-04T20:08:58.999Z</time></trkpt><trkpt lat="42.14886866187785" lon="-8.6255691906327"><ele>23.0</ele><time>2026-04-04T20:08:59.999Z</time></trkpt><trkpt lat="42.14905324138015" lon="-8.625585824222268"><ele>23.0</ele><time>2026-04-04T20:09:00.999Z</time></trkpt><trkpt lat="42.149238950379726" lon="-8.625598339583481"><ele>22.0</ele><time>2026-04-04T20:09:01.999Z</time></trkpt><trkpt lat="42.14941870603011" lon="-8.625617307345324"><ele>21.0</ele><time>2026-04-04T20:09:02.999Z</time></trkpt><trkpt lat="42.14959610208929" lon="-8.625630645456791"><ele>20.0</ele><time>2026-04-04T20:09:03.999Z</time></trkpt><trkpt lat="42.14977343501637" lon="-8.625646717557297"><ele>21.0</ele><time>2026-04-04T20:09:04.999Z</time></trkpt><trkpt lat="42.14995687698417" lon="-8.6256627128395"><ele>22.0</ele><time>2026-04-04T20:09:05.999Z</time></trkpt><trkpt lat="42.15013721313118" lon="-8.625683975925753"><ele>23.0</ele><time>2026-04-04T20:09:06.999Z</time></trkpt><trkpt lat="42.150319578644144" lon="-8.625702422229343"><ele>23.0</ele><time>2026-04-04T20:09:07.999Z</time></trkpt><trkpt lat="42.15050583022469" lon="-8.625735521621328"><ele>23.0</ele><time>2026-04-04T20:09:08.999Z</time></trkpt><trkpt lat="42.1506881547295" lon="-8.625742534282468"><ele>23.0</ele><time>2026-04-04T20:09:09.999Z</time></trkpt><trkpt lat="42.150871894618234" lon="-8.625755497648491"><ele>22.0</ele><time>2026-04-04T20:09:10.999Z</time></trkpt><trkpt lat="42.15106530264488" lon="-8.625771780468856"><ele>21.0</ele><time>2026-04-04T20:09:11.999Z</time></trkpt><trkpt lat="42.15125062264856" lon="-8.625781266617714"><ele>20.0</ele><time>2026-04-04T20:09:12.999Z</time></trkpt><trkpt lat="42.15143420363964" lon="-8.625802633919333"><ele>21.333333333333336</ele><time>2026-04-04T20:09:13.999Z</time></trkpt><trkpt lat="42.15162965689099" lon="-8.625824474674934"><ele>22.666666666666668</ele><time>2026-04-04T20:09:14.999Z</time></trkpt><trkpt lat="42.151812371580924" lon="-8.625839101242576"><ele>24.0</ele><time>2026-04-04T20:09:15.999Z</time></trkpt><trkpt lat="42.151996827004176" lon="-8.62585757974929"><ele>24.0</ele><time>2026-04-04T20:09:16.999Z</time></trkpt><trkpt lat="42.152184654299596" lon="-8.62587690361375"><ele>24.0</ele><time>2026-04-04T20:09:17.999Z</time></trkpt><trkpt lat="42.152364992825575" lon="-8.625889374179298"><ele>24.0</ele><time>2026-04-04T20:09:18.999Z</time></trkpt><trkpt lat="42.152543063686295" lon="-8.625903661605026"><ele>23.666666666666668</ele><time>2026-04-04T20:09:19.999Z</time></trkpt><trkpt lat="42.15272390807023" lon="-8.625922473070403"><ele>23.333333333333336</ele><time>2026-04-04T20:09:20.999Z</time></trkpt><trkpt lat="42.1529084293286" lon="-8.625937501326844"><ele>23.0</ele><time>2026-04-04T20:09:21.999Z</time></trkpt><trkpt lat="42.153094328775495" lon="-8.625947825092778"><ele>24.0</ele><time>2026-04-04T20:09:22.999Z</time></trkpt><trkpt lat="42.15328637793261" lon="-8.625958179905536"><ele>25.0</ele><time>2026-04-04T20:09:23.999Z</time></trkpt><trkpt lat="42.1534778601648" lon="-8.625956410663774"><ele>26.0</ele><time>2026-04-04T20:09:24.999Z</time></trkpt><trkpt lat="42.15366527573825" lon="-8.625953677427404"><ele>26.0</ele><time>2026-04-04T20:09:25.999Z</time></trkpt><trkpt lat="42.15385581275275" lon="-8.625957216631763"><ele>26.0</ele><time>2026-04-04T20:09:26.999Z</time></trkpt><trkpt lat="42.154039538725435" lon="-8.625953007476324"><ele>26.0</ele><time>2026-04-04T20:09:27.999Z</time></trkpt><trkpt lat="42.15422126685424" lon="-8.625945646990894"><ele>25.666666666666664</ele><time>2026-04-04T20:09:28.999Z</time></trkpt><trkpt lat="42.154411736284416" lon="-8.625936884850425"><ele>25.333333333333336</ele><time>2026-04-04T20:09:29.999Z</time></trkpt><trkpt lat="42.154598847971215" lon="-8.625922581535516"><ele>25.0</ele><time>2026-04-04T20:09:30.999Z</time></trkpt><trkpt lat="42.15478446421603" lon="-8.625908178737662"><ele>25.666666666666668</ele><time>2026-04-04T20:09:31.999Z</time></trkpt><trkpt lat="42.15496422791158" lon="-8.625890888547016"><ele>26.333333333333336</ele><time>2026-04-04T20:09:32.999Z</time></trkpt><trkpt lat="42.155155082741345" lon="-8.625871228009418"><ele>27.0</ele><time>2026-04-04T20:09:33.999Z</time></trkpt><trkpt lat="42.15534348632698" lon="-8.625851299177432"><ele>27.0</ele><time>2026-04-04T20:09:34.999Z</time></trkpt><trkpt lat="42.15553133064537" lon="-8.625829118169486"><ele>27.0</ele><time>2026-04-04T20:09:36Z</time></trkpt><trkpt lat="42.15571876130019" lon="-8.625811785524068"><ele>27.0</ele><time>2026-04-04T20:09:37Z</time></trkpt><trkpt lat="42.15590695968073" lon="-8.62578914827477"><ele>27.666666666666664</ele><time>2026-04-04T20:09:38Z</time></trkpt><trkpt lat="42.15609473388434" lon="-8.625774861780569"><ele>28.333333333333332</ele><time>2026-04-04T20:09:39Z</time></trkpt><trkpt lat="42.15629361888043" lon="-8.625761377257406"><ele>29.0</ele><time>2026-04-04T20:09:40Z</time></trkpt><trkpt lat="42.15649375373744" lon="-8.625746789064749"><ele>28.0</ele><time>2026-04-04T20:09:41Z</time></trkpt><trkpt lat="42.15670138310789" lon="-8.625737738314745"><ele>27.0</ele><time>2026-04-04T20:09:42Z</time></trkpt><trkpt lat="42.15692367276286" lon="-8.625726259963312"><ele>26.0</ele><time>2026-04-04T20:09:43Z</time></trkpt><trkpt lat="42.15713814986833" lon="-8.625697634648311"><ele>26.0</ele><time>2026-04-04T20:09:44Z</time></trkpt><trkpt lat="42.157349484602484" lon="-8.625679247632142"><ele>26.0</ele><time>2026-04-04T20:09:45Z</time></trkpt><trkpt lat="42.15757045627243" lon="-8.625643270105936"><ele>26.0</ele><time>2026-04-04T20:09:46Z</time></trkpt><trkpt lat="42.15779669138421" lon="-8.625604273428157"><ele>26.5</ele><time>2026-04-04T20:09:47Z</time></trkpt><trkpt lat="42.15802437340981" lon="-8.625562041018828"><ele>27.0</ele><time>2026-04-04T20:09:48Z</time></trkpt><trkpt lat="42.158245640598885" lon="-8.625544656724314"><ele>27.0</ele><time>2026-04-04T20:09:49Z</time></trkpt><trkpt lat="42.15846020773055" lon="-8.625528537878562"><ele>27.0</ele><time>2026-04-04T20:09:50Z</time></trkpt><trkpt lat="42.158674033502166" lon="-8.625521304153365"><ele>27.0</ele><time>2026-04-04T20:09:51Z</time></trkpt><trkpt lat="42.15889014809542" lon="-8.625502874838872"><ele>28.0</ele><time>2026-04-04T20:09:52Z</time></trkpt><trkpt lat="42.15909486329102" lon="-8.625481459488105"><ele>29.0</ele><time>2026-04-04T20:09:53Z</time></trkpt><trkpt lat="42.15930404543667" lon="-8.62545194630937"><ele>30.0</ele><time>2026-04-04T20:09:54Z</time></trkpt><trkpt lat="42.159504922173625" lon="-8.625437734502823"><ele>30.0</ele><time>2026-04-04T20:09:55Z</time></trkpt><trkpt lat="42.15970767135852" lon="-8.625416514502536"><ele>30.0</ele><time>2026-04-04T20:09:56Z</time></trkpt><trkpt lat="42.15991317512028" lon="-8.62540589799124"><ele>30.0</ele><time>2026-04-04T20:09:57Z</time></trkpt><trkpt lat="42.160115107969965" lon="-8.62537713351049"><ele>30.0</ele><time>2026-04-04T20:09:58Z</time></trkpt><trkpt lat="42.16032032566371" lon="-8.625366382317335"><ele>30.0</ele><time>2026-04-04T20:09:59Z</time></trkpt><trkpt lat="42.1605203286412" lon="-8.62534612500537"><ele>30.0</ele><time>2026-04-04T20:10:00Z</time></trkpt><trkpt lat="42.16072207480097" lon="-8.625321517446753"><ele>29.0</ele><time>2026-04-04T20:10:01Z</time></trkpt><trkpt lat="42.16092838199585" lon="-8.62529977770769"><ele>28.0</ele><time>2026-04-04T20:10:02Z</time></trkpt><trkpt lat="42.16114246472928" lon="-8.625275769526747"><ele>27.0</ele><time>2026-04-04T20:10:03Z</time></trkpt><trkpt lat="42.16135337053348" lon="-8.625254996299889"><ele>27.0</ele><time>2026-04-04T20:10:04Z</time></trkpt><trkpt lat="42.16157062658629" lon="-8.625234328605934"><ele>27.0</ele><time>2026-04-04T20:10:05Z</time></trkpt><trkpt lat="42.16178646890306" lon="-8.625217588231871"><ele>27.0</ele><time>2026-04-04T20:10:06Z</time></trkpt><trkpt lat="42.161991380028944" lon="-8.625199334578058"><ele>27.0</ele><time>2026-04-04T20:10:07Z</time></trkpt><trkpt lat="42.16221580179475" lon="-8.625180214601766"><ele>27.0</ele><time>2026-04-04T20:10:08Z</time></trkpt><trkpt lat="42.162437187682315" lon="-8.625161218411442"><ele>27.0</ele><time>2026-04-04T20:10:09Z</time></trkpt><trkpt lat="42.16265470278721" lon="-8.625145439928277"><ele>26.666666666666664</ele><time>2026-04-04T20:10:10Z</time></trkpt><trkpt lat="42.16286935169406" lon="-8.625121336696377"><ele>26.333333333333332</ele><time>2026-04-04T20:10:11Z</time></trkpt><trkpt lat="42.16306868201642" lon="-8.625099500870824"><ele>26.0</ele><time>2026-04-04T20:10:12Z</time></trkpt><trkpt lat="42.16327109697167" lon="-8.625086166595429"><ele>25.666666666666664</ele><time>2026-04-04T20:10:13Z</time></trkpt><trkpt lat="42.1634786608204" lon="-8.625062584910232"><ele>25.333333333333336</ele><time>2026-04-04T20:10:14Z</time></trkpt><trkpt lat="42.163688429274764" lon="-8.62504193735308"><ele>25.0</ele><time>2026-04-04T20:10:15Z</time></trkpt><trkpt lat="42.16389711047989" lon="-8.625019873954752"><ele>25.666666666666668</ele><time>2026-04-04T20:10:16Z</time></trkpt><trkpt lat="42.16411068896231" lon="-8.624997410688945"><ele>26.333333333333336</ele><time>2026-04-04T20:10:17Z</time></trkpt><trkpt lat="42.16432426206487" lon="-8.62497373711738"><ele>27.0</ele><time>2026-04-04T20:10:18Z</time></trkpt><trkpt lat="42.16454620480754" lon="-8.62494988655139"><ele>27.0</ele><time>2026-04-04T20:10:19Z</time></trkpt><trkpt lat="42.16475411660303" lon="-8.624904508550426"><ele>27.0</ele><time>2026-04-04T20:10:20Z</time></trkpt><trkpt lat="42.16497317662169" lon="-8.624851193731804"><ele>27.0</ele><time>2026-04-04T20:10:21Z</time></trkpt><trkpt lat="42.1651875274955" lon="-8.624779839998101"><ele>26.666666666666664</ele><time>2026-04-04T20:10:22Z</time></trkpt><trkpt lat="42.165391505859915" lon="-8.6247045327488"><ele>26.333333333333332</ele><time>2026-04-04T20:10:23Z</time></trkpt><trkpt lat="42.16561151258063" lon="-8.624619300782555"><ele>26.0</ele><time>2026-04-04T20:10:24Z</time></trkpt><trkpt lat="42.16582427675667" lon="-8.624543577427671"><ele>26.333333333333332</ele><time>2026-04-04T20:10:25Z</time></trkpt><trkpt lat="42.166037650811255" lon="-8.624459230967224"><ele>26.666666666666664</ele><time>2026-04-04T20:10:26Z</time></trkpt><trkpt lat="42.16625407206638" lon="-8.624383322010697"><ele>27.0</ele><time>2026-04-04T20:10:27Z</time></trkpt><trkpt lat="42.166468673478256" lon="-8.624306638603503"><ele>27.333333333333336</ele><time>2026-04-04T20:10:28Z</time></trkpt><trkpt lat="42.1666797150991" lon="-8.624229897441495"><ele>27.666666666666668</ele><time>2026-04-04T20:10:29Z</time></trkpt><trkpt lat="42.16688814920792" lon="-8.624158418345639"><ele>28.0</ele><time>2026-04-04T20:10:29.999Z</time></trkpt><trkpt lat="42.16708832660411" lon="-8.62408866287961"><ele>28.0</ele><time>2026-04-04T20:10:30.999Z</time></trkpt><trkpt lat="42.167282527963735" lon="-8.624024283610664"><ele>28.0</ele><time>2026-04-04T20:10:31.999Z</time></trkpt><trkpt lat="42.167463886385676" lon="-8.623953006268183"><ele>28.0</ele><time>2026-04-04T20:10:32.999Z</time></trkpt><trkpt lat="42.16764815283247" lon="-8.623887301244958"><ele>29.0</ele><time>2026-04-04T20:10:33.999Z</time></trkpt><trkpt lat="42.167824875915144" lon="-8.623823020484517"><ele>30.0</ele><time>2026-04-04T20:10:34.999Z</time></trkpt><trkpt lat="42.16799501930183" lon="-8.623759945875989"><ele>31.0</ele><time>2026-04-04T20:10:35.999Z</time></trkpt><trkpt lat="42.16817575431006" lon="-8.623692763982024"><ele>31.333333333333336</ele><time>2026-04-04T20:10:36.999Z</time></trkpt><trkpt lat="42.168348730475564" lon="-8.623624833519676"><ele>31.666666666666664</ele><time>2026-04-04T20:10:37.999Z</time></trkpt><trkpt lat="42.168522918980955" lon="-8.623564386707514"><ele>32.0</ele><time>2026-04-04T20:10:38.999Z</time></trkpt><trkpt lat="42.16867852656151" lon="-8.62349613817688"><ele>32.0</ele><time>2026-04-04T20:10:39.999Z</time></trkpt><trkpt lat="42.16882921789323" lon="-8.623435751953087"><ele>32.0</ele><time>2026-04-04T20:10:40.999Z</time></trkpt><trkpt lat="42.168982588599135" lon="-8.623370493643932"><ele>32.0</ele><time>2026-04-04T20:10:41.999Z</time></trkpt><trkpt lat="42.169132751578616" lon="-8.623310030151584"><ele>34.0</ele><time>2026-04-04T20:10:42.999Z</time></trkpt><trkpt lat="42.16928085610328" lon="-8.623246511728548"><ele>36.0</ele><time>2026-04-04T20:10:43.999Z</time></trkpt><trkpt lat="42.16942192933123" lon="-8.62318667317172"><ele>38.0</ele><time>2026-04-04T20:10:44.999Z</time></trkpt><trkpt lat="42.169558470830395" lon="-8.623109408005716"><ele>38.0</ele><time>2026-04-04T20:10:45.999Z</time></trkpt><trkpt lat="42.169692685181204" lon="-8.623006483318017"><ele>38.0</ele><time>2026-04-04T20:10:46.999Z</time></trkpt><trkpt lat="42.16982213847219" lon="-8.622894465277204"><ele>38.0</ele><time>2026-04-04T20:10:47.999Z</time></trkpt><trkpt lat="42.169954201370494" lon="-8.622772854275603"><ele>39.25</ele><time>2026-04-04T20:10:48.999Z</time></trkpt><trkpt lat="42.17006521132473" lon="-8.622643701502533"><ele>40.5</ele><time>2026-04-04T20:10:49.999Z</time></trkpt><trkpt lat="42.17012944448933" lon="-8.622499536472631"><ele>41.75</ele><time>2026-04-04T20:10:50.999Z</time></trkpt><trkpt lat="42.17017103927449" lon="-8.622337091807577"><ele>43.0</ele><time>2026-04-04T20:10:51.999Z</time></trkpt><trkpt lat="42.17017522852153" lon="-8.622183456498576"><ele>43.0</ele><time>2026-04-04T20:10:52.999Z</time></trkpt><trkpt lat="42.170150244273636" lon="-8.62204593066734"><ele>43.0</ele><time>2026-04-04T20:10:53.999Z</time></trkpt><trkpt lat="42.17010855100818" lon="-8.621917508991853"><ele>43.0</ele><time>2026-04-04T20:10:54.999Z</time></trkpt><trkpt lat="42.170049119505435" lon="-8.621775047746512"><ele>43.0</ele><time>2026-04-04T20:10:55.999Z</time></trkpt><trkpt lat="42.1699790023767" lon="-8.62162640350364"><ele>42.75</ele><time>2026-04-04T20:10:56.999Z</time></trkpt><trkpt lat="42.16990263606337" lon="-8.621470025423516"><ele>42.5</ele><time>2026-04-04T20:10:57.999Z</time></trkpt><trkpt lat="42.169826835180054" lon="-8.6213074824422"><ele>42.25</ele><time>2026-04-04T20:10:58.999Z</time></trkpt><trkpt lat="42.1697526981336" lon="-8.621125043481548"><ele>42.0</ele><time>2026-04-04T20:10:59.999Z</time></trkpt><trkpt lat="42.16967316145286" lon="-8.62094635801014"><ele>40.666666666666664</ele><time>2026-04-04T20:11:00.999Z</time></trkpt><trkpt lat="42.1695955227689" lon="-8.620760348546675"><ele>39.33333333333333</ele><time>2026-04-04T20:11:01.999Z</time></trkpt><trkpt lat="42.169528251298196" lon="-8.620558194774892"><ele>38.0</ele><time>2026-04-04T20:11:02.999Z</time></trkpt><trkpt lat="42.169474159434415" lon="-8.620350152118744"><ele>40.666666666666664</ele><time>2026-04-04T20:11:03.999Z</time></trkpt><trkpt lat="42.16943454949762" lon="-8.620137961432572"><ele>43.333333333333336</ele><time>2026-04-04T20:11:04.999Z</time></trkpt><trkpt lat="42.16939640404321" lon="-8.619929242380332"><ele>46.0</ele><time>2026-04-04T20:11:05.999Z</time></trkpt><trkpt lat="42.169358428939475" lon="-8.619715629503082"><ele>46.0</ele><time>2026-04-04T20:11:06.999Z</time></trkpt><trkpt lat="42.16931691614868" lon="-8.619500896437627"><ele>46.0</ele><time>2026-04-04T20:11:07.999Z</time></trkpt><trkpt lat="42.16927411062506" lon="-8.619275563291346"><ele>46.0</ele><time>2026-04-04T20:11:08.999Z</time></trkpt><trkpt lat="42.16923097575412" lon="-8.61905271658532"><ele>47.333333333333336</ele><time>2026-04-04T20:11:09.999Z</time></trkpt><trkpt lat="42.16918711944739" lon="-8.618827155449566"><ele>48.66666666666667</ele><time>2026-04-04T20:11:10.999Z</time></trkpt><trkpt lat="42.16913758991853" lon="-8.61859507371426"><ele>50.0</ele><time>2026-04-04T20:11:11.999Z</time></trkpt><trkpt lat="42.16908332023433" lon="-8.618360615888678"><ele>55.0</ele><time>2026-04-04T20:11:12.999Z</time></trkpt><trkpt lat="42.16902130104633" lon="-8.618129838661618"><ele>60.0</ele><time>2026-04-04T20:11:13.999Z</time></trkpt><trkpt lat="42.16896295995082" lon="-8.617902285051404"><ele>65.0</ele><time>2026-04-04T20:11:14.999Z</time></trkpt><trkpt lat="42.16889251093457" lon="-8.617672188677592"><ele>67.66666666666667</ele><time>2026-04-04T20:11:15.999Z</time></trkpt><trkpt lat="42.168807661734526" lon="-8.617445404806496"><ele>70.33333333333333</ele><time>2026-04-04T20:11:16.999Z</time></trkpt><trkpt lat="42.168716152974305" lon="-8.617228861981928"><ele>73.0</ele><time>2026-04-04T20:11:17.999Z</time></trkpt><trkpt lat="42.16861314741977" lon="-8.617011271527657"><ele>71.33333333333333</ele><time>2026-04-04T20:11:18.999Z</time></trkpt><trkpt lat="42.168502540088376" lon="-8.616794495631217"><ele>69.66666666666667</ele><time>2026-04-04T20:11:19.999Z</time></trkpt><trkpt lat="42.168385977825444" lon="-8.616588603421489"><ele>68.0</ele><time>2026-04-04T20:11:20.999Z</time></trkpt><trkpt lat="42.168258845654066" lon="-8.616385975169637"><ele>69.33333333333334</ele><time>2026-04-04T20:11:21.999Z</time></trkpt><trkpt lat="42.16812330645886" lon="-8.616190593032641"><ele>70.66666666666667</ele><time>2026-04-04T20:11:22.999Z</time></trkpt><trkpt lat="42.16797827951246" lon="-8.616001293604057"><ele>72.0</ele><time>2026-04-04T20:11:23.999Z</time></trkpt><trkpt lat="42.16782679974894" lon="-8.615820321780532"><ele>72.0</ele><time>2026-04-04T20:11:24.999Z</time></trkpt><trkpt lat="42.167665912766594" lon="-8.61564612140777"><ele>72.0</ele><time>2026-04-04T20:11:25.999Z</time></trkpt><trkpt lat="42.16749769925486" lon="-8.615482066269168"><ele>72.0</ele><time>2026-04-04T20:11:26.999Z</time></trkpt><trkpt lat="42.16732215871531" lon="-8.615326375936405"><ele>71.33333333333333</ele><time>2026-04-04T20:11:27.999Z</time></trkpt><trkpt lat="42.167140147659005" lon="-8.615176078472004"><ele>70.66666666666666</ele><time>2026-04-04T20:11:28.999Z</time></trkpt><trkpt lat="42.16696957014879" lon="-8.615030063522147"><ele>70.0</ele><time>2026-04-04T20:11:29.999Z</time></trkpt><trkpt lat="42.166786363386905" lon="-8.61486411184588"><ele>70.0</ele><time>2026-04-04T20:11:30.999Z</time></trkpt><trkpt lat="42.16660036166591" lon="-8.614702933280338"><ele>70.0</ele><time>2026-04-04T20:11:31.999Z</time></trkpt><trkpt lat="42.166413593026" lon="-8.614550603992077"><ele>70.0</ele><time>2026-04-04T20:11:32.999Z</time></trkpt><trkpt lat="42.16622633496413" lon="-8.61439170263351"><ele>69.0</ele><time>2026-04-04T20:11:33.999Z</time></trkpt><trkpt lat="42.16604063181278" lon="-8.614225341536292"><ele>68.0</ele><time>2026-04-04T20:11:34.999Z</time></trkpt><trkpt lat="42.16584790045753" lon="-8.614054465452975"><ele>72.5</ele><time>2026-04-04T20:11:35.999Z</time></trkpt><trkpt lat="42.16565618828648" lon="-8.613890669461634"><ele>77.0</ele><time>2026-04-04T20:11:36.999Z</time></trkpt><trkpt lat="42.16545778032162" lon="-8.613725283447218"><ele>79.0</ele><time>2026-04-04T20:11:37.999Z</time></trkpt><trkpt lat="42.165263590877096" lon="-8.613555985865348"><ele>81.0</ele><time>2026-04-04T20:11:38.999Z</time></trkpt><trkpt lat="42.16506853589136" lon="-8.61338234422329"><ele>81.0</ele><time>2026-04-04T20:11:39.999Z</time></trkpt><trkpt lat="42.164869106951436" lon="-8.613209395606695"><ele>81.0</ele><time>2026-04-04T20:11:40.999Z</time></trkpt><trkpt lat="42.16467023186108" lon="-8.613035225544436"><ele>79.5</ele><time>2026-04-04T20:11:42Z</time></trkpt><trkpt lat="42.164468415393834" lon="-8.61286005242603"><ele>78.0</ele><time>2026-04-04T20:11:43Z</time></trkpt><trkpt lat="42.164264568677304" lon="-8.612680495281861"><ele>77.5</ele><time>2026-04-04T20:11:44Z</time></trkpt><trkpt lat="42.164062162562175" lon="-8.612502922756025"><ele>77.0</ele><time>2026-04-04T20:11:45Z</time></trkpt><trkpt lat="42.16385781836519" lon="-8.612322327717578"><ele>72.0</ele><time>2026-04-04T20:11:46Z</time></trkpt><trkpt lat="42.163651688753575" lon="-8.612144194982847"><ele>67.0</ele><time>2026-04-04T20:11:47Z</time></trkpt><trkpt lat="42.16345739800629" lon="-8.61197635590783"><ele>67.0</ele><time>2026-04-04T20:11:48Z</time></trkpt><trkpt lat="42.163269111510914" lon="-8.611812601446749"><ele>67.0</ele><time>2026-04-04T20:11:49Z</time></trkpt><trkpt lat="42.16306907966875" lon="-8.611643584955575"><ele>66.5</ele><time>2026-04-04T20:11:50Z</time></trkpt><trkpt lat="42.162863340681" lon="-8.611470848269134"><ele>66.0</ele><time>2026-04-04T20:11:51Z</time></trkpt><trkpt lat="42.162660561441896" lon="-8.611294633833115"><ele>67.0</ele><time>2026-04-04T20:11:52Z</time></trkpt><trkpt lat="42.16245553173052" lon="-8.61111388681404"><ele>68.0</ele><time>2026-04-04T20:11:53Z</time></trkpt><trkpt lat="42.162250489359366" lon="-8.610931780358845"><ele>68.0</ele><time>2026-04-04T20:11:54Z</time></trkpt><trkpt lat="42.16204650836046" lon="-8.610752808950712"><ele>68.0</ele><time>2026-04-04T20:11:55Z</time></trkpt><trkpt lat="42.16184190738727" lon="-8.610570516174487"><ele>68.0</ele><time>2026-04-04T20:11:56Z</time></trkpt><trkpt lat="42.16164012082684" lon="-8.610383626565872"><ele>68.0</ele><time>2026-04-04T20:11:57Z</time></trkpt><trkpt lat="42.1614418559929" lon="-8.610176709849117"><ele>66.0</ele><time>2026-04-04T20:11:58Z</time></trkpt><trkpt lat="42.16125814891282" lon="-8.609969114751168"><ele>64.0</ele><time>2026-04-04T20:11:59Z</time></trkpt><trkpt lat="42.16107837667584" lon="-8.609742514275684"><ele>64.0</ele><time>2026-04-04T20:12:00Z</time></trkpt><trkpt lat="42.16091035327658" lon="-8.609515127818451"><ele>64.0</ele><time>2026-04-04T20:12:01Z</time></trkpt><trkpt lat="42.16075090955646" lon="-8.609274555957363"><ele>67.5</ele><time>2026-04-04T20:12:02Z</time></trkpt><trkpt lat="42.16060642238929" lon="-8.609026024138796"><ele>71.0</ele><time>2026-04-04T20:12:03Z</time></trkpt><trkpt lat="42.16047309315574" lon="-8.608764359995812"><ele>71.5</ele><time>2026-04-04T20:12:04Z</time></trkpt><trkpt lat="42.160353040354934" lon="-8.608497977265943"><ele>72.0</ele><time>2026-04-04T20:12:05Z</time></trkpt><trkpt lat="42.160248885149855" lon="-8.608227505238277"><ele>72.0</ele><time>2026-04-04T20:12:06Z</time></trkpt><trkpt lat="42.16014915290804" lon="-8.607952516274569"><ele>72.0</ele><time>2026-04-04T20:12:07Z</time></trkpt><trkpt lat="42.16005840055586" lon="-8.607668008314665"><ele>74.0</ele><time>2026-04-04T20:12:08Z</time></trkpt><trkpt lat="42.15996790610824" lon="-8.607384405017196"><ele>76.0</ele><time>2026-04-04T20:12:09Z</time></trkpt><trkpt lat="42.15990072082293" lon="-8.60709755754644"><ele>70.0</ele><time>2026-04-04T20:12:10Z</time></trkpt><trkpt lat="42.15984482008704" lon="-8.606801424548657"><ele>64.0</ele><time>2026-04-04T20:12:11Z</time></trkpt><trkpt lat="42.15980410481846" lon="-8.60650168422159"><ele>64.0</ele><time>2026-04-04T20:12:12Z</time></trkpt><trkpt lat="42.15977073803925" lon="-8.606198285285716"><ele>64.0</ele><time>2026-04-04T20:12:13Z</time></trkpt><trkpt lat="42.15974779377546" lon="-8.605895341224569"><ele>63.5</ele><time>2026-04-04T20:12:14Z</time></trkpt><trkpt lat="42.15974035944636" lon="-8.605590272634172"><ele>63.0</ele><time>2026-04-04T20:12:15Z</time></trkpt><trkpt lat="42.15973846780907" lon="-8.605282517206822"><ele>62.5</ele><time>2026-04-04T20:12:16Z</time></trkpt><trkpt lat="42.159748879173534" lon="-8.604971329941645"><ele>62.0</ele><time>2026-04-04T20:12:17Z</time></trkpt><trkpt lat="42.15977132866977" lon="-8.60466475663871"><ele>65.0</ele><time>2026-04-04T20:12:18Z</time></trkpt><trkpt lat="42.1598088357325" lon="-8.604360438854577"><ele>68.0</ele><time>2026-04-04T20:12:19Z</time></trkpt><trkpt lat="42.15985538426043" lon="-8.604053334003137"><ele>72.5</ele><time>2026-04-04T20:12:20Z</time></trkpt><trkpt lat="42.159904752208455" lon="-8.603745913849325"><ele>77.0</ele><time>2026-04-04T20:12:21Z</time></trkpt><trkpt lat="42.1599561354661" lon="-8.603444777566201"><ele>78.0</ele><time>2026-04-04T20:12:22Z</time></trkpt><trkpt lat="42.16000998783038" lon="-8.603138036467168"><ele>79.0</ele><time>2026-04-04T20:12:23Z</time></trkpt><trkpt lat="42.160065198656206" lon="-8.602828510960055"><ele>76.5</ele><time>2026-04-04T20:12:24Z</time></trkpt><trkpt lat="42.160121582531126" lon="-8.602520844193037"><ele>74.0</ele><time>2026-04-04T20:12:25Z</time></trkpt><trkpt lat="42.16017683110313" lon="-8.602208668299658"><ele>76.0</ele><time>2026-04-04T20:12:26Z</time></trkpt><trkpt lat="42.160239911510835" lon="-8.60189572473082"><ele>78.0</ele><time>2026-04-04T20:12:27Z</time></trkpt><trkpt lat="42.16030757908083" lon="-8.60158557160857"><ele>78.0</ele><time>2026-04-04T20:12:28Z</time></trkpt><trkpt lat="42.16038816630159" lon="-8.601277993934799"><ele>78.0</ele><time>2026-04-04T20:12:29Z</time></trkpt><trkpt lat="42.16048345116802" lon="-8.60098120912325"><ele>78.5</ele><time>2026-04-04T20:12:30Z</time></trkpt><trkpt lat="42.16059549880526" lon="-8.600690624922958"><ele>79.0</ele><time>2026-04-04T20:12:31Z</time></trkpt><trkpt lat="42.16071779041624" lon="-8.600410183999724"><ele>81.5</ele><time>2026-04-04T20:12:32Z</time></trkpt><trkpt lat="42.16085265457574" lon="-8.600135987280117"><ele>84.0</ele><time>2026-04-04T20:12:33Z</time></trkpt><trkpt lat="42.16099558239392" lon="-8.599866119713365"><ele>84.0</ele><time>2026-04-04T20:12:34Z</time></trkpt><trkpt lat="42.16114858357139" lon="-8.599603927068895"><ele>84.0</ele><time>2026-04-04T20:12:35Z</time></trkpt><trkpt lat="42.16131294783939" lon="-8.599354854690791"><ele>84.0</ele><time>2026-04-04T20:12:35.999Z</time></trkpt><trkpt lat="42.161487351952545" lon="-8.59911595075705"><ele>84.0</ele><time>2026-04-04T20:12:36.999Z</time></trkpt><trkpt lat="42.16167560226799" lon="-8.598895420255104"><ele>80.0</ele><time>2026-04-04T20:12:37.999Z</time></trkpt><trkpt lat="42.16187108201764" lon="-8.598683744570021"><ele>76.0</ele><time>2026-04-04T20:12:38.999Z</time></trkpt><trkpt lat="42.162066852807214" lon="-8.598478705448494"><ele>75.0</ele><time>2026-04-04T20:12:39.999Z</time></trkpt><trkpt lat="42.16226569803505" lon="-8.598281146524746"><ele>74.0</ele><time>2026-04-04T20:12:40.999Z</time></trkpt><trkpt lat="42.16246643794788" lon="-8.5980833344338"><ele>74.0</ele><time>2026-04-04T20:12:41.999Z</time></trkpt><trkpt lat="42.16266953001585" lon="-8.597883774443067"><ele>74.0</ele><time>2026-04-04T20:12:42.999Z</time></trkpt><trkpt lat="42.16286283875131" lon="-8.597692046287522"><ele>72.5</ele><time>2026-04-04T20:12:43.999Z</time></trkpt><trkpt lat="42.16305617387071" lon="-8.597486531578253"><ele>71.0</ele><time>2026-04-04T20:12:44.999Z</time></trkpt><trkpt lat="42.163251442265754" lon="-8.597281904827677"><ele>71.0</ele><time>2026-04-04T20:12:45.999Z</time></trkpt><trkpt lat="42.1634451185587" lon="-8.597081324942117"><ele>71.0</ele><time>2026-04-04T20:12:46.999Z</time></trkpt><trkpt lat="42.16365104841505" lon="-8.596886980788438"><ele>71.5</ele><time>2026-04-04T20:12:47.999Z</time></trkpt><trkpt lat="42.16385278487591" lon="-8.59668943650782"><ele>72.0</ele><time>2026-04-04T20:12:48.999Z</time></trkpt><trkpt lat="42.16405102079746" lon="-8.596520090135247"><ele>73.0</ele><time>2026-04-04T20:12:49.999Z</time></trkpt><trkpt lat="42.164247801696675" lon="-8.596310715924393"><ele>74.0</ele><time>2026-04-04T20:12:50.999Z</time></trkpt><trkpt lat="42.16444286973774" lon="-8.59611305704851"><ele>74.0</ele><time>2026-04-04T20:12:51.999Z</time></trkpt><trkpt lat="42.164623238570435" lon="-8.595931007089481"><ele>74.0</ele><time>2026-04-04T20:12:52.999Z</time></trkpt><trkpt lat="42.16479890343853" lon="-8.595732222035695"><ele>74.66666666666667</ele><time>2026-04-04T20:12:53.999Z</time></trkpt><trkpt lat="42.1649660069814" lon="-8.59555566333737"><ele>75.33333333333333</ele><time>2026-04-04T20:12:54.999Z</time></trkpt><trkpt lat="42.165140220066505" lon="-8.595375848118893"><ele>76.0</ele><time>2026-04-04T20:12:55.999Z</time></trkpt><trkpt lat="42.16531019931519" lon="-8.59518897301721"><ele>76.0</ele><time>2026-04-04T20:12:56.999Z</time></trkpt><trkpt lat="42.165480459305755" lon="-8.595005443913445"><ele>76.0</ele><time>2026-04-04T20:12:57.999Z</time></trkpt><trkpt lat="42.16564724233168" lon="-8.594811761052723"><ele>76.0</ele><time>2026-04-04T20:12:58.999Z</time></trkpt><trkpt lat="42.165815588157024" lon="-8.594623230625684"><ele>78.0</ele><time>2026-04-04T20:12:59.999Z</time></trkpt><trkpt lat="42.16597881061586" lon="-8.594433910462522"><ele>80.0</ele><time>2026-04-04T20:13:00.999Z</time></trkpt><trkpt lat="42.166144650710756" lon="-8.594245543523298"><ele>82.0</ele><time>2026-04-04T20:13:01.999Z</time></trkpt><trkpt lat="42.16631210825946" lon="-8.594057475043435"><ele>82.0</ele><time>2026-04-04T20:13:02.999Z</time></trkpt><trkpt lat="42.16647768926172" lon="-8.593869320504172"><ele>82.0</ele><time>2026-04-04T20:13:03.999Z</time></trkpt><trkpt lat="42.16664236873952" lon="-8.593680945562777"><ele>82.0</ele><time>2026-04-04T20:13:04.999Z</time></trkpt><trkpt lat="42.16680693505947" lon="-8.593489857105265"><ele>84.33333333333333</ele><time>2026-04-04T20:13:05.999Z</time></trkpt><trkpt lat="42.166971529911265" lon="-8.593298714271535"><ele>86.66666666666667</ele><time>2026-04-04T20:13:06.999Z</time></trkpt><trkpt lat="42.167134579911576" lon="-8.593107748209713"><ele>89.0</ele><time>2026-04-04T20:13:07.999Z</time></trkpt><trkpt lat="42.16729891408287" lon="-8.59290986614864"><ele>91.33333333333334</ele><time>2026-04-04T20:13:08.999Z</time></trkpt><trkpt lat="42.167462494788516" lon="-8.592714211136084"><ele>93.66666666666667</ele><time>2026-04-04T20:13:09.999Z</time></trkpt><trkpt lat="42.167628440725615" lon="-8.59253564373994"><ele>96.0</ele><time>2026-04-04T20:13:10.999Z</time></trkpt><trkpt lat="42.16779600279638" lon="-8.592339852514705"><ele>96.0</ele><time>2026-04-04T20:13:11.999Z</time></trkpt><trkpt lat="42.167957857504604" lon="-8.592146861016893"><ele>96.0</ele><time>2026-04-04T20:13:12.999Z</time></trkpt><trkpt lat="42.16812306272132" lon="-8.591950344711398"><ele>96.0</ele><time>2026-04-04T20:13:13.999Z</time></trkpt><trkpt lat="42.168288991126445" lon="-8.591760748320514"><ele>100.66666666666666</ele><time>2026-04-04T20:13:14.999Z</time></trkpt><trkpt lat="42.168448280026674" lon="-8.591564296651915"><ele>105.33333333333333</ele><time>2026-04-04T20:13:15.999Z</time></trkpt><trkpt lat="42.16861348636029" lon="-8.59137047673141"><ele>110.0</ele><time>2026-04-04T20:13:16.999Z</time></trkpt><trkpt lat="42.16877922477262" lon="-8.59118000679331"><ele>109.66666666666666</ele><time>2026-04-04T20:13:17.999Z</time></trkpt><trkpt lat="42.1689435543725" lon="-8.590983774026599"><ele>109.33333333333334</ele><time>2026-04-04T20:13:18.999Z</time></trkpt><trkpt lat="42.169107741326506" lon="-8.590791279773569"><ele>109.0</ele><time>2026-04-04T20:13:19.999Z</time></trkpt><trkpt lat="42.169273579389895" lon="-8.590599864342444"><ele>110.66666666666667</ele><time>2026-04-04T20:13:20.999Z</time></trkpt><trkpt lat="42.16943875939316" lon="-8.590407174998012"><ele>112.33333333333334</ele><time>2026-04-04T20:13:21.999Z</time></trkpt><trkpt lat="42.16960266805761" lon="-8.590215117769151"><ele>114.0</ele><time>2026-04-04T20:13:22.999Z</time></trkpt><trkpt lat="42.16976595789254" lon="-8.590017744973435"><ele>117.33333333333334</ele><time>2026-04-04T20:13:23.999Z</time></trkpt><trkpt lat="42.16992723920768" lon="-8.589817865526204"><ele>120.66666666666667</ele><time>2026-04-04T20:13:24.999Z</time></trkpt><trkpt lat="42.170084488449156" lon="-8.5896168592548"><ele>124.0</ele><time>2026-04-04T20:13:25.999Z</time></trkpt><trkpt lat="42.17024793816814" lon="-8.589412776839914"><ele>124.0</ele><time>2026-04-04T20:13:26.999Z</time></trkpt><trkpt lat="42.170383391549" lon="-8.589185071905325"><ele>124.0</ele><time>2026-04-04T20:13:27.999Z</time></trkpt><trkpt lat="42.170507581974334" lon="-8.588942149470524"><ele>124.0</ele><time>2026-04-04T20:13:28.999Z</time></trkpt><trkpt lat="42.17062411043748" lon="-8.588693675068512"><ele>126.33333333333334</ele><time>2026-04-04T20:13:29.999Z</time></trkpt><trkpt lat="42.17074277502183" lon="-8.588449011393473"><ele>128.66666666666666</ele><time>2026-04-04T20:13:30.999Z</time></trkpt><trkpt lat="42.17084832680131" lon="-8.588194331813591"><ele>131.0</ele><time>2026-04-04T20:13:31.999Z</time></trkpt><trkpt lat="42.17094286796073" lon="-8.587935897247299"><ele>129.33333333333331</ele><time>2026-04-04T20:13:32.999Z</time></trkpt><trkpt lat="42.1710271272296" lon="-8.5876609139582"><ele>127.66666666666666</ele><time>2026-04-04T20:13:33.999Z</time></trkpt><trkpt lat="42.17109987010675" lon="-8.587393489323084"><ele>126.0</ele><time>2026-04-04T20:13:34.999Z</time></trkpt><trkpt lat="42.17116558431206" lon="-8.587114809820923"><ele>125.66666666666666</ele><time>2026-04-04T20:13:35.999Z</time></trkpt><trkpt lat="42.171220665073925" lon="-8.586836080435884"><ele>125.33333333333333</ele><time>2026-04-04T20:13:36.999Z</time></trkpt><trkpt lat="42.17126772750039" lon="-8.586550352489878"><ele>125.0</ele><time>2026-04-04T20:13:37.999Z</time></trkpt><trkpt lat="42.171306357565015" lon="-8.586270100916591"><ele>124.33333333333333</ele><time>2026-04-04T20:13:38.999Z</time></trkpt><trkpt lat="42.17133292616888" lon="-8.58598761388125"><ele>123.66666666666666</ele><time>2026-04-04T20:13:39.999Z</time></trkpt><trkpt lat="42.17135580036804" lon="-8.58570111391618"><ele>123.0</ele><time>2026-04-04T20:13:40.999Z</time></trkpt><trkpt lat="42.17137314966941" lon="-8.585413294268493"><ele>122.66666666666666</ele><time>2026-04-04T20:13:41.999Z</time></trkpt><trkpt lat="42.171400167227105" lon="-8.585129757042642"><ele>122.33333333333333</ele><time>2026-04-04T20:13:42.999Z</time></trkpt><trkpt lat="42.171423933759876" lon="-8.584844213844079"><ele>122.0</ele><time>2026-04-04T20:13:43.999Z</time></trkpt><trkpt lat="42.171447000874466" lon="-8.584558725089716"><ele>126.66666666666666</ele><time>2026-04-04T20:13:44.999Z</time></trkpt><trkpt lat="42.171470682035846" lon="-8.58427395738307"><ele>131.33333333333334</ele><time>2026-04-04T20:13:45.999Z</time></trkpt><trkpt lat="42.17149657651974" lon="-8.583987518774352"><ele>136.0</ele><time>2026-04-04T20:13:46.999Z</time></trkpt><trkpt lat="42.17151929546128" lon="-8.583704962047026"><ele>142.0</ele><time>2026-04-04T20:13:48Z</time></trkpt><trkpt lat="42.17154535145649" lon="-8.583418416877802"><ele>148.0</ele><time>2026-04-04T20:13:49Z</time></trkpt><trkpt lat="42.171570905594486" lon="-8.583130980014532"><ele>154.0</ele><time>2026-04-04T20:13:50Z</time></trkpt><trkpt lat="42.17159153150265" lon="-8.582844382724433"><ele>155.0</ele><time>2026-04-04T20:13:51Z</time></trkpt><trkpt lat="42.17161594459931" lon="-8.58256233218335"><ele>156.0</ele><time>2026-04-04T20:13:52Z</time></trkpt><trkpt lat="42.17164220855251" lon="-8.582274788787917"><ele>157.0</ele><time>2026-04-04T20:13:53Z</time></trkpt><trkpt lat="42.1716692751486" lon="-8.581994381165941"><ele>157.0</ele><time>2026-04-04T20:13:54Z</time></trkpt><trkpt lat="42.17170254254793" lon="-8.58170694795541"><ele>157.0</ele><time>2026-04-04T20:13:55Z</time></trkpt><trkpt lat="42.17174294777803" lon="-8.581416517201095"><ele>157.0</ele><time>2026-04-04T20:13:56Z</time></trkpt><trkpt lat="42.17178272936992" lon="-8.581123827579935"><ele>157.33333333333334</ele><time>2026-04-04T20:13:57Z</time></trkpt><trkpt lat="42.171847193272576" lon="-8.580861317885095"><ele>157.66666666666666</ele><time>2026-04-04T20:13:58Z</time></trkpt><trkpt lat="42.17191951720902" lon="-8.580572631048037"><ele>158.0</ele><time>2026-04-04T20:13:59Z</time></trkpt><trkpt lat="42.17200495509335" lon="-8.580297862586301"><ele>161.5</ele><time>2026-04-04T20:14:00Z</time></trkpt><trkpt lat="42.172097989765874" lon="-8.580020962686374"><ele>165.0</ele><time>2026-04-04T20:14:01Z</time></trkpt><trkpt lat="42.17219929217721" lon="-8.579751053138581"><ele>163.5</ele><time>2026-04-04T20:14:02Z</time></trkpt><trkpt lat="42.172302977036594" lon="-8.579476976575105"><ele>162.0</ele><time>2026-04-04T20:14:03Z</time></trkpt><trkpt lat="42.17241272261207" lon="-8.579207578941054"><ele>162.0</ele><time>2026-04-04T20:14:04Z</time></trkpt><trkpt lat="42.17253013728521" lon="-8.578950016797934"><ele>162.0</ele><time>2026-04-04T20:14:05Z</time></trkpt><trkpt lat="42.17266149638888" lon="-8.578684802264556"><ele>170.0</ele><time>2026-04-04T20:14:06Z</time></trkpt><trkpt lat="42.172794745382355" lon="-8.578428730107555"><ele>178.0</ele><time>2026-04-04T20:14:07Z</time></trkpt><trkpt lat="42.172936700788064" lon="-8.578181047768613"><ele>178.0</ele><time>2026-04-04T20:14:08Z</time></trkpt><trkpt lat="42.17307903792038" lon="-8.57793777291368"><ele>178.0</ele><time>2026-04-04T20:14:09Z</time></trkpt><trkpt lat="42.1732231768558" lon="-8.577715063480865"><ele>178.0</ele><time>2026-04-04T20:14:10Z</time></trkpt><trkpt lat="42.173368171304695" lon="-8.577495068220001"><ele>180.0</ele><time>2026-04-04T20:14:11Z</time></trkpt><trkpt lat="42.17350756191194" lon="-8.577293495284284"><ele>182.0</ele><time>2026-04-04T20:14:12Z</time></trkpt><trkpt lat="42.17364360025552" lon="-8.577057046200752"><ele>184.0</ele><time>2026-04-04T20:14:13Z</time></trkpt><trkpt lat="42.17377212742411" lon="-8.576825628401519"><ele>184.0</ele><time>2026-04-04T20:14:14Z</time></trkpt><trkpt lat="42.17389870411331" lon="-8.576588991394006"><ele>184.0</ele><time>2026-04-04T20:14:15Z</time></trkpt><trkpt lat="42.17401889100757" lon="-8.576353936502334"><ele>184.0</ele><time>2026-04-04T20:14:16Z</time></trkpt><trkpt lat="42.17412887452032" lon="-8.57611787557432"><ele>175.0</ele><time>2026-04-04T20:14:17Z</time></trkpt><trkpt lat="42.17422671266058" lon="-8.575874833598833"><ele>166.0</ele><time>2026-04-04T20:14:18Z</time></trkpt><trkpt lat="42.17432010140142" lon="-8.575637484518435"><ele>157.0</ele><time>2026-04-04T20:14:19Z</time></trkpt><trkpt lat="42.17441767931206" lon="-8.575383981002519"><ele>160.0</ele><time>2026-04-04T20:14:20Z</time></trkpt><trkpt lat="42.174514834366484" lon="-8.575120237975522"><ele>163.0</ele><time>2026-04-04T20:14:21Z</time></trkpt><trkpt lat="42.17461578777254" lon="-8.574854833363752"><ele>166.0</ele><time>2026-04-04T20:14:22Z</time></trkpt><trkpt lat="42.174713909423886" lon="-8.574566282398832"><ele>164.5</ele><time>2026-04-04T20:14:23Z</time></trkpt><trkpt lat="42.17481745164916" lon="-8.574290600165991"><ele>163.0</ele><time>2026-04-04T20:14:24Z</time></trkpt><trkpt lat="42.17491288928258" lon="-8.57400899826901"><ele>154.66666666666669</ele><time>2026-04-04T20:14:25Z</time></trkpt><trkpt lat="42.17500804349783" lon="-8.573730318055533"><ele>146.33333333333334</ele><time>2026-04-04T20:14:26Z</time></trkpt><trkpt lat="42.17510251885057" lon="-8.573466966579481"><ele>138.0</ele><time>2026-04-04T20:14:27Z</time></trkpt><trkpt lat="42.17520137613793" lon="-8.57320149781479"><ele>138.5</ele><time>2026-04-04T20:14:28Z</time></trkpt><trkpt lat="42.17531244922781" lon="-8.572939268509966"><ele>139.0</ele><time>2026-04-04T20:14:29Z</time></trkpt><trkpt lat="42.175430232133984" lon="-8.572678029663093"><ele>139.0</ele><time>2026-04-04T20:14:30Z</time></trkpt><trkpt lat="42.17556173223795" lon="-8.572411047503072"><ele>139.0</ele><time>2026-04-04T20:14:31Z</time></trkpt><trkpt lat="42.17570566812064" lon="-8.572147803794822"><ele>139.5</ele><time>2026-04-04T20:14:32Z</time></trkpt><trkpt lat="42.1758539861373" lon="-8.571883117862901"><ele>140.0</ele><time>2026-04-04T20:14:33Z</time></trkpt><trkpt lat="42.17600548172085" lon="-8.571618769167207"><ele>140.0</ele><time>2026-04-04T20:14:34Z</time></trkpt><trkpt lat="42.17616188817867" lon="-8.571354850609442"><ele>140.0</ele><time>2026-04-04T20:14:35Z</time></trkpt><trkpt lat="42.17632152760846" lon="-8.571091624281689"><ele>132.5</ele><time>2026-04-04T20:14:36Z</time></trkpt><trkpt lat="42.17647675017095" lon="-8.570824223652378"><ele>125.0</ele><time>2026-04-04T20:14:37Z</time></trkpt><trkpt lat="42.17661623996558" lon="-8.57055227436197"><ele>134.0</ele><time>2026-04-04T20:14:38Z</time></trkpt><trkpt lat="42.176750644625216" lon="-8.570269425018322"><ele>143.0</ele><time>2026-04-04T20:14:39Z</time></trkpt><trkpt lat="42.17687642177121" lon="-8.569978215695647"><ele>143.0</ele><time>2026-04-04T20:14:40Z</time></trkpt><trkpt lat="42.17699408476515" lon="-8.569671924428405"><ele>143.0</ele><time>2026-04-04T20:14:41Z</time></trkpt><trkpt lat="42.177101860538485" lon="-8.569362318425943"><ele>150.0</ele><time>2026-04-04T20:14:42Z</time></trkpt><trkpt lat="42.17720216391768" lon="-8.569035862931685"><ele>157.0</ele><time>2026-04-04T20:14:43Z</time></trkpt><trkpt lat="42.17728490350469" lon="-8.56870293623552"><ele>135.5</ele><time>2026-04-04T20:14:43.999Z</time></trkpt><trkpt lat="42.177359515888746" lon="-8.568365887674277"><ele>114.0</ele><time>2026-04-04T20:14:44.999Z</time></trkpt><trkpt lat="42.17741721554159" lon="-8.568027316586322"><ele>115.5</ele><time>2026-04-04T20:14:45.999Z</time></trkpt><trkpt lat="42.17746652346902" lon="-8.56769647537121"><ele>117.0</ele><time>2026-04-04T20:14:46.999Z</time></trkpt><trkpt lat="42.177499832156656" lon="-8.567375127925738"><ele>117.0</ele><time>2026-04-04T20:14:47.999Z</time></trkpt><trkpt lat="42.177524010438766" lon="-8.567037502009203"><ele>117.0</ele><time>2026-04-04T20:14:48.999Z</time></trkpt><trkpt lat="42.1775337448526" lon="-8.566698095347732"><ele>113.5</ele><time>2026-04-04T20:14:49.999Z</time></trkpt><trkpt lat="42.17752672599597" lon="-8.566352687256504"><ele>110.0</ele><time>2026-04-04T20:14:50.999Z</time></trkpt><trkpt lat="42.17751301737479" lon="-8.566009962628526"><ele>109.5</ele><time>2026-04-04T20:14:51.999Z</time></trkpt><trkpt lat="42.17748982936329" lon="-8.565665776116546"><ele>109.0</ele><time>2026-04-04T20:14:52.999Z</time></trkpt><trkpt lat="42.177448927210925" lon="-8.56529172342369"><ele>103.5</ele><time>2026-04-04T20:14:53.999Z</time></trkpt><trkpt lat="42.1774257364207" lon="-8.56496459295746"><ele>98.0</ele><time>2026-04-04T20:14:54.999Z</time></trkpt><trkpt lat="42.177378736311084" lon="-8.564618195063137"><ele>106.5</ele><time>2026-04-04T20:14:55.999Z</time></trkpt><trkpt lat="42.17733253968688" lon="-8.564277392841516"><ele>115.0</ele><time>2026-04-04T20:14:56.999Z</time></trkpt><trkpt lat="42.1772879714567" lon="-8.563954086259036"><ele>108.5</ele><time>2026-04-04T20:14:57.999Z</time></trkpt><trkpt lat="42.17724228874747" lon="-8.563621818592187"><ele>102.0</ele><time>2026-04-04T20:14:58.999Z</time></trkpt><trkpt lat="42.17719176750421" lon="-8.563283935027782"><ele>102.0</ele><time>2026-04-04T20:14:59.999Z</time></trkpt><trkpt lat="42.177137218205075" lon="-8.562931352761543"><ele>102.0</ele><time>2026-04-04T20:15:00.999Z</time></trkpt><trkpt lat="42.17707157432906" lon="-8.562595975010739"><ele>95.5</ele><time>2026-04-04T20:15:01.999Z</time></trkpt><trkpt lat="42.17701409737757" lon="-8.56225883434984"><ele>89.0</ele><time>2026-04-04T20:15:02.999Z</time></trkpt><trkpt lat="42.17695765187239" lon="-8.56193733767026"><ele>87.0</ele><time>2026-04-04T20:15:03.999Z</time></trkpt><trkpt lat="42.176895877963545" lon="-8.561608960040719"><ele>85.0</ele><time>2026-04-04T20:15:04.999Z</time></trkpt><trkpt lat="42.17682216598238" lon="-8.561285354982914"><ele>87.0</ele><time>2026-04-04T20:15:05.999Z</time></trkpt><trkpt lat="42.17674135287301" lon="-8.560954553631529"><ele>89.0</ele><time>2026-04-04T20:15:06.999Z</time></trkpt><trkpt lat="42.176650456713375" lon="-8.560629014625771"><ele>84.5</ele><time>2026-04-04T20:15:07.999Z</time></trkpt><trkpt lat="42.17655273472203" lon="-8.560315471109803"><ele>80.0</ele><time>2026-04-04T20:15:08.999Z</time></trkpt><trkpt lat="42.17644418972427" lon="-8.560026795715476"><ele>92.5</ele><time>2026-04-04T20:15:09.999Z</time></trkpt><trkpt lat="42.17632172344248" lon="-8.559741360475774"><ele>105.0</ele><time>2026-04-04T20:15:10.999Z</time></trkpt><trkpt lat="42.17619852163143" lon="-8.559460006974357"><ele>105.0</ele><time>2026-04-04T20:15:11.999Z</time></trkpt><trkpt lat="42.176063214236436" lon="-8.559175689063961"><ele>105.0</ele><time>2026-04-04T20:15:12.999Z</time></trkpt><trkpt lat="42.17593008861602" lon="-8.558905451434756"><ele>112.5</ele><time>2026-04-04T20:15:13.999Z</time></trkpt><trkpt lat="42.175779415486645" lon="-8.558650674849176"><ele>120.0</ele><time>2026-04-04T20:15:14.999Z</time></trkpt><trkpt lat="42.175618739695445" lon="-8.55841104720652"><ele>120.0</ele><time>2026-04-04T20:15:15.999Z</time></trkpt><trkpt lat="42.17544802150284" lon="-8.558166225408206"><ele>120.0</ele><time>2026-04-04T20:15:16.999Z</time></trkpt><trkpt lat="42.17527105218742" lon="-8.557930962141798"><ele>102.0</ele><time>2026-04-04T20:15:17.999Z</time></trkpt><trkpt lat="42.17509187181742" lon="-8.557706147457862"><ele>84.0</ele><time>2026-04-04T20:15:18.999Z</time></trkpt><trkpt lat="42.174909367302426" lon="-8.557485592308522"><ele>98.0</ele><time>2026-04-04T20:15:19.999Z</time></trkpt><trkpt lat="42.17472472912018" lon="-8.55727103910266"><ele>112.0</ele><time>2026-04-04T20:15:20.999Z</time></trkpt><trkpt lat="42.17453934440666" lon="-8.557058412802864"><ele>99.5</ele><time>2026-04-04T20:15:21.999Z</time></trkpt><trkpt lat="42.174355570840596" lon="-8.556843926655128"><ele>87.0</ele><time>2026-04-04T20:15:22.999Z</time></trkpt><trkpt lat="42.17417791755681" lon="-8.556626565489852"><ele>83.0</ele><time>2026-04-04T20:15:23.999Z</time></trkpt><trkpt lat="42.17399435054054" lon="-8.556407831661286"><ele>79.0</ele><time>2026-04-04T20:15:24.999Z</time></trkpt><trkpt lat="42.17381234681899" lon="-8.556189928509367"><ele>79.0</ele><time>2026-04-04T20:15:25.999Z</time></trkpt><trkpt lat="42.173629614105536" lon="-8.555970664067964"><ele>79.0</ele><time>2026-04-04T20:15:26.999Z</time></trkpt><trkpt lat="42.17344659617656" lon="-8.555752649008284"><ele>79.0</ele><time>2026-04-04T20:15:27.999Z</time></trkpt><trkpt lat="42.173265300510536" lon="-8.555530029847182"><ele>79.0</ele><time>2026-04-04T20:15:28.999Z</time></trkpt><trkpt lat="42.17308362842142" lon="-8.555306978586717"><ele>77.5</ele><time>2026-04-04T20:15:29.999Z</time></trkpt><trkpt lat="42.172915695733444" lon="-8.555086942633737"><ele>76.0</ele><time>2026-04-04T20:15:30.999Z</time></trkpt><trkpt lat="42.17274636383069" lon="-8.554869582561698"><ele>76.0</ele><time>2026-04-04T20:15:31.999Z</time></trkpt><trkpt lat="42.172580106302526" lon="-8.554638660453287"><ele>76.0</ele><time>2026-04-04T20:15:32.999Z</time></trkpt><trkpt lat="42.17242281014931" lon="-8.55439220495267"><ele>83.5</ele><time>2026-04-04T20:15:33.999Z</time></trkpt><trkpt lat="42.17227552571305" lon="-8.55413230677338"><ele>91.0</ele><time>2026-04-04T20:15:34.999Z</time></trkpt><trkpt lat="42.17214330088161" lon="-8.553872590991958"><ele>85.5</ele><time>2026-04-04T20:15:35.999Z</time></trkpt><trkpt lat="42.17202494649406" lon="-8.55360247118143"><ele>80.0</ele><time>2026-04-04T20:15:36.999Z</time></trkpt><trkpt lat="42.17191396756788" lon="-8.553327360447947"><ele>80.0</ele><time>2026-04-04T20:15:37.999Z</time></trkpt><trkpt lat="42.17181012432222" lon="-8.55304847676514"><ele>80.0</ele><time>2026-04-04T20:15:38.999Z</time></trkpt><trkpt lat="42.171723173343615" lon="-8.552761682329946"><ele>80.0</ele><time>2026-04-04T20:15:39.999Z</time></trkpt><trkpt lat="42.171643266713666" lon="-8.552472095578528"><ele>80.0</ele><time>2026-04-04T20:15:40.999Z</time></trkpt><trkpt lat="42.17157111377134" lon="-8.552179105197581"><ele>90.0</ele><time>2026-04-04T20:15:41.999Z</time></trkpt><trkpt lat="42.17150937304574" lon="-8.551880973936711"><ele>100.0</ele><time>2026-04-04T20:15:42.999Z</time></trkpt><trkpt lat="42.171463092744624" lon="-8.551581595424315"><ele>100.0</ele><time>2026-04-04T20:15:43.999Z</time></trkpt><trkpt lat="42.17142927884648" lon="-8.551278216415215"><ele>100.0</ele><time>2026-04-04T20:15:44.999Z</time></trkpt><trkpt lat="42.17140246340189" lon="-8.550971514919423"><ele>99.5</ele><time>2026-04-04T20:15:45.999Z</time></trkpt><trkpt lat="42.17139364440842" lon="-8.550656024449149"><ele>99.0</ele><time>2026-04-04T20:15:46.999Z</time></trkpt><trkpt lat="42.1713928489401" lon="-8.550360913435608"><ele>94.5</ele><time>2026-04-04T20:15:47.999Z</time></trkpt><trkpt lat="42.17140819540064" lon="-8.550050649665064"><ele>90.0</ele><time>2026-04-04T20:15:48.999Z</time></trkpt><trkpt lat="42.17141954882213" lon="-8.54975459722767"><ele>90.33333333333333</ele><time>2026-04-04T20:15:49.999Z</time></trkpt><trkpt lat="42.17144888598922" lon="-8.549455791836735"><ele>90.66666666666666</ele><time>2026-04-04T20:15:50.999Z</time></trkpt><trkpt lat="42.17148561637806" lon="-8.54916026773031"><ele>91.0</ele><time>2026-04-04T20:15:51.999Z</time></trkpt><trkpt lat="42.171526273473425" lon="-8.548864792414937"><ele>93.5</ele><time>2026-04-04T20:15:52.999Z</time></trkpt><trkpt lat="42.17156556141367" lon="-8.548565721284865"><ele>96.0</ele><time>2026-04-04T20:15:54Z</time></trkpt><trkpt lat="42.17160714372539" lon="-8.548258582539347"><ele>96.0</ele><time>2026-04-04T20:15:55Z</time></trkpt><trkpt lat="42.17164489943631" lon="-8.54795412428397"><ele>96.0</ele><time>2026-04-04T20:15:56Z</time></trkpt><trkpt lat="42.171669177081505" lon="-8.547643223973445"><ele>99.33333333333334</ele><time>2026-04-04T20:15:57Z</time></trkpt><trkpt lat="42.17167479530287" lon="-8.547345573249467"><ele>102.66666666666667</ele><time>2026-04-04T20:15:58Z</time></trkpt><trkpt lat="42.17167468335009" lon="-8.547042421182518"><ele>106.0</ele><time>2026-04-04T20:15:59Z</time></trkpt><trkpt lat="42.17165959757914" lon="-8.546739223280117"><ele>106.5</ele><time>2026-04-04T20:16:00Z</time></trkpt><trkpt lat="42.17163149964927" lon="-8.546430401886276"><ele>107.0</ele><time>2026-04-04T20:16:01Z</time></trkpt><trkpt lat="42.1715908145309" lon="-8.546128701261269"><ele>107.0</ele><time>2026-04-04T20:16:02Z</time></trkpt><trkpt lat="42.17154524354449" lon="-8.545821752322139"><ele>107.0</ele><time>2026-04-04T20:16:03Z</time></trkpt><trkpt lat="42.171486722106266" lon="-8.54552186660458"><ele>113.5</ele><time>2026-04-04T20:16:04Z</time></trkpt><trkpt lat="42.17141597277796" lon="-8.545222215961413"><ele>120.0</ele><time>2026-04-04T20:16:05Z</time></trkpt><trkpt lat="42.17132886229426" lon="-8.544925644890697"><ele>120.0</ele><time>2026-04-04T20:16:06Z</time></trkpt><trkpt lat="42.171233872585795" lon="-8.544632973510685"><ele>120.0</ele><time>2026-04-04T20:16:07Z</time></trkpt><trkpt lat="42.17112103645403" lon="-8.54434679122157"><ele>112.5</ele><time>2026-04-04T20:16:08Z</time></trkpt><trkpt lat="42.17099708655922" lon="-8.544067520468168"><ele>105.0</ele><time>2026-04-04T20:16:09Z</time></trkpt><trkpt lat="42.17085950372734" lon="-8.543794514255348"><ele>99.5</ele><time>2026-04-04T20:16:10Z</time></trkpt><trkpt lat="42.17071323134926" lon="-8.543530562003822"><ele>94.0</ele><time>2026-04-04T20:16:11Z</time></trkpt><trkpt lat="42.17055080254239" lon="-8.543279752935033"><ele>94.5</ele><time>2026-04-04T20:16:12Z</time></trkpt><trkpt lat="42.17037892479443" lon="-8.543037578033708"><ele>95.0</ele><time>2026-04-04T20:16:13Z</time></trkpt><trkpt lat="42.170200225019556" lon="-8.542806501305337"><ele>95.0</ele><time>2026-04-04T20:16:14Z</time></trkpt><trkpt lat="42.17000491747824" lon="-8.54258112413778"><ele>95.0</ele><time>2026-04-04T20:16:15Z</time></trkpt><trkpt lat="42.16980342890784" lon="-8.542385800669424"><ele>93.5</ele><time>2026-04-04T20:16:16Z</time></trkpt><trkpt lat="42.16959861088669" lon="-8.542185172703254"><ele>92.0</ele><time>2026-04-04T20:16:17Z</time></trkpt><trkpt lat="42.16939645398124" lon="-8.541985321897425"><ele>92.0</ele><time>2026-04-04T20:16:18Z</time></trkpt><trkpt lat="42.16919333238676" lon="-8.541783136369734"><ele>92.0</ele><time>2026-04-04T20:16:19Z</time></trkpt><trkpt lat="42.168995062406786" lon="-8.541580893145461"><ele>94.5</ele><time>2026-04-04T20:16:20Z</time></trkpt><trkpt lat="42.16880593735815" lon="-8.541373376647392"><ele>97.0</ele><time>2026-04-04T20:16:21Z</time></trkpt><trkpt lat="42.16861874277057" lon="-8.541157558559183"><ele>97.0</ele><time>2026-04-04T20:16:22Z</time></trkpt><trkpt lat="42.16844119137158" lon="-8.540939979708968"><ele>97.0</ele><time>2026-04-04T20:16:23Z</time></trkpt><trkpt lat="42.16826239726842" lon="-8.54071403635453"><ele>102.5</ele><time>2026-04-04T20:16:24Z</time></trkpt><trkpt lat="42.16809328439945" lon="-8.540478430466965"><ele>108.0</ele><time>2026-04-04T20:16:25Z</time></trkpt><trkpt lat="42.16793069454263" lon="-8.54024753698514"><ele>108.0</ele><time>2026-04-04T20:16:26Z</time></trkpt><trkpt lat="42.16777153360749" lon="-8.54000368533814"><ele>108.0</ele><time>2026-04-04T20:16:27Z</time></trkpt><trkpt lat="42.16761795007722" lon="-8.539753183045113"><ele>110.0</ele><time>2026-04-04T20:16:28Z</time></trkpt><trkpt lat="42.16746870978826" lon="-8.539498454902187"><ele>112.0</ele><time>2026-04-04T20:16:29Z</time></trkpt><trkpt lat="42.16732919060698" lon="-8.539240546993817"><ele>112.0</ele><time>2026-04-04T20:16:30Z</time></trkpt><trkpt lat="42.16719438880154" lon="-8.538971918520987"><ele>112.0</ele><time>2026-04-04T20:16:31Z</time></trkpt><trkpt lat="42.16706443728943" lon="-8.538701844119178"><ele>107.5</ele><time>2026-04-04T20:16:32Z</time></trkpt><trkpt lat="42.16694035322466" lon="-8.538422783252312"><ele>103.0</ele><time>2026-04-04T20:16:33Z</time></trkpt><trkpt lat="42.16682299623458" lon="-8.538141529331712"><ele>101.5</ele><time>2026-04-04T20:16:34Z</time></trkpt><trkpt lat="42.16671175086191" lon="-8.537849161856538"><ele>100.0</ele><time>2026-04-04T20:16:35Z</time></trkpt><trkpt lat="42.166605002576624" lon="-8.537553973542858"><ele>103.0</ele><time>2026-04-04T20:16:36Z</time></trkpt><trkpt lat="42.16649230957402" lon="-8.537254369272265"><ele>106.0</ele><time>2026-04-04T20:16:37Z</time></trkpt><trkpt lat="42.166381877296395" lon="-8.536954636412654"><ele>106.0</ele><time>2026-04-04T20:16:38Z</time></trkpt><trkpt lat="42.16627807625565" lon="-8.536661902918956"><ele>106.0</ele><time>2026-04-04T20:16:39Z</time></trkpt><trkpt lat="42.16616864861462" lon="-8.536365874453637"><ele>102.0</ele><time>2026-04-04T20:16:40Z</time></trkpt><trkpt lat="42.16604532847101" lon="-8.53607661321664"><ele>98.0</ele><time>2026-04-04T20:16:41Z</time></trkpt><trkpt lat="42.16591073858941" lon="-8.535798612324351"><ele>98.0</ele><time>2026-04-04T20:16:42Z</time></trkpt><trkpt lat="42.165764294806905" lon="-8.535520674760106"><ele>98.0</ele><time>2026-04-04T20:16:43Z</time></trkpt><trkpt lat="42.16560341472345" lon="-8.535252354022443"><ele>92.0</ele><time>2026-04-04T20:16:44Z</time></trkpt><trkpt lat="42.165432825229566" lon="-8.53498971757341"><ele>86.0</ele><time>2026-04-04T20:16:45Z</time></trkpt><trkpt lat="42.16525677942427" lon="-8.534734014500076"><ele>83.0</ele><time>2026-04-04T20:16:46Z</time></trkpt><trkpt lat="42.16506677266791" lon="-8.53449336143753"><ele>80.0</ele><time>2026-04-04T20:16:47Z</time></trkpt><trkpt lat="42.164876689892665" lon="-8.53426934222235"><ele>80.0</ele><time>2026-04-04T20:16:48Z</time></trkpt><trkpt lat="42.16468066634172" lon="-8.534068417932358"><ele>80.0</ele><time>2026-04-04T20:16:48.999Z</time></trkpt><trkpt lat="42.164473394946356" lon="-8.53386741825058"><ele>77.0</ele><time>2026-04-04T20:16:49.999Z</time></trkpt><trkpt lat="42.16425762014328" lon="-8.533677498811828"><ele>74.0</ele><time>2026-04-04T20:16:50.999Z</time></trkpt><trkpt lat="42.1640383193041" lon="-8.533495366717217"><ele>72.5</ele><time>2026-04-04T20:16:51.999Z</time></trkpt><trkpt lat="42.163824265399285" lon="-8.53331900763354"><ele>71.0</ele><time>2026-04-04T20:16:52.999Z</time></trkpt><trkpt lat="42.16362190399069" lon="-8.533150851246633"><ele>71.0</ele><time>2026-04-04T20:16:53.999Z</time></trkpt><trkpt lat="42.1634275145629" lon="-8.53298115745218"><ele>71.0</ele><time>2026-04-04T20:16:54.999Z</time></trkpt><trkpt lat="42.16323827567931" lon="-8.532798950626741"><ele>66.5</ele><time>2026-04-04T20:16:55.999Z</time></trkpt><trkpt lat="42.16304831255918" lon="-8.532591186671105"><ele>62.0</ele><time>2026-04-04T20:16:56.999Z</time></trkpt><trkpt lat="42.162864709935455" lon="-8.532370854817376"><ele>62.0</ele><time>2026-04-04T20:16:57.999Z</time></trkpt><trkpt lat="42.162684930387265" lon="-8.53213453595931"><ele>62.0</ele><time>2026-04-04T20:16:58.999Z</time></trkpt><trkpt lat="42.16251415086863" lon="-8.531881702581616"><ele>57.0</ele><time>2026-04-04T20:16:59.999Z</time></trkpt><trkpt lat="42.16235254624451" lon="-8.531611382604327"><ele>52.0</ele><time>2026-04-04T20:17:00.999Z</time></trkpt><trkpt lat="42.162202232987426" lon="-8.531327024108688"><ele>52.5</ele><time>2026-04-04T20:17:01.999Z</time></trkpt><trkpt lat="42.16206260164676" lon="-8.531031072004348"><ele>53.0</ele><time>2026-04-04T20:17:02.999Z</time></trkpt><trkpt lat="42.16193990907726" lon="-8.530723218550515"><ele>53.0</ele><time>2026-04-04T20:17:03.999Z</time></trkpt><trkpt lat="42.16182812285388" lon="-8.530406839740797"><ele>53.0</ele><time>2026-04-04T20:17:04.999Z</time></trkpt><trkpt lat="42.16172691082065" lon="-8.530088338245692"><ele>53.0</ele><time>2026-04-04T20:17:05.999Z</time></trkpt><trkpt lat="42.16164352206557" lon="-8.529780442140817"><ele>53.0</ele><time>2026-04-04T20:17:06.999Z</time></trkpt><trkpt lat="42.16156865899898" lon="-8.529458453191548"><ele>53.5</ele><time>2026-04-04T20:17:07.999Z</time></trkpt><trkpt lat="42.161502903456274" lon="-8.529134324891201"><ele>54.0</ele><time>2026-04-04T20:17:08.999Z</time></trkpt><trkpt lat="42.16143683501581" lon="-8.528808429553774"><ele>56.0</ele><time>2026-04-04T20:17:09.999Z</time></trkpt><trkpt lat="42.16137366536713" lon="-8.528483085896745"><ele>58.0</ele><time>2026-04-04T20:17:10.999Z</time></trkpt><trkpt lat="42.16130916931659" lon="-8.528164203972782"><ele>57.0</ele><time>2026-04-04T20:17:11.999Z</time></trkpt><trkpt lat="42.16123917043799" lon="-8.52784973112015"><ele>56.0</ele><time>2026-04-04T20:17:12.999Z</time></trkpt><trkpt lat="42.16115544818122" lon="-8.527537934615264"><ele>56.0</ele><time>2026-04-04T20:17:13.999Z</time></trkpt><trkpt lat="42.16106229465633" lon="-8.527230057206454"><ele>56.0</ele><time>2026-04-04T20:17:14.999Z</time></trkpt><trkpt lat="42.160961235602905" lon="-8.526925657014772"><ele>57.5</ele><time>2026-04-04T20:17:15.999Z</time></trkpt><trkpt lat="42.16085390350275" lon="-8.526628616788933"><ele>59.0</ele><time>2026-04-04T20:17:16.999Z</time></trkpt><trkpt lat="42.16073637150328" lon="-8.526331961023706"><ele>57.0</ele><time>2026-04-04T20:17:17.999Z</time></trkpt><trkpt lat="42.160614600130934" lon="-8.526045662157323"><ele>55.0</ele><time>2026-04-04T20:17:18.999Z</time></trkpt><trkpt lat="42.16048695665886" lon="-8.525765460968882"><ele>55.0</ele><time>2026-04-04T20:17:19.999Z</time></trkpt><trkpt lat="42.16034985441082" lon="-8.525490566078144"><ele>55.0</ele><time>2026-04-04T20:17:20.999Z</time></trkpt><trkpt lat="42.16020901207815" lon="-8.525219207952121"><ele>55.5</ele><time>2026-04-04T20:17:21.999Z</time></trkpt><trkpt lat="42.160061147131934" lon="-8.524953700823303"><ele>56.0</ele><time>2026-04-04T20:17:22.999Z</time></trkpt><trkpt lat="42.15990529523813" lon="-8.52469801507983"><ele>55.5</ele><time>2026-04-04T20:17:23.999Z</time></trkpt><trkpt lat="42.15975103176457" lon="-8.52445727278633"><ele>55.0</ele><time>2026-04-04T20:17:24.999Z</time></trkpt><trkpt lat="42.15959887721843" lon="-8.524237571810678"><ele>55.0</ele><time>2026-04-04T20:17:25.999Z</time></trkpt><trkpt lat="42.15944494189895" lon="-8.524031813928879"><ele>55.0</ele><time>2026-04-04T20:17:26.999Z</time></trkpt><trkpt lat="42.15929417937358" lon="-8.523834503066427"><ele>55.0</ele><time>2026-04-04T20:17:27.999Z</time></trkpt><trkpt lat="42.159136064534444" lon="-8.523650400730823"><ele>54.0</ele><time>2026-04-04T20:17:28.999Z</time></trkpt><trkpt lat="42.158985223334426" lon="-8.523474793644528"><ele>53.0</ele><time>2026-04-04T20:17:29.999Z</time></trkpt><trkpt lat="42.15882721125129" lon="-8.52330775796368"><ele>52.0</ele><time>2026-04-04T20:17:30.999Z</time></trkpt><trkpt lat="42.15867414351821" lon="-8.523148795857987"><ele>52.0</ele><time>2026-04-04T20:17:31.999Z</time></trkpt><trkpt lat="42.15852797755356" lon="-8.522995353765609"><ele>52.0</ele><time>2026-04-04T20:17:32.999Z</time></trkpt><trkpt lat="42.158380819263634" lon="-8.52283975726608"><ele>52.0</ele><time>2026-04-04T20:17:33.999Z</time></trkpt><trkpt lat="42.158225195267164" lon="-8.522682458059888"><ele>50.666666666666664</ele><time>2026-04-04T20:17:34.999Z</time></trkpt><trkpt lat="42.15807059897778" lon="-8.522529986492742"><ele>49.33333333333333</ele><time>2026-04-04T20:17:35.999Z</time></trkpt><trkpt lat="42.1579143352259" lon="-8.52237549020882"><ele>48.0</ele><time>2026-04-04T20:17:36.999Z</time></trkpt><trkpt lat="42.157755158590724" lon="-8.522217736193879"><ele>46.666666666666664</ele><time>2026-04-04T20:17:37.999Z</time></trkpt><trkpt lat="42.15759511501837" lon="-8.522053182789149"><ele>45.33333333333333</ele><time>2026-04-04T20:17:38.999Z</time></trkpt><trkpt lat="42.157439471702894" lon="-8.521894538171754"><ele>44.0</ele><time>2026-04-04T20:17:39.999Z</time></trkpt><trkpt lat="42.157293844078595" lon="-8.521739266991446"><ele>42.666666666666664</ele><time>2026-04-04T20:17:40.999Z</time></trkpt><trkpt lat="42.15714772394707" lon="-8.521577762141742"><ele>41.333333333333336</ele><time>2026-04-04T20:17:41.999Z</time></trkpt><trkpt lat="42.15699417276463" lon="-8.52141127729486"><ele>40.0</ele><time>2026-04-04T20:17:42.999Z</time></trkpt><trkpt lat="42.15682662547214" lon="-8.52123522497573"><ele>40.0</ele><time>2026-04-04T20:17:43.999Z</time></trkpt><trkpt lat="42.15667169173024" lon="-8.521051032540445"><ele>40.0</ele><time>2026-04-04T20:17:44.999Z</time></trkpt><trkpt lat="42.15652403585521" lon="-8.520851736399333"><ele>40.0</ele><time>2026-04-04T20:17:45.999Z</time></trkpt><trkpt lat="42.15637982502213" lon="-8.520651664423902"><ele>39.333333333333336</ele><time>2026-04-04T20:17:46.999Z</time></trkpt><trkpt lat="42.156231220597526" lon="-8.520441210883941"><ele>38.666666666666664</ele><time>2026-04-04T20:17:47.999Z</time></trkpt><trkpt lat="42.15608286904836" lon="-8.52021860935232"><ele>38.0</ele><time>2026-04-04T20:17:48.999Z</time></trkpt><trkpt lat="42.15593731175901" lon="-8.519982942431618"><ele>38.0</ele><time>2026-04-04T20:17:49.999Z</time></trkpt><trkpt lat="42.15579604622736" lon="-8.519737282825352"><ele>38.0</ele><time>2026-04-04T20:17:50.999Z</time></trkpt><trkpt lat="42.1556519474682" lon="-8.519482876531947"><ele>33.5</ele><time>2026-04-04T20:17:51.999Z</time></trkpt><trkpt lat="42.155507349646804" lon="-8.51922075124298"><ele>29.0</ele><time>2026-04-04T20:17:52.999Z</time></trkpt><trkpt lat="42.15536554064018" lon="-8.518953540314337"><ele>30.5</ele><time>2026-04-04T20:17:53.999Z</time></trkpt><trkpt lat="42.15522976100939" lon="-8.518679551173014"><ele>32.0</ele><time>2026-04-04T20:17:54.999Z</time></trkpt><trkpt lat="42.15509669888321" lon="-8.518395197969378"><ele>32.0</ele><time>2026-04-04T20:17:55.999Z</time></trkpt><trkpt lat="42.15496747731591" lon="-8.51810069102812"><ele>32.0</ele><time>2026-04-04T20:17:56.999Z</time></trkpt><trkpt lat="42.1548474570084" lon="-8.517800008322467"><ele>33.5</ele><time>2026-04-04T20:17:57.999Z</time></trkpt><trkpt lat="42.15473320275452" lon="-8.51749697776519"><ele>35.0</ele><time>2026-04-04T20:17:58.999Z</time></trkpt><trkpt lat="42.154622762038045" lon="-8.517186690277818"><ele>33.0</ele><time>2026-04-04T20:18:00Z</time></trkpt><trkpt lat="42.15451036489411" lon="-8.51687485931417"><ele>31.0</ele><time>2026-04-04T20:18:01Z</time></trkpt><trkpt lat="42.1544103463824" lon="-8.51655210532749"><ele>29.0</ele><time>2026-04-04T20:18:02Z</time></trkpt><trkpt lat="42.154325868681326" lon="-8.516230712623424"><ele>27.0</ele><time>2026-04-04T20:18:03Z</time></trkpt><trkpt lat="42.1542352600138" lon="-8.515930020523333"><ele>27.0</ele><time>2026-04-04T20:18:04Z</time></trkpt><trkpt lat="42.15415051012359" lon="-8.515610884028355"><ele>27.0</ele><time>2026-04-04T20:18:05Z</time></trkpt><trkpt lat="42.154074074305264" lon="-8.515284039101592"><ele>24.0</ele><time>2026-04-04T20:18:06Z</time></trkpt><trkpt lat="42.1540017899946" lon="-8.51495078806619"><ele>21.0</ele><time>2026-04-04T20:18:07Z</time></trkpt><trkpt lat="42.15393980086012" lon="-8.514621627262864"><ele>19.0</ele><time>2026-04-04T20:18:08Z</time></trkpt><trkpt lat="42.15388446778502" lon="-8.514291344736842"><ele>17.0</ele><time>2026-04-04T20:18:09Z</time></trkpt><trkpt lat="42.15383948948826" lon="-8.51395818821047"><ele>19.5</ele><time>2026-04-04T20:18:10Z</time></trkpt><trkpt lat="42.15380304407426" lon="-8.513625420710657"><ele>22.0</ele><time>2026-04-04T20:18:11Z</time></trkpt><trkpt lat="42.15377048953772" lon="-8.513295752661515"><ele>22.0</ele><time>2026-04-04T20:18:12Z</time></trkpt><trkpt lat="42.153740751660756" lon="-8.512966096834207"><ele>22.0</ele><time>2026-04-04T20:18:13Z</time></trkpt><trkpt lat="42.153717392193364" lon="-8.512640169318574"><ele>26.0</ele><time>2026-04-04T20:18:14Z</time></trkpt><trkpt lat="42.153700160918774" lon="-8.512317879596159"><ele>30.0</ele><time>2026-04-04T20:18:15Z</time></trkpt><trkpt lat="42.15368413712971" lon="-8.511991671814615"><ele>31.5</ele><time>2026-04-04T20:18:16Z</time></trkpt><trkpt lat="42.15367327856097" lon="-8.511669006495175"><ele>33.0</ele><time>2026-04-04T20:18:17Z</time></trkpt><trkpt lat="42.15367119477731" lon="-8.511347293191726"><ele>34.5</ele><time>2026-04-04T20:18:18Z</time></trkpt><trkpt lat="42.1536733983041" lon="-8.511027436658916"><ele>36.0</ele><time>2026-04-04T20:18:19Z</time></trkpt><trkpt lat="42.15367809404526" lon="-8.51071133984228"><ele>38.5</ele><time>2026-04-04T20:18:20Z</time></trkpt><trkpt lat="42.15368980517043" lon="-8.510396133912332"><ele>41.0</ele><time>2026-04-04T20:18:21Z</time></trkpt><trkpt lat="42.153709255941294" lon="-8.510082109616917"><ele>41.0</ele><time>2026-04-04T20:18:22Z</time></trkpt><trkpt lat="42.153733655579146" lon="-8.509769840819478"><ele>41.0</ele><time>2026-04-04T20:18:23Z</time></trkpt><trkpt lat="42.15376410173315" lon="-8.509463890571803"><ele>42.0</ele><time>2026-04-04T20:18:24Z</time></trkpt><trkpt lat="42.153793158375805" lon="-8.509155736623326"><ele>43.0</ele><time>2026-04-04T20:18:25Z</time></trkpt><trkpt lat="42.15382240294775" lon="-8.508851130531559"><ele>43.5</ele><time>2026-04-04T20:18:26Z</time></trkpt><trkpt lat="42.15385694187673" lon="-8.508541120399839"><ele>44.0</ele><time>2026-04-04T20:18:27Z</time></trkpt><trkpt lat="42.1539040360734" lon="-8.508240437529665"><ele>44.0</ele><time>2026-04-04T20:18:28Z</time></trkpt><trkpt lat="42.15396907459987" lon="-8.507947352265528"><ele>44.0</ele><time>2026-04-04T20:18:29Z</time></trkpt><trkpt lat="42.15402933654308" lon="-8.507649817608154"><ele>44.5</ele><time>2026-04-04T20:18:30Z</time></trkpt><trkpt lat="42.154092534023306" lon="-8.507353519776833"><ele>45.0</ele><time>2026-04-04T20:18:31Z</time></trkpt><trkpt lat="42.15416158666163" lon="-8.507062789224012"><ele>47.0</ele><time>2026-04-04T20:18:32Z</time></trkpt><trkpt lat="42.1542342217067" lon="-8.506772763067556"><ele>49.0</ele><time>2026-04-04T20:18:33Z</time></trkpt><trkpt lat="42.154308755811655" lon="-8.50648585173016"><ele>50.0</ele><time>2026-04-04T20:18:34Z</time></trkpt><trkpt lat="42.154389983888564" lon="-8.506207281360865"><ele>51.0</ele><time>2026-04-04T20:18:35Z</time></trkpt><trkpt lat="42.154472745965585" lon="-8.50591919023075"><ele>51.0</ele><time>2026-04-04T20:18:36Z</time></trkpt><trkpt lat="42.154552527330175" lon="-8.505633546035897"><ele>51.0</ele><time>2026-04-04T20:18:37Z</time></trkpt><trkpt lat="42.154630055984875" lon="-8.505351576872334"><ele>51.0</ele><time>2026-04-04T20:18:38Z</time></trkpt><trkpt lat="42.15470922748179" lon="-8.505065715291273"><ele>50.33333333333333</ele><time>2026-04-04T20:18:39Z</time></trkpt><trkpt lat="42.154785248539206" lon="-8.504778482911563"><ele>49.666666666666664</ele><time>2026-04-04T20:18:40Z</time></trkpt><trkpt lat="42.15485626408906" lon="-8.504493112108314"><ele>49.0</ele><time>2026-04-04T20:18:41Z</time></trkpt><trkpt lat="42.154925177994315" lon="-8.504199268947122"><ele>49.0</ele><time>2026-04-04T20:18:42Z</time></trkpt><trkpt lat="42.15499076698576" lon="-8.503898553549332"><ele>49.0</ele><time>2026-04-04T20:18:42.999Z</time></trkpt><trkpt lat="42.155054805997196" lon="-8.503607651958141"><ele>47.5</ele><time>2026-04-04T20:18:43.999Z</time></trkpt><trkpt lat="42.15511860736366" lon="-8.503312051928884"><ele>46.0</ele><time>2026-04-04T20:18:44.999Z</time></trkpt><trkpt lat="42.15517874982605" lon="-8.503012424388878"><ele>45.5</ele><time>2026-04-04T20:18:45.999Z</time></trkpt><trkpt lat="42.15523165127713" lon="-8.502715381637218"><ele>45.0</ele><time>2026-04-04T20:18:46.999Z</time></trkpt><trkpt lat="42.15528353263977" lon="-8.502410963879274"><ele>45.0</ele><time>2026-04-04T20:18:47.999Z</time></trkpt><trkpt lat="42.155329304694185" lon="-8.50210351932043"><ele>45.0</ele><time>2026-04-04T20:18:48.999Z</time></trkpt><trkpt lat="42.15537620349031" lon="-8.501790698178048"><ele>47.0</ele><time>2026-04-04T20:18:49.999Z</time></trkpt><trkpt lat="42.15541909884368" lon="-8.501481410892179"><ele>49.0</ele><time>2026-04-04T20:18:50.999Z</time></trkpt><trkpt lat="42.15545885320231" lon="-8.501169401403464"><ele>49.5</ele><time>2026-04-04T20:18:51.999Z</time></trkpt><trkpt lat="42.15549543042869" lon="-8.500855231042788"><ele>50.0</ele><time>2026-04-04T20:18:52.999Z</time></trkpt><trkpt lat="42.15552356741615" lon="-8.500540404241766"><ele>51.0</ele><time>2026-04-04T20:18:53.999Z</time></trkpt><trkpt lat="42.155555009849614" lon="-8.500223970576323"><ele>52.0</ele><time>2026-04-04T20:18:54.999Z</time></trkpt><trkpt lat="42.15558048437703" lon="-8.499908494164062"><ele>52.0</ele><time>2026-04-04T20:18:55.999Z</time></trkpt><trkpt lat="42.1555972344544" lon="-8.499591234472781"><ele>52.0</ele><time>2026-04-04T20:18:56.999Z</time></trkpt><trkpt lat="42.155617808134366" lon="-8.499270812215821"><ele>58.5</ele><time>2026-04-04T20:18:57.999Z</time></trkpt><trkpt lat="42.15563413034801" lon="-8.498950141031079"><ele>65.0</ele><time>2026-04-04T20:18:58.999Z</time></trkpt><trkpt lat="42.15564397976827" lon="-8.498626378258061"><ele>69.5</ele><time>2026-04-04T20:18:59.999Z</time></trkpt><trkpt lat="42.15565539759583" lon="-8.498302318797485"><ele>74.0</ele><time>2026-04-04T20:19:00.999Z</time></trkpt><trkpt lat="42.155662179087884" lon="-8.497979229579805"><ele>72.5</ele><time>2026-04-04T20:19:01.999Z</time></trkpt><trkpt lat="42.155662274294805" lon="-8.497652579988477"><ele>71.0</ele><time>2026-04-04T20:19:02.999Z</time></trkpt><trkpt lat="42.155654300020245" lon="-8.49732805737443"><ele>69.0</ele><time>2026-04-04T20:19:03.999Z</time></trkpt><trkpt lat="42.155646446060075" lon="-8.497007768641181"><ele>67.0</ele><time>2026-04-04T20:19:04.999Z</time></trkpt><trkpt lat="42.15563836548442" lon="-8.496700848870457"><ele>67.0</ele><time>2026-04-04T20:19:05.999Z</time></trkpt><trkpt lat="42.155626616667725" lon="-8.496381413131678"><ele>67.0</ele><time>2026-04-04T20:19:06.999Z</time></trkpt><trkpt lat="42.15561181546456" lon="-8.496067996755103"><ele>66.0</ele><time>2026-04-04T20:19:07.999Z</time></trkpt><trkpt lat="42.155589711479074" lon="-8.495747762372932"><ele>65.0</ele><time>2026-04-04T20:19:08.999Z</time></trkpt><trkpt lat="42.15556947961274" lon="-8.495428459999284"><ele>64.0</ele><time>2026-04-04T20:19:09.999Z</time></trkpt><trkpt lat="42.15554497298123" lon="-8.495111821179979"><ele>63.0</ele><time>2026-04-04T20:19:10.999Z</time></trkpt><trkpt lat="42.155519539872664" lon="-8.494795181939429"><ele>67.0</ele><time>2026-04-04T20:19:11.999Z</time></trkpt><trkpt lat="42.15548608637391" lon="-8.494483270597698"><ele>71.0</ele><time>2026-04-04T20:19:12.999Z</time></trkpt><trkpt lat="42.15545124940616" lon="-8.494173871925035"><ele>71.0</ele><time>2026-04-04T20:19:13.999Z</time></trkpt><trkpt lat="42.15540997060025" lon="-8.493863268961354"><ele>71.0</ele><time>2026-04-04T20:19:14.999Z</time></trkpt><trkpt lat="42.155368730835576" lon="-8.493562089360973"><ele>73.0</ele><time>2026-04-04T20:19:15.999Z</time></trkpt><trkpt lat="42.15532089955655" lon="-8.493257046235149"><ele>75.0</ele><time>2026-04-04T20:19:16.999Z</time></trkpt><trkpt lat="42.15527162765162" lon="-8.492960658698673"><ele>73.5</ele><time>2026-04-04T20:19:17.999Z</time></trkpt><trkpt lat="42.15521627861165" lon="-8.492665550424471"><ele>72.0</ele><time>2026-04-04T20:19:18.999Z</time></trkpt><trkpt lat="42.155160709317684" lon="-8.492364275573541"><ele>72.0</ele><time>2026-04-04T20:19:19.999Z</time></trkpt><trkpt lat="42.1551046646049" lon="-8.49207080013426"><ele>72.0</ele><time>2026-04-04T20:19:20.999Z</time></trkpt><trkpt lat="42.15504640794337" lon="-8.491782737786933"><ele>72.0</ele><time>2026-04-04T20:19:21.999Z</time></trkpt><trkpt lat="42.154980320286924" lon="-8.491492380567909"><ele>70.66666666666667</ele><time>2026-04-04T20:19:22.999Z</time></trkpt><trkpt lat="42.15491445366578" lon="-8.491204042932827"><ele>69.33333333333334</ele><time>2026-04-04T20:19:23.999Z</time></trkpt><trkpt lat="42.15484796938192" lon="-8.490921308666143"><ele>68.0</ele><time>2026-04-04T20:19:24.999Z</time></trkpt><trkpt lat="42.154773635183275" lon="-8.490639140685545"><ele>72.33333333333334</ele><time>2026-04-04T20:19:25.999Z</time></trkpt><trkpt lat="42.15470060839989" lon="-8.490356133881415"><ele>76.66666666666667</ele><time>2026-04-04T20:19:26.999Z</time></trkpt><trkpt lat="42.1546295517988" lon="-8.490072753225329"><ele>81.0</ele><time>2026-04-04T20:19:27.999Z</time></trkpt><trkpt lat="42.15455963211057" lon="-8.489794163646426"><ele>77.66666666666667</ele><time>2026-04-04T20:19:28.999Z</time></trkpt><trkpt lat="42.15448884632493" lon="-8.489513616875758"><ele>74.33333333333334</ele><time>2026-04-04T20:19:29.999Z</time></trkpt><trkpt lat="42.1544174460838" lon="-8.4892304835977"><ele>71.0</ele><time>2026-04-04T20:19:30.999Z</time></trkpt><trkpt lat="42.15435143447304" lon="-8.488953940663915"><ele>71.66666666666667</ele><time>2026-04-04T20:19:31.999Z</time></trkpt><trkpt lat="42.15429668614479" lon="-8.488672016089868"><ele>72.33333333333333</ele><time>2026-04-04T20:19:32.999Z</time></trkpt><trkpt lat="42.15425595238431" lon="-8.488379091590323"><ele>73.0</ele><time>2026-04-04T20:19:33.999Z</time></trkpt><trkpt lat="42.15422587676867" lon="-8.488088044406975"><ele>74.0</ele><time>2026-04-04T20:19:34.999Z</time></trkpt><trkpt lat="42.15420000972791" lon="-8.487799657077167"><ele>75.0</ele><time>2026-04-04T20:19:35.999Z</time></trkpt><trkpt lat="42.15418049520206" lon="-8.487503896602393"><ele>76.0</ele><time>2026-04-04T20:19:36.999Z</time></trkpt><trkpt lat="42.15416235991177" lon="-8.48721087451728"><ele>77.0</ele><time>2026-04-04T20:19:37.999Z</time></trkpt><trkpt lat="42.15414229729816" lon="-8.486913306091745"><ele>78.0</ele><time>2026-04-04T20:19:38.999Z</time></trkpt><trkpt lat="42.154131448957926" lon="-8.48662619428646"><ele>79.0</ele><time>2026-04-04T20:19:39.999Z</time></trkpt><trkpt lat="42.154116507793496" lon="-8.486329411906448"><ele>80.0</ele><time>2026-04-04T20:19:40.999Z</time></trkpt><trkpt lat="42.15409401161582" lon="-8.486037445110947"><ele>81.0</ele><time>2026-04-04T20:19:41.999Z</time></trkpt><trkpt lat="42.15406434360269" lon="-8.485742251078468"><ele>82.0</ele><time>2026-04-04T20:19:42.999Z</time></trkpt><trkpt lat="42.15402884606448" lon="-8.485448311623575"><ele>86.0</ele><time>2026-04-04T20:19:43.999Z</time></trkpt><trkpt lat="42.15398207655008" lon="-8.485162538274674"><ele>90.0</ele><time>2026-04-04T20:19:44.999Z</time></trkpt><trkpt lat="42.15393260893631" lon="-8.484877038656897"><ele>94.0</ele><time>2026-04-04T20:19:45.999Z</time></trkpt><trkpt lat="42.15388128997169" lon="-8.484581764395227"><ele>94.66666666666666</ele><time>2026-04-04T20:19:46.999Z</time></trkpt><trkpt lat="42.153829313476315" lon="-8.48429062323034"><ele>95.33333333333333</ele><time>2026-04-04T20:19:47.999Z</time></trkpt><trkpt lat="42.15376779882363" lon="-8.484004501061591"><ele>96.0</ele><time>2026-04-04T20:19:48.999Z</time></trkpt><trkpt lat="42.153701090693566" lon="-8.483715686561938"><ele>96.0</ele><time>2026-04-04T20:19:49.999Z</time></trkpt><trkpt lat="42.15362520941637" lon="-8.483436175707363"><ele>96.0</ele><time>2026-04-04T20:19:50.999Z</time></trkpt><trkpt lat="42.15354734129561" lon="-8.483148564772451"><ele>96.0</ele><time>2026-04-04T20:19:51.999Z</time></trkpt><trkpt lat="42.153466007628886" lon="-8.482869927857989"><ele>97.5</ele><time>2026-04-04T20:19:52.999Z</time></trkpt><trkpt lat="42.153369193418" lon="-8.482588124987112"><ele>99.0</ele><time>2026-04-04T20:19:53.999Z</time></trkpt><trkpt lat="42.15326918394749" lon="-8.48231811002023"><ele>97.0</ele><time>2026-04-04T20:19:54.999Z</time></trkpt><trkpt lat="42.153158936242974" lon="-8.482059266802896"><ele>95.0</ele><time>2026-04-04T20:19:55.999Z</time></trkpt><trkpt lat="42.15304227962551" lon="-8.481794135914628"><ele>95.0</ele><time>2026-04-04T20:19:56.998Z</time></trkpt><trkpt lat="42.15291816545445" lon="-8.481533357305498"><ele>95.0</ele><time>2026-04-04T20:19:57.998Z</time></trkpt><trkpt lat="42.15279236383425" lon="-8.481280743897189"><ele>95.5</ele><time>2026-04-04T20:19:58.998Z</time></trkpt><trkpt lat="42.15265629790553" lon="-8.481030570947182"><ele>96.0</ele><time>2026-04-04T20:19:59.998Z</time></trkpt><trkpt lat="42.1525142019798" lon="-8.480789155755847"><ele>96.0</ele><time>2026-04-04T20:20:00.998Z</time></trkpt><trkpt lat="42.15236380336431" lon="-8.48055445518234"><ele>96.0</ele><time>2026-04-04T20:20:01.998Z</time></trkpt><trkpt lat="42.15220999723858" lon="-8.48032810614804"><ele>96.0</ele><time>2026-04-04T20:20:02.998Z</time></trkpt><trkpt lat="42.15204434947893" lon="-8.48011113723758"><ele>96.0</ele><time>2026-04-04T20:20:03.998Z</time></trkpt><trkpt lat="42.15186846329987" lon="-8.479908717683077"><ele>96.0</ele><time>2026-04-04T20:20:04.998Z</time></trkpt><trkpt lat="42.15169182711917" lon="-8.479710831265631"><ele>96.0</ele><time>2026-04-04T20:20:05.999Z</time></trkpt><trkpt lat="42.15151028848364" lon="-8.479516178725678"><ele>97.0</ele><time>2026-04-04T20:20:06.999Z</time></trkpt><trkpt lat="42.151323895265136" lon="-8.479328658156227"><ele>98.0</ele><time>2026-04-04T20:20:07.999Z</time></trkpt><trkpt lat="42.151129675190546" lon="-8.479154829669648"><ele>98.0</ele><time>2026-04-04T20:20:08.999Z</time></trkpt><trkpt lat="42.15093006407651" lon="-8.478990761783702"><ele>98.0</ele><time>2026-04-04T20:20:10Z</time></trkpt><trkpt lat="42.15072594865398" lon="-8.478833521334675"><ele>100.0</ele><time>2026-04-04T20:20:11Z</time></trkpt><trkpt lat="42.15052063921652" lon="-8.478686237038472"><ele>102.0</ele><time>2026-04-04T20:20:12Z</time></trkpt><trkpt lat="42.15030783958395" lon="-8.4785446407652"><ele>102.0</ele><time>2026-04-04T20:20:13Z</time></trkpt><trkpt lat="42.15009148999957" lon="-8.478406137971536"><ele>102.0</ele><time>2026-04-04T20:20:14Z</time></trkpt><trkpt lat="42.14987388774785" lon="-8.478275575888793"><ele>101.0</ele><time>2026-04-04T20:20:15Z</time></trkpt><trkpt lat="42.149655290130056" lon="-8.47814874328082"><ele>100.0</ele><time>2026-04-04T20:20:16Z</time></trkpt><trkpt lat="42.149439267135456" lon="-8.478016872896822"><ele>100.5</ele><time>2026-04-04T20:20:17Z</time></trkpt><trkpt lat="42.14921941962732" lon="-8.477876760197852"><ele>101.0</ele><time>2026-04-04T20:20:18Z</time></trkpt><trkpt lat="42.14900261591689" lon="-8.477744405796503"><ele>100.0</ele><time>2026-04-04T20:20:19Z</time></trkpt><trkpt lat="42.14878088369334" lon="-8.477616772136459"><ele>99.0</ele><time>2026-04-04T20:20:20Z</time></trkpt><trkpt lat="42.1485573442716" lon="-8.477483549929111"><ele>99.0</ele><time>2026-04-04T20:20:21Z</time></trkpt><trkpt lat="42.1483340056132" lon="-8.477355597486511"><ele>99.0</ele><time>2026-04-04T20:20:22Z</time></trkpt><trkpt lat="42.14811088748688" lon="-8.477219223033718"><ele>99.0</ele><time>2026-04-04T20:20:23Z</time></trkpt><trkpt lat="42.147886055338" lon="-8.477086399721292"><ele>99.0</ele><time>2026-04-04T20:20:24Z</time></trkpt><trkpt lat="42.147662346005546" lon="-8.47695175125027"><ele>99.0</ele><time>2026-04-04T20:20:25Z</time></trkpt><trkpt lat="42.147439223186375" lon="-8.476810670357999"><ele>99.0</ele><time>2026-04-04T20:20:26Z</time></trkpt><trkpt lat="42.147219186355315" lon="-8.476669995480998"><ele>100.5</ele><time>2026-04-04T20:20:27Z</time></trkpt><trkpt lat="42.14699484371613" lon="-8.476529556107373"><ele>102.0</ele><time>2026-04-04T20:20:28Z</time></trkpt><trkpt lat="42.14677138197065" lon="-8.476392962791257"><ele>102.0</ele><time>2026-04-04T20:20:29Z</time></trkpt><trkpt lat="42.146545184326925" lon="-8.476254738700327"><ele>102.0</ele><time>2026-04-04T20:20:30Z</time></trkpt><trkpt lat="42.14632928318816" lon="-8.47611459655647"><ele>106.0</ele><time>2026-04-04T20:20:31Z</time></trkpt><trkpt lat="42.146115629356515" lon="-8.47596769182612"><ele>110.0</ele><time>2026-04-04T20:20:32Z</time></trkpt><trkpt lat="42.14590339865136" lon="-8.475811113061592"><ele>114.5</ele><time>2026-04-04T20:20:33Z</time></trkpt><trkpt lat="42.14569510340104" lon="-8.475654606686714"><ele>119.0</ele><time>2026-04-04T20:20:34Z</time></trkpt><trkpt lat="42.14548978380599" lon="-8.475491926433708"><ele>115.5</ele><time>2026-04-04T20:20:35Z</time></trkpt><trkpt lat="42.14529520661685" lon="-8.475318668817868"><ele>112.0</ele><time>2026-04-04T20:20:36Z</time></trkpt><trkpt lat="42.14510844156898" lon="-8.475136245686105"><ele>112.0</ele><time>2026-04-04T20:20:37Z</time></trkpt><trkpt lat="42.144921639114024" lon="-8.474947305335947"><ele>112.0</ele><time>2026-04-04T20:20:38Z</time></trkpt><trkpt lat="42.14474707800815" lon="-8.474755780275236"><ele>113.5</ele><time>2026-04-04T20:20:39Z</time></trkpt><trkpt lat="42.14457291766902" lon="-8.47455543967562"><ele>115.0</ele><time>2026-04-04T20:20:40Z</time></trkpt><trkpt lat="42.1444016148892" lon="-8.474349526174791"><ele>115.0</ele><time>2026-04-04T20:20:41Z</time></trkpt><trkpt lat="42.144240997952515" lon="-8.47413660809759"><ele>115.0</ele><time>2026-04-04T20:20:42Z</time></trkpt><trkpt lat="42.144094249468864" lon="-8.473909568397703"><ele>115.0</ele><time>2026-04-04T20:20:42.999Z</time></trkpt><trkpt lat="42.14395078011528" lon="-8.47367394181121"><ele>118.33333333333334</ele><time>2026-04-04T20:20:43.999Z</time></trkpt><trkpt lat="42.14381332856027" lon="-8.473432427519393"><ele>121.66666666666666</ele><time>2026-04-04T20:20:44.999Z</time></trkpt><trkpt lat="42.14367895433633" lon="-8.473196179149959"><ele>125.0</ele><time>2026-04-04T20:20:45.999Z</time></trkpt><trkpt lat="42.143544386829575" lon="-8.472946887843573"><ele>124.0</ele><time>2026-04-04T20:20:46.999Z</time></trkpt><trkpt lat="42.1434231391015" lon="-8.472690574490207"><ele>123.0</ele><time>2026-04-04T20:20:47.999Z</time></trkpt><trkpt lat="42.14330756338439" lon="-8.472426630831432"><ele>129.5</ele><time>2026-04-04T20:20:48.999Z</time></trkpt><trkpt lat="42.14319842087787" lon="-8.472160388469455"><ele>136.0</ele><time>2026-04-04T20:20:49.999Z</time></trkpt><trkpt lat="42.14309582748446" lon="-8.471886700142882"><ele>136.0</ele><time>2026-04-04T20:20:50.999Z</time></trkpt><trkpt lat="42.142997641715816" lon="-8.47160644383812"><ele>136.0</ele><time>2026-04-04T20:20:51.999Z</time></trkpt><trkpt lat="42.142903980054925" lon="-8.471320800080882"><ele>133.0</ele><time>2026-04-04T20:20:52.999Z</time></trkpt><trkpt lat="42.14281382653606" lon="-8.471037615181748"><ele>130.0</ele><time>2026-04-04T20:20:53.999Z</time></trkpt><trkpt lat="42.14273493784159" lon="-8.470737618359367"><ele>128.5</ele><time>2026-04-04T20:20:54.999Z</time></trkpt><trkpt lat="42.14266939316131" lon="-8.470438017997939"><ele>127.0</ele><time>2026-04-04T20:20:55.999Z</time></trkpt><trkpt lat="42.142618677941016" lon="-8.470134010404516"><ele>127.0</ele><time>2026-04-04T20:20:56.999Z</time></trkpt><trkpt lat="42.1425695625585" lon="-8.469834081975362"><ele>127.0</ele><time>2026-04-04T20:20:57.999Z</time></trkpt><trkpt lat="42.14253136745359" lon="-8.469509642413247"><ele>125.5</ele><time>2026-04-04T20:20:58.999Z</time></trkpt><trkpt lat="42.14250572165492" lon="-8.46919073416459"><ele>124.0</ele><time>2026-04-04T20:20:59.999Z</time></trkpt><trkpt lat="42.14248386759915" lon="-8.468865365341605"><ele>121.0</ele><time>2026-04-04T20:21:00.999Z</time></trkpt><trkpt lat="42.14246820995959" lon="-8.468537394802423"><ele>118.0</ele><time>2026-04-04T20:21:01.999Z</time></trkpt><trkpt lat="42.142462072806296" lon="-8.4682093512575"><ele>116.5</ele><time>2026-04-04T20:21:02.999Z</time></trkpt><trkpt lat="42.14246774620229" lon="-8.467893230028661"><ele>115.0</ele><time>2026-04-04T20:21:03.999Z</time></trkpt><trkpt lat="42.14248464130292" lon="-8.46758641155778"><ele>115.0</ele><time>2026-04-04T20:21:04.999Z</time></trkpt><trkpt lat="42.14250539552144" lon="-8.467268821940369"><ele>115.0</ele><time>2026-04-04T20:21:05.999Z</time></trkpt><trkpt lat="42.142534459245425" lon="-8.466948442746046"><ele>112.5</ele><time>2026-04-04T20:21:06.999Z</time></trkpt><trkpt lat="42.14257117264407" lon="-8.466626321820566"><ele>110.0</ele><time>2026-04-04T20:21:07.999Z</time></trkpt><trkpt lat="42.14261245872121" lon="-8.466304964673814"><ele>109.5</ele><time>2026-04-04T20:21:08.999Z</time></trkpt><trkpt lat="42.142655764650165" lon="-8.465981831408005"><ele>109.0</ele><time>2026-04-04T20:21:09.999Z</time></trkpt><trkpt lat="42.14269922898518" lon="-8.465657417516097"><ele>107.5</ele><time>2026-04-04T20:21:10.999Z</time></trkpt><trkpt lat="42.1427433820378" lon="-8.465329805125299"><ele>106.0</ele><time>2026-04-04T20:21:11.999Z</time></trkpt><trkpt lat="42.142788987049144" lon="-8.464999516130275"><ele>106.0</ele><time>2026-04-04T20:21:12.999Z</time></trkpt><trkpt lat="42.14283533506347" lon="-8.464671255731213"><ele>106.0</ele><time>2026-04-04T20:21:13.999Z</time></trkpt><trkpt lat="42.14288313935659" lon="-8.464340696480983"><ele>106.5</ele><time>2026-04-04T20:21:14.999Z</time></trkpt><trkpt lat="42.142930196824125" lon="-8.464011157525965"><ele>107.0</ele><time>2026-04-04T20:21:15.999Z</time></trkpt><trkpt lat="42.142975874831585" lon="-8.463681849551914"><ele>107.5</ele><time>2026-04-04T20:21:16.999Z</time></trkpt><trkpt lat="42.143016791456674" lon="-8.46334717760387"><ele>108.0</ele><time>2026-04-04T20:21:17.999Z</time></trkpt><trkpt lat="42.1430613503954" lon="-8.463017575215178"><ele>109.5</ele><time>2026-04-04T20:21:18.999Z</time></trkpt><trkpt lat="42.143108700559836" lon="-8.462684622714836"><ele>111.0</ele><time>2026-04-04T20:21:19.999Z</time></trkpt><trkpt lat="42.143155422773425" lon="-8.462349086260852"><ele>113.0</ele><time>2026-04-04T20:21:20.999Z</time></trkpt><trkpt lat="42.1432003087194" lon="-8.462019205851117"><ele>115.0</ele><time>2026-04-04T20:21:21.999Z</time></trkpt><trkpt lat="42.14324593788624" lon="-8.461685047634347"><ele>113.5</ele><time>2026-04-04T20:21:22.999Z</time></trkpt><trkpt lat="42.143291280062016" lon="-8.461348218765055"><ele>112.0</ele><time>2026-04-04T20:21:23.999Z</time></trkpt><trkpt lat="42.14333854005785" lon="-8.461017147837778"><ele>112.0</ele><time>2026-04-04T20:21:24.999Z</time></trkpt><trkpt lat="42.143382050515115" lon="-8.460687620788777"><ele>112.0</ele><time>2026-04-04T20:21:25.999Z</time></trkpt><trkpt lat="42.14342518809181" lon="-8.460359801327604"><ele>113.5</ele><time>2026-04-04T20:21:26.999Z</time></trkpt><trkpt lat="42.14346751998366" lon="-8.460035222219123"><ele>115.0</ele><time>2026-04-04T20:21:27.999Z</time></trkpt><trkpt lat="42.14350855407208" lon="-8.459709079532567"><ele>118.0</ele><time>2026-04-04T20:21:28.999Z</time></trkpt><trkpt lat="42.1435410777353" lon="-8.45938676653806"><ele>121.0</ele><time>2026-04-04T20:21:29.999Z</time></trkpt><trkpt lat="42.14356377647591" lon="-8.45906373701469"><ele>120.0</ele><time>2026-04-04T20:21:30.999Z</time></trkpt><trkpt lat="42.14358350148869" lon="-8.458748001721673"><ele>119.0</ele><time>2026-04-04T20:21:31.999Z</time></trkpt><trkpt lat="42.14359464480259" lon="-8.458431701582285"><ele>119.0</ele><time>2026-04-04T20:21:32.999Z</time></trkpt><trkpt lat="42.143595835732555" lon="-8.458118640491339"><ele>119.0</ele><time>2026-04-04T20:21:33.999Z</time></trkpt><trkpt lat="42.143589461475145" lon="-8.457807068488975"><ele>118.5</ele><time>2026-04-04T20:21:34.999Z</time></trkpt><trkpt lat="42.14358096496737" lon="-8.457503840672427"><ele>118.0</ele><time>2026-04-04T20:21:35.999Z</time></trkpt><trkpt lat="42.14357008541034" lon="-8.457195369048376"><ele>118.33333333333334</ele><time>2026-04-04T20:21:36.999Z</time></trkpt><trkpt lat="42.143562913218126" lon="-8.456892578052662"><ele>118.66666666666666</ele><time>2026-04-04T20:21:37.999Z</time></trkpt><trkpt lat="42.143555877843774" lon="-8.456594863506442"><ele>119.0</ele><time>2026-04-04T20:21:38.999Z</time></trkpt><trkpt lat="42.14354746096823" lon="-8.45629912223863"><ele>118.66666666666666</ele><time>2026-04-04T20:21:39.999Z</time></trkpt><trkpt lat="42.1435370270002" lon="-8.456001290224076"><ele>118.33333333333334</ele><time>2026-04-04T20:21:40.999Z</time></trkpt><trkpt lat="42.143531966155486" lon="-8.455704633895468"><ele>118.0</ele><time>2026-04-04T20:21:41.999Z</time></trkpt><trkpt lat="42.143535932652846" lon="-8.455409411066308"><ele>121.0</ele><time>2026-04-04T20:21:42.999Z</time></trkpt><trkpt lat="42.143551853748505" lon="-8.455115709779324"><ele>124.0</ele><time>2026-04-04T20:21:43.999Z</time></trkpt><trkpt lat="42.143574577780974" lon="-8.45482551887774"><ele>127.0</ele><time>2026-04-04T20:21:44.999Z</time></trkpt><trkpt lat="42.14360487465452" lon="-8.454540217897618"><ele>129.0</ele><time>2026-04-04T20:21:45.999Z</time></trkpt><trkpt lat="42.143642100773185" lon="-8.454254213919265"><ele>131.0</ele><time>2026-04-04T20:21:46.999Z</time></trkpt><trkpt lat="42.143682943769086" lon="-8.453968609013323"><ele>133.0</ele><time>2026-04-04T20:21:47.999Z</time></trkpt><trkpt lat="42.143728146687884" lon="-8.453683883493786"><ele>133.33333333333334</ele><time>2026-04-04T20:21:48.999Z</time></trkpt><trkpt lat="42.14378020350042" lon="-8.453399528705658"><ele>133.66666666666666</ele><time>2026-04-04T20:21:49.999Z</time></trkpt><trkpt lat="42.14383942135512" lon="-8.45312018877762"><ele>134.0</ele><time>2026-04-04T20:21:50.999Z</time></trkpt><trkpt lat="42.1439045380723" lon="-8.452846116876813"><ele>134.66666666666666</ele><time>2026-04-04T20:21:51.999Z</time></trkpt><trkpt lat="42.14397786975449" lon="-8.452574424406823"><ele>135.33333333333334</ele><time>2026-04-04T20:21:52.999Z</time></trkpt><trkpt lat="42.14405594105724" lon="-8.452307771473688"><ele>136.0</ele><time>2026-04-04T20:21:53.999Z</time></trkpt><trkpt lat="42.144141956079956" lon="-8.452044862882229"><ele>136.0</ele><time>2026-04-04T20:21:54.999Z</time></trkpt><trkpt lat="42.14423104473917" lon="-8.45178346774014"><ele>136.0</ele><time>2026-04-04T20:21:55.999Z</time></trkpt><trkpt lat="42.144322983326674" lon="-8.451526749680372"><ele>136.0</ele><time>2026-04-04T20:21:56.999Z</time></trkpt><trkpt lat="42.14442172478031" lon="-8.451275567787993"><ele>139.0</ele><time>2026-04-04T20:21:57.999Z</time></trkpt><trkpt lat="42.144531154061625" lon="-8.451030560814461"><ele>142.0</ele><time>2026-04-04T20:21:58.999Z</time></trkpt><trkpt lat="42.14464359042053" lon="-8.450793252078453"><ele>145.0</ele><time>2026-04-04T20:21:59.999Z</time></trkpt><trkpt lat="42.14475817235428" lon="-8.450553592226369"><ele>145.66666666666669</ele><time>2026-04-04T20:22:00.999Z</time></trkpt><trkpt lat="42.144878059570374" lon="-8.450317110668582"><ele>146.33333333333334</ele><time>2026-04-04T20:22:01.999Z</time></trkpt><trkpt lat="42.14500416064975" lon="-8.450089070400965"><ele>147.0</ele><time>2026-04-04T20:22:02.999Z</time></trkpt><trkpt lat="42.14513455164421" lon="-8.449865890676117"><ele>147.0</ele><time>2026-04-04T20:22:03.999Z</time></trkpt><trkpt lat="42.14526083613425" lon="-8.449640240418368"><ele>147.0</ele><time>2026-04-04T20:22:04.999Z</time></trkpt><trkpt lat="42.14538563763756" lon="-8.449418002934115"><ele>147.0</ele><time>2026-04-04T20:22:05.999Z</time></trkpt><trkpt lat="42.145509045317816" lon="-8.449190309352256"><ele>149.33333333333334</ele><time>2026-04-04T20:22:06.999Z</time></trkpt><trkpt lat="42.14563143465675" lon="-8.448959513136776"><ele>151.66666666666669</ele><time>2026-04-04T20:22:07.998Z</time></trkpt><trkpt lat="42.14574880559483" lon="-8.448716869117302"><ele>154.0</ele><time>2026-04-04T20:22:08.998Z</time></trkpt><trkpt lat="42.14585147153737" lon="-8.448471391016433"><ele>154.0</ele><time>2026-04-04T20:22:09.998Z</time></trkpt><trkpt lat="42.145952121181296" lon="-8.448221894588327"><ele>154.0</ele><time>2026-04-04T20:22:10.998Z</time></trkpt><trkpt lat="42.14605297474077" lon="-8.447969192215698"><ele>154.0</ele><time>2026-04-04T20:22:12Z</time></trkpt><trkpt lat="42.14615028386092" lon="-8.447714792762582"><ele>157.33333333333334</ele><time>2026-04-04T20:22:13Z</time></trkpt><trkpt lat="42.14624947102007" lon="-8.447459714703811"><ele>160.66666666666666</ele><time>2026-04-04T20:22:14Z</time></trkpt><trkpt lat="42.14634743601133" lon="-8.447210812754028"><ele>164.0</ele><time>2026-04-04T20:22:15Z</time></trkpt><trkpt lat="42.146443495508166" lon="-8.446962184190156"><ele>166.0</ele><time>2026-04-04T20:22:16Z</time></trkpt><trkpt lat="42.14653930106828" lon="-8.446713600680685"><ele>168.0</ele><time>2026-04-04T20:22:17Z</time></trkpt><trkpt lat="42.146630336593546" lon="-8.446477651812778"><ele>170.0</ele><time>2026-04-04T20:22:18Z</time></trkpt><trkpt lat="42.14672078364089" lon="-8.446236006159952"><ele>171.33333333333331</ele><time>2026-04-04T20:22:19Z</time></trkpt><trkpt lat="42.146808428123215" lon="-8.445994382279466"><ele>172.66666666666666</ele><time>2026-04-04T20:22:20Z</time></trkpt><trkpt lat="42.14689464893648" lon="-8.44574795987664"><ele>174.0</ele><time>2026-04-04T20:22:21Z</time></trkpt><trkpt lat="42.14697779775007" lon="-8.445498945962793"><ele>176.66666666666666</ele><time>2026-04-04T20:22:22Z</time></trkpt><trkpt lat="42.14706335395213" lon="-8.445251646607854"><ele>179.33333333333331</ele><time>2026-04-04T20:22:23Z</time></trkpt><trkpt lat="42.14714790093092" lon="-8.445003819930385"><ele>182.0</ele><time>2026-04-04T20:22:24Z</time></trkpt><trkpt lat="42.147228700106105" lon="-8.444753321969012"><ele>182.0</ele><time>2026-04-04T20:22:25Z</time></trkpt><trkpt lat="42.14730428088048" lon="-8.444499302802841"><ele>182.0</ele><time>2026-04-04T20:22:26Z</time></trkpt><trkpt lat="42.14738698720884" lon="-8.444245910725911"><ele>182.0</ele><time>2026-04-04T20:22:27Z</time></trkpt><trkpt lat="42.14746954367928" lon="-8.443992220244542"><ele>183.0</ele><time>2026-04-04T20:22:28Z</time></trkpt><trkpt lat="42.14755322774763" lon="-8.443746922672828"><ele>184.0</ele><time>2026-04-04T20:22:29Z</time></trkpt><trkpt lat="42.14763370441559" lon="-8.443506360115906"><ele>185.0</ele><time>2026-04-04T20:22:30Z</time></trkpt><trkpt lat="42.147714246420925" lon="-8.443255492664937"><ele>185.0</ele><time>2026-04-04T20:22:31Z</time></trkpt><trkpt lat="42.14778974393961" lon="-8.443002874383902"><ele>185.0</ele><time>2026-04-04T20:22:32Z</time></trkpt><trkpt lat="42.147873527512765" lon="-8.442749574585541"><ele>185.0</ele><time>2026-04-04T20:22:33Z</time></trkpt><trkpt lat="42.14795177415664" lon="-8.442491313678602"><ele>186.66666666666666</ele><time>2026-04-04T20:22:34Z</time></trkpt><trkpt lat="42.14802917102097" lon="-8.442235503359399"><ele>188.33333333333334</ele><time>2026-04-04T20:22:35Z</time></trkpt><trkpt lat="42.14810846786504" lon="-8.441987496144053"><ele>190.0</ele><time>2026-04-04T20:22:36Z</time></trkpt><trkpt lat="42.14818434829416" lon="-8.441724763391987"><ele>190.33333333333334</ele><time>2026-04-04T20:22:37Z</time></trkpt><trkpt lat="42.14826077811037" lon="-8.44146618978888"><ele>190.66666666666666</ele><time>2026-04-04T20:22:38Z</time></trkpt><trkpt lat="42.14833768823094" lon="-8.441209434809146"><ele>191.0</ele><time>2026-04-04T20:22:39Z</time></trkpt><trkpt lat="42.14841040222451" lon="-8.440947606716323"><ele>193.0</ele><time>2026-04-04T20:22:40Z</time></trkpt><trkpt lat="42.148481254670635" lon="-8.440691138385551"><ele>195.0</ele><time>2026-04-04T20:22:41Z</time></trkpt><trkpt lat="42.148557041795705" lon="-8.44043597617459"><ele>197.0</ele><time>2026-04-04T20:22:42Z</time></trkpt><trkpt lat="42.148631971967504" lon="-8.440180053238684"><ele>200.0</ele><time>2026-04-04T20:22:43Z</time></trkpt><trkpt lat="42.14870649626816" lon="-8.43992147637662"><ele>203.0</ele><time>2026-04-04T20:22:44Z</time></trkpt><trkpt lat="42.14878316072399" lon="-8.439656651550207"><ele>206.0</ele><time>2026-04-04T20:22:45Z</time></trkpt><trkpt lat="42.14885122915047" lon="-8.439396590313706"><ele>205.0</ele><time>2026-04-04T20:22:46Z</time></trkpt><trkpt lat="42.14892078459722" lon="-8.43913510628691"><ele>204.0</ele><time>2026-04-04T20:22:47Z</time></trkpt><trkpt lat="42.148987901952744" lon="-8.438870316581157"><ele>203.0</ele><time>2026-04-04T20:22:48Z</time></trkpt><trkpt lat="42.14904869854268" lon="-8.4385996099892"><ele>203.0</ele><time>2026-04-04T20:22:49Z</time></trkpt><trkpt lat="42.14910784055729" lon="-8.438328930802438"><ele>203.0</ele><time>2026-04-04T20:22:50Z</time></trkpt><trkpt lat="42.14915662632397" lon="-8.438046496284475"><ele>203.0</ele><time>2026-04-04T20:22:51Z</time></trkpt><trkpt lat="42.14919685399552" lon="-8.43775723051655"><ele>203.66666666666669</ele><time>2026-04-04T20:22:52Z</time></trkpt><trkpt lat="42.14922852787444" lon="-8.437482694766809"><ele>204.33333333333331</ele><time>2026-04-04T20:22:53Z</time></trkpt><trkpt lat="42.14925065306853" lon="-8.437189865189577"><ele>205.0</ele><time>2026-04-04T20:22:54Z</time></trkpt><trkpt lat="42.149262976802255" lon="-8.43688849820398"><ele>205.66666666666666</ele><time>2026-04-04T20:22:55Z</time></trkpt><trkpt lat="42.14928367338415" lon="-8.43661494429918"><ele>206.33333333333331</ele><time>2026-04-04T20:22:55.999Z</time></trkpt><trkpt lat="42.14928666763737" lon="-8.43632036827268"><ele>207.0</ele><time>2026-04-04T20:22:56.999Z</time></trkpt><trkpt lat="42.1492828978798" lon="-8.43603326948195"><ele>207.0</ele><time>2026-04-04T20:22:57.999Z</time></trkpt><trkpt lat="42.14926308585147" lon="-8.43574367530408"><ele>207.0</ele><time>2026-04-04T20:22:58.999Z</time></trkpt><trkpt lat="42.149236191882835" lon="-8.435444900014216"><ele>207.0</ele><time>2026-04-04T20:22:59.999Z</time></trkpt><trkpt lat="42.1491977161994" lon="-8.435164794388184"><ele>207.0</ele><time>2026-04-04T20:23:00.999Z</time></trkpt><trkpt lat="42.14916477285261" lon="-8.434886801990045"><ele>207.0</ele><time>2026-04-04T20:23:01.999Z</time></trkpt><trkpt lat="42.14913332125487" lon="-8.43460281192632"><ele>207.0</ele><time>2026-04-04T20:23:02.999Z</time></trkpt><trkpt lat="42.149096363937275" lon="-8.43431518151798"><ele>206.66666666666669</ele><time>2026-04-04T20:23:03.999Z</time></trkpt><trkpt lat="42.14905582698339" lon="-8.434037114568998"><ele>206.33333333333334</ele><time>2026-04-04T20:23:04.999Z</time></trkpt><trkpt lat="42.14901693346947" lon="-8.433757011378672"><ele>206.0</ele><time>2026-04-04T20:23:05.999Z</time></trkpt><trkpt lat="42.148986009290745" lon="-8.433475409388217"><ele>212.33333333333334</ele><time>2026-04-04T20:23:06.999Z</time></trkpt><trkpt lat="42.14895395981555" lon="-8.433204795401625"><ele>218.66666666666669</ele><time>2026-04-04T20:23:07.999Z</time></trkpt><trkpt lat="42.14891955251136" lon="-8.432922960359539"><ele>225.0</ele><time>2026-04-04T20:23:08.999Z</time></trkpt><trkpt lat="42.14889260194953" lon="-8.432643665626502"><ele>230.5</ele><time>2026-04-04T20:23:09.999Z</time></trkpt><trkpt lat="42.148855660140896" lon="-8.432079962512486"><ele>236.0</ele><time>2026-04-04T20:23:11.999Z</time></trkpt><trkpt lat="42.14884861601953" lon="-8.431803125066272"><ele>236.0</ele><time>2026-04-04T20:23:12.999Z</time></trkpt><trkpt lat="42.14884616129266" lon="-8.431523573779307"><ele>236.0</ele><time>2026-04-04T20:23:13.999Z</time></trkpt><trkpt lat="42.14886484248141" lon="-8.43124343463373"><ele>236.0</ele><time>2026-04-04T20:23:14.999Z</time></trkpt><trkpt lat="42.14887615808142" lon="-8.430967233595767"><ele>239.66666666666669</ele><time>2026-04-04T20:23:15.999Z</time></trkpt><trkpt lat="42.148889250530324" lon="-8.430691983891647"><ele>243.33333333333331</ele><time>2026-04-04T20:23:16.999Z</time></trkpt><trkpt lat="42.148913592713654" lon="-8.4304161550064"><ele>247.0</ele><time>2026-04-04T20:23:17.999Z</time></trkpt><trkpt lat="42.148947111994886" lon="-8.430138898023294"><ele>250.0</ele><time>2026-04-04T20:23:18.999Z</time></trkpt><trkpt lat="42.14898092469136" lon="-8.42986860717847"><ele>253.0</ele><time>2026-04-04T20:23:19.999Z</time></trkpt><trkpt lat="42.14902391283149" lon="-8.429598446053207"><ele>256.0</ele><time>2026-04-04T20:23:20.999Z</time></trkpt><trkpt lat="42.149074565996955" lon="-8.429328188298449"><ele>251.33333333333331</ele><time>2026-04-04T20:23:21.999Z</time></trkpt><trkpt lat="42.14912944209284" lon="-8.429063686272713"><ele>246.66666666666669</ele><time>2026-04-04T20:23:22.999Z</time></trkpt><trkpt lat="42.14918689224466" lon="-8.428798945477675"><ele>242.0</ele><time>2026-04-04T20:23:23.999Z</time></trkpt><trkpt lat="42.149258295635306" lon="-8.428538532127387"><ele>242.0</ele><time>2026-04-04T20:23:24.999Z</time></trkpt><trkpt lat="42.14932977926043" lon="-8.4282854096834"><ele>242.0</ele><time>2026-04-04T20:23:25.999Z</time></trkpt><trkpt lat="42.14940887289744" lon="-8.428035376215565"><ele>242.0</ele><time>2026-04-04T20:23:26.999Z</time></trkpt><trkpt lat="42.14948892356183" lon="-8.427777076731843"><ele>244.66666666666669</ele><time>2026-04-04T20:23:27.999Z</time></trkpt><trkpt lat="42.149578005780825" lon="-8.427527006617904"><ele>247.33333333333331</ele><time>2026-04-04T20:23:28.999Z</time></trkpt><trkpt lat="42.149670730199176" lon="-8.427285472676964"><ele>250.0</ele><time>2026-04-04T20:23:29.999Z</time></trkpt><trkpt lat="42.149779290802556" lon="-8.427045825489092"><ele>248.66666666666666</ele><time>2026-04-04T20:23:30.999Z</time></trkpt><trkpt lat="42.14987923009222" lon="-8.426810296631858"><ele>247.33333333333331</ele><time>2026-04-04T20:23:31.999Z</time></trkpt><trkpt lat="42.14998107989449" lon="-8.426578232786923"><ele>246.0</ele><time>2026-04-04T20:23:32.999Z</time></trkpt><trkpt lat="42.15010088219245" lon="-8.426353047751652"><ele>252.66666666666669</ele><time>2026-04-04T20:23:33.999Z</time></trkpt><trkpt lat="42.15022604445934" lon="-8.426136869266253"><ele>259.33333333333337</ele><time>2026-04-04T20:23:34.999Z</time></trkpt><trkpt lat="42.15035233714395" lon="-8.425920275611261"><ele>266.0</ele><time>2026-04-04T20:23:35.999Z</time></trkpt><trkpt lat="42.15048268915751" lon="-8.425709060863674"><ele>266.0</ele><time>2026-04-04T20:23:36.999Z</time></trkpt><trkpt lat="42.15060980733313" lon="-8.42549935432345"><ele>266.0</ele><time>2026-04-04T20:23:37.999Z</time></trkpt><trkpt lat="42.150745052685046" lon="-8.425291641208318"><ele>266.0</ele><time>2026-04-04T20:23:38.999Z</time></trkpt><trkpt lat="42.15088751220246" lon="-8.425093291916468"><ele>266.0</ele><time>2026-04-04T20:23:39.999Z</time></trkpt><trkpt lat="42.15102823563466" lon="-8.424895778286956"><ele>266.0</ele><time>2026-04-04T20:23:40.999Z</time></trkpt><trkpt lat="42.15118189867539" lon="-8.424699404121768"><ele>266.0</ele><time>2026-04-04T20:23:41.999Z</time></trkpt><trkpt lat="42.15131947393548" lon="-8.424499422360958"><ele>266.0</ele><time>2026-04-04T20:23:42.999Z</time></trkpt><trkpt lat="42.15145491247234" lon="-8.42429429599659"><ele>266.0</ele><time>2026-04-04T20:23:43.999Z</time></trkpt><trkpt lat="42.151579184437715" lon="-8.424090744274505"><ele>266.0</ele><time>2026-04-04T20:23:44.999Z</time></trkpt><trkpt lat="42.15171533269411" lon="-8.423880786625173"><ele>267.6666666666667</ele><time>2026-04-04T20:23:45.999Z</time></trkpt><trkpt lat="42.151841331446974" lon="-8.423663511886275"><ele>269.3333333333333</ele><time>2026-04-04T20:23:46.999Z</time></trkpt><trkpt lat="42.15197056511069" lon="-8.423444140972176"><ele>271.0</ele><time>2026-04-04T20:23:47.999Z</time></trkpt><trkpt lat="42.1520895455863" lon="-8.423219056377357"><ele>271.0</ele><time>2026-04-04T20:23:48.999Z</time></trkpt><trkpt lat="42.15220613316919" lon="-8.422995893439488"><ele>271.0</ele><time>2026-04-04T20:23:49.999Z</time></trkpt><trkpt lat="42.152310375856075" lon="-8.422762653978605"><ele>271.0</ele><time>2026-04-04T20:23:50.999Z</time></trkpt><trkpt lat="42.15242053117838" lon="-8.42252522040532"><ele>271.3333333333333</ele><time>2026-04-04T20:23:51.999Z</time></trkpt><trkpt lat="42.152523502881174" lon="-8.422289503247457"><ele>271.6666666666667</ele><time>2026-04-04T20:23:52.999Z</time></trkpt><trkpt lat="42.15261931836662" lon="-8.422043998985387"><ele>272.0</ele><time>2026-04-04T20:23:53.999Z</time></trkpt><trkpt lat="42.15271361336476" lon="-8.421798079969738"><ele>272.0</ele><time>2026-04-04T20:23:54.999Z</time></trkpt><trkpt lat="42.152797749637465" lon="-8.421551231105882"><ele>272.0</ele><time>2026-04-04T20:23:55.999Z</time></trkpt><trkpt lat="42.15288185106866" lon="-8.421295755945987"><ele>272.0</ele><time>2026-04-04T20:23:56.999Z</time></trkpt><trkpt lat="42.152948364186294" lon="-8.421041658815241"><ele>271.33333333333337</ele><time>2026-04-04T20:23:57.999Z</time></trkpt><trkpt lat="42.1530104837574" lon="-8.420782190136862"><ele>270.6666666666667</ele><time>2026-04-04T20:23:58.999Z</time></trkpt><trkpt lat="42.15307353087514" lon="-8.420514552639998"><ele>270.0</ele><time>2026-04-04T20:23:59.999Z</time></trkpt><trkpt lat="42.15312919699323" lon="-8.420252263847917"><ele>271.0</ele><time>2026-04-04T20:24:00.999Z</time></trkpt><trkpt lat="42.153188941982386" lon="-8.41999032702827"><ele>272.0</ele><time>2026-04-04T20:24:01.999Z</time></trkpt><trkpt lat="42.15324335020795" lon="-8.419729576788217"><ele>273.0</ele><time>2026-04-04T20:24:02.999Z</time></trkpt><trkpt lat="42.15328533532821" lon="-8.419467135315173"><ele>275.0</ele><time>2026-04-04T20:24:03.999Z</time></trkpt><trkpt lat="42.153314957128515" lon="-8.419194926173121"><ele>277.0</ele><time>2026-04-04T20:24:04.999Z</time></trkpt><trkpt lat="42.15334650480524" lon="-8.418931594706766"><ele>279.0</ele><time>2026-04-04T20:24:05.999Z</time></trkpt><trkpt lat="42.15337959686097" lon="-8.418657402377947"><ele>282.0</ele><time>2026-04-04T20:24:06.999Z</time></trkpt><trkpt lat="42.15338536107054" lon="-8.418391127325073"><ele>285.0</ele><time>2026-04-04T20:24:07.999Z</time></trkpt><trkpt lat="42.153419985151416" lon="-8.418119906136795"><ele>288.0</ele><time>2026-04-04T20:24:08.999Z</time></trkpt><trkpt lat="42.153433844045445" lon="-8.41784784473006"><ele>289.3333333333333</ele><time>2026-04-04T20:24:09.999Z</time></trkpt><trkpt lat="42.15343703580549" lon="-8.41758060166674"><ele>290.66666666666663</ele><time>2026-04-04T20:24:10.999Z</time></trkpt><trkpt lat="42.15343495930491" lon="-8.417312559482907"><ele>292.0</ele><time>2026-04-04T20:24:11.999Z</time></trkpt><trkpt lat="42.15343459115284" lon="-8.417042574437518"><ele>292.0</ele><time>2026-04-04T20:24:12.999Z</time></trkpt><trkpt lat="42.1534151410445" lon="-8.41676314262837"><ele>292.0</ele><time>2026-04-04T20:24:13.999Z</time></trkpt><trkpt lat="42.153394186097884" lon="-8.416517262872135"><ele>292.0</ele><time>2026-04-04T20:24:14.999Z</time></trkpt><trkpt lat="42.15338403583194" lon="-8.41625955232743"><ele>292.0</ele><time>2026-04-04T20:24:15.999Z</time></trkpt><trkpt lat="42.15335234806496" lon="-8.415999569842423"><ele>292.0</ele><time>2026-04-04T20:24:16.999Z</time></trkpt><trkpt lat="42.153318269378346" lon="-8.415739352789629"><ele>292.0</ele><time>2026-04-04T20:24:18Z</time></trkpt><trkpt lat="42.1532945750262" lon="-8.415482356062649"><ele>291.66666666666663</ele><time>2026-04-04T20:24:19Z</time></trkpt><trkpt lat="42.15325482169882" lon="-8.415223001682566"><ele>291.3333333333333</ele><time>2026-04-04T20:24:20Z</time></trkpt><trkpt lat="42.15320547114728" lon="-8.41496834810837"><ele>291.0</ele><time>2026-04-04T20:24:21Z</time></trkpt><trkpt lat="42.15314875456666" lon="-8.414718312968962"><ele>294.0</ele><time>2026-04-04T20:24:22Z</time></trkpt><trkpt lat="42.153101594088504" lon="-8.414473161450925"><ele>297.0</ele><time>2026-04-04T20:24:23Z</time></trkpt><trkpt lat="42.1530427756789" lon="-8.414223588355867"><ele>300.0</ele><time>2026-04-04T20:24:24Z</time></trkpt><trkpt lat="42.15298188006197" lon="-8.413981177737096"><ele>301.3333333333333</ele><time>2026-04-04T20:24:25Z</time></trkpt><trkpt lat="42.15291643704151" lon="-8.413731812801666"><ele>302.66666666666663</ele><time>2026-04-04T20:24:26Z</time></trkpt><trkpt lat="42.15285873088642" lon="-8.41349214535002"><ele>304.0</ele><time>2026-04-04T20:24:27Z</time></trkpt><trkpt lat="42.15279457374704" lon="-8.413250640816608"><ele>304.0</ele><time>2026-04-04T20:24:28Z</time></trkpt><trkpt lat="42.15273200353496" lon="-8.413011221572294"><ele>304.0</ele><time>2026-04-04T20:24:29Z</time></trkpt><trkpt lat="42.152665629763575" lon="-8.412768616666122"><ele>304.0</ele><time>2026-04-04T20:24:30Z</time></trkpt><trkpt lat="42.15259511306991" lon="-8.41252507035486"><ele>304.0</ele><time>2026-04-04T20:24:31Z</time></trkpt><trkpt lat="42.15254308908997" lon="-8.412277922488391"><ele>304.0</ele><time>2026-04-04T20:24:32Z</time></trkpt><trkpt lat="42.15249825567891" lon="-8.412031057911014"><ele>304.0</ele><time>2026-04-04T20:24:33Z</time></trkpt><trkpt lat="42.152438519640256" lon="-8.411780324805369"><ele>304.0</ele><time>2026-04-04T20:24:34Z</time></trkpt><trkpt lat="42.15238636105363" lon="-8.411526792902933"><ele>304.0</ele><time>2026-04-04T20:24:35Z</time></trkpt><trkpt lat="42.1523427841918" lon="-8.411282097049236"><ele>304.0</ele><time>2026-04-04T20:24:36Z</time></trkpt><trkpt lat="42.15230363867447" lon="-8.411018963855955"><ele>308.3333333333333</ele><time>2026-04-04T20:24:37Z</time></trkpt><trkpt lat="42.152269702085" lon="-8.410768864606586"><ele>312.6666666666667</ele><time>2026-04-04T20:24:38Z</time></trkpt><trkpt lat="42.15223840450301" lon="-8.410513853939714"><ele>317.0</ele><time>2026-04-04T20:24:39Z</time></trkpt><trkpt lat="42.1522114900236" lon="-8.410253966528266"><ele>317.0</ele><time>2026-04-04T20:24:40Z</time></trkpt><trkpt lat="42.15218545542541" lon="-8.409996686206252"><ele>317.0</ele><time>2026-04-04T20:24:41Z</time></trkpt><trkpt lat="42.152163090032104" lon="-8.409737003358925"><ele>317.0</ele><time>2026-04-04T20:24:42Z</time></trkpt><trkpt lat="42.15214739425866" lon="-8.409472910393479"><ele>316.33333333333337</ele><time>2026-04-04T20:24:43Z</time></trkpt><trkpt lat="42.152139512876055" lon="-8.409209659055465"><ele>315.6666666666667</ele><time>2026-04-04T20:24:44Z</time></trkpt><trkpt lat="42.1521379370592" lon="-8.408938124244905"><ele>315.0</ele><time>2026-04-04T20:24:45Z</time></trkpt><trkpt lat="42.15213081823945" lon="-8.40867618976246"><ele>315.0</ele><time>2026-04-04T20:24:46Z</time></trkpt><trkpt lat="42.15213888506198" lon="-8.40841098067911"><ele>315.0</ele><time>2026-04-04T20:24:47Z</time></trkpt><trkpt lat="42.15214460921464" lon="-8.408153900768705"><ele>315.0</ele><time>2026-04-04T20:24:48Z</time></trkpt><trkpt lat="42.152152721518384" lon="-8.407887808272486"><ele>316.3333333333333</ele><time>2026-04-04T20:24:49Z</time></trkpt><trkpt lat="42.15215977659387" lon="-8.407619033053862"><ele>317.66666666666663</ele><time>2026-04-04T20:24:50Z</time></trkpt><trkpt lat="42.152178393926626" lon="-8.407357422607665"><ele>319.0</ele><time>2026-04-04T20:24:51Z</time></trkpt><trkpt lat="42.15220056848372" lon="-8.407093954142962"><ele>321.0</ele><time>2026-04-04T20:24:52Z</time></trkpt><trkpt lat="42.15222618498263" lon="-8.406827338945536"><ele>323.0</ele><time>2026-04-04T20:24:53Z</time></trkpt><trkpt lat="42.15225149230502" lon="-8.406563475695505"><ele>325.0</ele><time>2026-04-04T20:24:54Z</time></trkpt><trkpt lat="42.15229993867832" lon="-8.406304922976174"><ele>328.3333333333333</ele><time>2026-04-04T20:24:55Z</time></trkpt><trkpt lat="42.15233178321774" lon="-8.406045225889885"><ele>331.6666666666667</ele><time>2026-04-04T20:24:56Z</time></trkpt><trkpt lat="42.15237976475413" lon="-8.405777086577187"><ele>335.0</ele><time>2026-04-04T20:24:57Z</time></trkpt><trkpt lat="42.15242637821108" lon="-8.405516637978087"><ele>338.0</ele><time>2026-04-04T20:24:58Z</time></trkpt><trkpt lat="42.15248249275832" lon="-8.405256328895137"><ele>341.0</ele><time>2026-04-04T20:24:59Z</time></trkpt><trkpt lat="42.15253831886196" lon="-8.404999288415635"><ele>344.0</ele><time>2026-04-04T20:25:00Z</time></trkpt><trkpt lat="42.15260324720962" lon="-8.404743639964774"><ele>344.33333333333337</ele><time>2026-04-04T20:25:01Z</time></trkpt><trkpt lat="42.152671504155315" lon="-8.404492693854985"><ele>344.6666666666667</ele><time>2026-04-04T20:25:01.999Z</time></trkpt><trkpt lat="42.152738175074276" lon="-8.404236106785998"><ele>345.0</ele><time>2026-04-04T20:25:02.999Z</time></trkpt><trkpt lat="42.15280657929277" lon="-8.40398438531202"><ele>346.3333333333333</ele><time>2026-04-04T20:25:03.999Z</time></trkpt><trkpt lat="42.15289078740185" lon="-8.403739677770847"><ele>347.66666666666663</ele><time>2026-04-04T20:25:04.999Z</time></trkpt><trkpt lat="42.152976802251914" lon="-8.403492424851791"><ele>349.0</ele><time>2026-04-04T20:25:05.999Z</time></trkpt><trkpt lat="42.15307542639038" lon="-8.403258147231728"><ele>349.0</ele><time>2026-04-04T20:25:06.999Z</time></trkpt><trkpt lat="42.15318582619926" lon="-8.403035624261813"><ele>349.0</ele><time>2026-04-04T20:25:07.999Z</time></trkpt><trkpt lat="42.15329363342824" lon="-8.402792838119591"><ele>349.0</ele><time>2026-04-04T20:25:08.999Z</time></trkpt><trkpt lat="42.15341456293596" lon="-8.402588197980487"><ele>350.0</ele><time>2026-04-04T20:25:09.999Z</time></trkpt><trkpt lat="42.15354220885729" lon="-8.402375829701402"><ele>351.0</ele><time>2026-04-04T20:25:10.999Z</time></trkpt><trkpt lat="42.15367403380321" lon="-8.402178226787449"><ele>352.0</ele><time>2026-04-04T20:25:11.999Z</time></trkpt><trkpt lat="42.153814187030434" lon="-8.401975573512786"><ele>353.3333333333333</ele><time>2026-04-04T20:25:12.999Z</time></trkpt><trkpt lat="42.15395882492904" lon="-8.401792129916359"><ele>354.6666666666667</ele><time>2026-04-04T20:25:13.999Z</time></trkpt><trkpt lat="42.154112589606584" lon="-8.401616884096256"><ele>356.0</ele><time>2026-04-04T20:25:14.999Z</time></trkpt><trkpt lat="42.1542729518035" lon="-8.401456519592761"><ele>361.0</ele><time>2026-04-04T20:25:15.999Z</time></trkpt><trkpt lat="42.15443593858151" lon="-8.401294859296314"><ele>366.0</ele><time>2026-04-04T20:25:16.999Z</time></trkpt><trkpt lat="42.15460087174667" lon="-8.401136220841241"><ele>371.0</ele><time>2026-04-04T20:25:17.999Z</time></trkpt><trkpt lat="42.15477400689427" lon="-8.400998359766326"><ele>368.6666666666667</ele><time>2026-04-04T20:25:18.999Z</time></trkpt><trkpt lat="42.154949032878434" lon="-8.40087247061609"><ele>366.3333333333333</ele><time>2026-04-04T20:25:19.999Z</time></trkpt><trkpt lat="42.155127283891325" lon="-8.400758703880605"><ele>364.0</ele><time>2026-04-04T20:25:20.999Z</time></trkpt><trkpt lat="42.15531156366812" lon="-8.400650136003264"><ele>364.0</ele><time>2026-04-04T20:25:21.999Z</time></trkpt><trkpt lat="42.15549595268937" lon="-8.400557032007601"><ele>364.0</ele><time>2026-04-04T20:25:22.999Z</time></trkpt><trkpt lat="42.15568892055071" lon="-8.400474924459532"><ele>364.0</ele><time>2026-04-04T20:25:23.999Z</time></trkpt><trkpt lat="42.1558790994018" lon="-8.400398704076617"><ele>368.66666666666663</ele><time>2026-04-04T20:25:24.999Z</time></trkpt><trkpt lat="42.1560793123499" lon="-8.400326273139987"><ele>373.3333333333333</ele><time>2026-04-04T20:25:25.999Z</time></trkpt><trkpt lat="42.15627067392444" lon="-8.400273632088952"><ele>378.0</ele><time>2026-04-04T20:25:26.999Z</time></trkpt><trkpt lat="42.156470915331354" lon="-8.400232072210233"><ele>375.3333333333333</ele><time>2026-04-04T20:25:27.999Z</time></trkpt><trkpt lat="42.156671785821274" lon="-8.400199166655382"><ele>372.66666666666663</ele><time>2026-04-04T20:25:28.999Z</time></trkpt><trkpt lat="42.1568712221953" lon="-8.400171830135147"><ele>370.0</ele><time>2026-04-04T20:25:29.999Z</time></trkpt><trkpt lat="42.157076187333125" lon="-8.400140214924292"><ele>370.0</ele><time>2026-04-04T20:25:30.999Z</time></trkpt><trkpt lat="42.15728043142464" lon="-8.400102105418348"><ele>370.0</ele><time>2026-04-04T20:25:31.999Z</time></trkpt><trkpt lat="42.1574794933606" lon="-8.400064469059835"><ele>370.0</ele><time>2026-04-04T20:25:32.999Z</time></trkpt><trkpt lat="42.15768069732726" lon="-8.400018046229453"><ele>371.66666666666663</ele><time>2026-04-04T20:25:33.999Z</time></trkpt><trkpt lat="42.1578731082986" lon="-8.399951379740614"><ele>373.3333333333333</ele><time>2026-04-04T20:25:34.999Z</time></trkpt><trkpt lat="42.15807111221404" lon="-8.399877181218907"><ele>375.0</ele><time>2026-04-04T20:25:35.999Z</time></trkpt><trkpt lat="42.15825410617869" lon="-8.399789781352254"><ele>375.0</ele><time>2026-04-04T20:25:36.999Z</time></trkpt><trkpt lat="42.1584443576015" lon="-8.39969113249926"><ele>375.0</ele><time>2026-04-04T20:25:37.999Z</time></trkpt><trkpt lat="42.15863276130289" lon="-8.399580013283098"><ele>375.0</ele><time>2026-04-04T20:25:38.999Z</time></trkpt><trkpt lat="42.15881164523829" lon="-8.399461295266972"><ele>379.33333333333337</ele><time>2026-04-04T20:25:39.999Z</time></trkpt><trkpt lat="42.158991181062454" lon="-8.399329772225352"><ele>383.6666666666667</ele><time>2026-04-04T20:25:40.999Z</time></trkpt><trkpt lat="42.15916395884628" lon="-8.39919506326684"><ele>388.0</ele><time>2026-04-04T20:25:41.999Z</time></trkpt><trkpt lat="42.15934106934304" lon="-8.399044667066036"><ele>388.0</ele><time>2026-04-04T20:25:42.999Z</time></trkpt><trkpt lat="42.15950211074096" lon="-8.39888393533377"><ele>388.0</ele><time>2026-04-04T20:25:43.999Z</time></trkpt><trkpt lat="42.159654016422245" lon="-8.398710645125096"><ele>388.0</ele><time>2026-04-04T20:25:44.999Z</time></trkpt><trkpt lat="42.15979263472139" lon="-8.39852958328469"><ele>388.0</ele><time>2026-04-04T20:25:45.999Z</time></trkpt><trkpt lat="42.159944563297074" lon="-8.398337473601714"><ele>388.0</ele><time>2026-04-04T20:25:46.999Z</time></trkpt><trkpt lat="42.16007763634207" lon="-8.398138162991835"><ele>388.0</ele><time>2026-04-04T20:25:47.999Z</time></trkpt><trkpt lat="42.160205979080125" lon="-8.397932468377867"><ele>391.6666666666667</ele><time>2026-04-04T20:25:48.999Z</time></trkpt><trkpt lat="42.16033061648094" lon="-8.39771941251724"><ele>395.33333333333337</ele><time>2026-04-04T20:25:49.999Z</time></trkpt><trkpt lat="42.16043991386723" lon="-8.397502216030203"><ele>399.0</ele><time>2026-04-04T20:25:50.999Z</time></trkpt><trkpt lat="42.16054198108134" lon="-8.397267007853277"><ele>402.0</ele><time>2026-04-04T20:25:51.999Z</time></trkpt><trkpt lat="42.1606441959607" lon="-8.39703748634463"><ele>405.0</ele><time>2026-04-04T20:25:52.999Z</time></trkpt><trkpt lat="42.16073737498492" lon="-8.396810106123835"><ele>408.0</ele><time>2026-04-04T20:25:53.999Z</time></trkpt><trkpt lat="42.16083281534566" lon="-8.396574876298047"><ele>411.33333333333337</ele><time>2026-04-04T20:25:54.999Z</time></trkpt><trkpt lat="42.1609209777965" lon="-8.396333331865822"><ele>414.6666666666667</ele><time>2026-04-04T20:25:55.999Z</time></trkpt><trkpt lat="42.161003345215526" lon="-8.39609855947932"><ele>418.0</ele><time>2026-04-04T20:25:56.999Z</time></trkpt><trkpt lat="42.16108799974307" lon="-8.39585910212014"><ele>418.0</ele><time>2026-04-04T20:25:57.999Z</time></trkpt><trkpt lat="42.1611765752838" lon="-8.395624795618984"><ele>418.0</ele><time>2026-04-04T20:25:58.999Z</time></trkpt><trkpt lat="42.16126860181649" lon="-8.395389482513465"><ele>418.0</ele><time>2026-04-04T20:25:59.999Z</time></trkpt><trkpt lat="42.16135792436453" lon="-8.395153571443055"><ele>418.33333333333337</ele><time>2026-04-04T20:26:00.999Z</time></trkpt><trkpt lat="42.1614573510254" lon="-8.394927712110887"><ele>418.66666666666663</ele><time>2026-04-04T20:26:01.999Z</time></trkpt><trkpt lat="42.16156126438516" lon="-8.394695703509871"><ele>419.0</ele><time>2026-04-04T20:26:02.999Z</time></trkpt><trkpt lat="42.16165971466216" lon="-8.394473333494192"><ele>420.0</ele><time>2026-04-04T20:26:03.999Z</time></trkpt><trkpt lat="42.161768605869085" lon="-8.394251508136861"><ele>421.0</ele><time>2026-04-04T20:26:04.999Z</time></trkpt><trkpt lat="42.16188117148397" lon="-8.394033273268525"><ele>422.0</ele><time>2026-04-04T20:26:05.999Z</time></trkpt><trkpt lat="42.161992978218166" lon="-8.393824711450735"><ele>422.66666666666663</ele><time>2026-04-04T20:26:06.999Z</time></trkpt><trkpt lat="42.16210763100096" lon="-8.393608106765818"><ele>423.33333333333337</ele><time>2026-04-04T20:26:07.999Z</time></trkpt><trkpt lat="42.16222887845331" lon="-8.393395541211314"><ele>424.0</ele><time>2026-04-04T20:26:08.999Z</time></trkpt><trkpt lat="42.162351286508745" lon="-8.393193558495463"><ele>422.33333333333337</ele><time>2026-04-04T20:26:09.999Z</time></trkpt><trkpt lat="42.162480091912215" lon="-8.392986792274291"><ele>420.66666666666663</ele><time>2026-04-04T20:26:10.999Z</time></trkpt><trkpt lat="42.16261288865458" lon="-8.392789793111701"><ele>419.0</ele><time>2026-04-04T20:26:11.999Z</time></trkpt><trkpt lat="42.16274380150123" lon="-8.39259963763935"><ele>419.0</ele><time>2026-04-04T20:26:12.999Z</time></trkpt><trkpt lat="42.1628821592047" lon="-8.392401760929324"><ele>419.0</ele><time>2026-04-04T20:26:13.999Z</time></trkpt><trkpt lat="42.16302247710519" lon="-8.392212086867394"><ele>419.0</ele><time>2026-04-04T20:26:14.999Z</time></trkpt><trkpt lat="42.16316001494127" lon="-8.392020640699508"><ele>419.3333333333333</ele><time>2026-04-04T20:26:15.999Z</time></trkpt><trkpt lat="42.16329961456071" lon="-8.391828052336995"><ele>419.66666666666663</ele><time>2026-04-04T20:26:16.999Z</time></trkpt><trkpt lat="42.163440689668946" lon="-8.391639414092433"><ele>420.0</ele><time>2026-04-04T20:26:17.999Z</time></trkpt><trkpt lat="42.16357977810539" lon="-8.391444309481747"><ele>421.66666666666663</ele><time>2026-04-04T20:26:18.999Z</time></trkpt><trkpt lat="42.163718134033914" lon="-8.391241599175675"><ele>423.3333333333333</ele><time>2026-04-04T20:26:19.999Z</time></trkpt><trkpt lat="42.16384916267817" lon="-8.391033582963598"><ele>425.0</ele><time>2026-04-04T20:26:20.999Z</time></trkpt><trkpt lat="42.16397087454605" lon="-8.390824071025834"><ele>425.0</ele><time>2026-04-04T20:26:21.999Z</time></trkpt><trkpt lat="42.16409193061171" lon="-8.390599242124834"><ele>425.0</ele><time>2026-04-04T20:26:22.999Z</time></trkpt><trkpt lat="42.1641995636875" lon="-8.390373323800517"><ele>425.0</ele><time>2026-04-04T20:26:24Z</time></trkpt><trkpt lat="42.16429952191623" lon="-8.390139759537968"><ele>428.0</ele><time>2026-04-04T20:26:25Z</time></trkpt><trkpt lat="42.16439829012223" lon="-8.389895184358203"><ele>431.0</ele><time>2026-04-04T20:26:26Z</time></trkpt><trkpt lat="42.16448600919385" lon="-8.389646612569319"><ele>434.0</ele><time>2026-04-04T20:26:27Z</time></trkpt><trkpt lat="42.164566928889634" lon="-8.389396821380101"><ele>438.66666666666663</ele><time>2026-04-04T20:26:28Z</time></trkpt><trkpt lat="42.164638364259496" lon="-8.389143429148426"><ele>443.33333333333337</ele><time>2026-04-04T20:26:29Z</time></trkpt><trkpt lat="42.16470116308349" lon="-8.388884846131038"><ele>448.0</ele><time>2026-04-04T20:26:30Z</time></trkpt><trkpt lat="42.16475418944373" lon="-8.388620079586545"><ele>448.33333333333337</ele><time>2026-04-04T20:26:31Z</time></trkpt><trkpt lat="42.16479424241368" lon="-8.388365518718015"><ele>448.66666666666663</ele><time>2026-04-04T20:26:32Z</time></trkpt><trkpt lat="42.16484133978546" lon="-8.388102360397117"><ele>449.0</ele><time>2026-04-04T20:26:33Z</time></trkpt><trkpt lat="42.16489114689962" lon="-8.387844971885116"><ele>449.0</ele><time>2026-04-04T20:26:34Z</time></trkpt><trkpt lat="42.16494284012343" lon="-8.387591938335383"><ele>449.0</ele><time>2026-04-04T20:26:35Z</time></trkpt><trkpt lat="42.164998178410855" lon="-8.387335397653645"><ele>449.0</ele><time>2026-04-04T20:26:36Z</time></trkpt><trkpt lat="42.16505963028529" lon="-8.387083061926297"><ele>451.0</ele><time>2026-04-04T20:26:37Z</time></trkpt><trkpt lat="42.165127104806494" lon="-8.386833051160076"><ele>453.0</ele><time>2026-04-04T20:26:38Z</time></trkpt><trkpt lat="42.16519869214944" lon="-8.386586575272396"><ele>455.0</ele><time>2026-04-04T20:26:39Z</time></trkpt><trkpt lat="42.16527840862112" lon="-8.38634909050663"><ele>459.0</ele><time>2026-04-04T20:26:40Z</time></trkpt><trkpt lat="42.16536696603239" lon="-8.386114924419806"><ele>463.0</ele><time>2026-04-04T20:26:41Z</time></trkpt><trkpt lat="42.165455711993026" lon="-8.385885305637412"><ele>467.0</ele><time>2026-04-04T20:26:42Z</time></trkpt><trkpt lat="42.16555584545481" lon="-8.385653999215036"><ele>467.3333333333333</ele><time>2026-04-04T20:26:43Z</time></trkpt><trkpt lat="42.16565334440566" lon="-8.385430504450966"><ele>467.66666666666663</ele><time>2026-04-04T20:26:44Z</time></trkpt><trkpt lat="42.165762216076054" lon="-8.38521568049456"><ele>468.0</ele><time>2026-04-04T20:26:45Z</time></trkpt><trkpt lat="42.165876958250855" lon="-8.384999098536024"><ele>468.0</ele><time>2026-04-04T20:26:46Z</time></trkpt><trkpt lat="42.16599804537753" lon="-8.384790965103075"><ele>468.0</ele><time>2026-04-04T20:26:47Z</time></trkpt><trkpt lat="42.16611479166612" lon="-8.384596572474056"><ele>468.0</ele><time>2026-04-04T20:26:48Z</time></trkpt><trkpt lat="42.166241276697015" lon="-8.384394968228552"><ele>472.66666666666663</ele><time>2026-04-04T20:26:49Z</time></trkpt><trkpt lat="42.166366186843554" lon="-8.384201314861604"><ele>477.3333333333333</ele><time>2026-04-04T20:26:50Z</time></trkpt><trkpt lat="42.166496113812485" lon="-8.384002778993356"><ele>482.0</ele><time>2026-04-04T20:26:51Z</time></trkpt><trkpt lat="42.16662679548897" lon="-8.383806785643841"><ele>482.0</ele><time>2026-04-04T20:26:52Z</time></trkpt><trkpt lat="42.166756262538534" lon="-8.383611237036067"><ele>482.0</ele><time>2026-04-04T20:26:53Z</time></trkpt><trkpt lat="42.1668870856485" lon="-8.383421052266991"><ele>482.0</ele><time>2026-04-04T20:26:54Z</time></trkpt><trkpt lat="42.16702635425829" lon="-8.383215892305655"><ele>482.0</ele><time>2026-04-04T20:26:55Z</time></trkpt><trkpt lat="42.1671506846604" lon="-8.383020255470814"><ele>482.0</ele><time>2026-04-04T20:26:56Z</time></trkpt><trkpt lat="42.16726890916397" lon="-8.382828749564727"><ele>482.0</ele><time>2026-04-04T20:26:57Z</time></trkpt><trkpt lat="42.167424636066784" lon="-8.382622919778418"><ele>481.3333333333333</ele><time>2026-04-04T20:26:58Z</time></trkpt><trkpt lat="42.16753101542588" lon="-8.382435437264498"><ele>480.66666666666663</ele><time>2026-04-04T20:26:59Z</time></trkpt><trkpt lat="42.16765951879481" lon="-8.382241435311718"><ele>480.0</ele><time>2026-04-04T20:27:00Z</time></trkpt><trkpt lat="42.16778328073042" lon="-8.382052237797819"><ele>487.66666666666663</ele><time>2026-04-04T20:27:01Z</time></trkpt><trkpt lat="42.16791210957229" lon="-8.381861051673416"><ele>495.3333333333333</ele><time>2026-04-04T20:27:02Z</time></trkpt><trkpt lat="42.16803676002956" lon="-8.381676950227474"><ele>503.0</ele><time>2026-04-04T20:27:03Z</time></trkpt><trkpt lat="42.1681636421658" lon="-8.381487708482744"><ele>501.66666666666663</ele><time>2026-04-04T20:27:04Z</time></trkpt><trkpt lat="42.16828727856918" lon="-8.381299225114047"><ele>500.33333333333337</ele><time>2026-04-04T20:27:05Z</time></trkpt><trkpt lat="42.1684114921333" lon="-8.381103045955085"><ele>499.0</ele><time>2026-04-04T20:27:06Z</time></trkpt><trkpt lat="42.16853588026733" lon="-8.380916948936873"><ele>499.0</ele><time>2026-04-04T20:27:07Z</time></trkpt><trkpt lat="42.16865853622274" lon="-8.380733844700853"><ele>499.0</ele><time>2026-04-04T20:27:08Z</time></trkpt><trkpt lat="42.168786984716206" lon="-8.380551738012501"><ele>499.0</ele><time>2026-04-04T20:27:09Z</time></trkpt><trkpt lat="42.168915179415826" lon="-8.380363100662112"><ele>497.0</ele><time>2026-04-04T20:27:10Z</time></trkpt><trkpt lat="42.16903897125657" lon="-8.380178132911052"><ele>495.0</ele><time>2026-04-04T20:27:11Z</time></trkpt><trkpt lat="42.169163204549605" lon="-8.379993969427563"><ele>493.0</ele><time>2026-04-04T20:27:12Z</time></trkpt><trkpt lat="42.16928641279443" lon="-8.379811778521754"><ele>499.0</ele><time>2026-04-04T20:27:13Z</time></trkpt><trkpt lat="42.16940780355297" lon="-8.379627084462347"><ele>505.0</ele><time>2026-04-04T20:27:14Z</time></trkpt><trkpt lat="42.16952605902344" lon="-8.379436937897013"><ele>511.0</ele><time>2026-04-04T20:27:15Z</time></trkpt><trkpt lat="42.169639148459154" lon="-8.379261936511199"><ele>511.0</ele><time>2026-04-04T20:27:16Z</time></trkpt><trkpt lat="42.1697537060037" lon="-8.379085661913814"><ele>511.0</ele><time>2026-04-04T20:27:16.999Z</time></trkpt><trkpt lat="42.16986937339704" lon="-8.37890129806112"><ele>511.0</ele><time>2026-04-04T20:27:17.999Z</time></trkpt><trkpt lat="42.16998076796886" lon="-8.378719833381908"><ele>507.33333333333337</ele><time>2026-04-04T20:27:18.999Z</time></trkpt><trkpt lat="42.17009402557727" lon="-8.378538440139181"><ele>503.66666666666663</ele><time>2026-04-04T20:27:19.999Z</time></trkpt><trkpt lat="42.17020660468242" lon="-8.378348376604325"><ele>500.0</ele><time>2026-04-04T20:27:20.999Z</time></trkpt><trkpt lat="42.170324287247006" lon="-8.378165900731615"><ele>504.0</ele><time>2026-04-04T20:27:21.999Z</time></trkpt><trkpt lat="42.17043627941311" lon="-8.377974159489375"><ele>508.0</ele><time>2026-04-04T20:27:22.999Z</time></trkpt><trkpt lat="42.170544617149375" lon="-8.377780857735583"><ele>512.0</ele><time>2026-04-04T20:27:23.999Z</time></trkpt><trkpt lat="42.17065692277222" lon="-8.377586803901503"><ele>507.66666666666663</ele><time>2026-04-04T20:27:24.999Z</time></trkpt><trkpt lat="42.17076618115739" lon="-8.377392261642552"><ele>503.33333333333337</ele><time>2026-04-04T20:27:25.999Z</time></trkpt><trkpt lat="42.17088035518341" lon="-8.377201731547217"><ele>499.0</ele><time>2026-04-04T20:27:26.999Z</time></trkpt><trkpt lat="42.17099051290053" lon="-8.377005034013354"><ele>499.0</ele><time>2026-04-04T20:27:27.999Z</time></trkpt><trkpt lat="42.17110202514323" lon="-8.376805981493701"><ele>499.0</ele><time>2026-04-04T20:27:28.999Z</time></trkpt><trkpt lat="42.17121329803956" lon="-8.376610691013259"><ele>499.0</ele><time>2026-04-04T20:27:29.999Z</time></trkpt><trkpt lat="42.17132774713952" lon="-8.376421644800867"><ele>500.6666666666667</ele><time>2026-04-04T20:27:30.999Z</time></trkpt><trkpt lat="42.17144177258305" lon="-8.37623796842659"><ele>502.33333333333337</ele><time>2026-04-04T20:27:31.999Z</time></trkpt><trkpt lat="42.17155867420034" lon="-8.376029862602262"><ele>504.0</ele><time>2026-04-04T20:27:32.999Z</time></trkpt><trkpt lat="42.17166622750666" lon="-8.37583472202012"><ele>505.0</ele><time>2026-04-04T20:27:33.999Z</time></trkpt><trkpt lat="42.17178192853487" lon="-8.375632113976963"><ele>506.0</ele><time>2026-04-04T20:27:34.999Z</time></trkpt><trkpt lat="42.171891914164924" lon="-8.375436930787433"><ele>507.0</ele><time>2026-04-04T20:27:35.999Z</time></trkpt><trkpt lat="42.171999281247786" lon="-8.375245931185711"><ele>511.33333333333337</ele><time>2026-04-04T20:27:36.999Z</time></trkpt><trkpt lat="42.1721180513177" lon="-8.375039389825771"><ele>515.6666666666667</ele><time>2026-04-04T20:27:37.999Z</time></trkpt><trkpt lat="42.172231466207734" lon="-8.374835590466107"><ele>520.0</ele><time>2026-04-04T20:27:38.999Z</time></trkpt><trkpt lat="42.17234610161863" lon="-8.374645183728068"><ele>521.3333333333334</ele><time>2026-04-04T20:27:39.999Z</time></trkpt><trkpt lat="42.17246336001806" lon="-8.374444174251414"><ele>522.6666666666666</ele><time>2026-04-04T20:27:40.999Z</time></trkpt><trkpt lat="42.17256890847552" lon="-8.374244560300887"><ele>524.0</ele><time>2026-04-04T20:27:41.999Z</time></trkpt><trkpt lat="42.172676128528785" lon="-8.374042567785953"><ele>530.0</ele><time>2026-04-04T20:27:42.999Z</time></trkpt><trkpt lat="42.172777506421895" lon="-8.37383284989008"><ele>536.0</ele><time>2026-04-04T20:27:43.999Z</time></trkpt><trkpt lat="42.17287931755932" lon="-8.3736228093465"><ele>542.0</ele><time>2026-04-04T20:27:44.999Z</time></trkpt><trkpt lat="42.17298028972055" lon="-8.373412028828906"><ele>542.0</ele><time>2026-04-04T20:27:45.999Z</time></trkpt><trkpt lat="42.173080914585" lon="-8.37319690613593"><ele>542.0</ele><time>2026-04-04T20:27:46.999Z</time></trkpt><trkpt lat="42.1731766542767" lon="-8.372987748644167"><ele>542.0</ele><time>2026-04-04T20:27:47.999Z</time></trkpt><trkpt lat="42.17327006981961" lon="-8.372772592631959"><ele>541.6666666666666</ele><time>2026-04-04T20:27:48.999Z</time></trkpt><trkpt lat="42.17336334789305" lon="-8.37255612709249"><ele>541.3333333333334</ele><time>2026-04-04T20:27:49.999Z</time></trkpt><trkpt lat="42.17345424536132" lon="-8.372338804521037"><ele>541.0</ele><time>2026-04-04T20:27:50.999Z</time></trkpt><trkpt lat="42.173544033164674" lon="-8.372119754103663"><ele>541.0</ele><time>2026-04-04T20:27:51.999Z</time></trkpt><trkpt lat="42.17363025830809" lon="-8.371900712401192"><ele>541.0</ele><time>2026-04-04T20:27:52.999Z</time></trkpt><trkpt lat="42.1737097104555" lon="-8.371673789897068"><ele>541.0</ele><time>2026-04-04T20:27:53.999Z</time></trkpt><trkpt lat="42.17378754528381" lon="-8.371446199065518"><ele>542.6666666666667</ele><time>2026-04-04T20:27:54.999Z</time></trkpt><trkpt lat="42.17386529594936" lon="-8.371216654448519"><ele>544.3333333333334</ele><time>2026-04-04T20:27:55.999Z</time></trkpt><trkpt lat="42.173945015069236" lon="-8.370987994108155"><ele>546.0</ele><time>2026-04-04T20:27:56.999Z</time></trkpt><trkpt lat="42.17402429178638" lon="-8.370757171773032"><ele>544.3333333333334</ele><time>2026-04-04T20:27:57.999Z</time></trkpt><trkpt lat="42.174106276854786" lon="-8.370527061783676"><ele>542.6666666666667</ele><time>2026-04-04T20:27:58.999Z</time></trkpt><trkpt lat="42.174176452362296" lon="-8.370294299271078"><ele>541.0</ele><time>2026-04-04T20:27:59.999Z</time></trkpt><trkpt lat="42.174246467628905" lon="-8.370054977047918"><ele>541.0</ele><time>2026-04-04T20:28:00.999Z</time></trkpt><trkpt lat="42.174311850987586" lon="-8.36980533849414"><ele>541.0</ele><time>2026-04-04T20:28:01.999Z</time></trkpt><trkpt lat="42.17436728436511" lon="-8.369555476792392"><ele>541.0</ele><time>2026-04-04T20:28:02.999Z</time></trkpt><trkpt lat="42.17442535470468" lon="-8.369333075736705"><ele>547.0</ele><time>2026-04-04T20:28:03.999Z</time></trkpt><trkpt lat="42.17447555382403" lon="-8.369109133313568"><ele>553.0</ele><time>2026-04-04T20:28:04.999Z</time></trkpt><trkpt lat="42.17451973017544" lon="-8.368877863107242"><ele>559.0</ele><time>2026-04-04T20:28:05.999Z</time></trkpt><trkpt lat="42.17461211214607" lon="-8.368423528528787"><ele>569.0</ele><time>2026-04-04T20:28:07.999Z</time></trkpt><trkpt lat="42.17465969153261" lon="-8.368197456744843"><ele>579.0</ele><time>2026-04-04T20:28:09.016Z</time></trkpt><trkpt lat="42.174705102291696" lon="-8.36797440905807"><ele>589.0</ele><time>2026-04-04T20:28:10.017Z</time></trkpt><trkpt lat="42.174754355534894" lon="-8.367746416802019"><ele>600.3333333333334</ele><time>2026-04-04T20:28:11.019Z</time></trkpt><trkpt lat="42.17479704249762" lon="-8.36752657152946"><ele>611.6666666666666</ele><time>2026-04-04T20:28:12.017Z</time></trkpt><trkpt lat="42.17484228579769" lon="-8.367305829349062"><ele>623.0</ele><time>2026-04-04T20:28:13.016Z</time></trkpt><trkpt lat="42.17488605279959" lon="-8.367086772042969"><ele>688.0</ele><time>2026-04-04T20:28:14.017Z</time></trkpt><trkpt lat="42.17528799293134" lon="-8.364422259441977"><ele>572.0</ele><time>2026-04-04T20:28:17.434Z</time></trkpt><trkpt lat="42.17963974461162" lon="-8.337696511306183"><ele>572.0</ele><time>2026-04-04T20:29:56.998Z</time></trkpt><trkpt lat="42.179718961114375" lon="-8.337375215818158"><ele>572.0</ele><time>2026-04-04T20:29:57.998Z</time></trkpt><trkpt lat="42.17978148798582" lon="-8.337065846266082"><ele>569.0</ele><time>2026-04-04T20:29:58.998Z</time></trkpt><trkpt lat="42.179839541083325" lon="-8.336753585855654"><ele>566.0</ele><time>2026-04-04T20:29:59.998Z</time></trkpt><trkpt lat="42.179898329493255" lon="-8.33644149202838"><ele>560.0</ele><time>2026-04-04T20:30:00.998Z</time></trkpt><trkpt lat="42.179960633113595" lon="-8.336132217287252"><ele>554.0</ele><time>2026-04-04T20:30:01.998Z</time></trkpt><trkpt lat="42.18002051181969" lon="-8.335819458302108"><ele>552.0</ele><time>2026-04-04T20:30:03Z</time></trkpt><trkpt lat="42.18007797668216" lon="-8.335508086045644"><ele>550.0</ele><time>2026-04-04T20:30:04.001Z</time></trkpt><trkpt lat="42.180139975617834" lon="-8.335194696563262"><ele>550.0</ele><time>2026-04-04T20:30:05Z</time></trkpt><trkpt lat="42.18020318724588" lon="-8.334874983419448"><ele>550.0</ele><time>2026-04-04T20:30:06Z</time></trkpt><trkpt lat="42.180267292658236" lon="-8.33456238872102"><ele>544.5</ele><time>2026-04-04T20:30:07Z</time></trkpt><trkpt lat="42.18032785062319" lon="-8.334244756476407"><ele>539.0</ele><time>2026-04-04T20:30:08Z</time></trkpt><trkpt lat="42.180387173916095" lon="-8.333931463183555"><ele>535.5</ele><time>2026-04-04T20:30:09Z</time></trkpt><trkpt lat="42.180448649044266" lon="-8.333618252748362"><ele>532.0</ele><time>2026-04-04T20:30:10Z</time></trkpt><trkpt lat="42.18050627997209" lon="-8.333304372778272"><ele>525.5</ele><time>2026-04-04T20:30:11Z</time></trkpt><trkpt lat="42.18056652915157" lon="-8.33299938322464"><ele>519.0</ele><time>2026-04-04T20:30:12Z</time></trkpt><trkpt lat="42.18062750247085" lon="-8.332688900884564"><ele>535.5</ele><time>2026-04-04T20:30:13Z</time></trkpt><trkpt lat="42.18069045691479" lon="-8.33238515573014"><ele>552.0</ele><time>2026-04-04T20:30:14Z</time></trkpt><trkpt lat="42.180751902306795" lon="-8.332074087780866"><ele>552.0</ele><time>2026-04-04T20:30:15Z</time></trkpt><trkpt lat="42.18080789221509" lon="-8.331764791738037"><ele>552.0</ele><time>2026-04-04T20:30:16Z</time></trkpt><trkpt lat="42.180863752455195" lon="-8.33145413829183"><ele>548.5</ele><time>2026-04-04T20:30:17Z</time></trkpt><trkpt lat="42.18092360654233" lon="-8.331151333721351"><ele>545.0</ele><time>2026-04-04T20:30:18Z</time></trkpt><trkpt lat="42.18098420624071" lon="-8.330844817335679"><ele>541.5</ele><time>2026-04-04T20:30:19Z</time></trkpt><trkpt lat="42.181045735824604" lon="-8.330540277643175"><ele>538.0</ele><time>2026-04-04T20:30:20Z</time></trkpt><trkpt lat="42.18111064799249" lon="-8.330239479730176"><ele>538.0</ele><time>2026-04-04T20:30:21Z</time></trkpt><trkpt lat="42.181182561319496" lon="-8.329938585314679"><ele>538.0</ele><time>2026-04-04T20:30:22Z</time></trkpt><trkpt lat="42.181267219313966" lon="-8.329633378439073"><ele>535.5</ele><time>2026-04-04T20:30:23Z</time></trkpt><trkpt lat="42.181348233798744" lon="-8.329346712137767"><ele>533.0</ele><time>2026-04-04T20:30:24Z</time></trkpt><trkpt lat="42.18144448496249" lon="-8.32905252681994"><ele>549.0</ele><time>2026-04-04T20:30:25Z</time></trkpt><trkpt lat="42.18154121595553" lon="-8.328765770318777"><ele>565.0</ele><time>2026-04-04T20:30:26Z</time></trkpt><trkpt lat="42.18164664063213" lon="-8.328482649185812"><ele>565.0</ele><time>2026-04-04T20:30:27Z</time></trkpt><trkpt lat="42.18176045517457" lon="-8.328202932095683"><ele>565.0</ele><time>2026-04-04T20:30:28Z</time></trkpt><trkpt lat="42.181879393981355" lon="-8.327926630199604"><ele>562.5</ele><time>2026-04-04T20:30:29Z</time></trkpt><trkpt lat="42.182005219375775" lon="-8.327651730988942"><ele>560.0</ele><time>2026-04-04T20:30:30Z</time></trkpt><trkpt lat="42.182128971980774" lon="-8.327382236535907"><ele>561.5</ele><time>2026-04-04T20:30:31Z</time></trkpt><trkpt lat="42.182266860413165" lon="-8.32711897934135"><ele>563.0</ele><time>2026-04-04T20:30:32Z</time></trkpt><trkpt lat="42.18241336683568" lon="-8.32685998699669"><ele>563.0</ele><time>2026-04-04T20:30:33Z</time></trkpt><trkpt lat="42.18255938744242" lon="-8.326607242385212"><ele>563.0</ele><time>2026-04-04T20:30:34Z</time></trkpt><trkpt lat="42.18271076227004" lon="-8.326359155916537"><ele>552.5</ele><time>2026-04-04T20:30:35Z</time></trkpt><trkpt lat="42.18285931512075" lon="-8.326115670310351"><ele>542.0</ele><time>2026-04-04T20:30:36Z</time></trkpt><trkpt lat="42.183008963835135" lon="-8.325867671410291"><ele>542.0</ele><time>2026-04-04T20:30:37Z</time></trkpt><trkpt lat="42.18315917836745" lon="-8.325627159031667"><ele>542.0</ele><time>2026-04-04T20:30:38Z</time></trkpt><trkpt lat="42.18331547311437" lon="-8.325384408578437"><ele>525.0</ele><time>2026-04-04T20:30:39Z</time></trkpt><trkpt lat="42.18346476011782" lon="-8.325142346930203"><ele>508.0</ele><time>2026-04-04T20:30:40Z</time></trkpt><trkpt lat="42.183621217200674" lon="-8.324901167627276"><ele>494.5</ele><time>2026-04-04T20:30:41Z</time></trkpt><trkpt lat="42.18377922208024" lon="-8.324659780605081"><ele>481.0</ele><time>2026-04-04T20:30:42Z</time></trkpt><trkpt lat="42.18392735350572" lon="-8.324414750686982"><ele>486.0</ele><time>2026-04-04T20:30:43Z</time></trkpt><trkpt lat="42.184078148372144" lon="-8.324167862081625"><ele>491.0</ele><time>2026-04-04T20:30:44Z</time></trkpt><trkpt lat="42.18424154614177" lon="-8.323930005771372"><ele>502.5</ele><time>2026-04-04T20:30:45Z</time></trkpt><trkpt lat="42.18439064129139" lon="-8.323680072594076"><ele>514.0</ele><time>2026-04-04T20:30:46Z</time></trkpt><trkpt lat="42.184552125622474" lon="-8.323435645360927"><ele>514.0</ele><time>2026-04-04T20:30:47Z</time></trkpt><trkpt lat="42.18470677017459" lon="-8.323189701404665"><ele>514.0</ele><time>2026-04-04T20:30:48Z</time></trkpt><trkpt lat="42.18486364805927" lon="-8.32294079948078"><ele>530.5</ele><time>2026-04-04T20:30:49Z</time></trkpt><trkpt lat="42.18501673224378" lon="-8.322691391814368"><ele>547.0</ele><time>2026-04-04T20:30:50Z</time></trkpt><trkpt lat="42.185170682553625" lon="-8.322439877311728"><ele>547.5</ele><time>2026-04-04T20:30:51Z</time></trkpt><trkpt lat="42.18532496892409" lon="-8.322189593077598"><ele>548.0</ele><time>2026-04-04T20:30:52Z</time></trkpt><trkpt lat="42.185473305303084" lon="-8.321934936002037"><ele>548.0</ele><time>2026-04-04T20:30:53Z</time></trkpt><trkpt lat="42.185611476611065" lon="-8.321672395883807"><ele>548.0</ele><time>2026-04-04T20:30:54Z</time></trkpt><trkpt lat="42.18572782526906" lon="-8.321394777857607"><ele>554.5</ele><time>2026-04-04T20:30:55Z</time></trkpt><trkpt lat="42.18583662354746" lon="-8.321113015778721"><ele>561.0</ele><time>2026-04-04T20:30:56Z</time></trkpt><trkpt lat="42.1859448040356" lon="-8.320824645173625"><ele>567.0</ele><time>2026-04-04T20:30:57Z</time></trkpt><trkpt lat="42.186036107361474" lon="-8.320531341337913"><ele>573.0</ele><time>2026-04-04T20:30:58Z</time></trkpt><trkpt lat="42.186113530628106" lon="-8.320237875867033"><ele>573.0</ele><time>2026-04-04T20:30:59Z</time></trkpt><trkpt lat="42.18618583607792" lon="-8.319938030544966"><ele>573.0</ele><time>2026-04-04T20:31:00Z</time></trkpt><trkpt lat="42.18624975572693" lon="-8.31963547842936"><ele>581.5</ele><time>2026-04-04T20:31:01Z</time></trkpt><trkpt lat="42.186306114817384" lon="-8.319331484435068"><ele>590.0</ele><time>2026-04-04T20:31:02Z</time></trkpt><trkpt lat="42.18635483500372" lon="-8.319019400278307"><ele>587.5</ele><time>2026-04-04T20:31:03Z</time></trkpt><trkpt lat="42.18638734441261" lon="-8.318709960608365"><ele>585.0</ele><time>2026-04-04T20:31:04Z</time></trkpt><trkpt lat="42.18640960591386" lon="-8.318396672936375"><ele>585.0</ele><time>2026-04-04T20:31:05Z</time></trkpt><trkpt lat="42.18641667762486" lon="-8.318081704629014"><ele>585.0</ele><time>2026-04-04T20:31:06Z</time></trkpt><trkpt lat="42.186422543517345" lon="-8.317769307861447"><ele>578.0</ele><time>2026-04-04T20:31:07Z</time></trkpt><trkpt lat="42.18641718497466" lon="-8.317450995758081"><ele>571.0</ele><time>2026-04-04T20:31:08Z</time></trkpt><trkpt lat="42.186402044459506" lon="-8.317141619594356"><ele>564.0</ele><time>2026-04-04T20:31:09Z</time></trkpt><trkpt lat="42.186380114894845" lon="-8.316828382919917"><ele>557.0</ele><time>2026-04-04T20:31:10Z</time></trkpt><trkpt lat="42.18635144826879" lon="-8.316525354343092"><ele>556.5</ele><time>2026-04-04T20:31:11Z</time></trkpt><trkpt lat="42.1863270413542" lon="-8.316217207217825"><ele>556.0</ele><time>2026-04-04T20:31:12Z</time></trkpt><trkpt lat="42.18630938093756" lon="-8.315911694262974"><ele>556.0</ele><time>2026-04-04T20:31:13Z</time></trkpt><trkpt lat="42.1863032289142" lon="-8.31560739874559"><ele>556.0</ele><time>2026-04-04T20:31:13.999Z</time></trkpt><trkpt lat="42.18630640855805" lon="-8.315294142721218"><ele>555.6666666666667</ele><time>2026-04-04T20:31:14.999Z</time></trkpt><trkpt lat="42.18631303613119" lon="-8.315010713615868"><ele>555.3333333333334</ele><time>2026-04-04T20:31:15.999Z</time></trkpt><trkpt lat="42.186328119553266" lon="-8.314733116733558"><ele>555.0</ele><time>2026-04-04T20:31:16.999Z</time></trkpt><trkpt lat="42.186344318366764" lon="-8.314451993049389"><ele>555.0</ele><time>2026-04-04T20:31:17.999Z</time></trkpt><trkpt lat="42.18637818791458" lon="-8.314157534186872"><ele>555.0</ele><time>2026-04-04T20:31:18.999Z</time></trkpt><trkpt lat="42.18642187398014" lon="-8.313871673659118"><ele>555.0</ele><time>2026-04-04T20:31:19.999Z</time></trkpt><trkpt lat="42.18647180938541" lon="-8.313578983129341"><ele>559.3333333333334</ele><time>2026-04-04T20:31:20.999Z</time></trkpt><trkpt lat="42.186530211849686" lon="-8.313293343754534"><ele>563.6666666666667</ele><time>2026-04-04T20:31:21.999Z</time></trkpt><trkpt lat="42.18659463120921" lon="-8.313003090350417"><ele>568.0</ele><time>2026-04-04T20:31:22.999Z</time></trkpt><trkpt lat="42.18666803831279" lon="-8.312723222751059"><ele>568.0</ele><time>2026-04-04T20:31:23.999Z</time></trkpt><trkpt lat="42.1867557200445" lon="-8.312428684802898"><ele>568.0</ele><time>2026-04-04T20:31:24.999Z</time></trkpt><trkpt lat="42.18685248631676" lon="-8.312155859079345"><ele>568.0</ele><time>2026-04-04T20:31:25.999Z</time></trkpt><trkpt lat="42.186956784364796" lon="-8.311882183865457"><ele>568.0</ele><time>2026-04-04T20:31:26.999Z</time></trkpt><trkpt lat="42.1870712277435" lon="-8.31161184833937"><ele>566.5</ele><time>2026-04-04T20:31:27.999Z</time></trkpt><trkpt lat="42.187192417498885" lon="-8.311354528961182"><ele>565.0</ele><time>2026-04-04T20:31:28.999Z</time></trkpt><trkpt lat="42.18732648458698" lon="-8.311087425397796"><ele>567.0</ele><time>2026-04-04T20:31:29.999Z</time></trkpt><trkpt lat="42.18746042998539" lon="-8.310832835231121"><ele>569.0</ele><time>2026-04-04T20:31:30.999Z</time></trkpt><trkpt lat="42.18760105297943" lon="-8.310581940313819"><ele>564.5</ele><time>2026-04-04T20:31:31.999Z</time></trkpt><trkpt lat="42.18775148186798" lon="-8.310341188290977"><ele>560.0</ele><time>2026-04-04T20:31:32.999Z</time></trkpt><trkpt lat="42.18792076558649" lon="-8.310114579428138"><ele>560.0</ele><time>2026-04-04T20:31:33.999Z</time></trkpt><trkpt lat="42.18809216743274" lon="-8.309903404747386"><ele>560.0</ele><time>2026-04-04T20:31:34.999Z</time></trkpt><trkpt lat="42.188264893193626" lon="-8.309707043737527"><ele>558.5</ele><time>2026-04-04T20:31:35.999Z</time></trkpt><trkpt lat="42.18844314079468" lon="-8.309521207830384"><ele>557.0</ele><time>2026-04-04T20:31:36.999Z</time></trkpt><trkpt lat="42.188626827728875" lon="-8.309337416351228"><ele>557.0</ele><time>2026-04-04T20:31:37.999Z</time></trkpt><trkpt lat="42.18881434624925" lon="-8.309160265926163"><ele>557.0</ele><time>2026-04-04T20:31:38.999Z</time></trkpt><trkpt lat="42.18901731116311" lon="-8.308994771181219"><ele>551.5</ele><time>2026-04-04T20:31:39.999Z</time></trkpt><trkpt lat="42.18922884653014" lon="-8.308843835947656"><ele>546.0</ele><time>2026-04-04T20:31:40.999Z</time></trkpt><trkpt lat="42.189448391790776" lon="-8.308703408633328"><ele>546.0</ele><time>2026-04-04T20:31:41.999Z</time></trkpt><trkpt lat="42.18967117622736" lon="-8.308568812511208"><ele>546.0</ele><time>2026-04-04T20:31:42.999Z</time></trkpt><trkpt lat="42.18989687261522" lon="-8.308444641533224"><ele>551.5</ele><time>2026-04-04T20:31:43.999Z</time></trkpt><trkpt lat="42.19013646143299" lon="-8.30833483256053"><ele>557.0</ele><time>2026-04-04T20:31:44.999Z</time></trkpt><trkpt lat="42.19037537768962" lon="-8.308245903658726"><ele>557.0</ele><time>2026-04-04T20:31:45.999Z</time></trkpt><trkpt lat="42.19061911916864" lon="-8.30816397301144"><ele>557.0</ele><time>2026-04-04T20:31:46.999Z</time></trkpt><trkpt lat="42.19086646417964" lon="-8.308103652278845"><ele>554.5</ele><time>2026-04-04T20:31:47.999Z</time></trkpt><trkpt lat="42.191118767274766" lon="-8.308055342398147"><ele>552.0</ele><time>2026-04-04T20:31:48.999Z</time></trkpt><trkpt lat="42.19136613871992" lon="-8.308017852203054"><ele>547.5</ele><time>2026-04-04T20:31:49.999Z</time></trkpt><trkpt lat="42.19164168487459" lon="-8.307999369655317"><ele>543.0</ele><time>2026-04-04T20:31:50.999Z</time></trkpt><trkpt lat="42.191875399146525" lon="-8.30798575025649"><ele>543.0</ele><time>2026-04-04T20:31:51.999Z</time></trkpt><trkpt lat="42.19211704807789" lon="-8.307986389215566"><ele>543.0</ele><time>2026-04-04T20:31:52.999Z</time></trkpt><trkpt lat="42.192359471057" lon="-8.307983974052108"><ele>538.5</ele><time>2026-04-04T20:31:53.999Z</time></trkpt><trkpt lat="42.192600703288626" lon="-8.307980493758707"><ele>534.0</ele><time>2026-04-04T20:31:54.999Z</time></trkpt><trkpt lat="42.19283866065796" lon="-8.307969180158226"><ele>534.0</ele><time>2026-04-04T20:31:55.999Z</time></trkpt><trkpt lat="42.19307986300488" lon="-8.30793621332696"><ele>534.0</ele><time>2026-04-04T20:31:56.999Z</time></trkpt><trkpt lat="42.19331473990696" lon="-8.307891843156304"><ele>532.0</ele><time>2026-04-04T20:31:57.999Z</time></trkpt><trkpt lat="42.19354862370332" lon="-8.3078256776285"><ele>530.0</ele><time>2026-04-04T20:31:58.999Z</time></trkpt><trkpt lat="42.193774413919456" lon="-8.307747450744717"><ele>530.0</ele><time>2026-04-04T20:31:59.999Z</time></trkpt><trkpt lat="42.19400221815949" lon="-8.307655484191194"><ele>530.0</ele><time>2026-04-04T20:32:00.999Z</time></trkpt><trkpt lat="42.19422697102543" lon="-8.307549514311535"><ele>530.0</ele><time>2026-04-04T20:32:01.999Z</time></trkpt><trkpt lat="42.19444640371464" lon="-8.307431430253835"><ele>530.0</ele><time>2026-04-04T20:32:02.999Z</time></trkpt><trkpt lat="42.194667487480984" lon="-8.3072857033533"><ele>522.5</ele><time>2026-04-04T20:32:03.999Z</time></trkpt><trkpt lat="42.19487547944181" lon="-8.307139418609257"><ele>515.0</ele><time>2026-04-04T20:32:04.999Z</time></trkpt><trkpt lat="42.19508088071977" lon="-8.306978169989176"><ele>515.0</ele><time>2026-04-04T20:32:05.999Z</time></trkpt><trkpt lat="42.195276682413436" lon="-8.306796575060321"><ele>515.0</ele><time>2026-04-04T20:32:06.999Z</time></trkpt><trkpt lat="42.19546502590173" lon="-8.306605895537732"><ele>510.5</ele><time>2026-04-04T20:32:07.999Z</time></trkpt><trkpt lat="42.195646724659326" lon="-8.306400561351696"><ele>506.0</ele><time>2026-04-04T20:32:09Z</time></trkpt><trkpt lat="42.195825773751345" lon="-8.30618800472392"><ele>506.0</ele><time>2026-04-04T20:32:10Z</time></trkpt><trkpt lat="42.19599823876628" lon="-8.305961953454554"><ele>506.0</ele><time>2026-04-04T20:32:11Z</time></trkpt><trkpt lat="42.196159469071105" lon="-8.305722574690284"><ele>504.5</ele><time>2026-04-04T20:32:12Z</time></trkpt><trkpt lat="42.196318260759874" lon="-8.305470131358758"><ele>503.0</ele><time>2026-04-04T20:32:13Z</time></trkpt><trkpt lat="42.19646076404343" lon="-8.30521203083711"><ele>511.0</ele><time>2026-04-04T20:32:14Z</time></trkpt><trkpt lat="42.19659295500889" lon="-8.304943097802095"><ele>519.0</ele><time>2026-04-04T20:32:15Z</time></trkpt><trkpt lat="42.196709791386475" lon="-8.304660109504464"><ele>523.0</ele><time>2026-04-04T20:32:16Z</time></trkpt><trkpt lat="42.19682393643191" lon="-8.304375069658878"><ele>527.0</ele><time>2026-04-04T20:32:17Z</time></trkpt><trkpt lat="42.19692499983574" lon="-8.304084728193134"><ele>526.0</ele><time>2026-04-04T20:32:18Z</time></trkpt><trkpt lat="42.19703228700363" lon="-8.303777909648083"><ele>525.0</ele><time>2026-04-04T20:32:19Z</time></trkpt><trkpt lat="42.197103606643466" lon="-8.303481936124054"><ele>525.0</ele><time>2026-04-04T20:32:20Z</time></trkpt><trkpt lat="42.19717036845588" lon="-8.303177671650637"><ele>525.0</ele><time>2026-04-04T20:32:21Z</time></trkpt><trkpt lat="42.19723748370459" lon="-8.302870499990844"><ele>524.5</ele><time>2026-04-04T20:32:22Z</time></trkpt><trkpt lat="42.19729678990976" lon="-8.302563081756935"><ele>524.0</ele><time>2026-04-04T20:32:23Z</time></trkpt><trkpt lat="42.19735775676772" lon="-8.302258561257101"><ele>526.5</ele><time>2026-04-04T20:32:24Z</time></trkpt><trkpt lat="42.1974188370587" lon="-8.301951920143683"><ele>529.0</ele><time>2026-04-04T20:32:25Z</time></trkpt><trkpt lat="42.19748205714802" lon="-8.301646880459927"><ele>526.0</ele><time>2026-04-04T20:32:26Z</time></trkpt><trkpt lat="42.197547166978296" lon="-8.301340535543508"><ele>523.0</ele><time>2026-04-04T20:32:27Z</time></trkpt><trkpt lat="42.19761873027603" lon="-8.30103491320035"><ele>523.0</ele><time>2026-04-04T20:32:28Z</time></trkpt><trkpt lat="42.197697246746614" lon="-8.300735656193583"><ele>523.0</ele><time>2026-04-04T20:32:29Z</time></trkpt><trkpt lat="42.1977761963208" lon="-8.300432449189351"><ele>521.0</ele><time>2026-04-04T20:32:30Z</time></trkpt><trkpt lat="42.19785902610798" lon="-8.300131259833423"><ele>519.0</ele><time>2026-04-04T20:32:31Z</time></trkpt><trkpt lat="42.19795842812834" lon="-8.299834515851446"><ele>517.5</ele><time>2026-04-04T20:32:32Z</time></trkpt><trkpt lat="42.198060712293284" lon="-8.299539272338238"><ele>516.0</ele><time>2026-04-04T20:32:33Z</time></trkpt><trkpt lat="42.198167165816585" lon="-8.299249845141075"><ele>516.5</ele><time>2026-04-04T20:32:34Z</time></trkpt><trkpt lat="42.19827348745176" lon="-8.298956630578077"><ele>517.0</ele><time>2026-04-04T20:32:35Z</time></trkpt><trkpt lat="42.19838469273497" lon="-8.298654995834646"><ele>517.0</ele><time>2026-04-04T20:32:36Z</time></trkpt><trkpt lat="42.19849875375265" lon="-8.298370956057852"><ele>517.0</ele><time>2026-04-04T20:32:37Z</time></trkpt><trkpt lat="42.198620397289595" lon="-8.298082727895059"><ele>516.5</ele><time>2026-04-04T20:32:38Z</time></trkpt><trkpt lat="42.19874519159653" lon="-8.297802741293623"><ele>516.0</ele><time>2026-04-04T20:32:39Z</time></trkpt><trkpt lat="42.198876390193846" lon="-8.29752489363571"><ele>517.5</ele><time>2026-04-04T20:32:40Z</time></trkpt><trkpt lat="42.199016141939424" lon="-8.297247161202495"><ele>519.0</ele><time>2026-04-04T20:32:41Z</time></trkpt><trkpt lat="42.19916139320599" lon="-8.296984831134973"><ele>519.0</ele><time>2026-04-04T20:32:42Z</time></trkpt><trkpt lat="42.199311789714805" lon="-8.29671944078214"><ele>519.0</ele><time>2026-04-04T20:32:43Z</time></trkpt><trkpt lat="42.19945737465174" lon="-8.296454899753318"><ele>519.5</ele><time>2026-04-04T20:32:44Z</time></trkpt><trkpt lat="42.19959962258381" lon="-8.29618525361331"><ele>520.0</ele><time>2026-04-04T20:32:45Z</time></trkpt><trkpt lat="42.19974413591537" lon="-8.295895445447782"><ele>519.0</ele><time>2026-04-04T20:32:46Z</time></trkpt><trkpt lat="42.199876506519324" lon="-8.29562324792349"><ele>518.0</ele><time>2026-04-04T20:32:47Z</time></trkpt><trkpt lat="42.200009664043186" lon="-8.295338910093859"><ele>517.0</ele><time>2026-04-04T20:32:48Z</time></trkpt><trkpt lat="42.200135932586505" lon="-8.295046645992738"><ele>516.0</ele><time>2026-04-04T20:32:49Z</time></trkpt><trkpt lat="42.200253574551006" lon="-8.294752736769265"><ele>520.0</ele><time>2026-04-04T20:32:50Z</time></trkpt><trkpt lat="42.2003663066569" lon="-8.29444644871998"><ele>524.0</ele><time>2026-04-04T20:32:51Z</time></trkpt><trkpt lat="42.200469587873506" lon="-8.294137155368146"><ele>522.0</ele><time>2026-04-04T20:32:52Z</time></trkpt><trkpt lat="42.20056174382391" lon="-8.293824607853653"><ele>520.0</ele><time>2026-04-04T20:32:53Z</time></trkpt><trkpt lat="42.200649961719506" lon="-8.293503953948171"><ele>516.0</ele><time>2026-04-04T20:32:54Z</time></trkpt><trkpt lat="42.20073425888102" lon="-8.293183215548696"><ele>512.0</ele><time>2026-04-04T20:32:55Z</time></trkpt><trkpt lat="42.20081086003864" lon="-8.292851996869087"><ele>507.5</ele><time>2026-04-04T20:32:56Z</time></trkpt><trkpt lat="42.20088156230098" lon="-8.292527148695248"><ele>503.0</ele><time>2026-04-04T20:32:57Z</time></trkpt><trkpt lat="42.20094135207529" lon="-8.292196380218346"><ele>501.5</ele><time>2026-04-04T20:32:58Z</time></trkpt><trkpt lat="42.20099372388373" lon="-8.291860687772106"><ele>500.0</ele><time>2026-04-04T20:32:59Z</time></trkpt><trkpt lat="42.20103192991167" lon="-8.29152492741555"><ele>499.0</ele><time>2026-04-04T20:33:00Z</time></trkpt><trkpt lat="42.20106517245507" lon="-8.291191693133701"><ele>498.0</ele><time>2026-04-04T20:33:01Z</time></trkpt><trkpt lat="42.201103673482834" lon="-8.29084393360388"><ele>497.5</ele><time>2026-04-04T20:33:02Z</time></trkpt><trkpt lat="42.20112151078603" lon="-8.290505063264924"><ele>497.0</ele><time>2026-04-04T20:33:03Z</time></trkpt><trkpt lat="42.201135902170506" lon="-8.290160178661717"><ele>497.0</ele><time>2026-04-04T20:33:04Z</time></trkpt><trkpt lat="42.201148046683535" lon="-8.28980741297669"><ele>497.0</ele><time>2026-04-04T20:33:05Z</time></trkpt><trkpt lat="42.20115315177007" lon="-8.289484612606675"><ele>497.5</ele><time>2026-04-04T20:33:06Z</time></trkpt><trkpt lat="42.201138678869135" lon="-8.289136552129087"><ele>498.0</ele><time>2026-04-04T20:33:07Z</time></trkpt><trkpt lat="42.201114525072" lon="-8.288794879549378"><ele>498.5</ele><time>2026-04-04T20:33:08Z</time></trkpt><trkpt lat="42.20108836216387" lon="-8.28844983004285"><ele>499.0</ele><time>2026-04-04T20:33:09Z</time></trkpt><trkpt lat="42.201067044077654" lon="-8.288108424947609"><ele>493.5</ele><time>2026-04-04T20:33:10Z</time></trkpt><trkpt lat="42.20103893418374" lon="-8.28775882944131"><ele>488.0</ele><time>2026-04-04T20:33:11Z</time></trkpt><trkpt lat="42.201010636761055" lon="-8.287412129992015"><ele>477.0</ele><time>2026-04-04T20:33:11.999Z</time></trkpt><trkpt lat="42.20098789617236" lon="-8.287085750910988"><ele>466.0</ele><time>2026-04-04T20:33:12.999Z</time></trkpt><trkpt lat="42.200965626191966" lon="-8.286758167504333"><ele>465.0</ele><time>2026-04-04T20:33:13.999Z</time></trkpt><trkpt lat="42.200943649770274" lon="-8.286422375216496"><ele>464.0</ele><time>2026-04-04T20:33:14.999Z</time></trkpt><trkpt lat="42.20093183070311" lon="-8.28608686307251"><ele>464.0</ele><time>2026-04-04T20:33:15.999Z</time></trkpt><trkpt lat="42.20092701198627" lon="-8.28575138500652"><ele>464.0</ele><time>2026-04-04T20:33:16.999Z</time></trkpt><trkpt lat="42.20093142090669" lon="-8.285412918057956"><ele>472.5</ele><time>2026-04-04T20:33:17.999Z</time></trkpt><trkpt lat="42.200941200406035" lon="-8.28507745543135"><ele>481.0</ele><time>2026-04-04T20:33:18.999Z</time></trkpt><trkpt lat="42.20095833136934" lon="-8.284745901864175"><ele>484.0</ele><time>2026-04-04T20:33:19.999Z</time></trkpt><trkpt lat="42.20098403949689" lon="-8.28441484448486"><ele>487.0</ele><time>2026-04-04T20:33:20.999Z</time></trkpt><trkpt lat="42.201014431372805" lon="-8.284087109823364"><ele>488.5</ele><time>2026-04-04T20:33:21.999Z</time></trkpt><trkpt lat="42.20105778768504" lon="-8.283768541606964"><ele>490.0</ele><time>2026-04-04T20:33:22.999Z</time></trkpt><trkpt lat="42.20110236665877" lon="-8.283450245520369"><ele>490.0</ele><time>2026-04-04T20:33:23.999Z</time></trkpt><trkpt lat="42.20115547813955" lon="-8.28313947156773"><ele>490.0</ele><time>2026-04-04T20:33:24.999Z</time></trkpt><trkpt lat="42.20121137578675" lon="-8.282827649004826"><ele>490.5</ele><time>2026-04-04T20:33:25.999Z</time></trkpt><trkpt lat="42.201271383592704" lon="-8.2825182074985"><ele>491.0</ele><time>2026-04-04T20:33:26.999Z</time></trkpt><trkpt lat="42.20135078394605" lon="-8.282227557628685"><ele>492.0</ele><time>2026-04-04T20:33:27.999Z</time></trkpt><trkpt lat="42.20142121789376" lon="-8.281931334842945"><ele>493.0</ele><time>2026-04-04T20:33:28.999Z</time></trkpt><trkpt lat="42.201490129429885" lon="-8.281635767634803"><ele>493.0</ele><time>2026-04-04T20:33:29.999Z</time></trkpt><trkpt lat="42.201564977568445" lon="-8.281353860991082"><ele>493.0</ele><time>2026-04-04T20:33:30.999Z</time></trkpt><trkpt lat="42.201644079037216" lon="-8.281063919592333"><ele>493.0</ele><time>2026-04-04T20:33:31.999Z</time></trkpt><trkpt lat="42.201724952608075" lon="-8.28077899389553"><ele>493.0</ele><time>2026-04-04T20:33:32.999Z</time></trkpt><trkpt lat="42.201798525107975" lon="-8.28050601388327"><ele>493.0</ele><time>2026-04-04T20:33:33.999Z</time></trkpt><trkpt lat="42.20187041384875" lon="-8.28022408807423"><ele>493.0</ele><time>2026-04-04T20:33:34.999Z</time></trkpt><trkpt lat="42.20194220140458" lon="-8.279943273629039"><ele>493.0</ele><time>2026-04-04T20:33:35.999Z</time></trkpt><trkpt lat="42.202013173153716" lon="-8.279662062180444"><ele>493.0</ele><time>2026-04-04T20:33:36.999Z</time></trkpt><trkpt lat="42.20209051293892" lon="-8.279385548437922"><ele>493.6666666666667</ele><time>2026-04-04T20:33:37.999Z</time></trkpt><trkpt lat="42.202163230828006" lon="-8.279121718322743"><ele>494.33333333333337</ele><time>2026-04-04T20:33:38.999Z</time></trkpt><trkpt lat="42.202240720685005" lon="-8.278844307686029"><ele>495.0</ele><time>2026-04-04T20:33:39.999Z</time></trkpt><trkpt lat="42.202315255304796" lon="-8.278570921542215"><ele>497.33333333333337</ele><time>2026-04-04T20:33:40.999Z</time></trkpt><trkpt lat="42.20237892303727" lon="-8.278293870196867"><ele>499.6666666666667</ele><time>2026-04-04T20:33:41.999Z</time></trkpt><trkpt lat="42.20245840559472" lon="-8.278021302055633"><ele>502.0</ele><time>2026-04-04T20:33:42.999Z</time></trkpt><trkpt lat="42.20253100988133" lon="-8.277752680106897"><ele>504.0</ele><time>2026-04-04T20:33:43.999Z</time></trkpt><trkpt lat="42.20260097522908" lon="-8.27748313470635"><ele>506.0</ele><time>2026-04-04T20:33:44.999Z</time></trkpt><trkpt lat="42.202673778330315" lon="-8.277208370794808"><ele>508.0</ele><time>2026-04-04T20:33:45.999Z</time></trkpt><trkpt lat="42.202745568153865" lon="-8.276938904996047"><ele>510.0</ele><time>2026-04-04T20:33:46.999Z</time></trkpt><trkpt lat="42.202816477109224" lon="-8.276669373811423"><ele>512.0</ele><time>2026-04-04T20:33:47.999Z</time></trkpt><trkpt lat="42.2028911849311" lon="-8.276407832068434"><ele>514.0</ele><time>2026-04-04T20:33:48.999Z</time></trkpt><trkpt lat="42.20296484297174" lon="-8.276145837458651"><ele>515.0</ele><time>2026-04-04T20:33:49.999Z</time></trkpt><trkpt lat="42.20303161649614" lon="-8.275873609479513"><ele>516.0</ele><time>2026-04-04T20:33:50.999Z</time></trkpt><trkpt lat="42.203098755250714" lon="-8.27561066615147"><ele>517.0</ele><time>2026-04-04T20:33:51.999Z</time></trkpt><trkpt lat="42.20316473498269" lon="-8.275346441383817"><ele>518.3333333333334</ele><time>2026-04-04T20:33:52.999Z</time></trkpt><trkpt lat="42.20323851449902" lon="-8.275080254601479"><ele>519.6666666666666</ele><time>2026-04-04T20:33:53.999Z</time></trkpt><trkpt lat="42.20331455902579" lon="-8.274822150614852"><ele>521.0</ele><time>2026-04-04T20:33:54.999Z</time></trkpt><trkpt lat="42.20338824277197" lon="-8.274569063561783"><ele>522.3333333333333</ele><time>2026-04-04T20:33:55.999Z</time></trkpt><trkpt lat="42.20345609644312" lon="-8.274308627754522"><ele>523.6666666666666</ele><time>2026-04-04T20:33:56.999Z</time></trkpt><trkpt lat="42.20352159119768" lon="-8.274042684676148"><ele>525.0</ele><time>2026-04-04T20:33:57.999Z</time></trkpt><trkpt lat="42.20359268841617" lon="-8.273787769043171"><ele>525.6666666666666</ele><time>2026-04-04T20:33:58.999Z</time></trkpt><trkpt lat="42.20366081984433" lon="-8.273522629670548"><ele>526.3333333333333</ele><time>2026-04-04T20:33:59.999Z</time></trkpt><trkpt lat="42.20373382388479" lon="-8.273273215270622"><ele>527.0</ele><time>2026-04-04T20:34:00.999Z</time></trkpt><trkpt lat="42.2037968371042" lon="-8.273013423412639"><ele>528.3333333333333</ele><time>2026-04-04T20:34:01.999Z</time></trkpt><trkpt lat="42.2038633569641" lon="-8.272755648949452"><ele>529.6666666666666</ele><time>2026-04-04T20:34:02.999Z</time></trkpt><trkpt lat="42.203929767626754" lon="-8.272504610751481"><ele>531.0</ele><time>2026-04-04T20:34:03.999Z</time></trkpt><trkpt lat="42.203996310810304" lon="-8.272251173711059"><ele>534.6666666666666</ele><time>2026-04-04T20:34:04.999Z</time></trkpt><trkpt lat="42.20406229011717" lon="-8.27199795577035"><ele>538.3333333333333</ele><time>2026-04-04T20:34:05.999Z</time></trkpt><trkpt lat="42.20412868113437" lon="-8.271748055103739"><ele>542.0</ele><time>2026-04-04T20:34:06.999Z</time></trkpt><trkpt lat="42.20419333392081" lon="-8.271496589817739"><ele>542.6666666666666</ele><time>2026-04-04T20:34:07.999Z</time></trkpt><trkpt lat="42.20426532818219" lon="-8.271241694903477"><ele>543.3333333333334</ele><time>2026-04-04T20:34:08.999Z</time></trkpt><trkpt lat="42.20433372490678" lon="-8.270990605005542"><ele>544.0</ele><time>2026-04-04T20:34:09.999Z</time></trkpt><trkpt lat="42.204401754222374" lon="-8.270744223613974"><ele>545.6666666666667</ele><time>2026-04-04T20:34:10.999Z</time></trkpt><trkpt lat="42.20446617949752" lon="-8.270494546652715"><ele>547.3333333333334</ele><time>2026-04-04T20:34:11.999Z</time></trkpt><trkpt lat="42.20453571447267" lon="-8.270242755794817"><ele>549.0</ele><time>2026-04-04T20:34:12.999Z</time></trkpt><trkpt lat="42.204605141980025" lon="-8.270001447427695"><ele>552.0</ele><time>2026-04-04T20:34:13.999Z</time></trkpt><trkpt lat="42.2046799389645" lon="-8.269744830940333"><ele>555.0</ele><time>2026-04-04T20:34:15Z</time></trkpt><trkpt lat="42.20474746607128" lon="-8.269498434725472"><ele>558.0</ele><time>2026-04-04T20:34:16Z</time></trkpt><trkpt lat="42.20482881797885" lon="-8.269249568723646"><ele>558.3333333333334</ele><time>2026-04-04T20:34:17Z</time></trkpt><trkpt lat="42.204909136733015" lon="-8.269007586446635"><ele>558.6666666666667</ele><time>2026-04-04T20:34:18Z</time></trkpt><trkpt lat="42.20500132404937" lon="-8.26876861157082"><ele>559.0</ele><time>2026-04-04T20:34:19Z</time></trkpt><trkpt lat="42.20510010829389" lon="-8.26853559018106"><ele>559.0</ele><time>2026-04-04T20:34:20Z</time></trkpt><trkpt lat="42.20519253822993" lon="-8.268304392346336"><ele>559.0</ele><time>2026-04-04T20:34:21Z</time></trkpt><trkpt lat="42.20529934100737" lon="-8.26807928256823"><ele>559.0</ele><time>2026-04-04T20:34:22Z</time></trkpt><trkpt lat="42.20541409863308" lon="-8.267858626627111"><ele>560.3333333333334</ele><time>2026-04-04T20:34:23Z</time></trkpt><trkpt lat="42.20553266300484" lon="-8.267640967040087"><ele>561.6666666666666</ele><time>2026-04-04T20:34:24Z</time></trkpt><trkpt lat="42.205659549237495" lon="-8.267432229316054"><ele>563.0</ele><time>2026-04-04T20:34:25Z</time></trkpt><trkpt lat="42.205779177267495" lon="-8.267228905799275"><ele>563.0</ele><time>2026-04-04T20:34:26Z</time></trkpt><trkpt lat="42.20591611775647" lon="-8.267022634110084"><ele>563.0</ele><time>2026-04-04T20:34:27Z</time></trkpt><trkpt lat="42.20606672761729" lon="-8.266836479620423"><ele>563.0</ele><time>2026-04-04T20:34:28Z</time></trkpt><trkpt lat="42.20620831731397" lon="-8.266640061185255"><ele>563.0</ele><time>2026-04-04T20:34:29Z</time></trkpt><trkpt lat="42.20636773914571" lon="-8.266460001448086"><ele>563.0</ele><time>2026-04-04T20:34:30Z</time></trkpt><trkpt lat="42.20652854595954" lon="-8.266285017717967"><ele>563.0</ele><time>2026-04-04T20:34:31Z</time></trkpt><trkpt lat="42.206693272247804" lon="-8.266112375685505"><ele>563.3333333333333</ele><time>2026-04-04T20:34:32Z</time></trkpt><trkpt lat="42.20686771699516" lon="-8.265950019539048"><ele>563.6666666666666</ele><time>2026-04-04T20:34:33Z</time></trkpt><trkpt lat="42.20704771162896" lon="-8.265802384881486"><ele>564.0</ele><time>2026-04-04T20:34:34Z</time></trkpt><trkpt lat="42.20723997446211" lon="-8.265659996094117"><ele>564.0</ele><time>2026-04-04T20:34:35Z</time></trkpt><trkpt lat="42.20742938304236" lon="-8.265527362876433"><ele>564.0</ele><time>2026-04-04T20:34:36Z</time></trkpt><trkpt lat="42.20762472982595" lon="-8.26540218555195"><ele>564.0</ele><time>2026-04-04T20:34:37Z</time></trkpt><trkpt lat="42.20782080536153" lon="-8.265279666382659"><ele>564.0</ele><time>2026-04-04T20:34:38Z</time></trkpt><trkpt lat="42.20802408317903" lon="-8.265172499850905"><ele>564.0</ele><time>2026-04-04T20:34:39Z</time></trkpt><trkpt lat="42.20823254705687" lon="-8.265073357848244"><ele>564.0</ele><time>2026-04-04T20:34:40Z</time></trkpt><trkpt lat="42.208446818854306" lon="-8.26499081196814"><ele>565.3333333333334</ele><time>2026-04-04T20:34:41Z</time></trkpt><trkpt lat="42.20866231021933" lon="-8.264921257917292"><ele>566.6666666666667</ele><time>2026-04-04T20:34:42Z</time></trkpt><trkpt lat="42.20887768532248" lon="-8.264853057658202"><ele>568.0</ele><time>2026-04-04T20:34:43Z</time></trkpt><trkpt lat="42.20909905848791" lon="-8.264772843083904"><ele>563.5</ele><time>2026-04-04T20:34:44Z</time></trkpt><trkpt lat="42.209315789760076" lon="-8.264728660731675"><ele>559.0</ele><time>2026-04-04T20:34:45Z</time></trkpt><trkpt lat="42.2095421702126" lon="-8.264652693713698"><ele>559.0</ele><time>2026-04-04T20:34:46Z</time></trkpt><trkpt lat="42.209760466935194" lon="-8.264581823252149"><ele>559.0</ele><time>2026-04-04T20:34:47Z</time></trkpt><trkpt lat="42.2099819100545" lon="-8.264499542516342"><ele>560.5</ele><time>2026-04-04T20:34:48Z</time></trkpt><trkpt lat="42.21019582119954" lon="-8.264401998526662"><ele>562.0</ele><time>2026-04-04T20:34:49Z</time></trkpt><trkpt lat="42.21040857500481" lon="-8.264288811528015"><ele>562.0</ele><time>2026-04-04T20:34:50Z</time></trkpt><trkpt lat="42.210608691227065" lon="-8.264153300461011"><ele>562.0</ele><time>2026-04-04T20:34:51Z</time></trkpt><trkpt lat="42.21080686837672" lon="-8.264011878674538"><ele>562.0</ele><time>2026-04-04T20:34:52Z</time></trkpt><trkpt lat="42.21100374326357" lon="-8.263865081961963"><ele>567.5</ele><time>2026-04-04T20:34:53Z</time></trkpt><trkpt lat="42.21119126187792" lon="-8.263698957444197"><ele>573.0</ele><time>2026-04-04T20:34:54Z</time></trkpt><trkpt lat="42.211382502551054" lon="-8.263533834667282"><ele>573.3333333333334</ele><time>2026-04-04T20:34:55Z</time></trkpt><trkpt lat="42.21156043159643" lon="-8.263354085460573"><ele>573.6666666666667</ele><time>2026-04-04T20:34:56Z</time></trkpt><trkpt lat="42.21173661272804" lon="-8.263166591469137"><ele>574.0</ele><time>2026-04-04T20:34:57Z</time></trkpt><trkpt lat="42.21190719875131" lon="-8.262971012455456"><ele>576.5</ele><time>2026-04-04T20:34:58Z</time></trkpt><trkpt lat="42.21206858242489" lon="-8.262767810152297"><ele>579.0</ele><time>2026-04-04T20:34:59Z</time></trkpt><trkpt lat="42.21222703452452" lon="-8.262542545260995"><ele>580.6666666666666</ele><time>2026-04-04T20:35:00Z</time></trkpt><trkpt lat="42.21236620701595" lon="-8.262319873618242"><ele>582.3333333333333</ele><time>2026-04-04T20:35:01Z</time></trkpt><trkpt lat="42.21250203129519" lon="-8.262088458685376"><ele>584.0</ele><time>2026-04-04T20:35:02Z</time></trkpt><trkpt lat="42.21264518758781" lon="-8.261859922393134"><ele>584.3333333333333</ele><time>2026-04-04T20:35:03Z</time></trkpt><trkpt lat="42.21278414216041" lon="-8.26163588979843"><ele>584.6666666666666</ele><time>2026-04-04T20:35:04Z</time></trkpt><trkpt lat="42.21292415543776" lon="-8.261410243411444"><ele>585.0</ele><time>2026-04-04T20:35:05Z</time></trkpt><trkpt lat="42.21306099943575" lon="-8.261184363002421"><ele>585.6666666666666</ele><time>2026-04-04T20:35:05.999Z</time></trkpt><trkpt lat="42.21320201491004" lon="-8.260962521049876"><ele>586.3333333333333</ele><time>2026-04-04T20:35:06.999Z</time></trkpt><trkpt lat="42.213350965129976" lon="-8.260741862214411"><ele>587.0</ele><time>2026-04-04T20:35:07.999Z</time></trkpt><trkpt lat="42.213499705938744" lon="-8.260531443279946"><ele>587.0</ele><time>2026-04-04T20:35:08.999Z</time></trkpt><trkpt lat="42.21365322430217" lon="-8.260315637863876"><ele>587.0</ele><time>2026-04-04T20:35:09.999Z</time></trkpt><trkpt lat="42.21380289462085" lon="-8.260106111424887"><ele>587.0</ele><time>2026-04-04T20:35:10.999Z</time></trkpt><trkpt lat="42.213957559908835" lon="-8.259892886063383"><ele>587.0</ele><time>2026-04-04T20:35:11.999Z</time></trkpt><trkpt lat="42.21411677289256" lon="-8.259686347806499"><ele>587.0</ele><time>2026-04-04T20:35:12.999Z</time></trkpt><trkpt lat="42.21428102718621" lon="-8.259487657861207"><ele>587.0</ele><time>2026-04-04T20:35:13.999Z</time></trkpt><trkpt lat="42.21444590143238" lon="-8.25929322377389"><ele>587.0</ele><time>2026-04-04T20:35:14.999Z</time></trkpt><trkpt lat="42.21461679558126" lon="-8.259102553270623"><ele>587.0</ele><time>2026-04-04T20:35:15.999Z</time></trkpt><trkpt lat="42.21479336786426" lon="-8.258912119882133"><ele>587.0</ele><time>2026-04-04T20:35:16.999Z</time></trkpt><trkpt lat="42.21496040266295" lon="-8.25873845484231"><ele>587.5</ele><time>2026-04-04T20:35:17.999Z</time></trkpt><trkpt lat="42.21514506009995" lon="-8.258561522368705"><ele>588.0</ele><time>2026-04-04T20:35:18.999Z</time></trkpt><trkpt lat="42.215327232739185" lon="-8.258375126489852"><ele>588.0</ele><time>2026-04-04T20:35:19.999Z</time></trkpt><trkpt lat="42.21551562316954" lon="-8.258196129613241"><ele>588.0</ele><time>2026-04-04T20:35:20.999Z</time></trkpt><trkpt lat="42.21570022263746" lon="-8.258017624292137"><ele>585.0</ele><time>2026-04-04T20:35:21.999Z</time></trkpt><trkpt lat="42.215886431309826" lon="-8.257836962970782"><ele>582.0</ele><time>2026-04-04T20:35:22.999Z</time></trkpt><trkpt lat="42.21607758908829" lon="-8.257650068572227"><ele>582.0</ele><time>2026-04-04T20:35:23.999Z</time></trkpt><trkpt lat="42.216266668018754" lon="-8.257465598588915"><ele>582.0</ele><time>2026-04-04T20:35:24.999Z</time></trkpt><trkpt lat="42.21645347875955" lon="-8.2572701409503"><ele>585.0</ele><time>2026-04-04T20:35:25.999Z</time></trkpt><trkpt lat="42.216627734976704" lon="-8.257063124652325"><ele>588.0</ele><time>2026-04-04T20:35:26.999Z</time></trkpt><trkpt lat="42.216790551005275" lon="-8.2568407590569"><ele>588.0</ele><time>2026-04-04T20:35:27.999Z</time></trkpt><trkpt lat="42.21695076363562" lon="-8.256603350811364"><ele>588.0</ele><time>2026-04-04T20:35:28.999Z</time></trkpt><trkpt lat="42.21710526422789" lon="-8.256360662326857"><ele>587.0</ele><time>2026-04-04T20:35:29.999Z</time></trkpt><trkpt lat="42.21725329618958" lon="-8.256103923637255"><ele>586.0</ele><time>2026-04-04T20:35:30.999Z</time></trkpt><trkpt lat="42.21738681049815" lon="-8.255843102546807"><ele>590.5</ele><time>2026-04-04T20:35:31.999Z</time></trkpt><trkpt lat="42.21751597903473" lon="-8.255571804666648"><ele>595.0</ele><time>2026-04-04T20:35:32.999Z</time></trkpt><trkpt lat="42.21763922247085" lon="-8.255293552355443"><ele>595.0</ele><time>2026-04-04T20:35:33.999Z</time></trkpt><trkpt lat="42.21774527041316" lon="-8.255010060632083"><ele>595.0</ele><time>2026-04-04T20:35:34.999Z</time></trkpt><trkpt lat="42.21785549243879" lon="-8.254724782285177"><ele>596.5</ele><time>2026-04-04T20:35:35.999Z</time></trkpt><trkpt lat="42.21795741106799" lon="-8.254435541287112"><ele>598.0</ele><time>2026-04-04T20:35:36.999Z</time></trkpt><trkpt lat="42.218062471716195" lon="-8.254151597918884"><ele>600.0</ele><time>2026-04-04T20:35:37.999Z</time></trkpt><trkpt lat="42.218169981887954" lon="-8.253865682449561"><ele>602.0</ele><time>2026-04-04T20:35:38.999Z</time></trkpt><trkpt lat="42.218280270603884" lon="-8.253581088952078"><ele>602.0</ele><time>2026-04-04T20:35:39.999Z</time></trkpt><trkpt lat="42.2183976344315" lon="-8.25329912905251"><ele>602.0</ele><time>2026-04-04T20:35:40.999Z</time></trkpt><trkpt lat="42.21852980973325" lon="-8.253025683861162"><ele>600.0</ele><time>2026-04-04T20:35:41.999Z</time></trkpt><trkpt lat="42.21866816304789" lon="-8.252759083479198"><ele>598.0</ele><time>2026-04-04T20:35:42.999Z</time></trkpt><trkpt lat="42.21881092347089" lon="-8.252488652213932"><ele>596.5</ele><time>2026-04-04T20:35:43.999Z</time></trkpt><trkpt lat="42.21895950563354" lon="-8.252235146143168"><ele>595.0</ele><time>2026-04-04T20:35:44.999Z</time></trkpt><trkpt lat="42.21911320734888" lon="-8.251985197661135"><ele>595.0</ele><time>2026-04-04T20:35:45.999Z</time></trkpt><trkpt lat="42.21927343953593" lon="-8.251740629035744"><ele>595.0</ele><time>2026-04-04T20:35:46.999Z</time></trkpt><trkpt lat="42.21944007019393" lon="-8.25149319381118"><ele>590.5</ele><time>2026-04-04T20:35:47.999Z</time></trkpt><trkpt lat="42.21960365123776" lon="-8.25125409892149"><ele>586.0</ele><time>2026-04-04T20:35:48.999Z</time></trkpt><trkpt lat="42.219785716017235" lon="-8.251034969692856"><ele>583.5</ele><time>2026-04-04T20:35:49.999Z</time></trkpt><trkpt lat="42.21997163573367" lon="-8.25081729117041"><ele>581.0</ele><time>2026-04-04T20:35:50.999Z</time></trkpt><trkpt lat="42.220170502938885" lon="-8.250615455042787"><ele>581.0</ele><time>2026-04-04T20:35:51.999Z</time></trkpt><trkpt lat="42.2203721232415" lon="-8.250419379132197"><ele>581.0</ele><time>2026-04-04T20:35:52.999Z</time></trkpt><trkpt lat="42.22057364458075" lon="-8.25022524148889"><ele>585.5</ele><time>2026-04-04T20:35:53.999Z</time></trkpt><trkpt lat="42.22078016042444" lon="-8.250041561647073"><ele>590.0</ele><time>2026-04-04T20:35:54.999Z</time></trkpt><trkpt lat="42.2209828378941" lon="-8.249852454237235"><ele>583.0</ele><time>2026-04-04T20:35:55.999Z</time></trkpt><trkpt lat="42.22118065379983" lon="-8.249653526736383"><ele>576.0</ele><time>2026-04-04T20:35:56.999Z</time></trkpt><trkpt lat="42.221375959316774" lon="-8.249447288203102"><ele>581.0</ele><time>2026-04-04T20:35:57.999Z</time></trkpt><trkpt lat="42.22156131327972" lon="-8.249229897923156"><ele>586.0</ele><time>2026-04-04T20:35:58.999Z</time></trkpt><trkpt lat="42.22173306579781" lon="-8.248999792513406"><ele>581.0</ele><time>2026-04-04T20:35:59.999Z</time></trkpt><trkpt lat="42.22190237926455" lon="-8.2487570439901"><ele>576.0</ele><time>2026-04-04T20:36:00.999Z</time></trkpt><trkpt lat="42.22205632474433" lon="-8.248504815360699"><ele>576.0</ele><time>2026-04-04T20:36:01.999Z</time></trkpt><trkpt lat="42.2221953160357" lon="-8.248243475524442"><ele>576.0</ele><time>2026-04-04T20:36:02.999Z</time></trkpt><trkpt lat="42.22232804352265" lon="-8.247970434142962"><ele>579.5</ele><time>2026-04-04T20:36:03.999Z</time></trkpt><trkpt lat="42.22244834431915" lon="-8.247693984118937"><ele>583.0</ele><time>2026-04-04T20:36:04.999Z</time></trkpt><trkpt lat="42.22255769705753" lon="-8.247403151502473"><ele>582.5</ele><time>2026-04-04T20:36:05.999Z</time></trkpt><trkpt lat="42.22264896330897" lon="-8.247111736924747"><ele>582.0</ele><time>2026-04-04T20:36:06.999Z</time></trkpt><trkpt lat="42.22273052270846" lon="-8.246815138681171"><ele>582.0</ele><time>2026-04-04T20:36:07.999Z</time></trkpt><trkpt lat="42.22280413576026" lon="-8.246511516650033"><ele>582.0</ele><time>2026-04-04T20:36:08.999Z</time></trkpt><trkpt lat="42.22287535412806" lon="-8.246217711891022"><ele>583.0</ele><time>2026-04-04T20:36:09.999Z</time></trkpt><trkpt lat="42.22295220511931" lon="-8.245928619814746"><ele>584.0</ele><time>2026-04-04T20:36:10.999Z</time></trkpt><trkpt lat="42.22303165548315" lon="-8.245631771545945"><ele>584.0</ele><time>2026-04-04T20:36:11.999Z</time></trkpt><trkpt lat="42.22310642086137" lon="-8.245347609354093"><ele>584.0</ele><time>2026-04-04T20:36:12.999Z</time></trkpt><trkpt lat="42.22319196902478" lon="-8.245057296466609"><ele>592.5</ele><time>2026-04-04T20:36:13.999Z</time></trkpt><trkpt lat="42.22328418278346" lon="-8.244777879350808"><ele>601.0</ele><time>2026-04-04T20:36:14.999Z</time></trkpt><trkpt lat="42.22338715539885" lon="-8.244501628844363"><ele>601.0</ele><time>2026-04-04T20:36:15.999Z</time></trkpt><trkpt lat="42.2235033232614" lon="-8.244226978327102"><ele>601.0</ele><time>2026-04-04T20:36:16.999Z</time></trkpt><trkpt lat="42.22362709918814" lon="-8.243961692347415"><ele>598.0</ele><time>2026-04-04T20:36:17.999Z</time></trkpt><trkpt lat="42.22375184851849" lon="-8.243694043449182"><ele>595.0</ele><time>2026-04-04T20:36:18.999Z</time></trkpt><trkpt lat="42.22387457931134" lon="-8.243434762512482"><ele>594.0</ele><time>2026-04-04T20:36:19.999Z</time></trkpt><trkpt lat="42.2240206617338" lon="-8.243174189319276"><ele>593.0</ele><time>2026-04-04T20:36:21Z</time></trkpt><trkpt lat="42.22418249873417" lon="-8.242926102065374"><ele>593.0</ele><time>2026-04-04T20:36:22Z</time></trkpt><trkpt lat="42.22433762919266" lon="-8.242685312709575"><ele>593.0</ele><time>2026-04-04T20:36:23Z</time></trkpt><trkpt lat="42.22450044873174" lon="-8.242455622691674"><ele>595.5</ele><time>2026-04-04T20:36:24Z</time></trkpt><trkpt lat="42.22467255334696" lon="-8.24222924297883"><ele>598.0</ele><time>2026-04-04T20:36:25Z</time></trkpt><trkpt lat="42.22484698241446" lon="-8.2420134536273"><ele>598.0</ele><time>2026-04-04T20:36:26Z</time></trkpt><trkpt lat="42.22503646781941" lon="-8.241801447471486"><ele>598.0</ele><time>2026-04-04T20:36:27Z</time></trkpt><trkpt lat="42.225222226074806" lon="-8.241595841445557"><ele>589.0</ele><time>2026-04-04T20:36:28Z</time></trkpt><trkpt lat="42.22541311986881" lon="-8.241398689848408"><ele>580.0</ele><time>2026-04-04T20:36:29Z</time></trkpt><trkpt lat="42.225603354974645" lon="-8.241198033922574"><ele>589.0</ele><time>2026-04-04T20:36:30Z</time></trkpt><trkpt lat="42.22579338651877" lon="-8.240995724645748"><ele>598.0</ele><time>2026-04-04T20:36:31Z</time></trkpt><trkpt lat="42.22597937375898" lon="-8.24078112808794"><ele>585.5</ele><time>2026-04-04T20:36:32Z</time></trkpt><trkpt lat="42.226151759305985" lon="-8.240554290128095"><ele>573.0</ele><time>2026-04-04T20:36:33Z</time></trkpt><trkpt lat="42.2263151452982" lon="-8.240311707695293"><ele>573.0</ele><time>2026-04-04T20:36:34Z</time></trkpt><trkpt lat="42.22647294985441" lon="-8.240060041693068"><ele>573.0</ele><time>2026-04-04T20:36:35Z</time></trkpt><trkpt lat="42.22661331336683" lon="-8.23979810607968"><ele>580.0</ele><time>2026-04-04T20:36:36Z</time></trkpt><trkpt lat="42.226741560822035" lon="-8.239528057575233"><ele>587.0</ele><time>2026-04-04T20:36:37Z</time></trkpt><trkpt lat="42.22686457964647" lon="-8.239247126555382"><ele>585.0</ele><time>2026-04-04T20:36:38Z</time></trkpt><trkpt lat="42.226975285465016" lon="-8.238964985015015"><ele>583.0</ele><time>2026-04-04T20:36:39Z</time></trkpt><trkpt lat="42.227073003574155" lon="-8.23866774832902"><ele>583.0</ele><time>2026-04-04T20:36:40Z</time></trkpt><trkpt lat="42.22716513711922" lon="-8.2383742548403"><ele>583.0</ele><time>2026-04-04T20:36:41Z</time></trkpt><trkpt lat="42.22725516390827" lon="-8.238086229062928"><ele>594.0</ele><time>2026-04-04T20:36:42Z</time></trkpt><trkpt lat="42.22734945031437" lon="-8.237794872000268"><ele>605.0</ele><time>2026-04-04T20:36:43Z</time></trkpt><trkpt lat="42.227442559037094" lon="-8.2375072842779"><ele>601.5</ele><time>2026-04-04T20:36:44Z</time></trkpt><trkpt lat="42.22753994047308" lon="-8.237218091950595"><ele>598.0</ele><time>2026-04-04T20:36:45Z</time></trkpt><trkpt lat="42.22765443858526" lon="-8.236939755431859"><ele>598.0</ele><time>2026-04-04T20:36:46Z</time></trkpt><trkpt lat="42.22778387285489" lon="-8.236685405167437"><ele>598.0</ele><time>2026-04-04T20:36:47Z</time></trkpt><trkpt lat="42.22792274748234" lon="-8.236423309211748"><ele>597.0</ele><time>2026-04-04T20:36:48Z</time></trkpt><trkpt lat="42.22806696196152" lon="-8.236181814178586"><ele>596.0</ele><time>2026-04-04T20:36:49Z</time></trkpt><trkpt lat="42.22822557701283" lon="-8.235938665227929"><ele>597.0</ele><time>2026-04-04T20:36:50Z</time></trkpt><trkpt lat="42.22838435603236" lon="-8.235704341249715"><ele>598.0</ele><time>2026-04-04T20:36:51Z</time></trkpt><trkpt lat="42.228552595846594" lon="-8.235466382011582"><ele>598.0</ele><time>2026-04-04T20:36:52Z</time></trkpt><trkpt lat="42.22873769764983" lon="-8.235277807264623"><ele>598.0</ele><time>2026-04-04T20:36:53Z</time></trkpt><trkpt lat="42.228921863153005" lon="-8.235095048397977"><ele>603.0</ele><time>2026-04-04T20:36:54Z</time></trkpt><trkpt lat="42.22912311550508" lon="-8.234906159999696"><ele>608.0</ele><time>2026-04-04T20:36:55Z</time></trkpt><trkpt lat="42.229322494517056" lon="-8.234736405013289"><ele>598.0</ele><time>2026-04-04T20:36:56Z</time></trkpt><trkpt lat="42.22953091763895" lon="-8.23458605882148"><ele>588.0</ele><time>2026-04-04T20:36:57Z</time></trkpt><trkpt lat="42.229748679723414" lon="-8.23444681035703"><ele>594.0</ele><time>2026-04-04T20:36:58Z</time></trkpt><trkpt lat="42.22997051332111" lon="-8.234324574159599"><ele>600.0</ele><time>2026-04-04T20:36:59Z</time></trkpt><trkpt lat="42.23019221344616" lon="-8.234210069422852"><ele>600.0</ele><time>2026-04-04T20:37:00Z</time></trkpt><trkpt lat="42.230419592944926" lon="-8.234086807625552"><ele>600.0</ele><time>2026-04-04T20:37:01Z</time></trkpt><trkpt lat="42.230643403404606" lon="-8.233972989254077"><ele>602.5</ele><time>2026-04-04T20:37:02Z</time></trkpt><trkpt lat="42.230869038270676" lon="-8.23385797299904"><ele>605.0</ele><time>2026-04-04T20:37:03Z</time></trkpt><trkpt lat="42.23109473144345" lon="-8.233741748740314"><ele>605.0</ele><time>2026-04-04T20:37:04Z</time></trkpt><trkpt lat="42.23132732054476" lon="-8.233627351886136"><ele>605.0</ele><time>2026-04-04T20:37:05Z</time></trkpt><trkpt lat="42.23155361156419" lon="-8.233505228367791"><ele>607.5</ele><time>2026-04-04T20:37:06Z</time></trkpt><trkpt lat="42.23177813588118" lon="-8.233373562750227"><ele>610.0</ele><time>2026-04-04T20:37:07Z</time></trkpt><trkpt lat="42.23200051340319" lon="-8.233225592148859"><ele>609.0</ele><time>2026-04-04T20:37:08Z</time></trkpt><trkpt lat="42.23221816532636" lon="-8.23307238046794"><ele>608.0</ele><time>2026-04-04T20:37:09Z</time></trkpt><trkpt lat="42.23243205172107" lon="-8.232907190716388"><ele>608.0</ele><time>2026-04-04T20:37:10Z</time></trkpt><trkpt lat="42.232641753855276" lon="-8.232728024471832"><ele>608.0</ele><time>2026-04-04T20:37:11Z</time></trkpt><trkpt lat="42.232852404784296" lon="-8.232548979525006"><ele>608.0</ele><time>2026-04-04T20:37:12Z</time></trkpt><trkpt lat="42.2330584308765" lon="-8.232357864426962"><ele>608.0</ele><time>2026-04-04T20:37:13Z</time></trkpt><trkpt lat="42.23324507886776" lon="-8.232172108819377"><ele>604.0</ele><time>2026-04-04T20:37:14Z</time></trkpt><trkpt lat="42.23343097399543" lon="-8.231992350239093"><ele>600.0</ele><time>2026-04-04T20:37:15Z</time></trkpt><trkpt lat="42.23361744854116" lon="-8.231809742102673"><ele>600.0</ele><time>2026-04-04T20:37:16Z</time></trkpt><trkpt lat="42.23379886388161" lon="-8.231629797834803"><ele>600.0</ele><time>2026-04-04T20:37:17Z</time></trkpt><trkpt lat="42.23397493119148" lon="-8.231448110651165"><ele>600.0</ele><time>2026-04-04T20:37:18Z</time></trkpt><trkpt lat="42.234150527665655" lon="-8.23127102583364"><ele>597.6666666666666</ele><time>2026-04-04T20:37:19Z</time></trkpt><trkpt lat="42.23433422057482" lon="-8.231112821802933"><ele>595.3333333333333</ele><time>2026-04-04T20:37:20Z</time></trkpt><trkpt lat="42.23452237245205" lon="-8.230955146331008"><ele>593.0</ele><time>2026-04-04T20:37:21Z</time></trkpt><trkpt lat="42.234702982857534" lon="-8.230807594797833"><ele>594.0</ele><time>2026-04-04T20:37:22Z</time></trkpt><trkpt lat="42.23489281451648" lon="-8.230671297075936"><ele>595.0</ele><time>2026-04-04T20:37:22.999Z</time></trkpt><trkpt lat="42.23508067906259" lon="-8.230549694057824"><ele>596.0</ele><time>2026-04-04T20:37:23.999Z</time></trkpt><trkpt lat="42.23527259972851" lon="-8.23043753913489"><ele>592.6666666666666</ele><time>2026-04-04T20:37:24.999Z</time></trkpt><trkpt lat="42.235462698656804" lon="-8.230348994514687"><ele>589.3333333333334</ele><time>2026-04-04T20:37:25.999Z</time></trkpt><trkpt lat="42.235659890440935" lon="-8.230273580979379"><ele>586.0</ele><time>2026-04-04T20:37:26.999Z</time></trkpt><trkpt lat="42.23585869355661" lon="-8.230193010215963"><ele>586.0</ele><time>2026-04-04T20:37:27.999Z</time></trkpt><trkpt lat="42.23604799406926" lon="-8.230117877032901"><ele>586.0</ele><time>2026-04-04T20:37:28.999Z</time></trkpt><trkpt lat="42.23624032623882" lon="-8.230037933949504"><ele>586.0</ele><time>2026-04-04T20:37:29.999Z</time></trkpt><trkpt lat="42.2364326514655" lon="-8.229955085771628"><ele>586.0</ele><time>2026-04-04T20:37:30.999Z</time></trkpt><trkpt lat="42.23662385449873" lon="-8.229873907988578"><ele>586.0</ele><time>2026-04-04T20:37:31.999Z</time></trkpt><trkpt lat="42.23681027881904" lon="-8.229785193795559"><ele>586.0</ele><time>2026-04-04T20:37:32.999Z</time></trkpt><trkpt lat="42.2369998550859" lon="-8.229694505475512"><ele>580.0</ele><time>2026-04-04T20:37:33.999Z</time></trkpt><trkpt lat="42.23718790477061" lon="-8.229586231044285"><ele>574.0</ele><time>2026-04-04T20:37:34.999Z</time></trkpt><trkpt lat="42.23736850924823" lon="-8.229466147623908"><ele>568.0</ele><time>2026-04-04T20:37:35.999Z</time></trkpt><trkpt lat="42.237551320505794" lon="-8.229342238179225"><ele>568.0</ele><time>2026-04-04T20:37:36.999Z</time></trkpt><trkpt lat="42.2377299342421" lon="-8.229207149134249"><ele>568.0</ele><time>2026-04-04T20:37:37.999Z</time></trkpt><trkpt lat="42.23791468862178" lon="-8.22907660864308"><ele>568.0</ele><time>2026-04-04T20:37:38.999Z</time></trkpt><trkpt lat="42.2381026032944" lon="-8.228950084397097"><ele>563.0</ele><time>2026-04-04T20:37:39.999Z</time></trkpt><trkpt lat="42.238289584473364" lon="-8.228830468970415"><ele>558.0</ele><time>2026-04-04T20:37:40.999Z</time></trkpt><trkpt lat="42.23848921994733" lon="-8.228707170335523"><ele>553.0</ele><time>2026-04-04T20:37:41.999Z</time></trkpt><trkpt lat="42.23868962916305" lon="-8.228606296730243"><ele>553.0</ele><time>2026-04-04T20:37:42.999Z</time></trkpt><trkpt lat="42.23889867993635" lon="-8.228520057584072"><ele>553.0</ele><time>2026-04-04T20:37:43.999Z</time></trkpt><trkpt lat="42.23910171707195" lon="-8.228443422023547"><ele>553.0</ele><time>2026-04-04T20:37:44.999Z</time></trkpt><trkpt lat="42.23932214583692" lon="-8.228379225187252"><ele>557.0</ele><time>2026-04-04T20:37:45.999Z</time></trkpt><trkpt lat="42.239539485849775" lon="-8.228323853861637"><ele>561.0</ele><time>2026-04-04T20:37:46.999Z</time></trkpt><trkpt lat="42.239763924186605" lon="-8.22828359849104"><ele>565.0</ele><time>2026-04-04T20:37:47.999Z</time></trkpt><trkpt lat="42.23999165195149" lon="-8.228258767854388"><ele>567.5</ele><time>2026-04-04T20:37:48.999Z</time></trkpt><trkpt lat="42.24022370380888" lon="-8.228242926277176"><ele>570.0</ele><time>2026-04-04T20:37:49.999Z</time></trkpt><trkpt lat="42.24045025802505" lon="-8.228216068957783"><ele>567.5</ele><time>2026-04-04T20:37:50.999Z</time></trkpt><trkpt lat="42.24068163495055" lon="-8.228178955770252"><ele>565.0</ele><time>2026-04-04T20:37:51.999Z</time></trkpt><trkpt lat="42.240899050106066" lon="-8.22812758210532"><ele>552.0</ele><time>2026-04-04T20:37:52.999Z</time></trkpt><trkpt lat="42.24113518464965" lon="-8.228071787904137"><ele>539.0</ele><time>2026-04-04T20:37:53.999Z</time></trkpt><trkpt lat="42.24136351269761" lon="-8.228008907344911"><ele>544.5</ele><time>2026-04-04T20:37:54.999Z</time></trkpt><trkpt lat="42.241597674422586" lon="-8.227937122887655"><ele>550.0</ele><time>2026-04-04T20:37:55.999Z</time></trkpt><trkpt lat="42.24183529191905" lon="-8.227868978990335"><ele>550.0</ele><time>2026-04-04T20:37:56.999Z</time></trkpt><trkpt lat="42.24206536749856" lon="-8.227784876914725"><ele>550.0</ele><time>2026-04-04T20:37:57.999Z</time></trkpt><trkpt lat="42.24229894797685" lon="-8.227691819744221"><ele>553.0</ele><time>2026-04-04T20:37:58.999Z</time></trkpt><trkpt lat="42.24253113435997" lon="-8.227599218550674"><ele>556.0</ele><time>2026-04-04T20:37:59.999Z</time></trkpt><trkpt lat="42.24276211549736" lon="-8.227505708146499"><ele>556.0</ele><time>2026-04-04T20:38:00.999Z</time></trkpt><trkpt lat="42.242994528345214" lon="-8.227405519666839"><ele>556.0</ele><time>2026-04-04T20:38:01.999Z</time></trkpt><trkpt lat="42.2432249268456" lon="-8.227311354081543"><ele>545.5</ele><time>2026-04-04T20:38:02.999Z</time></trkpt><trkpt lat="42.243456151871094" lon="-8.227214516856838"><ele>535.0</ele><time>2026-04-04T20:38:03.999Z</time></trkpt><trkpt lat="42.243687914533005" lon="-8.227120976260345"><ele>535.0</ele><time>2026-04-04T20:38:04.999Z</time></trkpt><trkpt lat="42.243925766982514" lon="-8.227030909274937"><ele>535.0</ele><time>2026-04-04T20:38:05.999Z</time></trkpt><trkpt lat="42.24415576516218" lon="-8.226936149945496"><ele>538.5</ele><time>2026-04-04T20:38:06.999Z</time></trkpt><trkpt lat="42.24438974182248" lon="-8.226845116498037"><ele>542.0</ele><time>2026-04-04T20:38:07.999Z</time></trkpt><trkpt lat="42.24462127872844" lon="-8.22674477055567"><ele>547.5</ele><time>2026-04-04T20:38:08.999Z</time></trkpt><trkpt lat="42.244858582453915" lon="-8.22664330321021"><ele>553.0</ele><time>2026-04-04T20:38:09.999Z</time></trkpt><trkpt lat="42.245090520929935" lon="-8.226544040968715"><ele>542.5</ele><time>2026-04-04T20:38:10.999Z</time></trkpt><trkpt lat="42.24532625077441" lon="-8.226449775023546"><ele>532.0</ele><time>2026-04-04T20:38:11.999Z</time></trkpt><trkpt lat="42.24555906093944" lon="-8.226353550642505"><ele>540.5</ele><time>2026-04-04T20:38:12.999Z</time></trkpt><trkpt lat="42.24579195165236" lon="-8.226255401498198"><ele>549.0</ele><time>2026-04-04T20:38:13.999Z</time></trkpt><trkpt lat="42.24602806468466" lon="-8.226161776835223"><ele>549.0</ele><time>2026-04-04T20:38:14.999Z</time></trkpt><trkpt lat="42.24626411525604" lon="-8.226071217677658"><ele>549.0</ele><time>2026-04-04T20:38:15.999Z</time></trkpt><trkpt lat="42.2465021733394" lon="-8.225986642623004"><ele>549.0</ele><time>2026-04-04T20:38:16.999Z</time></trkpt><trkpt lat="42.24674040835779" lon="-8.225909069501093"><ele>549.0</ele><time>2026-04-04T20:38:17.999Z</time></trkpt><trkpt lat="42.24697465227957" lon="-8.225824637617738"><ele>549.0</ele><time>2026-04-04T20:38:18.999Z</time></trkpt><trkpt lat="42.24721529051833" lon="-8.225743385757175"><ele>549.0</ele><time>2026-04-04T20:38:19.999Z</time></trkpt><trkpt lat="42.24745510120562" lon="-8.225669644195833"><ele>545.0</ele><time>2026-04-04T20:38:20.999Z</time></trkpt><trkpt lat="42.24770030145525" lon="-8.22560167145406"><ele>541.0</ele><time>2026-04-04T20:38:21.999Z</time></trkpt><trkpt lat="42.24794601736716" lon="-8.22553908424812"><ele>543.5</ele><time>2026-04-04T20:38:22.999Z</time></trkpt><trkpt lat="42.248186523818894" lon="-8.225483453950124"><ele>546.0</ele><time>2026-04-04T20:38:23.999Z</time></trkpt><trkpt lat="42.24843157242639" lon="-8.225425057895846"><ele>546.0</ele><time>2026-04-04T20:38:24.999Z</time></trkpt><trkpt lat="42.24868418372845" lon="-8.225363177118991"><ele>546.0</ele><time>2026-04-04T20:38:25.999Z</time></trkpt><trkpt lat="42.24893218817283" lon="-8.225304437899895"><ele>544.5</ele><time>2026-04-04T20:38:27Z</time></trkpt><trkpt lat="42.249179871559406" lon="-8.225242883811829"><ele>543.0</ele><time>2026-04-04T20:38:28Z</time></trkpt><trkpt lat="42.24942770086455" lon="-8.225181623337491"><ele>543.0</ele><time>2026-04-04T20:38:29Z</time></trkpt><trkpt lat="42.24967674261551" lon="-8.225106831636179"><ele>543.0</ele><time>2026-04-04T20:38:30Z</time></trkpt><trkpt lat="42.24992139597481" lon="-8.225023082586159"><ele>546.5</ele><time>2026-04-04T20:38:31Z</time></trkpt><trkpt lat="42.25016219111634" lon="-8.224921488268736"><ele>550.0</ele><time>2026-04-04T20:38:32Z</time></trkpt><trkpt lat="42.25040499871727" lon="-8.224805419834892"><ele>539.5</ele><time>2026-04-04T20:38:33Z</time></trkpt><trkpt lat="42.250643470238415" lon="-8.224676609213198"><ele>529.0</ele><time>2026-04-04T20:38:34Z</time></trkpt><trkpt lat="42.25087990390542" lon="-8.224543356029802"><ele>529.0</ele><time>2026-04-04T20:38:35Z</time></trkpt><trkpt lat="42.25111642512131" lon="-8.224393597775704"><ele>529.0</ele><time>2026-04-04T20:38:36Z</time></trkpt><trkpt lat="42.251350736371535" lon="-8.224242452138101"><ele>535.5</ele><time>2026-04-04T20:38:37Z</time></trkpt><trkpt lat="42.25158468089595" lon="-8.224089532218072"><ele>542.0</ele><time>2026-04-04T20:38:38Z</time></trkpt><trkpt lat="42.2518181770188" lon="-8.223948992185464"><ele>529.0</ele><time>2026-04-04T20:38:39Z</time></trkpt><trkpt lat="42.25204069389022" lon="-8.223814259249929"><ele>516.0</ele><time>2026-04-04T20:38:40Z</time></trkpt><trkpt lat="42.252261332770125" lon="-8.2236895476244"><ele>521.5</ele><time>2026-04-04T20:38:41Z</time></trkpt><trkpt lat="42.25249300314276" lon="-8.223571196348761"><ele>527.0</ele><time>2026-04-04T20:38:42Z</time></trkpt><trkpt lat="42.25273300689911" lon="-8.223472014250795"><ele>527.0</ele><time>2026-04-04T20:38:43Z</time></trkpt><trkpt lat="42.25297740274573" lon="-8.223380153154013"><ele>527.0</ele><time>2026-04-04T20:38:44Z</time></trkpt><trkpt lat="42.2532166826342" lon="-8.223297352088656"><ele>529.5</ele><time>2026-04-04T20:38:45Z</time></trkpt><trkpt lat="42.253470301463196" lon="-8.223227203125862"><ele>532.0</ele><time>2026-04-04T20:38:46Z</time></trkpt><trkpt lat="42.25372118398164" lon="-8.223158698196436"><ele>523.0</ele><time>2026-04-04T20:38:47Z</time></trkpt><trkpt lat="42.25397949813023" lon="-8.223076206536904"><ele>514.0</ele><time>2026-04-04T20:38:48Z</time></trkpt><trkpt lat="42.25423168160059" lon="-8.223016151649906"><ele>514.0</ele><time>2026-04-04T20:38:49Z</time></trkpt><trkpt lat="42.25448465570724" lon="-8.222939130156522"><ele>514.0</ele><time>2026-04-04T20:38:50Z</time></trkpt><trkpt lat="42.254721992361254" lon="-8.222857481833165"><ele>510.5</ele><time>2026-04-04T20:38:51Z</time></trkpt><trkpt lat="42.25495022789879" lon="-8.222754296351834"><ele>507.0</ele><time>2026-04-04T20:38:52Z</time></trkpt><trkpt lat="42.25518542048774" lon="-8.222615857007376"><ele>507.0</ele><time>2026-04-04T20:38:53Z</time></trkpt><trkpt lat="42.25541288812741" lon="-8.22246411765563"><ele>507.0</ele><time>2026-04-04T20:38:54Z</time></trkpt><trkpt lat="42.25564019314639" lon="-8.222303150641297"><ele>503.5</ele><time>2026-04-04T20:38:55Z</time></trkpt><trkpt lat="42.25586405118627" lon="-8.222129163210543"><ele>500.0</ele><time>2026-04-04T20:38:56Z</time></trkpt><trkpt lat="42.256084604211246" lon="-8.221934659336936"><ele>500.0</ele><time>2026-04-04T20:38:57Z</time></trkpt><trkpt lat="42.25629571090325" lon="-8.22172435038954"><ele>500.0</ele><time>2026-04-04T20:38:58Z</time></trkpt><trkpt lat="42.25650098061891" lon="-8.22151040906989"><ele>498.5</ele><time>2026-04-04T20:38:59Z</time></trkpt><trkpt lat="42.256691103863204" lon="-8.221285221936908"><ele>497.0</ele><time>2026-04-04T20:39:00Z</time></trkpt><trkpt lat="42.25687777286727" lon="-8.221037118638312"><ele>497.0</ele><time>2026-04-04T20:39:01Z</time></trkpt><trkpt lat="42.25705255456796" lon="-8.220788697282515"><ele>497.0</ele><time>2026-04-04T20:39:02Z</time></trkpt><trkpt lat="42.25722308156937" lon="-8.220537072204953"><ele>499.0</ele><time>2026-04-04T20:39:03Z</time></trkpt><trkpt lat="42.2573887142395" lon="-8.22027890621278"><ele>501.0</ele><time>2026-04-04T20:39:04Z</time></trkpt><trkpt lat="42.25754277139695" lon="-8.22003287971306"><ele>499.0</ele><time>2026-04-04T20:39:05Z</time></trkpt><trkpt lat="42.25768836030318" lon="-8.219795986209368"><ele>497.0</ele><time>2026-04-04T20:39:06Z</time></trkpt><trkpt lat="42.25782567776781" lon="-8.219570486779716"><ele>495.0</ele><time>2026-04-04T20:39:07Z</time></trkpt><trkpt lat="42.25795273847458" lon="-8.219347447524925"><ele>495.0</ele><time>2026-04-04T20:39:08Z</time></trkpt><trkpt lat="42.25807793918145" lon="-8.21913381536086"><ele>495.0</ele><time>2026-04-04T20:39:09Z</time></trkpt><trkpt lat="42.258202151985856" lon="-8.21891890210111"><ele>495.0</ele><time>2026-04-04T20:39:10Z</time></trkpt><trkpt lat="42.25832941024879" lon="-8.218705060550715"><ele>495.0</ele><time>2026-04-04T20:39:11Z</time></trkpt><trkpt lat="42.25845840013515" lon="-8.218483638228026"><ele>495.0</ele><time>2026-04-04T20:39:12Z</time></trkpt><trkpt lat="42.25859072582122" lon="-8.218259728138898"><ele>495.0</ele><time>2026-04-04T20:39:13Z</time></trkpt><trkpt lat="42.258721436198854" lon="-8.218039675107566"><ele>496.33333333333337</ele><time>2026-04-04T20:39:14Z</time></trkpt><trkpt lat="42.25885157343592" lon="-8.2178162653434"><ele>497.6666666666667</ele><time>2026-04-04T20:39:15Z</time></trkpt><trkpt lat="42.25898697951125" lon="-8.21758912909133"><ele>499.0</ele><time>2026-04-04T20:39:16Z</time></trkpt><trkpt lat="42.25912201992665" lon="-8.217363017356252"><ele>494.0</ele><time>2026-04-04T20:39:17Z</time></trkpt><trkpt lat="42.25925951872462" lon="-8.217135861318273"><ele>489.0</ele><time>2026-04-04T20:39:18Z</time></trkpt><trkpt lat="42.259394068400645" lon="-8.216903230379376"><ele>484.0</ele><time>2026-04-04T20:39:19Z</time></trkpt><trkpt lat="42.25953703366044" lon="-8.21667918396377"><ele>484.6666666666667</ele><time>2026-04-04T20:39:20Z</time></trkpt><trkpt lat="42.25967700668531" lon="-8.216444484055675"><ele>485.33333333333337</ele><time>2026-04-04T20:39:21Z</time></trkpt><trkpt lat="42.25981854982165" lon="-8.216214867880774"><ele>486.0</ele><time>2026-04-04T20:39:22Z</time></trkpt><trkpt lat="42.25995720165977" lon="-8.21597931664504"><ele>486.0</ele><time>2026-04-04T20:39:22.999Z</time></trkpt><trkpt lat="42.26009391002271" lon="-8.215742543733144"><ele>486.0</ele><time>2026-04-04T20:39:23.999Z</time></trkpt><trkpt lat="42.260232717578226" lon="-8.215504157916495"><ele>486.0</ele><time>2026-04-04T20:39:24.999Z</time></trkpt><trkpt lat="42.2603680787117" lon="-8.215270406429859"><ele>484.5</ele><time>2026-04-04T20:39:25.999Z</time></trkpt><trkpt lat="42.26051031153455" lon="-8.21503387999676"><ele>483.0</ele><time>2026-04-04T20:39:26.999Z</time></trkpt><trkpt lat="42.26066236556889" lon="-8.214794266671811"><ele>483.0</ele><time>2026-04-04T20:39:27.999Z</time></trkpt><trkpt lat="42.2608159024548" lon="-8.214554816162696"><ele>483.0</ele><time>2026-04-04T20:39:28.999Z</time></trkpt><trkpt lat="42.26097577671179" lon="-8.214313135809954"><ele>483.0</ele><time>2026-04-04T20:39:29.999Z</time></trkpt><trkpt lat="42.26113923017305" lon="-8.21405998002215"><ele>483.0</ele><time>2026-04-04T20:39:30.999Z</time></trkpt><trkpt lat="42.26130919408573" lon="-8.213831364325287"><ele>481.5</ele><time>2026-04-04T20:39:31.999Z</time></trkpt><trkpt lat="42.26148544890528" lon="-8.213590154900308"><ele>480.0</ele><time>2026-04-04T20:39:32.999Z</time></trkpt><trkpt lat="42.26166935818742" lon="-8.213350301067758"><ele>475.5</ele><time>2026-04-04T20:39:33.999Z</time></trkpt><trkpt lat="42.26185540109016" lon="-8.21312129821132"><ele>471.0</ele><time>2026-04-04T20:39:34.999Z</time></trkpt><trkpt lat="42.262053306683825" lon="-8.212897045980926"><ele>471.0</ele><time>2026-04-04T20:39:35.999Z</time></trkpt><trkpt lat="42.26224976161356" lon="-8.212689799535315"><ele>471.0</ele><time>2026-04-04T20:39:36.999Z</time></trkpt><trkpt lat="42.26244954166217" lon="-8.212486520335473"><ele>465.0</ele><time>2026-04-04T20:39:37.999Z</time></trkpt><trkpt lat="42.26265776080448" lon="-8.21228647781139"><ele>459.0</ele><time>2026-04-04T20:39:38.999Z</time></trkpt><trkpt lat="42.26287258523946" lon="-8.212098795719955"><ele>459.0</ele><time>2026-04-04T20:39:39.999Z</time></trkpt><trkpt lat="42.26308929713451" lon="-8.21191737643541"><ele>459.0</ele><time>2026-04-04T20:39:40.999Z</time></trkpt><trkpt lat="42.26330799254289" lon="-8.211740409778164"><ele>462.0</ele><time>2026-04-04T20:39:41.999Z</time></trkpt><trkpt lat="42.263533813487584" lon="-8.211567448130575"><ele>465.0</ele><time>2026-04-04T20:39:42.999Z</time></trkpt><trkpt lat="42.263757841152" lon="-8.211409612982834"><ele>462.0</ele><time>2026-04-04T20:39:43.999Z</time></trkpt><trkpt lat="42.26398769277766" lon="-8.211257230206655"><ele>459.0</ele><time>2026-04-04T20:39:44.999Z</time></trkpt><trkpt lat="42.264220462779186" lon="-8.21111756455849"><ele>459.0</ele><time>2026-04-04T20:39:45.999Z</time></trkpt><trkpt lat="42.26445777916858" lon="-8.210988945582676"><ele>459.0</ele><time>2026-04-04T20:39:46.999Z</time></trkpt><trkpt lat="42.26470281619218" lon="-8.210865872705243"><ele>457.5</ele><time>2026-04-04T20:39:47.999Z</time></trkpt><trkpt lat="42.26494639722111" lon="-8.210755091585552"><ele>456.0</ele><time>2026-04-04T20:39:48.999Z</time></trkpt><trkpt lat="42.265194594789584" lon="-8.210649169873854"><ele>456.0</ele><time>2026-04-04T20:39:49.999Z</time></trkpt><trkpt lat="42.26544123990767" lon="-8.21053985597336"><ele>456.0</ele><time>2026-04-04T20:39:50.999Z</time></trkpt><trkpt lat="42.265693512743006" lon="-8.210441910993907"><ele>459.5</ele><time>2026-04-04T20:39:51.999Z</time></trkpt><trkpt lat="42.265944571946314" lon="-8.210339390126714"><ele>463.0</ele><time>2026-04-04T20:39:52.999Z</time></trkpt><trkpt lat="42.266182484474264" lon="-8.21024456442274"><ele>463.0</ele><time>2026-04-04T20:39:53.999Z</time></trkpt><trkpt lat="42.26641738828001" lon="-8.210149649974516"><ele>463.0</ele><time>2026-04-04T20:39:54.999Z</time></trkpt><trkpt lat="42.26665744102658" lon="-8.210046070134892"><ele>460.0</ele><time>2026-04-04T20:39:55.999Z</time></trkpt><trkpt lat="42.266905691815325" lon="-8.209929813000699"><ele>457.0</ele><time>2026-04-04T20:39:56.999Z</time></trkpt><trkpt lat="42.26713232967206" lon="-8.20980014110736"><ele>448.5</ele><time>2026-04-04T20:39:57.999Z</time></trkpt><trkpt lat="42.26735999257623" lon="-8.209649508808585"><ele>440.0</ele><time>2026-04-04T20:39:58.999Z</time></trkpt><trkpt lat="42.26758027288769" lon="-8.209482344053326"><ele>440.0</ele><time>2026-04-04T20:39:59.999Z</time></trkpt><trkpt lat="42.26779801619707" lon="-8.20930487025913"><ele>440.0</ele><time>2026-04-04T20:40:00.999Z</time></trkpt><trkpt lat="42.26800629864517" lon="-8.209108912865796"><ele>439.5</ele><time>2026-04-04T20:40:01.999Z</time></trkpt><trkpt lat="42.268205010565715" lon="-8.208906545502208"><ele>439.0</ele><time>2026-04-04T20:40:02.999Z</time></trkpt><trkpt lat="42.26839804992773" lon="-8.208700076928114"><ele>439.0</ele><time>2026-04-04T20:40:03.999Z</time></trkpt><trkpt lat="42.26858254495548" lon="-8.20848470338663"><ele>439.0</ele><time>2026-04-04T20:40:04.999Z</time></trkpt><trkpt lat="42.26876030236663" lon="-8.208249749200005"><ele>440.0</ele><time>2026-04-04T20:40:05.999Z</time></trkpt><trkpt lat="42.26892965026067" lon="-8.20800602096266"><ele>441.0</ele><time>2026-04-04T20:40:06.999Z</time></trkpt><trkpt lat="42.2690884604927" lon="-8.207754247284914"><ele>441.0</ele><time>2026-04-04T20:40:07.999Z</time></trkpt><trkpt lat="42.26923837119626" lon="-8.20749800987129"><ele>441.0</ele><time>2026-04-04T20:40:08.999Z</time></trkpt><trkpt lat="42.26937604069932" lon="-8.207238589648096"><ele>438.5</ele><time>2026-04-04T20:40:09.999Z</time></trkpt><trkpt lat="42.26951711175942" lon="-8.206969147519684"><ele>436.0</ele><time>2026-04-04T20:40:10.999Z</time></trkpt><trkpt lat="42.26965566754736" lon="-8.206698398426278"><ele>438.5</ele><time>2026-04-04T20:40:11.999Z</time></trkpt><trkpt lat="42.269790707255886" lon="-8.206431178627673"><ele>441.0</ele><time>2026-04-04T20:40:12.999Z</time></trkpt><trkpt lat="42.26992709666265" lon="-8.206170209341149"><ele>441.0</ele><time>2026-04-04T20:40:13.999Z</time></trkpt><trkpt lat="42.27007285558596" lon="-8.205902930206538"><ele>441.0</ele><time>2026-04-04T20:40:14.999Z</time></trkpt><trkpt lat="42.27021692684881" lon="-8.2056448779276"><ele>440.5</ele><time>2026-04-04T20:40:15.999Z</time></trkpt><trkpt lat="42.270370318389325" lon="-8.205395399137377"><ele>440.0</ele><time>2026-04-04T20:40:16.999Z</time></trkpt><trkpt lat="42.27053453156921" lon="-8.205149803054042"><ele>440.0</ele><time>2026-04-04T20:40:17.999Z</time></trkpt><trkpt lat="42.27070796465351" lon="-8.204922197862222"><ele>440.0</ele><time>2026-04-04T20:40:18.999Z</time></trkpt><trkpt lat="42.27088924206216" lon="-8.204707079117155"><ele>440.0</ele><time>2026-04-04T20:40:19.999Z</time></trkpt><trkpt lat="42.27107708111658" lon="-8.204495349115115"><ele>440.0</ele><time>2026-04-04T20:40:20.999Z</time></trkpt><trkpt lat="42.27127187621579" lon="-8.204300566692385"><ele>442.5</ele><time>2026-04-04T20:40:21.999Z</time></trkpt><trkpt lat="42.27147015050694" lon="-8.2041166910016"><ele>445.0</ele><time>2026-04-04T20:40:22.999Z</time></trkpt><trkpt lat="42.271675900813804" lon="-8.203943198131492"><ele>445.0</ele><time>2026-04-04T20:40:23.999Z</time></trkpt><trkpt lat="42.27188803851839" lon="-8.203786095226832"><ele>445.0</ele><time>2026-04-04T20:40:24.999Z</time></trkpt><trkpt lat="42.27210278071477" lon="-8.203634318526285"><ele>444.5</ele><time>2026-04-04T20:40:25.999Z</time></trkpt><trkpt lat="42.27232690717713" lon="-8.203506208306827"><ele>444.0</ele><time>2026-04-04T20:40:26.999Z</time></trkpt><trkpt lat="42.27255005136728" lon="-8.203389207338095"><ele>444.0</ele><time>2026-04-04T20:40:27.999Z</time></trkpt><trkpt lat="42.27277763139754" lon="-8.203286948522358"><ele>444.0</ele><time>2026-04-04T20:40:28.999Z</time></trkpt><trkpt lat="42.27300884684458" lon="-8.203189771426901"><ele>438.0</ele><time>2026-04-04T20:40:29.999Z</time></trkpt><trkpt lat="42.27324569283925" lon="-8.203104024197701"><ele>432.0</ele><time>2026-04-04T20:40:30.999Z</time></trkpt><trkpt lat="42.27347904493729" lon="-8.203030775535819"><ele>432.0</ele><time>2026-04-04T20:40:31.999Z</time></trkpt><trkpt lat="42.27371063303465" lon="-8.202982829959007"><ele>432.0</ele><time>2026-04-04T20:40:33Z</time></trkpt><trkpt lat="42.27394354261308" lon="-8.202945280308622"><ele>430.5</ele><time>2026-04-04T20:40:34Z</time></trkpt><trkpt lat="42.274181242483074" lon="-8.202916251004808"><ele>429.0</ele><time>2026-04-04T20:40:35Z</time></trkpt><trkpt lat="42.27442551965511" lon="-8.202899433587417"><ele>429.0</ele><time>2026-04-04T20:40:36Z</time></trkpt><trkpt lat="42.274666601093564" lon="-8.202900210929494"><ele>429.0</ele><time>2026-04-04T20:40:37Z</time></trkpt><trkpt lat="42.274907481019866" lon="-8.202917011906749"><ele>428.5</ele><time>2026-04-04T20:40:38Z</time></trkpt><trkpt lat="42.27514613399308" lon="-8.202947825241058"><ele>428.0</ele><time>2026-04-04T20:40:39Z</time></trkpt><trkpt lat="42.27538784711675" lon="-8.202982150891525"><ele>425.5</ele><time>2026-04-04T20:40:40Z</time></trkpt><trkpt lat="42.27562543148092" lon="-8.203025103211125"><ele>423.0</ele><time>2026-04-04T20:40:41Z</time></trkpt><trkpt lat="42.27586540894778" lon="-8.203069530517283"><ele>423.0</ele><time>2026-04-04T20:40:42Z</time></trkpt><trkpt lat="42.276105450673136" lon="-8.20311537263102"><ele>423.0</ele><time>2026-04-04T20:40:43Z</time></trkpt><trkpt lat="42.27634772233521" lon="-8.203151151350946"><ele>427.0</ele><time>2026-04-04T20:40:44Z</time></trkpt><trkpt lat="42.27659190491001" lon="-8.203184827636957"><ele>431.0</ele><time>2026-04-04T20:40:45Z</time></trkpt><trkpt lat="42.27683510960058" lon="-8.203211514545446"><ele>431.0</ele><time>2026-04-04T20:40:46Z</time></trkpt><trkpt lat="42.2770788174298" lon="-8.203227203142227"><ele>431.0</ele><time>2026-04-04T20:40:47Z</time></trkpt><trkpt lat="42.277324159468314" lon="-8.203229880726946"><ele>430.0</ele><time>2026-04-04T20:40:48Z</time></trkpt><trkpt lat="42.27756876053082" lon="-8.203213541714325"><ele>429.0</ele><time>2026-04-04T20:40:49Z</time></trkpt><trkpt lat="42.27781412952704" lon="-8.203190028908555"><ele>422.0</ele><time>2026-04-04T20:40:50Z</time></trkpt><trkpt lat="42.27806078485874" lon="-8.203157112464309"><ele>415.0</ele><time>2026-04-04T20:40:51Z</time></trkpt><trkpt lat="42.27830879796821" lon="-8.203114591078794"><ele>415.0</ele><time>2026-04-04T20:40:52Z</time></trkpt><trkpt lat="42.27855177412371" lon="-8.203069138468786"><ele>415.0</ele><time>2026-04-04T20:40:53Z</time></trkpt><trkpt lat="42.27879705882506" lon="-8.203017609749942"><ele>419.0</ele><time>2026-04-04T20:40:54Z</time></trkpt><trkpt lat="42.27903923165417" lon="-8.202962934662779"><ele>423.0</ele><time>2026-04-04T20:40:55Z</time></trkpt><trkpt lat="42.27928305301005" lon="-8.202909922950376"><ele>423.0</ele><time>2026-04-04T20:40:56Z</time></trkpt><trkpt lat="42.2795298348094" lon="-8.202855391666736"><ele>423.0</ele><time>2026-04-04T20:40:57Z</time></trkpt><trkpt lat="42.27977627855095" lon="-8.202799220822332"><ele>427.5</ele><time>2026-04-04T20:40:58Z</time></trkpt><trkpt lat="42.28002138221847" lon="-8.202746195939177"><ele>432.0</ele><time>2026-04-04T20:40:59Z</time></trkpt><trkpt lat="42.2802675639051" lon="-8.202696775842064"><ele>432.0</ele><time>2026-04-04T20:41:00Z</time></trkpt><trkpt lat="42.28051853171029" lon="-8.202650063586892"><ele>432.0</ele><time>2026-04-04T20:41:01Z</time></trkpt><trkpt lat="42.280769512927044" lon="-8.202607537090126"><ele>432.5</ele><time>2026-04-04T20:41:02Z</time></trkpt><trkpt lat="42.28102042256155" lon="-8.202570491671546"><ele>433.0</ele><time>2026-04-04T20:41:03Z</time></trkpt><trkpt lat="42.28127422469204" lon="-8.202536281443615"><ele>431.0</ele><time>2026-04-04T20:41:04Z</time></trkpt><trkpt lat="42.28152686715942" lon="-8.202507131389547"><ele>429.0</ele><time>2026-04-04T20:41:05Z</time></trkpt><trkpt lat="42.28178251230574" lon="-8.202453115779676"><ele>429.0</ele><time>2026-04-04T20:41:06Z</time></trkpt><trkpt lat="42.2820349022614" lon="-8.202422833144889"><ele>429.0</ele><time>2026-04-04T20:41:07Z</time></trkpt><trkpt lat="42.28229349999063" lon="-8.20240245530437"><ele>426.5</ele><time>2026-04-04T20:41:08Z</time></trkpt><trkpt lat="42.2825314298512" lon="-8.202393522044607"><ele>424.0</ele><time>2026-04-04T20:41:09Z</time></trkpt><trkpt lat="42.2827649261164" lon="-8.202391779809698"><ele>424.0</ele><time>2026-04-04T20:41:10Z</time></trkpt><trkpt lat="42.2829949904642" lon="-8.202394325385034"><ele>424.0</ele><time>2026-04-04T20:41:11Z</time></trkpt><trkpt lat="42.28322541708243" lon="-8.202398239567527"><ele>422.5</ele><time>2026-04-04T20:41:12Z</time></trkpt><trkpt lat="42.28345468959463" lon="-8.20240242248124"><ele>421.0</ele><time>2026-04-04T20:41:13Z</time></trkpt><trkpt lat="42.28368347444248" lon="-8.202413745841891"><ele>421.0</ele><time>2026-04-04T20:41:14Z</time></trkpt><trkpt lat="42.28390654547941" lon="-8.202449610687545"><ele>421.0</ele><time>2026-04-04T20:41:15Z</time></trkpt><trkpt lat="42.284133546790144" lon="-8.202456602114816"><ele>418.0</ele><time>2026-04-04T20:41:16Z</time></trkpt><trkpt lat="42.28435940312849" lon="-8.202465169919822"><ele>415.0</ele><time>2026-04-04T20:41:17Z</time></trkpt><trkpt lat="42.28458636508585" lon="-8.202473460707669"><ele>410.5</ele><time>2026-04-04T20:41:18Z</time></trkpt><trkpt lat="42.28481505799002" lon="-8.20248211458905"><ele>406.0</ele><time>2026-04-04T20:41:19Z</time></trkpt><trkpt lat="42.28504396036732" lon="-8.202490140610086"><ele>406.0</ele><time>2026-04-04T20:41:20Z</time></trkpt><trkpt lat="42.28527433194907" lon="-8.202489280111156"><ele>406.0</ele><time>2026-04-04T20:41:21Z</time></trkpt><trkpt lat="42.28550512578654" lon="-8.202480560844966"><ele>402.0</ele><time>2026-04-04T20:41:22Z</time></trkpt><trkpt lat="42.285736742471066" lon="-8.20246078019878"><ele>398.0</ele><time>2026-04-04T20:41:23Z</time></trkpt><trkpt lat="42.28596605834468" lon="-8.20242620655642"><ele>398.0</ele><time>2026-04-04T20:41:24Z</time></trkpt><trkpt lat="42.286200197868936" lon="-8.20237918256343"><ele>398.0</ele><time>2026-04-04T20:41:25Z</time></trkpt><trkpt lat="42.28643743386724" lon="-8.20230979216189"><ele>397.0</ele><time>2026-04-04T20:41:26Z</time></trkpt><trkpt lat="42.28667797026589" lon="-8.202225035170033"><ele>396.0</ele><time>2026-04-04T20:41:27Z</time></trkpt><trkpt lat="42.28691823259326" lon="-8.202129007584439"><ele>396.0</ele><time>2026-04-04T20:41:28Z</time></trkpt><trkpt lat="42.287147496653645" lon="-8.202023737468634"><ele>396.0</ele><time>2026-04-04T20:41:29Z</time></trkpt><trkpt lat="42.28736419562428" lon="-8.20190739521365"><ele>387.0</ele><time>2026-04-04T20:41:29.999Z</time></trkpt><trkpt lat="42.28757879313587" lon="-8.20177490857756"><ele>378.0</ele><time>2026-04-04T20:41:30.999Z</time></trkpt><trkpt lat="42.28779282188599" lon="-8.201624916891623"><ele>378.0</ele><time>2026-04-04T20:41:31.999Z</time></trkpt><trkpt lat="42.288005134977965" lon="-8.201461787138886"><ele>378.0</ele><time>2026-04-04T20:41:32.999Z</time></trkpt><trkpt lat="42.288214545589426" lon="-8.2012814518578"><ele>372.0</ele><time>2026-04-04T20:41:33.999Z</time></trkpt><trkpt lat="42.28842161410772" lon="-8.20108597887377"><ele>366.0</ele><time>2026-04-04T20:41:34.999Z</time></trkpt><trkpt lat="42.288621651842504" lon="-8.20087534807846"><ele>367.5</ele><time>2026-04-04T20:41:35.999Z</time></trkpt><trkpt lat="42.28881960824181" lon="-8.200654953789574"><ele>369.0</ele><time>2026-04-04T20:41:36.999Z</time></trkpt><trkpt lat="42.2890083818276" lon="-8.200422279248428"><ele>370.5</ele><time>2026-04-04T20:41:37.999Z</time></trkpt><trkpt lat="42.289188459321466" lon="-8.200172059723513"><ele>372.0</ele><time>2026-04-04T20:41:38.999Z</time></trkpt><trkpt lat="42.28936125122847" lon="-8.199905595740287"><ele>366.0</ele><time>2026-04-04T20:41:39.999Z</time></trkpt><trkpt lat="42.28952479085201" lon="-8.199632283742647"><ele>360.0</ele><time>2026-04-04T20:41:40.999Z</time></trkpt><trkpt lat="42.28966754621701" lon="-8.199359003245387"><ele>363.0</ele><time>2026-04-04T20:41:41.999Z</time></trkpt><trkpt lat="42.28980414749203" lon="-8.199063660542196"><ele>366.0</ele><time>2026-04-04T20:41:42.999Z</time></trkpt><trkpt lat="42.2899326162397" lon="-8.19876089156508"><ele>366.0</ele><time>2026-04-04T20:41:43.999Z</time></trkpt><trkpt lat="42.29004841824908" lon="-8.198443629211878"><ele>366.0</ele><time>2026-04-04T20:41:44.999Z</time></trkpt><trkpt lat="42.29015509016223" lon="-8.198124747973466"><ele>362.5</ele><time>2026-04-04T20:41:45.999Z</time></trkpt><trkpt lat="42.290261986818365" lon="-8.19780490574011"><ele>359.0</ele><time>2026-04-04T20:41:46.999Z</time></trkpt><trkpt lat="42.290358815448016" lon="-8.197477353324652"><ele>354.5</ele><time>2026-04-04T20:41:47.999Z</time></trkpt><trkpt lat="42.290452693964326" lon="-8.197147729515025"><ele>350.0</ele><time>2026-04-04T20:41:48.999Z</time></trkpt><trkpt lat="42.29054798971619" lon="-8.196820875166184"><ele>348.5</ele><time>2026-04-04T20:41:49.999Z</time></trkpt><trkpt lat="42.290643953123876" lon="-8.19649333967771"><ele>347.0</ele><time>2026-04-04T20:41:50.999Z</time></trkpt><trkpt lat="42.29074310911364" lon="-8.196166613530835"><ele>347.0</ele><time>2026-04-04T20:41:51.999Z</time></trkpt><trkpt lat="42.290840423740924" lon="-8.195852932552583"><ele>347.0</ele><time>2026-04-04T20:41:52.999Z</time></trkpt><trkpt lat="42.290930344707164" lon="-8.195552671853637"><ele>343.5</ele><time>2026-04-04T20:41:53.999Z</time></trkpt><trkpt lat="42.291021935989534" lon="-8.195255258710493"><ele>340.0</ele><time>2026-04-04T20:41:54.999Z</time></trkpt><trkpt lat="42.29112217059003" lon="-8.194950018076868"><ele>342.5</ele><time>2026-04-04T20:41:55.999Z</time></trkpt><trkpt lat="42.29122791012165" lon="-8.194649185214374"><ele>345.0</ele><time>2026-04-04T20:41:56.999Z</time></trkpt><trkpt lat="42.29133699451715" lon="-8.19435244394601"><ele>348.5</ele><time>2026-04-04T20:41:57.999Z</time></trkpt><trkpt lat="42.2914524851072" lon="-8.194060095746572"><ele>352.0</ele><time>2026-04-04T20:41:58.999Z</time></trkpt><trkpt lat="42.291574023849584" lon="-8.19376586187756"><ele>352.0</ele><time>2026-04-04T20:41:59.999Z</time></trkpt><trkpt lat="42.2916966685909" lon="-8.193474435841583"><ele>352.0</ele><time>2026-04-04T20:42:00.999Z</time></trkpt><trkpt lat="42.291820854960385" lon="-8.193186733498102"><ele>351.5</ele><time>2026-04-04T20:42:01.999Z</time></trkpt><trkpt lat="42.2919498737322" lon="-8.19289926998772"><ele>351.0</ele><time>2026-04-04T20:42:02.999Z</time></trkpt><trkpt lat="42.292080604725484" lon="-8.192617169736387"><ele>350.0</ele><time>2026-04-04T20:42:03.999Z</time></trkpt><trkpt lat="42.292215598832925" lon="-8.192339740608588"><ele>349.0</ele><time>2026-04-04T20:42:04.999Z</time></trkpt><trkpt lat="42.29235732194071" lon="-8.192064987362453"><ele>349.0</ele><time>2026-04-04T20:42:05.999Z</time></trkpt><trkpt lat="42.29250180269184" lon="-8.19179654147111"><ele>349.0</ele><time>2026-04-04T20:42:06.999Z</time></trkpt><trkpt lat="42.29264483400414" lon="-8.191528084872134"><ele>346.0</ele><time>2026-04-04T20:42:07.999Z</time></trkpt><trkpt lat="42.29279111721163" lon="-8.191263869262874"><ele>343.0</ele><time>2026-04-04T20:42:08.999Z</time></trkpt><trkpt lat="42.29294547023801" lon="-8.191006426432383"><ele>344.5</ele><time>2026-04-04T20:42:09.999Z</time></trkpt><trkpt lat="42.29310779011924" lon="-8.190745506002882"><ele>346.0</ele><time>2026-04-04T20:42:10.999Z</time></trkpt><trkpt lat="42.29327059963808" lon="-8.190492081283914"><ele>342.0</ele><time>2026-04-04T20:42:11.999Z</time></trkpt><trkpt lat="42.29343885282276" lon="-8.190244194721883"><ele>338.0</ele><time>2026-04-04T20:42:12.999Z</time></trkpt><trkpt lat="42.29360962434832" lon="-8.189993630037806"><ele>336.0</ele><time>2026-04-04T20:42:13.999Z</time></trkpt><trkpt lat="42.293778168858395" lon="-8.189747006400003"><ele>334.0</ele><time>2026-04-04T20:42:14.999Z</time></trkpt><trkpt lat="42.293953620967855" lon="-8.189503639442552"><ele>334.0</ele><time>2026-04-04T20:42:15.999Z</time></trkpt><trkpt lat="42.29413384170124" lon="-8.189268941483752"><ele>334.0</ele><time>2026-04-04T20:42:16.999Z</time></trkpt><trkpt lat="42.29432097725807" lon="-8.189048268798208"><ele>329.0</ele><time>2026-04-04T20:42:17.999Z</time></trkpt><trkpt lat="42.2945205516337" lon="-8.188831596774264"><ele>324.0</ele><time>2026-04-04T20:42:18.999Z</time></trkpt><trkpt lat="42.29472177743543" lon="-8.1886186549172"><ele>326.0</ele><time>2026-04-04T20:42:19.999Z</time></trkpt><trkpt lat="42.29492939130216" lon="-8.188411179828247"><ele>328.0</ele><time>2026-04-04T20:42:20.999Z</time></trkpt><trkpt lat="42.2951351759004" lon="-8.188203187338624"><ele>322.5</ele><time>2026-04-04T20:42:21.999Z</time></trkpt><trkpt lat="42.295342669101444" lon="-8.187998660250447"><ele>317.0</ele><time>2026-04-04T20:42:22.999Z</time></trkpt><trkpt lat="42.29554892686944" lon="-8.187790578341987"><ele>318.0</ele><time>2026-04-04T20:42:23.999Z</time></trkpt><trkpt lat="42.29575765413525" lon="-8.187580709160649"><ele>319.0</ele><time>2026-04-04T20:42:24.999Z</time></trkpt><trkpt lat="42.2959659296938" lon="-8.187368484799238"><ele>314.0</ele><time>2026-04-04T20:42:25.999Z</time></trkpt><trkpt lat="42.296168036091984" lon="-8.187147472412063"><ele>309.0</ele><time>2026-04-04T20:42:26.999Z</time></trkpt><trkpt lat="42.29635765082571" lon="-8.186921163034418"><ele>312.0</ele><time>2026-04-04T20:42:27.999Z</time></trkpt><trkpt lat="42.29653463065586" lon="-8.186698190238948"><ele>315.0</ele><time>2026-04-04T20:42:28.999Z</time></trkpt><trkpt lat="42.29671086207622" lon="-8.18647306040326"><ele>308.5</ele><time>2026-04-04T20:42:29.999Z</time></trkpt><trkpt lat="42.296885170081374" lon="-8.186238847176673"><ele>302.0</ele><time>2026-04-04T20:42:30.999Z</time></trkpt><trkpt lat="42.297056491355946" lon="-8.185988205415825"><ele>302.0</ele><time>2026-04-04T20:42:31.999Z</time></trkpt><trkpt lat="42.297222954697084" lon="-8.185728363030874"><ele>302.0</ele><time>2026-04-04T20:42:32.999Z</time></trkpt><trkpt lat="42.29738460493204" lon="-8.185465713330705"><ele>301.0</ele><time>2026-04-04T20:42:33.999Z</time></trkpt><trkpt lat="42.297542844722464" lon="-8.18519401850491"><ele>300.0</ele><time>2026-04-04T20:42:34.999Z</time></trkpt><trkpt lat="42.29769474019752" lon="-8.184911515496058"><ele>297.5</ele><time>2026-04-04T20:42:35.999Z</time></trkpt><trkpt lat="42.297843054108775" lon="-8.18462176910272"><ele>295.0</ele><time>2026-04-04T20:42:36.999Z</time></trkpt><trkpt lat="42.2979889011943" lon="-8.184330315608271"><ele>296.0</ele><time>2026-04-04T20:42:37.998Z</time></trkpt><trkpt lat="42.29813253559387" lon="-8.18403823554831"><ele>297.0</ele><time>2026-04-04T20:42:39Z</time></trkpt><trkpt lat="42.29827386377711" lon="-8.183749098167475"><ele>297.0</ele><time>2026-04-04T20:42:40Z</time></trkpt><trkpt lat="42.298423104530734" lon="-8.183456570057063"><ele>297.0</ele><time>2026-04-04T20:42:41Z</time></trkpt><trkpt lat="42.298575149941186" lon="-8.1831703731657"><ele>296.0</ele><time>2026-04-04T20:42:42Z</time></trkpt><trkpt lat="42.29872857871073" lon="-8.18289237446339"><ele>295.0</ele><time>2026-04-04T20:42:43Z</time></trkpt><trkpt lat="42.298879303426" lon="-8.182622406328992"><ele>294.0</ele><time>2026-04-04T20:42:44Z</time></trkpt><trkpt lat="42.2990332964465" lon="-8.182368789631598"><ele>293.0</ele><time>2026-04-04T20:42:45Z</time></trkpt><trkpt lat="42.29919084832878" lon="-8.1821372974126"><ele>291.5</ele><time>2026-04-04T20:42:46Z</time></trkpt><trkpt lat="42.29935257396696" lon="-8.18191328252649"><ele>290.0</ele><time>2026-04-04T20:42:47Z</time></trkpt><trkpt lat="42.29952308623959" lon="-8.18168587272021"><ele>289.5</ele><time>2026-04-04T20:42:48Z</time></trkpt><trkpt lat="42.299698734541636" lon="-8.181463132326847"><ele>289.0</ele><time>2026-04-04T20:42:49Z</time></trkpt><trkpt lat="42.29988277175109" lon="-8.181246923134482"><ele>289.0</ele><time>2026-04-04T20:42:50Z</time></trkpt><trkpt lat="42.30007348871851" lon="-8.181039238220915"><ele>289.0</ele><time>2026-04-04T20:42:51Z</time></trkpt><trkpt lat="42.30026864121554" lon="-8.180838898412127"><ele>291.5</ele><time>2026-04-04T20:42:52Z</time></trkpt><trkpt lat="42.3004677785937" lon="-8.180639393736856"><ele>294.0</ele><time>2026-04-04T20:42:53Z</time></trkpt><trkpt lat="42.300671411797246" lon="-8.180449477266428"><ele>294.0</ele><time>2026-04-04T20:42:54Z</time></trkpt><trkpt lat="42.30088136375516" lon="-8.18026960545284"><ele>294.0</ele><time>2026-04-04T20:42:55Z</time></trkpt><trkpt lat="42.30109439998449" lon="-8.180096404252707"><ele>294.0</ele><time>2026-04-04T20:42:56Z</time></trkpt><trkpt lat="42.30131170253583" lon="-8.179928561675338"><ele>294.0</ele><time>2026-04-04T20:42:57Z</time></trkpt><trkpt lat="42.301534499148104" lon="-8.1797664388999"><ele>294.0</ele><time>2026-04-04T20:42:58Z</time></trkpt><trkpt lat="42.3017591039942" lon="-8.179605337533477"><ele>294.0</ele><time>2026-04-04T20:42:59Z</time></trkpt><trkpt lat="42.30198673754412" lon="-8.17944551221441"><ele>294.0</ele><time>2026-04-04T20:43:00Z</time></trkpt><trkpt lat="42.30221293232214" lon="-8.179291292105564"><ele>294.0</ele><time>2026-04-04T20:43:01Z</time></trkpt><trkpt lat="42.30243776174069" lon="-8.17913967164053"><ele>298.5</ele><time>2026-04-04T20:43:02Z</time></trkpt><trkpt lat="42.30266377543504" lon="-8.178982626891877"><ele>303.0</ele><time>2026-04-04T20:43:03Z</time></trkpt><trkpt lat="42.30289296390181" lon="-8.17882833420043"><ele>296.0</ele><time>2026-04-04T20:43:04Z</time></trkpt><trkpt lat="42.303119615340925" lon="-8.178671119145703"><ele>289.0</ele><time>2026-04-04T20:43:05Z</time></trkpt><trkpt lat="42.30334922480681" lon="-8.17850987162201"><ele>289.0</ele><time>2026-04-04T20:43:06Z</time></trkpt><trkpt lat="42.303575795310934" lon="-8.178351105107598"><ele>289.0</ele><time>2026-04-04T20:43:07Z</time></trkpt><trkpt lat="42.30380586606134" lon="-8.178195947230064"><ele>288.5</ele><time>2026-04-04T20:43:08Z</time></trkpt><trkpt lat="42.30403757585439" lon="-8.17803834107658"><ele>288.0</ele><time>2026-04-04T20:43:09Z</time></trkpt><trkpt lat="42.30426866728896" lon="-8.177876478203892"><ele>288.0</ele><time>2026-04-04T20:43:10Z</time></trkpt><trkpt lat="42.30449834376617" lon="-8.177718904340688"><ele>288.0</ele><time>2026-04-04T20:43:11Z</time></trkpt><trkpt lat="42.30472590932814" lon="-8.177558424256317"><ele>289.0</ele><time>2026-04-04T20:43:12Z</time></trkpt><trkpt lat="42.304956495076695" lon="-8.17740078590056"><ele>290.0</ele><time>2026-04-04T20:43:13Z</time></trkpt><trkpt lat="42.30518734579471" lon="-8.177243523424663"><ele>290.0</ele><time>2026-04-04T20:43:14Z</time></trkpt><trkpt lat="42.30541880679168" lon="-8.177085256314124"><ele>290.0</ele><time>2026-04-04T20:43:15Z</time></trkpt><trkpt lat="42.30565043987204" lon="-8.176918136739008"><ele>284.5</ele><time>2026-04-04T20:43:16Z</time></trkpt><trkpt lat="42.30588078843804" lon="-8.176753762985578"><ele>279.0</ele><time>2026-04-04T20:43:17Z</time></trkpt><trkpt lat="42.30611219198737" lon="-8.17660087746768"><ele>283.5</ele><time>2026-04-04T20:43:18Z</time></trkpt><trkpt lat="42.30634303527466" lon="-8.176442933796196"><ele>288.0</ele><time>2026-04-04T20:43:19Z</time></trkpt><trkpt lat="42.30656787736053" lon="-8.176290548599283"><ele>288.0</ele><time>2026-04-04T20:43:20Z</time></trkpt><trkpt lat="42.306786650859486" lon="-8.176141781549488"><ele>288.0</ele><time>2026-04-04T20:43:21Z</time></trkpt><trkpt lat="42.30700154123564" lon="-8.175993853007629"><ele>288.0</ele><time>2026-04-04T20:43:22Z</time></trkpt><trkpt lat="42.30721683800162" lon="-8.175840869494811"><ele>288.0</ele><time>2026-04-04T20:43:23Z</time></trkpt><trkpt lat="42.307434696338674" lon="-8.175688027091693"><ele>292.5</ele><time>2026-04-04T20:43:24Z</time></trkpt><trkpt lat="42.307657990386176" lon="-8.175531550014174"><ele>297.0</ele><time>2026-04-04T20:43:25Z</time></trkpt><trkpt lat="42.30787733811728" lon="-8.175370557851712"><ele>283.5</ele><time>2026-04-04T20:43:26Z</time></trkpt><trkpt lat="42.308086531293135" lon="-8.17521142102624"><ele>270.0</ele><time>2026-04-04T20:43:27Z</time></trkpt><trkpt lat="42.30828908503096" lon="-8.1750352961101"><ele>283.5</ele><time>2026-04-04T20:43:28Z</time></trkpt><trkpt lat="42.3084873402465" lon="-8.174838842423625"><ele>297.0</ele><time>2026-04-04T20:43:29Z</time></trkpt><trkpt lat="42.30867817347103" lon="-8.17462680937275"><ele>297.0</ele><time>2026-04-04T20:43:30Z</time></trkpt><trkpt lat="42.308861093181164" lon="-8.174400462804163"><ele>297.0</ele><time>2026-04-04T20:43:30.999Z</time></trkpt><trkpt lat="42.30903502372753" lon="-8.174157235028355"><ele>288.0</ele><time>2026-04-04T20:43:31.999Z</time></trkpt><trkpt lat="42.30920095232719" lon="-8.173902624398268"><ele>279.0</ele><time>2026-04-04T20:43:32.999Z</time></trkpt><trkpt lat="42.309358379679374" lon="-8.17363369202521"><ele>279.0</ele><time>2026-04-04T20:43:33.999Z</time></trkpt><trkpt lat="42.30949932385177" lon="-8.173348263230126"><ele>279.0</ele><time>2026-04-04T20:43:34.999Z</time></trkpt><trkpt lat="42.30962909879357" lon="-8.173053972433856"><ele>267.5</ele><time>2026-04-04T20:43:35.999Z</time></trkpt><trkpt lat="42.30974930046208" lon="-8.172750375545654"><ele>256.0</ele><time>2026-04-04T20:43:36.999Z</time></trkpt><trkpt lat="42.309851095431135" lon="-8.172430730888006"><ele>254.0</ele><time>2026-04-04T20:43:37.999Z</time></trkpt><trkpt lat="42.30994126189999" lon="-8.172101415663928"><ele>252.0</ele><time>2026-04-04T20:43:38.999Z</time></trkpt><trkpt lat="42.31002040483527" lon="-8.17176614388804"><ele>251.5</ele><time>2026-04-04T20:43:39.999Z</time></trkpt><trkpt lat="42.31008530858873" lon="-8.171425559355235"><ele>251.0</ele><time>2026-04-04T20:43:40.999Z</time></trkpt><trkpt lat="42.31013459124635" lon="-8.171081612088203"><ele>251.0</ele><time>2026-04-04T20:43:41.999Z</time></trkpt><trkpt lat="42.31016890446571" lon="-8.17073504957215"><ele>251.0</ele><time>2026-04-04T20:43:42.999Z</time></trkpt><trkpt lat="42.31018735088734" lon="-8.170391849142426"><ele>247.5</ele><time>2026-04-04T20:43:43.999Z</time></trkpt><trkpt lat="42.31019116265349" lon="-8.170045043613884"><ele>244.0</ele><time>2026-04-04T20:43:44.999Z</time></trkpt><trkpt lat="42.31017883094241" lon="-8.169699666503869"><ele>240.0</ele><time>2026-04-04T20:43:45.999Z</time></trkpt><trkpt lat="42.31015117529274" lon="-8.16935603587603"><ele>236.0</ele><time>2026-04-04T20:43:46.999Z</time></trkpt><trkpt lat="42.31010649801543" lon="-8.169015072811426"><ele>231.5</ele><time>2026-04-04T20:43:47.999Z</time></trkpt><trkpt lat="42.310057574652504" lon="-8.168669542001616"><ele>227.0</ele><time>2026-04-04T20:43:48.999Z</time></trkpt><trkpt lat="42.310007435377585" lon="-8.168326908157367"><ele>226.5</ele><time>2026-04-04T20:43:49.999Z</time></trkpt><trkpt lat="42.30995610077659" lon="-8.16799814031653"><ele>226.0</ele><time>2026-04-04T20:43:50.999Z</time></trkpt><trkpt lat="42.309905678270475" lon="-8.167682282027267"><ele>226.0</ele><time>2026-04-04T20:43:51.999Z</time></trkpt><trkpt lat="42.30985601425416" lon="-8.16737738883953"><ele>226.0</ele><time>2026-04-04T20:43:52.999Z</time></trkpt><trkpt lat="42.30981208276157" lon="-8.167075216629847"><ele>225.5</ele><time>2026-04-04T20:43:53.999Z</time></trkpt><trkpt lat="42.30976554737843" lon="-8.166773496862644"><ele>225.0</ele><time>2026-04-04T20:43:54.999Z</time></trkpt><trkpt lat="42.30971592118781" lon="-8.16647113033255"><ele>227.0</ele><time>2026-04-04T20:43:55.999Z</time></trkpt><trkpt lat="42.309668355974594" lon="-8.166168874198357"><ele>229.0</ele><time>2026-04-04T20:43:56.999Z</time></trkpt><trkpt lat="42.30962008482303" lon="-8.16586750262729"><ele>229.5</ele><time>2026-04-04T20:43:57.999Z</time></trkpt><trkpt lat="42.30957224313173" lon="-8.165565582242566"><ele>230.0</ele><time>2026-04-04T20:43:58.999Z</time></trkpt><trkpt lat="42.30952252620036" lon="-8.16526136988581"><ele>230.0</ele><time>2026-04-04T20:43:59.999Z</time></trkpt><trkpt lat="42.309474866702885" lon="-8.164957712302526"><ele>230.0</ele><time>2026-04-04T20:44:00.999Z</time></trkpt><trkpt lat="42.3094274283507" lon="-8.164648947096085"><ele>227.5</ele><time>2026-04-04T20:44:01.999Z</time></trkpt><trkpt lat="42.309380293694566" lon="-8.1643406048032"><ele>225.0</ele><time>2026-04-04T20:44:02.999Z</time></trkpt><trkpt lat="42.309334259603176" lon="-8.16403233700086"><ele>221.5</ele><time>2026-04-04T20:44:03.999Z</time></trkpt><trkpt lat="42.30928478043993" lon="-8.163720003231749"><ele>218.0</ele><time>2026-04-04T20:44:04.999Z</time></trkpt><trkpt lat="42.30923523117762" lon="-8.163402112127763"><ele>219.5</ele><time>2026-04-04T20:44:05.999Z</time></trkpt><trkpt lat="42.30918497457272" lon="-8.163091989529894"><ele>221.0</ele><time>2026-04-04T20:44:06.999Z</time></trkpt><trkpt lat="42.309126634232186" lon="-8.162771801075994"><ele>221.0</ele><time>2026-04-04T20:44:07.999Z</time></trkpt><trkpt lat="42.30906330748188" lon="-8.162460324963376"><ele>221.0</ele><time>2026-04-04T20:44:08.999Z</time></trkpt><trkpt lat="42.30899120857265" lon="-8.162152384021006"><ele>220.0</ele><time>2026-04-04T20:44:09.999Z</time></trkpt><trkpt lat="42.308916290726074" lon="-8.161845011951266"><ele>219.0</ele><time>2026-04-04T20:44:10.999Z</time></trkpt><trkpt lat="42.308842750615625" lon="-8.161544796517532"><ele>220.5</ele><time>2026-04-04T20:44:11.999Z</time></trkpt><trkpt lat="42.308754916989315" lon="-8.161238591286203"><ele>222.0</ele><time>2026-04-04T20:44:12.999Z</time></trkpt><trkpt lat="42.308655743031686" lon="-8.160937083830573"><ele>224.0</ele><time>2026-04-04T20:44:13.999Z</time></trkpt><trkpt lat="42.308559374601025" lon="-8.160645540343948"><ele>226.0</ele><time>2026-04-04T20:44:14.999Z</time></trkpt><trkpt lat="42.30844996155171" lon="-8.160348203497163"><ele>226.0</ele><time>2026-04-04T20:44:15.999Z</time></trkpt><trkpt lat="42.30833612038387" lon="-8.160063361665472"><ele>226.0</ele><time>2026-04-04T20:44:16.999Z</time></trkpt><trkpt lat="42.3082165360986" lon="-8.159780880351182"><ele>228.0</ele><time>2026-04-04T20:44:17.999Z</time></trkpt><trkpt lat="42.308092279708106" lon="-8.159498214081493"><ele>230.0</ele><time>2026-04-04T20:44:18.999Z</time></trkpt><trkpt lat="42.30796302291889" lon="-8.15922308137609"><ele>227.0</ele><time>2026-04-04T20:44:19.999Z</time></trkpt><trkpt lat="42.30782384337185" lon="-8.1589505347087"><ele>224.0</ele><time>2026-04-04T20:44:20.999Z</time></trkpt><trkpt lat="42.30768711138922" lon="-8.158674889906429"><ele>224.0</ele><time>2026-04-04T20:44:21.999Z</time></trkpt><trkpt lat="42.30755358077862" lon="-8.158386582213856"><ele>224.0</ele><time>2026-04-04T20:44:22.999Z</time></trkpt><trkpt lat="42.30742086865734" lon="-8.15811891990215"><ele>226.0</ele><time>2026-04-04T20:44:23.999Z</time></trkpt><trkpt lat="42.30728436744204" lon="-8.157835254516309"><ele>228.0</ele><time>2026-04-04T20:44:24.999Z</time></trkpt><trkpt lat="42.30714666311508" lon="-8.157556476865702"><ele>225.0</ele><time>2026-04-04T20:44:25.999Z</time></trkpt><trkpt lat="42.30701274686182" lon="-8.157271483300352"><ele>222.0</ele><time>2026-04-04T20:44:26.999Z</time></trkpt><trkpt lat="42.3068829241533" lon="-8.15698331107276"><ele>222.0</ele><time>2026-04-04T20:44:27.999Z</time></trkpt><trkpt lat="42.30675230672164" lon="-8.15668580296795"><ele>222.0</ele><time>2026-04-04T20:44:28.999Z</time></trkpt><trkpt lat="42.30662828493086" lon="-8.15638448000107"><ele>221.0</ele><time>2026-04-04T20:44:29.999Z</time></trkpt><trkpt lat="42.30650245053222" lon="-8.156084728950797"><ele>220.0</ele><time>2026-04-04T20:44:30.999Z</time></trkpt><trkpt lat="42.30638343216055" lon="-8.155775086751932"><ele>218.5</ele><time>2026-04-04T20:44:31.999Z</time></trkpt><trkpt lat="42.306266694859765" lon="-8.15545467632004"><ele>217.0</ele><time>2026-04-04T20:44:32.999Z</time></trkpt><trkpt lat="42.30615457034694" lon="-8.155138332581714"><ele>215.0</ele><time>2026-04-04T20:44:33.999Z</time></trkpt><trkpt lat="42.30605150832409" lon="-8.154826056334667"><ele>213.0</ele><time>2026-04-04T20:44:34.999Z</time></trkpt><trkpt lat="42.30595329335232" lon="-8.154527622619865"><ele>213.0</ele><time>2026-04-04T20:44:35.999Z</time></trkpt><trkpt lat="42.30585796614389" lon="-8.15421923712348"><ele>213.0</ele><time>2026-04-04T20:44:36.998Z</time></trkpt><trkpt lat="42.30576594000157" lon="-8.15389950014454"><ele>214.0</ele><time>2026-04-04T20:44:37.998Z</time></trkpt><trkpt lat="42.30567187475773" lon="-8.153572188653648"><ele>215.0</ele><time>2026-04-04T20:44:38.998Z</time></trkpt><trkpt lat="42.30558183464147" lon="-8.153243856052557"><ele>203.0</ele><time>2026-04-04T20:44:39.998Z</time></trkpt><trkpt lat="42.30549158193783" lon="-8.152906055403111"><ele>191.0</ele><time>2026-04-04T20:44:40.998Z</time></trkpt><trkpt lat="42.30540385909241" lon="-8.152580750796965"><ele>196.0</ele><time>2026-04-04T20:44:41.998Z</time></trkpt><trkpt lat="42.30532499720883" lon="-8.152261763295476"><ele>201.0</ele><time>2026-04-04T20:44:42.998Z</time></trkpt><trkpt lat="42.30524112044442" lon="-8.151952787695564"><ele>201.0</ele><time>2026-04-04T20:44:43.998Z</time></trkpt><trkpt lat="42.30516006372936" lon="-8.15164736288859"><ele>201.0</ele><time>2026-04-04T20:44:45Z</time></trkpt><trkpt lat="42.305078643302195" lon="-8.151355670910192"><ele>200.0</ele><time>2026-04-04T20:44:46Z</time></trkpt><trkpt lat="42.30500135279923" lon="-8.151074288314827"><ele>199.0</ele><time>2026-04-04T20:44:47Z</time></trkpt><trkpt lat="42.30492375541385" lon="-8.15080017953675"><ele>198.0</ele><time>2026-04-04T20:44:48Z</time></trkpt><trkpt lat="42.304850669073254" lon="-8.150532553712742"><ele>196.33333333333331</ele><time>2026-04-04T20:44:49Z</time></trkpt><trkpt lat="42.30478150414056" lon="-8.150273136161756"><ele>194.66666666666666</ele><time>2026-04-04T20:44:50Z</time></trkpt><trkpt lat="42.30471071218131" lon="-8.150017112612602"><ele>193.0</ele><time>2026-04-04T20:44:51Z</time></trkpt><trkpt lat="42.30463902399738" lon="-8.149760075923364"><ele>189.33333333333331</ele><time>2026-04-04T20:44:52Z</time></trkpt><trkpt lat="42.30456858980614" lon="-8.149499899579451"><ele>185.66666666666666</ele><time>2026-04-04T20:44:53Z</time></trkpt><trkpt lat="42.30450015697829" lon="-8.149236954627987"><ele>182.0</ele><time>2026-04-04T20:44:54Z</time></trkpt><trkpt lat="42.30442865747202" lon="-8.148975522355261"><ele>182.0</ele><time>2026-04-04T20:44:55Z</time></trkpt><trkpt lat="42.3043573679601" lon="-8.148717717720567"><ele>182.0</ele><time>2026-04-04T20:44:56Z</time></trkpt><trkpt lat="42.30428564326112" lon="-8.148457388453503"><ele>182.0</ele><time>2026-04-04T20:44:57Z</time></trkpt><trkpt lat="42.30421408682385" lon="-8.148197197445082"><ele>184.0</ele><time>2026-04-04T20:44:58Z</time></trkpt><trkpt lat="42.304141732254266" lon="-8.147937397499703"><ele>186.0</ele><time>2026-04-04T20:44:59Z</time></trkpt><trkpt lat="42.304070675618036" lon="-8.147677911988994"><ele>188.0</ele><time>2026-04-04T20:45:00Z</time></trkpt><trkpt lat="42.30400127837224" lon="-8.147423585688623"><ele>187.33333333333331</ele><time>2026-04-04T20:45:01Z</time></trkpt><trkpt lat="42.30392740635787" lon="-8.147168092420232"><ele>186.66666666666666</ele><time>2026-04-04T20:45:02Z</time></trkpt><trkpt lat="42.30385653719576" lon="-8.14690970331023"><ele>186.0</ele><time>2026-04-04T20:45:03Z</time></trkpt><trkpt lat="42.30378426321192" lon="-8.146650831294895"><ele>184.33333333333334</ele><time>2026-04-04T20:45:04Z</time></trkpt><trkpt lat="42.303711600748635" lon="-8.146392284957615"><ele>182.66666666666669</ele><time>2026-04-04T20:45:05Z</time></trkpt><trkpt lat="42.30364423803635" lon="-8.146140545539774"><ele>181.0</ele><time>2026-04-04T20:45:06Z</time></trkpt><trkpt lat="42.303583611261956" lon="-8.145893861863549"><ele>179.33333333333334</ele><time>2026-04-04T20:45:07Z</time></trkpt><trkpt lat="42.30352097369104" lon="-8.14565520184341"><ele>177.66666666666666</ele><time>2026-04-04T20:45:08Z</time></trkpt><trkpt lat="42.303456315434794" lon="-8.145413430252228"><ele>176.0</ele><time>2026-04-04T20:45:09Z</time></trkpt><trkpt lat="42.303390858257956" lon="-8.145175492306736"><ele>176.0</ele><time>2026-04-04T20:45:10Z</time></trkpt><trkpt lat="42.303321786015495" lon="-8.144935339420693"><ele>176.0</ele><time>2026-04-04T20:45:11Z</time></trkpt><trkpt lat="42.303255995405365" lon="-8.144696810927975"><ele>176.0</ele><time>2026-04-04T20:45:12Z</time></trkpt><trkpt lat="42.3031894654878" lon="-8.144457841851212"><ele>174.33333333333331</ele><time>2026-04-04T20:45:13Z</time></trkpt><trkpt lat="42.303123967307286" lon="-8.14422826782766"><ele>172.66666666666666</ele><time>2026-04-04T20:45:14Z</time></trkpt><trkpt lat="42.30305687564885" lon="-8.144002516837018"><ele>171.0</ele><time>2026-04-04T20:45:15Z</time></trkpt><trkpt lat="42.30299438435757" lon="-8.143780667121383"><ele>168.0</ele><time>2026-04-04T20:45:16Z</time></trkpt><trkpt lat="42.302937610323085" lon="-8.143566396413364"><ele>165.0</ele><time>2026-04-04T20:45:17Z</time></trkpt><trkpt lat="42.30287975747128" lon="-8.143353041964017"><ele>162.0</ele><time>2026-04-04T20:45:18Z</time></trkpt><trkpt lat="42.30282220193792" lon="-8.143139142121816"><ele>161.0</ele><time>2026-04-04T20:45:19Z</time></trkpt><trkpt lat="42.30276633038854" lon="-8.142918622805437"><ele>160.0</ele><time>2026-04-04T20:45:20Z</time></trkpt><trkpt lat="42.30270361184812" lon="-8.142702689819815"><ele>159.0</ele><time>2026-04-04T20:45:21Z</time></trkpt><trkpt lat="42.30263724958341" lon="-8.142486402564586"><ele>157.33333333333334</ele><time>2026-04-04T20:45:22Z</time></trkpt><trkpt lat="42.30257775253437" lon="-8.142263841504642"><ele>155.66666666666669</ele><time>2026-04-04T20:45:23Z</time></trkpt><trkpt lat="42.30252069379272" lon="-8.142035032119932"><ele>154.0</ele><time>2026-04-04T20:45:24Z</time></trkpt><trkpt lat="42.30245690457002" lon="-8.141809240198176"><ele>154.0</ele><time>2026-04-04T20:45:25Z</time></trkpt><trkpt lat="42.3023932423098" lon="-8.14158079085735"><ele>154.0</ele><time>2026-04-04T20:45:26Z</time></trkpt><trkpt lat="42.3023294519205" lon="-8.141351844170165"><ele>154.0</ele><time>2026-04-04T20:45:27Z</time></trkpt><trkpt lat="42.302268552888954" lon="-8.14112117161807"><ele>155.0</ele><time>2026-04-04T20:45:28Z</time></trkpt><trkpt lat="42.30220553448699" lon="-8.1408868150229"><ele>156.0</ele><time>2026-04-04T20:45:29Z</time></trkpt><trkpt lat="42.30214353292643" lon="-8.140654163636231"><ele>157.0</ele><time>2026-04-04T20:45:30Z</time></trkpt><trkpt lat="42.30208145979585" lon="-8.140418787600117"><ele>157.0</ele><time>2026-04-04T20:45:31Z</time></trkpt><trkpt lat="42.30201737300906" lon="-8.140182063643717"><ele>157.0</ele><time>2026-04-04T20:45:31.999Z</time></trkpt><trkpt lat="42.30195415745828" lon="-8.139946398081145"><ele>157.0</ele><time>2026-04-04T20:45:32.999Z</time></trkpt><trkpt lat="42.301890587782964" lon="-8.139713119021115"><ele>152.66666666666669</ele><time>2026-04-04T20:45:33.999Z</time></trkpt><trkpt lat="42.30182906981795" lon="-8.139477818850098"><ele>148.33333333333334</ele><time>2026-04-04T20:45:34.999Z</time></trkpt><trkpt lat="42.30177140066635" lon="-8.13923591932686"><ele>144.0</ele><time>2026-04-04T20:45:35.999Z</time></trkpt><trkpt lat="42.301712081307365" lon="-8.138980905675258"><ele>141.0</ele><time>2026-04-04T20:45:36.999Z</time></trkpt><trkpt lat="42.30165453078936" lon="-8.138715050231447"><ele>138.0</ele><time>2026-04-04T20:45:37.999Z</time></trkpt><trkpt lat="42.301598005099905" lon="-8.138436963919009"><ele>135.0</ele><time>2026-04-04T20:45:38.999Z</time></trkpt><trkpt lat="42.30154649757988" lon="-8.138145904860206"><ele>131.33333333333334</ele><time>2026-04-04T20:45:39.999Z</time></trkpt><trkpt lat="42.301497071302" lon="-8.137851499016756"><ele>127.66666666666667</ele><time>2026-04-04T20:45:40.999Z</time></trkpt><trkpt lat="42.30145380236051" lon="-8.1375531241634"><ele>124.0</ele><time>2026-04-04T20:45:41.999Z</time></trkpt><trkpt lat="42.30141774893966" lon="-8.13725929199435"><ele>116.33333333333334</ele><time>2026-04-04T20:45:42.999Z</time></trkpt><trkpt lat="42.30138462456406" lon="-8.136963755722839"><ele>108.66666666666666</ele><time>2026-04-04T20:45:43.999Z</time></trkpt><trkpt lat="42.301356194828145" lon="-8.13665888070687"><ele>101.0</ele><time>2026-04-04T20:45:44.999Z</time></trkpt><trkpt lat="42.301333498681814" lon="-8.136349252883994"><ele>98.5</ele><time>2026-04-04T20:45:45.999Z</time></trkpt><trkpt lat="42.30131470808922" lon="-8.136033539706856"><ele>96.0</ele><time>2026-04-04T20:45:46.999Z</time></trkpt><trkpt lat="42.30130240420558" lon="-8.13571082229792"><ele>91.5</ele><time>2026-04-04T20:45:47.999Z</time></trkpt><trkpt lat="42.301296488460416" lon="-8.135386358289265"><ele>87.0</ele><time>2026-04-04T20:45:48.999Z</time></trkpt><trkpt lat="42.30129696129483" lon="-8.135052109057126"><ele>83.5</ele><time>2026-04-04T20:45:49.999Z</time></trkpt><trkpt lat="42.301306304954416" lon="-8.13471973026868"><ele>80.0</ele><time>2026-04-04T20:45:50.999Z</time></trkpt><trkpt lat="42.30132665731534" lon="-8.134387726147853"><ele>79.0</ele><time>2026-04-04T20:45:51.999Z</time></trkpt><trkpt lat="42.301349140992016" lon="-8.13404735158944"><ele>78.0</ele><time>2026-04-04T20:45:52.999Z</time></trkpt><trkpt lat="42.30137313789901" lon="-8.133705711216466"><ele>78.0</ele><time>2026-04-04T20:45:53.999Z</time></trkpt><trkpt lat="42.301410819797475" lon="-8.133363077942626"><ele>78.0</ele><time>2026-04-04T20:45:54.999Z</time></trkpt><trkpt lat="42.30145353755116" lon="-8.133024177877248"><ele>77.0</ele><time>2026-04-04T20:45:55.999Z</time></trkpt><trkpt lat="42.30150641912423" lon="-8.132688623342878"><ele>76.0</ele><time>2026-04-04T20:45:56.999Z</time></trkpt><trkpt lat="42.301566627643375" lon="-8.132355019790989"><ele>76.0</ele><time>2026-04-04T20:45:57.999Z</time></trkpt><trkpt lat="42.30163201916195" lon="-8.132025593992198"><ele>76.0</ele><time>2026-04-04T20:45:58.999Z</time></trkpt><trkpt lat="42.3017018459091" lon="-8.131701426440792"><ele>77.0</ele><time>2026-04-04T20:45:59.999Z</time></trkpt><trkpt lat="42.30177815900159" lon="-8.131382361154449"><ele>78.0</ele><time>2026-04-04T20:46:00.999Z</time></trkpt><trkpt lat="42.30186238806166" lon="-8.131064189439293"><ele>78.0</ele><time>2026-04-04T20:46:01.999Z</time></trkpt><trkpt lat="42.30195136376276" lon="-8.130756298630487"><ele>78.0</ele><time>2026-04-04T20:46:02.999Z</time></trkpt><trkpt lat="42.30204433613695" lon="-8.130447060930022"><ele>80.0</ele><time>2026-04-04T20:46:03.999Z</time></trkpt><trkpt lat="42.30214319978508" lon="-8.130141152931799"><ele>82.0</ele><time>2026-04-04T20:46:04.999Z</time></trkpt><trkpt lat="42.30224484675322" lon="-8.129833850032417"><ele>82.5</ele><time>2026-04-04T20:46:05.999Z</time></trkpt><trkpt lat="42.302345271574694" lon="-8.129531735079407"><ele>83.0</ele><time>2026-04-04T20:46:06.999Z</time></trkpt><trkpt lat="42.30244674342309" lon="-8.129232957190744"><ele>87.0</ele><time>2026-04-04T20:46:07.999Z</time></trkpt><trkpt lat="42.30254789179435" lon="-8.12893518213542"><ele>91.0</ele><time>2026-04-04T20:46:08.999Z</time></trkpt><trkpt lat="42.302647194915615" lon="-8.12863841993887"><ele>91.0</ele><time>2026-04-04T20:46:09.999Z</time></trkpt><trkpt lat="42.30274523956145" lon="-8.128336967911242"><ele>91.0</ele><time>2026-04-04T20:46:10.999Z</time></trkpt><trkpt lat="42.302836293388346" lon="-8.128061444530838"><ele>93.33333333333333</ele><time>2026-04-04T20:46:11.999Z</time></trkpt><trkpt lat="42.30292288167188" lon="-8.127795282733816"><ele>95.66666666666666</ele><time>2026-04-04T20:46:12.999Z</time></trkpt><trkpt lat="42.30301154807106" lon="-8.127517825338742"><ele>98.0</ele><time>2026-04-04T20:46:13.999Z</time></trkpt><trkpt lat="42.3030975264289" lon="-8.1272340683151"><ele>98.5</ele><time>2026-04-04T20:46:14.999Z</time></trkpt><trkpt lat="42.303198897416195" lon="-8.126965862457487"><ele>99.0</ele><time>2026-04-04T20:46:15.999Z</time></trkpt><trkpt lat="42.30329417818605" lon="-8.12668433667957"><ele>101.0</ele><time>2026-04-04T20:46:16.999Z</time></trkpt><trkpt lat="42.30338788263225" lon="-8.12640291029836"><ele>103.0</ele><time>2026-04-04T20:46:17.999Z</time></trkpt><trkpt lat="42.30348164954937" lon="-8.126117535724404"><ele>103.0</ele><time>2026-04-04T20:46:18.999Z</time></trkpt><trkpt lat="42.30357420228826" lon="-8.125835481670656"><ele>103.0</ele><time>2026-04-04T20:46:19.999Z</time></trkpt><trkpt lat="42.30366768428869" lon="-8.125546117843529"><ele>105.5</ele><time>2026-04-04T20:46:20.999Z</time></trkpt><trkpt lat="42.303761599383904" lon="-8.125259493129617"><ele>108.0</ele><time>2026-04-04T20:46:21.999Z</time></trkpt><trkpt lat="42.30385719568218" lon="-8.124976631240774"><ele>108.66666666666666</ele><time>2026-04-04T20:46:22.999Z</time></trkpt><trkpt lat="42.303946832273546" lon="-8.124713752395358"><ele>109.33333333333333</ele><time>2026-04-04T20:46:23.999Z</time></trkpt><trkpt lat="42.30403393093703" lon="-8.124469808217519"><ele>110.0</ele><time>2026-04-04T20:46:24.999Z</time></trkpt><trkpt lat="42.30411753839997" lon="-8.124222394859594"><ele>111.33333333333333</ele><time>2026-04-04T20:46:25.999Z</time></trkpt><trkpt lat="42.30420549969841" lon="-8.123972970047722"><ele>112.66666666666666</ele><time>2026-04-04T20:46:26.999Z</time></trkpt><trkpt lat="42.30430083626144" lon="-8.123721678022507"><ele>114.0</ele><time>2026-04-04T20:46:27.999Z</time></trkpt><trkpt lat="42.30439935003683" lon="-8.123474386450397"><ele>114.33333333333334</ele><time>2026-04-04T20:46:28.999Z</time></trkpt><trkpt lat="42.30449903866139" lon="-8.123227458353115"><ele>114.66666666666667</ele><time>2026-04-04T20:46:29.999Z</time></trkpt><trkpt lat="42.30459407714045" lon="-8.12299392448457"><ele>115.0</ele><time>2026-04-04T20:46:30.999Z</time></trkpt><trkpt lat="42.30468378405938" lon="-8.12277193614598"><ele>113.33333333333334</ele><time>2026-04-04T20:46:31.999Z</time></trkpt><trkpt lat="42.30477205862832" lon="-8.122548931208796"><ele>111.66666666666666</ele><time>2026-04-04T20:46:32.999Z</time></trkpt><trkpt lat="42.3048699368208" lon="-8.12233306839107"><ele>110.0</ele><time>2026-04-04T20:46:33.999Z</time></trkpt><trkpt lat="42.30496622649992" lon="-8.122119448319685"><ele>110.0</ele><time>2026-04-04T20:46:34.999Z</time></trkpt><trkpt lat="42.30506627935177" lon="-8.12191748711753"><ele>110.0</ele><time>2026-04-04T20:46:35.998Z</time></trkpt><trkpt lat="42.305158965248765" lon="-8.121726862306113"><ele>110.0</ele><time>2026-04-04T20:46:36.998Z</time></trkpt><trkpt lat="42.30522988370951" lon="-8.121534852856042"><ele>111.0</ele><time>2026-04-04T20:46:37.998Z</time></trkpt><trkpt lat="42.305280634661315" lon="-8.121328077483392"><ele>112.0</ele><time>2026-04-04T20:46:38.998Z</time></trkpt><trkpt lat="42.30530680035659" lon="-8.12111504642908"><ele>113.0</ele><time>2026-04-04T20:46:39.998Z</time></trkpt><trkpt lat="42.30530827775059" lon="-8.120907408738546"><ele>114.0</ele><time>2026-04-04T20:46:40.998Z</time></trkpt><trkpt lat="42.305284042325795" lon="-8.120705622345914"><ele>115.0</ele><time>2026-04-04T20:46:41.998Z</time></trkpt><trkpt lat="42.30524998768017" lon="-8.120518065359349"><ele>116.0</ele><time>2026-04-04T20:46:42.998Z</time></trkpt><trkpt lat="42.305214984252174" lon="-8.120348977560738"><ele>117.0</ele><time>2026-04-04T20:46:43.998Z</time></trkpt><trkpt lat="42.30518582529121" lon="-8.120194604944622"><ele>117.0</ele><time>2026-04-04T20:46:44.998Z</time></trkpt><trkpt lat="42.30516500347594" lon="-8.120050990490803"><ele>116.99999999999999</ele><time>2026-04-04T20:46:45.998Z</time></trkpt><trkpt lat="42.30514139176947" lon="-8.119928488087707"><ele>116.99999999999999</ele><time>2026-04-04T20:46:46.998Z</time></trkpt><trkpt lat="42.30511283022251" lon="-8.11982058139254"><ele>117.0</ele><time>2026-04-04T20:46:47.998Z</time></trkpt><trkpt lat="42.30505863561085" lon="-8.119732675590848"><ele>117.0</ele><time>2026-04-04T20:46:48.998Z</time></trkpt><trkpt lat="42.30499052003636" lon="-8.119672147966657"><ele>117.33333333333333</ele><time>2026-04-04T20:46:49.998Z</time></trkpt><trkpt lat="42.304939294707516" lon="-8.119604994624572"><ele>117.66666666666666</ele><time>2026-04-04T20:46:51Z</time></trkpt><trkpt lat="42.304911461167684" lon="-8.119505416741527"><ele>118.0</ele><time>2026-04-04T20:46:52Z</time></trkpt><trkpt lat="42.30491074719712" lon="-8.119401404408432"><ele>118.33333333333333</ele><time>2026-04-04T20:46:53Z</time></trkpt><trkpt lat="42.304932551440565" lon="-8.119300243082966"><ele>118.66666666666666</ele><time>2026-04-04T20:46:54Z</time></trkpt><trkpt lat="42.30497643908734" lon="-8.119218112060533"><ele>119.0</ele><time>2026-04-04T20:46:55Z</time></trkpt><trkpt lat="42.305038838032026" lon="-8.119153862279818"><ele>118.99999999999999</ele><time>2026-04-04T20:46:56Z</time></trkpt><trkpt lat="42.30511754528005" lon="-8.119137440720673"><ele>119.0</ele><time>2026-04-04T20:46:57Z</time></trkpt><trkpt lat="42.30519850954457" lon="-8.119156732631762"><ele>119.0</ele><time>2026-04-04T20:46:58Z</time></trkpt><trkpt lat="42.305271074453664" lon="-8.119209284937547"><ele>119.0</ele><time>2026-04-04T20:46:59Z</time></trkpt><trkpt lat="42.305326073729915" lon="-8.1192905869691"><ele>118.99999999999999</ele><time>2026-04-04T20:47:00Z</time></trkpt><trkpt lat="42.30535410221638" lon="-8.11939145454749"><ele>119.0</ele><time>2026-04-04T20:47:01Z</time></trkpt><trkpt lat="42.30534988598883" lon="-8.119500694326971"><ele>119.0</ele><time>2026-04-04T20:47:02Z</time></trkpt><trkpt lat="42.305333080963756" lon="-8.119615377420471"><ele>119.0</ele><time>2026-04-04T20:47:03Z</time></trkpt><trkpt lat="42.30533813209118" lon="-8.119739543429317"><ele>119.0</ele><time>2026-04-04T20:47:04Z</time></trkpt><trkpt lat="42.30537671903959" lon="-8.119867464381274"><ele>119.0</ele><time>2026-04-04T20:47:05Z</time></trkpt><trkpt lat="42.305441340209256" lon="-8.11998822332401"><ele>119.0</ele><time>2026-04-04T20:47:06Z</time></trkpt><trkpt lat="42.30551754441897" lon="-8.120116760893804"><ele>118.75</ele><time>2026-04-04T20:47:07Z</time></trkpt><trkpt lat="42.305598992241144" lon="-8.120256748668094"><ele>118.5</ele><time>2026-04-04T20:47:08Z</time></trkpt><trkpt lat="42.30568418746215" lon="-8.120413248161649"><ele>118.25</ele><time>2026-04-04T20:47:09Z</time></trkpt><trkpt lat="42.305769717516796" lon="-8.120572746489414"><ele>118.0</ele><time>2026-04-04T20:47:10Z</time></trkpt><trkpt lat="42.305858883534285" lon="-8.12073770625669"><ele>117.0</ele><time>2026-04-04T20:47:11Z</time></trkpt><trkpt lat="42.30594958073244" lon="-8.120907095438248"><ele>116.0</ele><time>2026-04-04T20:47:12Z</time></trkpt><trkpt lat="42.30604058895455" lon="-8.121089459497087"><ele>115.0</ele><time>2026-04-04T20:47:13Z</time></trkpt><trkpt lat="42.30612071315819" lon="-8.121277370987402"><ele>115.0</ele><time>2026-04-04T20:47:14Z</time></trkpt><trkpt lat="42.306187329783235" lon="-8.121454544615116"><ele>115.0</ele><time>2026-04-04T20:47:15Z</time></trkpt><trkpt lat="42.30623074890266" lon="-8.121617767231154"><ele>115.0</ele><time>2026-04-04T20:47:16Z</time></trkpt><trkpt lat="42.30627955626006" lon="-8.121759142639323"><ele>115.0</ele><time>2026-04-04T20:47:17Z</time></trkpt><trkpt lat="42.30634603065205" lon="-8.121861813061358"><ele>114.8</ele><time>2026-04-04T20:47:18Z</time></trkpt><trkpt lat="42.30641950235631" lon="-8.121916225730494"><ele>114.6</ele><time>2026-04-04T20:47:19Z</time></trkpt><trkpt lat="42.30648825458992" lon="-8.121951369798083"><ele>114.4</ele><time>2026-04-04T20:47:20Z</time></trkpt><trkpt lat="42.30652914145241" lon="-8.122116862528738"><ele>114.2</ele><time>2026-04-04T20:47:22Z</time></trkpt><trkpt lat="42.30651831402833" lon="-8.1222214550068"><ele>114.0</ele><time>2026-04-04T20:47:23Z</time></trkpt><trkpt lat="42.306479462050966" lon="-8.122327455765923"><ele>113.25</ele><time>2026-04-04T20:47:24Z</time></trkpt><trkpt lat="42.30641927772899" lon="-8.122443222412615"><ele>112.5</ele><time>2026-04-04T20:47:25Z</time></trkpt><trkpt lat="42.30632631494324" lon="-8.122507696427178"><ele>111.75</ele><time>2026-04-04T20:47:26Z</time></trkpt><trkpt lat="42.30637164441233" lon="-8.122719943002112"><ele>111.0</ele><time>2026-04-04T20:47:27Z</time></trkpt><trkpt lat="42.30636683524244" lon="-8.122869667695312"><ele>111.0</ele><time>2026-04-04T20:47:28Z</time></trkpt><trkpt lat="42.30635374356902" lon="-8.123013421773205"><ele>111.0</ele><time>2026-04-04T20:47:29Z</time></trkpt><trkpt lat="42.306338891625714" lon="-8.123167560345872"><ele>111.0</ele><time>2026-04-04T20:47:30Z</time></trkpt><trkpt lat="42.306314420918326" lon="-8.123327640656063"><ele>111.0</ele><time>2026-04-04T20:47:31Z</time></trkpt><trkpt lat="42.306283758556766" lon="-8.123496589182059"><ele>109.75</ele><time>2026-04-04T20:47:32Z</time></trkpt><trkpt lat="42.306239622496115" lon="-8.123673800532812"><ele>108.5</ele><time>2026-04-04T20:47:33Z</time></trkpt><trkpt lat="42.306189062835536" lon="-8.123839799451142"><ele>107.25</ele><time>2026-04-04T20:47:34Z</time></trkpt><trkpt lat="42.30614915703059" lon="-8.124018893033693"><ele>106.0</ele><time>2026-04-04T20:47:35Z</time></trkpt><trkpt lat="42.306079106588996" lon="-8.124200893518605"><ele>103.66666666666667</ele><time>2026-04-04T20:47:35.999Z</time></trkpt><trkpt lat="42.306004976565276" lon="-8.124367871568957"><ele>101.33333333333334</ele><time>2026-04-04T20:47:36.999Z</time></trkpt><trkpt lat="42.30591752089706" lon="-8.124535283246008"><ele>99.0</ele><time>2026-04-04T20:47:37.999Z</time></trkpt><trkpt lat="42.305808214147504" lon="-8.124685225751273"><ele>99.0</ele><time>2026-04-04T20:47:38.999Z</time></trkpt><trkpt lat="42.30571722640097" lon="-8.12485331336275"><ele>99.0</ele><time>2026-04-04T20:47:39.999Z</time></trkpt><trkpt lat="42.30560388977373" lon="-8.125007029438205"><ele>99.0</ele><time>2026-04-04T20:47:40.999Z</time></trkpt><trkpt lat="42.30548232063815" lon="-8.125144841018544"><ele>97.66666666666667</ele><time>2026-04-04T20:47:41.999Z</time></trkpt><trkpt lat="42.305367957408215" lon="-8.125300113013775"><ele>96.33333333333334</ele><time>2026-04-04T20:47:42.999Z</time></trkpt><trkpt lat="42.30525250749218" lon="-8.12545551144165"><ele>95.0</ele><time>2026-04-04T20:47:43.999Z</time></trkpt><trkpt lat="42.30514428259142" lon="-8.125618130378378"><ele>93.66666666666667</ele><time>2026-04-04T20:47:44.999Z</time></trkpt><trkpt lat="42.30504500484258" lon="-8.125788516973982"><ele>92.33333333333333</ele><time>2026-04-04T20:47:45.999Z</time></trkpt><trkpt lat="42.30496037022905" lon="-8.125977264034598"><ele>91.0</ele><time>2026-04-04T20:47:46.999Z</time></trkpt><trkpt lat="42.3048856270108" lon="-8.126178981190808"><ele>91.0</ele><time>2026-04-04T20:47:47.999Z</time></trkpt><trkpt lat="42.30482706620474" lon="-8.126395023966195"><ele>91.0</ele><time>2026-04-04T20:47:48.999Z</time></trkpt><trkpt lat="42.30479739287216" lon="-8.126614899205249"><ele>91.0</ele><time>2026-04-04T20:47:49.999Z</time></trkpt><trkpt lat="42.304743991048596" lon="-8.126831113439152"><ele>90.33333333333333</ele><time>2026-04-04T20:47:50.999Z</time></trkpt><trkpt lat="42.30470692356291" lon="-8.127058036258836"><ele>89.66666666666667</ele><time>2026-04-04T20:47:51.999Z</time></trkpt><trkpt lat="42.304669332450985" lon="-8.127277218076172"><ele>89.0</ele><time>2026-04-04T20:47:52.999Z</time></trkpt><trkpt lat="42.30463371658386" lon="-8.12749862712209"><ele>89.0</ele><time>2026-04-04T20:47:53.999Z</time></trkpt><trkpt lat="42.30459515165719" lon="-8.127722218178823"><ele>89.0</ele><time>2026-04-04T20:47:54.999Z</time></trkpt><trkpt lat="42.30455613010275" lon="-8.127950058393651"><ele>89.0</ele><time>2026-04-04T20:47:55.999Z</time></trkpt><trkpt lat="42.30451471835939" lon="-8.128175591022107"><ele>86.66666666666667</ele><time>2026-04-04T20:47:56.999Z</time></trkpt><trkpt lat="42.304469089723554" lon="-8.128402487253178"><ele>84.33333333333333</ele><time>2026-04-04T20:47:57.999Z</time></trkpt><trkpt lat="42.304425030057594" lon="-8.128641495099277"><ele>82.0</ele><time>2026-04-04T20:47:58.999Z</time></trkpt><trkpt lat="42.30437737090574" lon="-8.12888649415087"><ele>81.0</ele><time>2026-04-04T20:47:59.999Z</time></trkpt><trkpt lat="42.30432868689775" lon="-8.129137232266451"><ele>80.0</ele><time>2026-04-04T20:48:00.999Z</time></trkpt><trkpt lat="42.304280144088835" lon="-8.12938026659584"><ele>79.0</ele><time>2026-04-04T20:48:01.999Z</time></trkpt><trkpt lat="42.304231592161216" lon="-8.129636685597113"><ele>79.0</ele><time>2026-04-04T20:48:02.999Z</time></trkpt><trkpt lat="42.304187492457814" lon="-8.12986754192907"><ele>79.0</ele><time>2026-04-04T20:48:03.999Z</time></trkpt><trkpt lat="42.30414819608502" lon="-8.130077468485679"><ele>79.0</ele><time>2026-04-04T20:48:04.999Z</time></trkpt><trkpt lat="42.30411286010412" lon="-8.130269234616826"><ele>79.0</ele><time>2026-04-04T20:48:05.999Z</time></trkpt><trkpt lat="42.304084530953034" lon="-8.130439548670852"><ele>79.0</ele><time>2026-04-04T20:48:06.999Z</time></trkpt><trkpt lat="42.304056565453685" lon="-8.130590930457194"><ele>79.0</ele><time>2026-04-04T20:48:07.999Z</time></trkpt><trkpt lat="42.30403390062878" lon="-8.130719206350662"><ele>79.0</ele><time>2026-04-04T20:48:08.999Z</time></trkpt><trkpt lat="42.30401091993587" lon="-8.130836709860684"><ele>79.0</ele><time>2026-04-04T20:48:09.999Z</time></trkpt><trkpt lat="42.30399019757664" lon="-8.130961314801375"><ele>79.0</ele><time>2026-04-04T20:48:10.999Z</time></trkpt><trkpt lat="42.303975785226356" lon="-8.131079932953577"><ele>79.0</ele><time>2026-04-04T20:48:11.999Z</time></trkpt><trkpt lat="42.303956942432514" lon="-8.131189634349207"><ele>79.0</ele><time>2026-04-04T20:48:12.999Z</time></trkpt><trkpt lat="42.30393362888374" lon="-8.13129203784063"><ele>79.0</ele><time>2026-04-04T20:48:13.999Z</time></trkpt><trkpt lat="42.30391517759157" lon="-8.131393120089635"><ele>79.0</ele><time>2026-04-04T20:48:14.999Z</time></trkpt><trkpt lat="42.30390642213885" lon="-8.131483921531835"><ele>79.0</ele><time>2026-04-04T20:48:15.999Z</time></trkpt><trkpt lat="42.30388938425457" lon="-8.13160285361142"><ele>78.60000000000001</ele><time>2026-04-04T20:48:24.999Z</time></trkpt><trkpt lat="42.30387176137356" lon="-8.131684787921209"><ele>78.2</ele><time>2026-04-04T20:48:25.999Z</time></trkpt><trkpt lat="42.30384248424664" lon="-8.131802057777792"><ele>77.80000000000001</ele><time>2026-04-04T20:48:26.999Z</time></trkpt><trkpt lat="42.30380444643006" lon="-8.13194352763747"><ele>77.4</ele><time>2026-04-04T20:48:27.999Z</time></trkpt><trkpt lat="42.30376500529098" lon="-8.132102374838647"><ele>77.0</ele><time>2026-04-04T20:48:28.999Z</time></trkpt><trkpt lat="42.30372961785816" lon="-8.132277874268105"><ele>76.5</ele><time>2026-04-04T20:48:29.999Z</time></trkpt><trkpt lat="42.30369175770377" lon="-8.132453248633993"><ele>76.0</ele><time>2026-04-04T20:48:30.999Z</time></trkpt><trkpt lat="42.30365077409582" lon="-8.132645530013866"><ele>75.5</ele><time>2026-04-04T20:48:31.999Z</time></trkpt><trkpt lat="42.303596573622244" lon="-8.132847707968763"><ele>75.0</ele><time>2026-04-04T20:48:32.999Z</time></trkpt><trkpt lat="42.303523015212534" lon="-8.133042929203926"><ele>75.33333333333333</ele><time>2026-04-04T20:48:33.999Z</time></trkpt><trkpt lat="42.30344835926673" lon="-8.133245362153131"><ele>75.66666666666666</ele><time>2026-04-04T20:48:34.999Z</time></trkpt><trkpt lat="42.30337028855438" lon="-8.133451352968493"><ele>76.0</ele><time>2026-04-04T20:48:35.999Z</time></trkpt><trkpt lat="42.30328158283157" lon="-8.133651826870027"><ele>76.0</ele><time>2026-04-04T20:48:36.999Z</time></trkpt><trkpt lat="42.303180483987944" lon="-8.133854507620393"><ele>76.0</ele><time>2026-04-04T20:48:37.999Z</time></trkpt><trkpt lat="42.303080947705226" lon="-8.134081429999444"><ele>76.0</ele><time>2026-04-04T20:48:38.998Z</time></trkpt><trkpt lat="42.30298117105395" lon="-8.134271817213813"><ele>75.66666666666666</ele><time>2026-04-04T20:48:39.998Z</time></trkpt><trkpt lat="42.30288501660645" lon="-8.134455292860123"><ele>75.33333333333333</ele><time>2026-04-04T20:48:40.998Z</time></trkpt><trkpt lat="42.302796775271" lon="-8.134622995247135"><ele>75.0</ele><time>2026-04-04T20:48:41.998Z</time></trkpt><trkpt lat="42.30271491187537" lon="-8.134774256350104"><ele>76.75</ele><time>2026-04-04T20:48:42.998Z</time></trkpt><trkpt lat="42.30262289727336" lon="-8.13490963175436"><ele>78.5</ele><time>2026-04-04T20:48:43.998Z</time></trkpt><trkpt lat="42.30255147505832" lon="-8.135051152996162"><ele>80.25</ele><time>2026-04-04T20:48:44.998Z</time></trkpt><trkpt lat="42.302487373038964" lon="-8.135180032577686"><ele>82.0</ele><time>2026-04-04T20:48:45.998Z</time></trkpt><trkpt lat="42.302429900796604" lon="-8.135299294882852"><ele>81.99999999999999</ele><time>2026-04-04T20:48:46.998Z</time></trkpt><trkpt lat="42.30240367749716" lon="-8.13541503227143"><ele>82.0</ele><time>2026-04-04T20:48:47.998Z</time></trkpt><trkpt lat="42.30239397013713" lon="-8.135501053964939"><ele>82.0</ele><time>2026-04-04T20:48:48.998Z</time></trkpt><trkpt lat="42.30243236337853" lon="-8.13561653240115"><ele>82.0</ele><time>2026-04-04T20:50:12.999Z</time></trkpt><trkpt lat="42.30246866923491" lon="-8.135686157122302"><ele>82.0</ele><time>2026-04-04T20:50:13.999Z</time></trkpt><trkpt lat="42.30252966848244" lon="-8.13571881292368"><ele>81.99999999999999</ele><time>2026-04-04T20:50:14.999Z</time></trkpt><trkpt lat="42.30259687986627" lon="-8.135742181496019"><ele>82.0</ele><time>2026-04-04T20:50:15.999Z</time></trkpt><trkpt lat="42.30268897085312" lon="-8.135662323200188"><ele>82.0</ele><time>2026-04-04T20:50:16.999Z</time></trkpt><trkpt lat="42.30275797176504" lon="-8.135601218422863"><ele>82.0</ele><time>2026-04-04T20:50:17.999Z</time></trkpt><trkpt lat="42.3028192735832" lon="-8.13553054501831"><ele>82.0</ele><time>2026-04-04T20:50:18.999Z</time></trkpt><trkpt lat="42.3028736303221" lon="-8.135460845796977"><ele>82.0</ele><time>2026-04-04T20:50:19.999Z</time></trkpt><trkpt lat="42.302957082656135" lon="-8.135374510297066"><ele>82.0</ele><time>2026-04-04T20:50:21.999Z</time></trkpt><trkpt lat="42.30306496569783" lon="-8.135338879781777"><ele>80.75</ele><time>2026-04-04T20:50:23.999Z</time></trkpt><trkpt lat="42.30317901523463" lon="-8.135411664496159"><ele>79.5</ele><time>2026-04-04T20:50:24.999Z</time></trkpt><trkpt lat="42.30328977494437" lon="-8.1354625222137"><ele>78.25</ele><time>2026-04-04T20:50:25.999Z</time></trkpt><trkpt lat="42.30340290021547" lon="-8.135499327942115"><ele>77.0</ele><time>2026-04-04T20:50:26.999Z</time></trkpt><trkpt lat="42.30351905556179" lon="-8.135523533220992"><ele>77.0</ele><time>2026-04-04T20:50:27.999Z</time></trkpt><trkpt lat="42.30364368340358" lon="-8.135540633752349"><ele>77.0</ele><time>2026-04-04T20:50:28.999Z</time></trkpt><trkpt lat="42.30377984475402" lon="-8.135550476831419"><ele>77.0</ele><time>2026-04-04T20:50:29.999Z</time></trkpt><trkpt lat="42.30392264850379" lon="-8.135549209534998"><ele>77.0</ele><time>2026-04-04T20:50:30.999Z</time></trkpt><trkpt lat="42.30405408954142" lon="-8.135560849276052"><ele>76.5</ele><time>2026-04-04T20:50:31.999Z</time></trkpt><trkpt lat="42.304189073693216" lon="-8.13557333036875"><ele>76.0</ele><time>2026-04-04T20:50:32.999Z</time></trkpt><trkpt lat="42.304326836117085" lon="-8.135591484453931"><ele>75.5</ele><time>2026-04-04T20:50:33.999Z</time></trkpt><trkpt lat="42.304461635644934" lon="-8.135602842346396"><ele>75.0</ele><time>2026-04-04T20:50:34.999Z</time></trkpt><trkpt lat="42.30459826067117" lon="-8.1356100763104"><ele>75.0</ele><time>2026-04-04T20:50:35.999Z</time></trkpt><trkpt lat="42.30472678299372" lon="-8.135616978840062"><ele>75.0</ele><time>2026-04-04T20:50:36.999Z</time></trkpt><trkpt lat="42.30486673532348" lon="-8.135630426886202"><ele>75.0</ele><time>2026-04-04T20:50:37.999Z</time></trkpt><trkpt lat="42.304994495812196" lon="-8.135640770714176"><ele>75.0</ele><time>2026-04-04T20:50:38.999Z</time></trkpt><trkpt lat="42.30512766524307" lon="-8.13565558433165"><ele>75.25</ele><time>2026-04-04T20:50:39.999Z</time></trkpt><trkpt lat="42.305254417898844" lon="-8.135662388783482"><ele>75.5</ele><time>2026-04-04T20:50:40.999Z</time></trkpt><trkpt lat="42.305390564046924" lon="-8.135662963669274"><ele>75.75</ele><time>2026-04-04T20:50:41.999Z</time></trkpt><trkpt lat="42.30551965912027" lon="-8.135669035698898"><ele>76.0</ele><time>2026-04-04T20:50:42.999Z</time></trkpt><trkpt lat="42.305644580763484" lon="-8.135662071778349"><ele>76.25</ele><time>2026-04-04T20:50:43.999Z</time></trkpt><trkpt lat="42.305769610504306" lon="-8.135662644259892"><ele>76.5</ele><time>2026-04-04T20:50:44.999Z</time></trkpt><trkpt lat="42.30589617462908" lon="-8.135663593134122"><ele>76.75</ele><time>2026-04-04T20:50:45.999Z</time></trkpt><trkpt lat="42.30601761787649" lon="-8.1356612755679"><ele>77.0</ele><time>2026-04-04T20:50:46.999Z</time></trkpt><trkpt lat="42.30614465799794" lon="-8.13565083168488"><ele>77.0</ele><time>2026-04-04T20:50:47.999Z</time></trkpt><trkpt lat="42.306264337394424" lon="-8.135650231474045"><ele>77.0</ele><time>2026-04-04T20:50:48.998Z</time></trkpt><trkpt lat="42.306386983023714" lon="-8.13565027474286"><ele>77.0</ele><time>2026-04-04T20:50:49.998Z</time></trkpt><trkpt lat="42.30650322043439" lon="-8.135643712961196"><ele>77.0</ele><time>2026-04-04T20:50:50.998Z</time></trkpt><trkpt lat="42.30662163982606" lon="-8.135643419520859"><ele>77.75</ele><time>2026-04-04T20:50:51.998Z</time></trkpt><trkpt lat="42.30674519727799" lon="-8.135642776795246"><ele>78.5</ele><time>2026-04-04T20:50:52.998Z</time></trkpt><trkpt lat="42.306856750881316" lon="-8.135625609123764"><ele>79.25</ele><time>2026-04-04T20:50:53.998Z</time></trkpt><trkpt lat="42.306968749460154" lon="-8.135570485295014"><ele>80.0</ele><time>2026-04-04T20:50:54.998Z</time></trkpt><trkpt lat="42.307079091454554" lon="-8.135538346626063"><ele>80.0</ele><time>2026-04-04T20:50:55.998Z</time></trkpt><trkpt lat="42.30716923658882" lon="-8.135446877000348"><ele>80.0</ele><time>2026-04-04T20:50:56.998Z</time></trkpt><trkpt lat="42.307269485027284" lon="-8.13535379083077"><ele>80.0</ele><time>2026-04-04T20:50:57.998Z</time></trkpt><trkpt lat="42.30737318829589" lon="-8.135271346189715"><ele>80.0</ele><time>2026-04-04T20:50:58.998Z</time></trkpt><trkpt lat="42.307465176629634" lon="-8.135157268290486"><ele>79.5</ele><time>2026-04-04T20:50:59.998Z</time></trkpt><trkpt lat="42.30756123320958" lon="-8.135048526788259"><ele>79.0</ele><time>2026-04-04T20:51:00.998Z</time></trkpt><trkpt lat="42.30766341250724" lon="-8.1349471516175"><ele>78.5</ele><time>2026-04-04T20:51:01.998Z</time></trkpt><trkpt lat="42.30776754518064" lon="-8.13483294312526"><ele>78.0</ele><time>2026-04-04T20:51:03Z</time></trkpt><trkpt lat="42.30786917249977" lon="-8.134714115439104"><ele>78.25</ele><time>2026-04-04T20:51:04Z</time></trkpt><trkpt lat="42.30797629641166" lon="-8.134597553421916"><ele>78.5</ele><time>2026-04-04T20:51:05Z</time></trkpt><trkpt lat="42.30808711123344" lon="-8.134473543204843"><ele>78.75</ele><time>2026-04-04T20:51:06Z</time></trkpt><trkpt lat="42.30819465325157" lon="-8.134354129915572"><ele>79.0</ele><time>2026-04-04T20:51:07Z</time></trkpt><trkpt lat="42.308308694526445" lon="-8.134232779796607"><ele>79.0</ele><time>2026-04-04T20:51:08Z</time></trkpt><trkpt lat="42.308417511080386" lon="-8.134103271196771"><ele>79.0</ele><time>2026-04-04T20:51:09Z</time></trkpt><trkpt lat="42.30851315198824" lon="-8.13399087889591"><ele>79.0</ele><time>2026-04-04T20:51:10Z</time></trkpt><trkpt lat="42.308608941217585" lon="-8.13389159397302"><ele>79.0</ele><time>2026-04-04T20:51:11Z</time></trkpt><trkpt lat="42.30869553617142" lon="-8.133794912489279"><ele>78.75</ele><time>2026-04-04T20:51:12Z</time></trkpt><trkpt lat="42.3087661999553" lon="-8.13369460758533"><ele>78.5</ele><time>2026-04-04T20:51:13Z</time></trkpt><trkpt lat="42.30882742600364" lon="-8.133583043398811"><ele>78.25</ele><time>2026-04-04T20:51:14Z</time></trkpt><trkpt lat="42.30888362255153" lon="-8.133431202159088"><ele>78.0</ele><time>2026-04-04T20:51:15Z</time></trkpt><trkpt lat="42.30894402711155" lon="-8.133266210214096"><ele>79.0</ele><time>2026-04-04T20:51:16Z</time></trkpt><trkpt lat="42.30901193830126" lon="-8.133105095653496"><ele>80.0</ele><time>2026-04-04T20:51:17Z</time></trkpt><trkpt lat="42.30908362058421" lon="-8.132937250518147"><ele>81.0</ele><time>2026-04-04T20:51:18Z</time></trkpt><trkpt lat="42.30915583338407" lon="-8.132766593081355"><ele>82.0</ele><time>2026-04-04T20:51:19Z</time></trkpt><trkpt lat="42.30922860764853" lon="-8.132600578926203"><ele>82.0</ele><time>2026-04-04T20:51:20Z</time></trkpt><trkpt lat="42.309305407854396" lon="-8.132433651345279"><ele>82.0</ele><time>2026-04-04T20:51:21Z</time></trkpt><trkpt lat="42.309387469484165" lon="-8.132279366150575"><ele>82.0</ele><time>2026-04-04T20:51:22Z</time></trkpt><trkpt lat="42.30947409338459" lon="-8.132126626943256"><ele>82.0</ele><time>2026-04-04T20:51:23Z</time></trkpt><trkpt lat="42.30958043462608" lon="-8.131986446798708"><ele>81.75</ele><time>2026-04-04T20:51:24Z</time></trkpt><trkpt lat="42.309686397963254" lon="-8.131850562736389"><ele>81.5</ele><time>2026-04-04T20:51:25Z</time></trkpt><trkpt lat="42.30980056388603" lon="-8.131718601434399"><ele>81.25</ele><time>2026-04-04T20:51:26Z</time></trkpt><trkpt lat="42.30991803550139" lon="-8.131585902351786"><ele>81.0</ele><time>2026-04-04T20:51:27Z</time></trkpt><trkpt lat="42.31003845047833" lon="-8.131446881612225"><ele>80.66666666666667</ele><time>2026-04-04T20:51:28Z</time></trkpt><trkpt lat="42.31015288520376" lon="-8.13131516308742"><ele>80.33333333333334</ele><time>2026-04-04T20:51:29Z</time></trkpt><trkpt lat="42.3102838746517" lon="-8.131188053598484"><ele>80.0</ele><time>2026-04-04T20:51:30Z</time></trkpt><trkpt lat="42.31041054651627" lon="-8.131060308079183"><ele>80.0</ele><time>2026-04-04T20:51:31Z</time></trkpt><trkpt lat="42.31054753007785" lon="-8.130921903178807"><ele>80.0</ele><time>2026-04-04T20:51:32Z</time></trkpt><trkpt lat="42.31066890376211" lon="-8.130791531053696"><ele>80.0</ele><time>2026-04-04T20:51:33Z</time></trkpt><trkpt lat="42.3107984060748" lon="-8.130661967867585"><ele>79.66666666666667</ele><time>2026-04-04T20:51:34Z</time></trkpt><trkpt lat="42.31093199040114" lon="-8.13052878569408"><ele>79.33333333333333</ele><time>2026-04-04T20:51:35Z</time></trkpt><trkpt lat="42.311064013025835" lon="-8.130400935662331"><ele>79.0</ele><time>2026-04-04T20:51:36Z</time></trkpt><trkpt lat="42.31119756970255" lon="-8.13026717396544"><ele>79.0</ele><time>2026-04-04T20:51:37Z</time></trkpt><trkpt lat="42.31133216520185" lon="-8.130138452278354"><ele>79.0</ele><time>2026-04-04T20:51:38Z</time></trkpt><trkpt lat="42.31146234709493" lon="-8.130005198782062"><ele>79.0</ele><time>2026-04-04T20:51:39Z</time></trkpt><trkpt lat="42.31159804475807" lon="-8.129871196434015"><ele>79.0</ele><time>2026-04-04T20:51:39.999Z</time></trkpt><trkpt lat="42.31173153039959" lon="-8.129739159707695"><ele>79.0</ele><time>2026-04-04T20:51:40.999Z</time></trkpt><trkpt lat="42.31186608035428" lon="-8.129607184798742"><ele>79.0</ele><time>2026-04-04T20:51:41.999Z</time></trkpt><trkpt lat="42.31199749720546" lon="-8.129476624748882"><ele>79.0</ele><time>2026-04-04T20:51:42.999Z</time></trkpt><trkpt lat="42.31213262666108" lon="-8.12934174426241"><ele>79.0</ele><time>2026-04-04T20:51:43.999Z</time></trkpt><trkpt lat="42.31226508505877" lon="-8.129203008168641"><ele>79.0</ele><time>2026-04-04T20:51:44.999Z</time></trkpt><trkpt lat="42.31239729509409" lon="-8.129070468724938"><ele>79.66666666666666</ele><time>2026-04-04T20:51:45.999Z</time></trkpt><trkpt lat="42.31253087140494" lon="-8.128934530478995"><ele>80.33333333333333</ele><time>2026-04-04T20:51:46.999Z</time></trkpt><trkpt lat="42.312663160674845" lon="-8.128804438240426"><ele>81.0</ele><time>2026-04-04T20:51:47.999Z</time></trkpt><trkpt lat="42.31279816921383" lon="-8.128666969872762"><ele>81.0</ele><time>2026-04-04T20:51:48.999Z</time></trkpt><trkpt lat="42.31293417196393" lon="-8.128537078634844"><ele>81.0</ele><time>2026-04-04T20:51:49.999Z</time></trkpt><trkpt lat="42.31306987957491" lon="-8.12841141792082"><ele>81.0</ele><time>2026-04-04T20:51:50.999Z</time></trkpt><trkpt lat="42.31320367609128" lon="-8.128280474310897"><ele>81.33333333333333</ele><time>2026-04-04T20:51:51.999Z</time></trkpt><trkpt lat="42.31334022622315" lon="-8.12814154607643"><ele>81.66666666666666</ele><time>2026-04-04T20:51:52.999Z</time></trkpt><trkpt lat="42.3134759807032" lon="-8.12800545779024"><ele>82.0</ele><time>2026-04-04T20:51:53.999Z</time></trkpt><trkpt lat="42.31362117775376" lon="-8.127860050265664"><ele>82.0</ele><time>2026-04-04T20:51:54.999Z</time></trkpt><trkpt lat="42.31376540420984" lon="-8.127720885785338"><ele>82.0</ele><time>2026-04-04T20:51:55.999Z</time></trkpt><trkpt lat="42.31390887144105" lon="-8.127575927578008"><ele>82.0</ele><time>2026-04-04T20:51:56.999Z</time></trkpt><trkpt lat="42.3140589232808" lon="-8.127421578080897"><ele>81.66666666666666</ele><time>2026-04-04T20:51:57.999Z</time></trkpt><trkpt lat="42.31421243447866" lon="-8.127266076637765"><ele>81.33333333333333</ele><time>2026-04-04T20:51:58.999Z</time></trkpt><trkpt lat="42.31436923068269" lon="-8.127105424821973"><ele>81.0</ele><time>2026-04-04T20:51:59.999Z</time></trkpt><trkpt lat="42.314523575425746" lon="-8.126942959632029"><ele>81.0</ele><time>2026-04-04T20:52:00.999Z</time></trkpt><trkpt lat="42.31468234242207" lon="-8.126756455522676"><ele>81.0</ele><time>2026-04-04T20:52:01.999Z</time></trkpt><trkpt lat="42.31484124427407" lon="-8.12658509108298"><ele>81.0</ele><time>2026-04-04T20:52:02.999Z</time></trkpt><trkpt lat="42.31500655864194" lon="-8.12641780943678"><ele>81.33333333333333</ele><time>2026-04-04T20:52:03.999Z</time></trkpt><trkpt lat="42.31517503874121" lon="-8.126252310973928"><ele>81.66666666666666</ele><time>2026-04-04T20:52:04.999Z</time></trkpt><trkpt lat="42.315354231094226" lon="-8.126089720642664"><ele>82.0</ele><time>2026-04-04T20:52:05.999Z</time></trkpt><trkpt lat="42.31554121227437" lon="-8.125912941051379"><ele>82.0</ele><time>2026-04-04T20:52:06.999Z</time></trkpt><trkpt lat="42.315718090962854" lon="-8.125762508475551"><ele>82.0</ele><time>2026-04-04T20:52:07.999Z</time></trkpt><trkpt lat="42.31589983194842" lon="-8.125585884856612"><ele>82.0</ele><time>2026-04-04T20:52:08.999Z</time></trkpt><trkpt lat="42.31607912915399" lon="-8.125404915027387"><ele>82.0</ele><time>2026-04-04T20:52:09.999Z</time></trkpt><trkpt lat="42.316260442084186" lon="-8.125220866080518"><ele>82.0</ele><time>2026-04-04T20:52:10.999Z</time></trkpt><trkpt lat="42.31644428469578" lon="-8.125039608485073"><ele>81.5</ele><time>2026-04-04T20:52:11.999Z</time></trkpt><trkpt lat="42.31663095679804" lon="-8.1248579761143"><ele>81.0</ele><time>2026-04-04T20:52:12.999Z</time></trkpt><trkpt lat="42.316812360586525" lon="-8.124672605430414"><ele>81.0</ele><time>2026-04-04T20:52:13.999Z</time></trkpt><trkpt lat="42.317000209542066" lon="-8.124484627040944"><ele>81.0</ele><time>2026-04-04T20:52:14.999Z</time></trkpt><trkpt lat="42.3171864456785" lon="-8.124298964387028"><ele>80.0</ele><time>2026-04-04T20:52:15.999Z</time></trkpt><trkpt lat="42.31737715275539" lon="-8.124110299561037"><ele>79.0</ele><time>2026-04-04T20:52:16.999Z</time></trkpt><trkpt lat="42.31756556817794" lon="-8.12392659656247"><ele>79.0</ele><time>2026-04-04T20:52:17.999Z</time></trkpt><trkpt lat="42.317756657630156" lon="-8.123733393741334"><ele>79.0</ele><time>2026-04-04T20:52:18.999Z</time></trkpt><trkpt lat="42.317943849253076" lon="-8.123550594022124"><ele>79.5</ele><time>2026-04-04T20:52:19.999Z</time></trkpt><trkpt lat="42.318137088418425" lon="-8.123357902058432"><ele>80.0</ele><time>2026-04-04T20:52:20.999Z</time></trkpt><trkpt lat="42.31832776814353" lon="-8.12316921052995"><ele>80.0</ele><time>2026-04-04T20:52:21.999Z</time></trkpt><trkpt lat="42.31851718186971" lon="-8.122981965248846"><ele>80.0</ele><time>2026-04-04T20:52:22.999Z</time></trkpt><trkpt lat="42.318710329383215" lon="-8.12279244657106"><ele>80.0</ele><time>2026-04-04T20:52:23.999Z</time></trkpt><trkpt lat="42.318901103755124" lon="-8.12260676487152"><ele>80.0</ele><time>2026-04-04T20:52:24.999Z</time></trkpt><trkpt lat="42.31909980325629" lon="-8.122425253369148"><ele>79.5</ele><time>2026-04-04T20:52:25.999Z</time></trkpt><trkpt lat="42.319297896724294" lon="-8.122253940447656"><ele>79.0</ele><time>2026-04-04T20:52:26.999Z</time></trkpt><trkpt lat="42.31950690896307" lon="-8.12209791340643"><ele>79.0</ele><time>2026-04-04T20:52:27.999Z</time></trkpt><trkpt lat="42.31971724145856" lon="-8.121953927598776"><ele>79.0</ele><time>2026-04-04T20:52:28.999Z</time></trkpt><trkpt lat="42.31993945843517" lon="-8.121827865221602"><ele>80.5</ele><time>2026-04-04T20:52:29.999Z</time></trkpt><trkpt lat="42.32015345300355" lon="-8.121723129697587"><ele>82.0</ele><time>2026-04-04T20:52:30.999Z</time></trkpt><trkpt lat="42.32038472227894" lon="-8.121623181593865"><ele>81.5</ele><time>2026-04-04T20:52:31.999Z</time></trkpt><trkpt lat="42.32061063415999" lon="-8.121546319127448"><ele>81.0</ele><time>2026-04-04T20:52:32.999Z</time></trkpt><trkpt lat="42.32084048057395" lon="-8.121483948166425"><ele>81.0</ele><time>2026-04-04T20:52:33.999Z</time></trkpt><trkpt lat="42.32107373446319" lon="-8.121417069030933"><ele>81.0</ele><time>2026-04-04T20:52:34.999Z</time></trkpt><trkpt lat="42.32130541691907" lon="-8.121346975981327"><ele>80.0</ele><time>2026-04-04T20:52:35.999Z</time></trkpt><trkpt lat="42.32155070110915" lon="-8.121393199592731"><ele>79.0</ele><time>2026-04-04T20:52:36.999Z</time></trkpt><trkpt lat="42.32178388180689" lon="-8.121384978353522"><ele>79.0</ele><time>2026-04-04T20:52:37.999Z</time></trkpt><trkpt lat="42.32202232845342" lon="-8.121385010046625"><ele>79.0</ele><time>2026-04-04T20:52:38.999Z</time></trkpt><trkpt lat="42.32226014366482" lon="-8.121383681934415"><ele>79.0</ele><time>2026-04-04T20:52:39.999Z</time></trkpt><trkpt lat="42.32249986546781" lon="-8.121382769798274"><ele>79.0</ele><time>2026-04-04T20:52:40.999Z</time></trkpt><trkpt lat="42.322739071995024" lon="-8.121382451833709"><ele>79.0</ele><time>2026-04-04T20:52:41.999Z</time></trkpt><trkpt lat="42.322981070752384" lon="-8.121381087859103"><ele>79.0</ele><time>2026-04-04T20:52:42.999Z</time></trkpt><trkpt lat="42.323203899453425" lon="-8.121372282459015"><ele>79.0</ele><time>2026-04-04T20:52:43.999Z</time></trkpt><trkpt lat="42.3234442388442" lon="-8.121370433422747"><ele>79.0</ele><time>2026-04-04T20:52:44.999Z</time></trkpt><trkpt lat="42.32368055634296" lon="-8.12136259395867"><ele>79.5</ele><time>2026-04-04T20:52:45.999Z</time></trkpt><trkpt lat="42.32392112302564" lon="-8.121349070239663"><ele>80.0</ele><time>2026-04-04T20:52:46.999Z</time></trkpt><trkpt lat="42.324153914810566" lon="-8.121335808293109"><ele>80.0</ele><time>2026-04-04T20:52:47.998Z</time></trkpt><trkpt lat="42.324391433741184" lon="-8.12133180698139"><ele>80.0</ele><time>2026-04-04T20:52:48.998Z</time></trkpt><trkpt lat="42.324627663142934" lon="-8.1213444960848"><ele>79.5</ele><time>2026-04-04T20:52:49.998Z</time></trkpt><trkpt lat="42.32485941492334" lon="-8.121372211234855"><ele>79.0</ele><time>2026-04-04T20:52:50.998Z</time></trkpt><trkpt lat="42.3250958650574" lon="-8.121405276668366"><ele>79.0</ele><time>2026-04-04T20:52:51.998Z</time></trkpt><trkpt lat="42.325329928190094" lon="-8.121433882731536"><ele>79.0</ele><time>2026-04-04T20:52:52.998Z</time></trkpt><trkpt lat="42.325565928416204" lon="-8.121455364355512"><ele>78.5</ele><time>2026-04-04T20:52:53.998Z</time></trkpt><trkpt lat="42.325798413562005" lon="-8.121484793432261"><ele>78.0</ele><time>2026-04-04T20:52:54.998Z</time></trkpt><trkpt lat="42.32603511313735" lon="-8.121511758899063"><ele>78.0</ele><time>2026-04-04T20:52:55.998Z</time></trkpt><trkpt lat="42.326269168841606" lon="-8.121536775637539"><ele>78.0</ele><time>2026-04-04T20:52:56.998Z</time></trkpt><trkpt lat="42.3264980341869" lon="-8.12155786163335"><ele>78.0</ele><time>2026-04-04T20:52:57.998Z</time></trkpt><trkpt lat="42.3267373069063" lon="-8.121577150352817"><ele>78.0</ele><time>2026-04-04T20:52:58.998Z</time></trkpt><trkpt lat="42.32697707717587" lon="-8.121579494552709"><ele>78.0</ele><time>2026-04-04T20:52:59.998Z</time></trkpt><trkpt lat="42.32721015111192" lon="-8.121571452155045"><ele>78.0</ele><time>2026-04-04T20:53:00.998Z</time></trkpt><trkpt lat="42.32744706300632" lon="-8.121553513576059"><ele>76.5</ele><time>2026-04-04T20:53:01.998Z</time></trkpt><trkpt lat="42.32768518258259" lon="-8.121533287474717"><ele>75.0</ele><time>2026-04-04T20:53:02.998Z</time></trkpt><trkpt lat="42.32791688220711" lon="-8.121511330065633"><ele>76.5</ele><time>2026-04-04T20:53:03.998Z</time></trkpt><trkpt lat="42.32815792813466" lon="-8.12148787069524"><ele>78.0</ele><time>2026-04-04T20:53:04.998Z</time></trkpt><trkpt lat="42.328397071218696" lon="-8.121469240346377"><ele>78.0</ele><time>2026-04-04T20:53:05.998Z</time></trkpt><trkpt lat="42.32862992028428" lon="-8.121453738999236"><ele>78.0</ele><time>2026-04-04T20:53:06.998Z</time></trkpt><trkpt lat="42.32886859764254" lon="-8.121436023423014"><ele>78.0</ele><time>2026-04-04T20:53:07.998Z</time></trkpt><trkpt lat="42.329104701433586" lon="-8.121415152861383"><ele>78.0</ele><time>2026-04-04T20:53:09Z</time></trkpt><trkpt lat="42.329344443842665" lon="-8.121399808410857"><ele>78.0</ele><time>2026-04-04T20:53:10Z</time></trkpt><trkpt lat="42.3295737081737" lon="-8.121396384391456"><ele>78.0</ele><time>2026-04-04T20:53:11Z</time></trkpt><trkpt lat="42.32980935290823" lon="-8.12141574772806"><ele>79.0</ele><time>2026-04-04T20:53:12Z</time></trkpt><trkpt lat="42.33004421446563" lon="-8.121451269887844"><ele>80.0</ele><time>2026-04-04T20:53:13Z</time></trkpt><trkpt lat="42.33027593710086" lon="-8.121505561010743"><ele>79.5</ele><time>2026-04-04T20:53:14Z</time></trkpt><trkpt lat="42.33051007400335" lon="-8.121571016098487"><ele>79.0</ele><time>2026-04-04T20:53:15Z</time></trkpt><trkpt lat="42.33074089163961" lon="-8.121627479739981"><ele>79.0</ele><time>2026-04-04T20:53:16Z</time></trkpt><trkpt lat="42.33097258553301" lon="-8.121675178965647"><ele>79.0</ele><time>2026-04-04T20:53:17Z</time></trkpt><trkpt lat="42.331205059553575" lon="-8.121725407590395"><ele>79.0</ele><time>2026-04-04T20:53:18Z</time></trkpt><trkpt lat="42.331440383395645" lon="-8.121770342118364"><ele>79.0</ele><time>2026-04-04T20:53:19Z</time></trkpt><trkpt lat="42.33167107102075" lon="-8.121820639516164"><ele>79.0</ele><time>2026-04-04T20:53:20Z</time></trkpt><trkpt lat="42.33190292781806" lon="-8.12186978139652"><ele>79.0</ele><time>2026-04-04T20:53:21Z</time></trkpt><trkpt lat="42.33213398721092" lon="-8.12192328363722"><ele>78.0</ele><time>2026-04-04T20:53:22Z</time></trkpt><trkpt lat="42.33236921306325" lon="-8.121975549817108"><ele>77.0</ele><time>2026-04-04T20:53:23Z</time></trkpt><trkpt lat="42.3326034846189" lon="-8.122030160245526"><ele>77.0</ele><time>2026-04-04T20:53:24Z</time></trkpt><trkpt lat="42.332832301586535" lon="-8.122081908101471"><ele>77.0</ele><time>2026-04-04T20:53:25Z</time></trkpt><trkpt lat="42.333067946432514" lon="-8.122137312177623"><ele>77.5</ele><time>2026-04-04T20:53:26Z</time></trkpt><trkpt lat="42.33329850441431" lon="-8.122191529738526"><ele>78.0</ele><time>2026-04-04T20:53:27Z</time></trkpt><trkpt lat="42.33353165590661" lon="-8.122241531582182"><ele>78.0</ele><time>2026-04-04T20:53:28Z</time></trkpt><trkpt lat="42.333765902182215" lon="-8.122291727089559"><ele>78.0</ele><time>2026-04-04T20:53:29Z</time></trkpt><trkpt lat="42.33399967025757" lon="-8.122345018437894"><ele>79.0</ele><time>2026-04-04T20:53:30Z</time></trkpt><trkpt lat="42.33423136412635" lon="-8.122396048606841"><ele>80.0</ele><time>2026-04-04T20:53:31Z</time></trkpt><trkpt lat="42.33446212746316" lon="-8.122457749043056"><ele>80.5</ele><time>2026-04-04T20:53:32Z</time></trkpt><trkpt lat="42.33468758556258" lon="-8.122535091818555"><ele>81.0</ele><time>2026-04-04T20:53:33Z</time></trkpt><trkpt lat="42.33490818064124" lon="-8.122632988056123"><ele>81.5</ele><time>2026-04-04T20:53:34Z</time></trkpt><trkpt lat="42.33512841013639" lon="-8.12274666048865"><ele>82.0</ele><time>2026-04-04T20:53:35Z</time></trkpt><trkpt lat="42.335341625730514" lon="-8.122880127277275"><ele>82.0</ele><time>2026-04-04T20:53:36Z</time></trkpt><trkpt lat="42.335550170552494" lon="-8.123021171889373"><ele>82.0</ele><time>2026-04-04T20:53:37Z</time></trkpt><trkpt lat="42.33575130952913" lon="-8.123181299321503"><ele>83.5</ele><time>2026-04-04T20:53:38Z</time></trkpt><trkpt lat="42.33595333052874" lon="-8.123344934453586"><ele>85.0</ele><time>2026-04-04T20:53:38.999Z</time></trkpt><trkpt lat="42.33615547128407" lon="-8.12350200235823"><ele>85.0</ele><time>2026-04-04T20:53:39.999Z</time></trkpt><trkpt lat="42.33635227301525" lon="-8.123637448341817"><ele>85.0</ele><time>2026-04-04T20:53:40.999Z</time></trkpt><trkpt lat="42.336544777583526" lon="-8.123748669595779"><ele>85.0</ele><time>2026-04-04T20:53:41.999Z</time></trkpt><trkpt lat="42.33674946516739" lon="-8.123837568701848"><ele>84.33333333333333</ele><time>2026-04-04T20:53:42.999Z</time></trkpt><trkpt lat="42.336965765527694" lon="-8.123897871015696"><ele>83.66666666666667</ele><time>2026-04-04T20:53:43.999Z</time></trkpt><trkpt lat="42.33718380039854" lon="-8.123939992227589"><ele>83.0</ele><time>2026-04-04T20:53:44.999Z</time></trkpt><trkpt lat="42.33740868279266" lon="-8.123982576557948"><ele>83.0</ele><time>2026-04-04T20:53:45.999Z</time></trkpt><trkpt lat="42.33762471920726" lon="-8.124034003176815"><ele>83.0</ele><time>2026-04-04T20:53:46.999Z</time></trkpt><trkpt lat="42.337848292286516" lon="-8.124084904187859"><ele>83.0</ele><time>2026-04-04T20:53:47.999Z</time></trkpt><trkpt lat="42.338072232155646" lon="-8.124130071934394"><ele>83.0</ele><time>2026-04-04T20:53:48.999Z</time></trkpt><trkpt lat="42.338295271206334" lon="-8.124183308486023"><ele>83.0</ele><time>2026-04-04T20:53:49.999Z</time></trkpt><trkpt lat="42.338521394402655" lon="-8.124239643172452"><ele>83.0</ele><time>2026-04-04T20:53:50.999Z</time></trkpt><trkpt lat="42.33874175111271" lon="-8.124294735063634"><ele>83.0</ele><time>2026-04-04T20:53:51.999Z</time></trkpt><trkpt lat="42.338976539119145" lon="-8.124326911584658"><ele>83.66666666666667</ele><time>2026-04-04T20:53:52.999Z</time></trkpt><trkpt lat="42.33919319137727" lon="-8.124346935289402"><ele>84.33333333333333</ele><time>2026-04-04T20:53:53.999Z</time></trkpt><trkpt lat="42.339410163551925" lon="-8.124318278709714"><ele>85.0</ele><time>2026-04-04T20:53:54.999Z</time></trkpt><trkpt lat="42.33962473926974" lon="-8.124291495574102"><ele>84.33333333333333</ele><time>2026-04-04T20:53:55.999Z</time></trkpt><trkpt lat="42.33983362188253" lon="-8.124220002820623"><ele>83.66666666666667</ele><time>2026-04-04T20:53:56.999Z</time></trkpt><trkpt lat="42.340041345680284" lon="-8.124113334137983"><ele>83.0</ele><time>2026-04-04T20:53:57.999Z</time></trkpt><trkpt lat="42.340231409423346" lon="-8.123996762742083"><ele>83.0</ele><time>2026-04-04T20:53:58.999Z</time></trkpt><trkpt lat="42.34043027414533" lon="-8.123875869782605"><ele>83.0</ele><time>2026-04-04T20:53:59.999Z</time></trkpt><trkpt lat="42.340626343395535" lon="-8.12375166917491"><ele>83.0</ele><time>2026-04-04T20:54:00.999Z</time></trkpt><trkpt lat="42.34082958408391" lon="-8.123630062176906"><ele>84.33333333333334</ele><time>2026-04-04T20:54:01.999Z</time></trkpt><trkpt lat="42.34102943960005" lon="-8.12351401564694"><ele>85.66666666666667</ele><time>2026-04-04T20:54:02.999Z</time></trkpt><trkpt lat="42.34123479168951" lon="-8.123390754458246"><ele>87.0</ele><time>2026-04-04T20:54:03.999Z</time></trkpt><trkpt lat="42.341428701466924" lon="-8.123253508608423"><ele>90.0</ele><time>2026-04-04T20:54:04.999Z</time></trkpt><trkpt lat="42.34163099728755" lon="-8.123125141902038"><ele>93.0</ele><time>2026-04-04T20:54:05.999Z</time></trkpt><trkpt lat="42.34183130019591" lon="-8.12298406434724"><ele>96.0</ele><time>2026-04-04T20:54:06.999Z</time></trkpt><trkpt lat="42.341991602214655" lon="-8.122831227156547"><ele>96.0</ele><time>2026-04-04T20:54:07.999Z</time></trkpt><trkpt lat="42.34214453294528" lon="-8.122663436618227"><ele>96.0</ele><time>2026-04-04T20:54:08.999Z</time></trkpt><trkpt lat="42.34228342766557" lon="-8.122476711139095"><ele>96.0</ele><time>2026-04-04T20:54:09.999Z</time></trkpt><trkpt lat="42.34242331824472" lon="-8.122265140749303"><ele>96.33333333333334</ele><time>2026-04-04T20:54:10.999Z</time></trkpt><trkpt lat="42.34255303157175" lon="-8.122014310675945"><ele>96.66666666666667</ele><time>2026-04-04T20:54:11.999Z</time></trkpt><trkpt lat="42.34266668798815" lon="-8.121798260018052"><ele>97.0</ele><time>2026-04-04T20:54:12.999Z</time></trkpt><trkpt lat="42.34279637050971" lon="-8.121562719599195"><ele>100.0</ele><time>2026-04-04T20:54:13.999Z</time></trkpt><trkpt lat="42.34293217204179" lon="-8.12134006557503"><ele>103.0</ele><time>2026-04-04T20:54:14.999Z</time></trkpt><trkpt lat="42.343103074784075" lon="-8.121116120312287"><ele>100.66666666666667</ele><time>2026-04-04T20:54:15.999Z</time></trkpt><trkpt lat="42.34322988867119" lon="-8.12090015111268"><ele>98.33333333333334</ele><time>2026-04-04T20:54:16.999Z</time></trkpt><trkpt lat="42.34337832375703" lon="-8.120688602234807"><ele>96.0</ele><time>2026-04-04T20:54:17.999Z</time></trkpt><trkpt lat="42.34352837314368" lon="-8.120477867620316"><ele>96.0</ele><time>2026-04-04T20:54:18.999Z</time></trkpt><trkpt lat="42.3436802200445" lon="-8.12026441599595"><ele>96.0</ele><time>2026-04-04T20:54:19.999Z</time></trkpt><trkpt lat="42.343834390119916" lon="-8.120058448823382"><ele>96.0</ele><time>2026-04-04T20:54:20.999Z</time></trkpt><trkpt lat="42.34398787545586" lon="-8.119857029145988"><ele>97.66666666666666</ele><time>2026-04-04T20:54:21.999Z</time></trkpt><trkpt lat="42.344144872647846" lon="-8.119650039232114"><ele>99.33333333333333</ele><time>2026-04-04T20:54:22.999Z</time></trkpt><trkpt lat="42.34430642250006" lon="-8.11945500467031"><ele>101.0</ele><time>2026-04-04T20:54:23.999Z</time></trkpt><trkpt lat="42.344470459182894" lon="-8.119262851219812"><ele>101.0</ele><time>2026-04-04T20:54:24.999Z</time></trkpt><trkpt lat="42.344638031611" lon="-8.119068606775082"><ele>101.0</ele><time>2026-04-04T20:54:25.999Z</time></trkpt><trkpt lat="42.34480178110047" lon="-8.118881777933398"><ele>101.0</ele><time>2026-04-04T20:54:26.999Z</time></trkpt><trkpt lat="42.34495965119015" lon="-8.118732237890375"><ele>101.0</ele><time>2026-04-04T20:54:27.999Z</time></trkpt><trkpt lat="42.34511362859902" lon="-8.118597038171089"><ele>101.0</ele><time>2026-04-04T20:54:28.999Z</time></trkpt><trkpt lat="42.34526517815639" lon="-8.118482635199141"><ele>101.0</ele><time>2026-04-04T20:54:29.999Z</time></trkpt><trkpt lat="42.34542064822355" lon="-8.118404975890739"><ele>102.0</ele><time>2026-04-04T20:54:30.999Z</time></trkpt><trkpt lat="42.34559525876347" lon="-8.118357551231218"><ele>103.0</ele><time>2026-04-04T20:54:31.999Z</time></trkpt><trkpt lat="42.34574906212584" lon="-8.11834628189563"><ele>104.0</ele><time>2026-04-04T20:54:32.999Z</time></trkpt><trkpt lat="42.3459514274862" lon="-8.118365145623999"><ele>104.0</ele><time>2026-04-04T20:54:33.999Z</time></trkpt><trkpt lat="42.34613632083308" lon="-8.11838869261944"><ele>104.0</ele><time>2026-04-04T20:54:34.999Z</time></trkpt><trkpt lat="42.34632135492645" lon="-8.118422094817923"><ele>104.0</ele><time>2026-04-04T20:54:35.999Z</time></trkpt><trkpt lat="42.34651862419038" lon="-8.118447307401954"><ele>104.33333333333333</ele><time>2026-04-04T20:54:36.999Z</time></trkpt><trkpt lat="42.34671971752471" lon="-8.118466457675854"><ele>104.66666666666666</ele><time>2026-04-04T20:54:37.999Z</time></trkpt><trkpt lat="42.34692259301092" lon="-8.118483469787453"><ele>105.0</ele><time>2026-04-04T20:54:38.999Z</time></trkpt><trkpt lat="42.347155080397314" lon="-8.118512684888804"><ele>104.33333333333334</ele><time>2026-04-04T20:54:39.999Z</time></trkpt><trkpt lat="42.34736773050775" lon="-8.118558370622717"><ele>103.66666666666667</ele><time>2026-04-04T20:54:40.999Z</time></trkpt><trkpt lat="42.34757545648207" lon="-8.118599449404783"><ele>103.0</ele><time>2026-04-04T20:54:41.999Z</time></trkpt><trkpt lat="42.347798306534166" lon="-8.11864091961755"><ele>103.0</ele><time>2026-04-04T20:54:42.999Z</time></trkpt><trkpt lat="42.34800494280842" lon="-8.118677938615324"><ele>103.0</ele><time>2026-04-04T20:54:43.999Z</time></trkpt><trkpt lat="42.34820752266841" lon="-8.118709191243635"><ele>103.0</ele><time>2026-04-04T20:54:44.999Z</time></trkpt><trkpt lat="42.34842196163027" lon="-8.118753023987635"><ele>103.66666666666667</ele><time>2026-04-04T20:54:45.999Z</time></trkpt><trkpt lat="42.34864125091662" lon="-8.118816595822214"><ele>104.33333333333334</ele><time>2026-04-04T20:54:46.999Z</time></trkpt><trkpt lat="42.34885816950978" lon="-8.11884980011726"><ele>105.0</ele><time>2026-04-04T20:54:47.999Z</time></trkpt><trkpt lat="42.34908363281278" lon="-8.118883167375692"><ele>102.5</ele><time>2026-04-04T20:54:48.999Z</time></trkpt><trkpt lat="42.349317307163915" lon="-8.118914057517621"><ele>100.0</ele><time>2026-04-04T20:54:49.999Z</time></trkpt><trkpt lat="42.34955031036629" lon="-8.118948364365753"><ele>97.5</ele><time>2026-04-04T20:54:50.999Z</time></trkpt><trkpt lat="42.34978513668512" lon="-8.118962693170442"><ele>95.0</ele><time>2026-04-04T20:54:51.999Z</time></trkpt><trkpt lat="42.35002380919672" lon="-8.11897917759624"><ele>95.0</ele><time>2026-04-04T20:54:52.998Z</time></trkpt><trkpt lat="42.35025986996275" lon="-8.118995127245514"><ele>95.0</ele><time>2026-04-04T20:54:53.998Z</time></trkpt><trkpt lat="42.35049935446915" lon="-8.119007440936855"><ele>93.5</ele><time>2026-04-04T20:54:54.998Z</time></trkpt><trkpt lat="42.35073911161348" lon="-8.119008614836456"><ele>92.0</ele><time>2026-04-04T20:54:55.998Z</time></trkpt><trkpt lat="42.35097501903183" lon="-8.119003202604084"><ele>92.0</ele><time>2026-04-04T20:54:56.998Z</time></trkpt><trkpt lat="42.351211591177965" lon="-8.118996852279425"><ele>92.0</ele><time>2026-04-04T20:54:57.998Z</time></trkpt><trkpt lat="42.351450780499604" lon="-8.118978452102894"><ele>94.0</ele><time>2026-04-04T20:54:58.998Z</time></trkpt><trkpt lat="42.35168485773458" lon="-8.11895918088018"><ele>96.0</ele><time>2026-04-04T20:54:59.998Z</time></trkpt><trkpt lat="42.35190602370236" lon="-8.118932709956587"><ele>96.0</ele><time>2026-04-04T20:55:00.998Z</time></trkpt><trkpt lat="42.352109617433804" lon="-8.118908956679707"><ele>96.0</ele><time>2026-04-04T20:55:01.998Z</time></trkpt><trkpt lat="42.35230404140656" lon="-8.118884494728562"><ele>96.0</ele><time>2026-04-04T20:55:02.998Z</time></trkpt><trkpt lat="42.35250170076905" lon="-8.118862982249246"><ele>96.66666666666666</ele><time>2026-04-04T20:55:03.998Z</time></trkpt><trkpt lat="42.352707125922464" lon="-8.118861193158212"><ele>97.33333333333333</ele><time>2026-04-04T20:55:04.998Z</time></trkpt><trkpt lat="42.35291121245629" lon="-8.118896578573477"><ele>98.0</ele><time>2026-04-04T20:55:05.998Z</time></trkpt><trkpt lat="42.353117616524386" lon="-8.118947838158974"><ele>96.0</ele><time>2026-04-04T20:55:06.998Z</time></trkpt><trkpt lat="42.35332180491651" lon="-8.11901765552986"><ele>94.0</ele><time>2026-04-04T20:55:07.998Z</time></trkpt><trkpt lat="42.353532265365025" lon="-8.119104018220261"><ele>92.0</ele><time>2026-04-04T20:55:08.998Z</time></trkpt><trkpt lat="42.353733000317014" lon="-8.119197091146416"><ele>91.66666666666667</ele><time>2026-04-04T20:55:09.998Z</time></trkpt><trkpt lat="42.353940581669775" lon="-8.119284951466554"><ele>91.33333333333333</ele><time>2026-04-04T20:55:10.998Z</time></trkpt><trkpt lat="42.35416266470611" lon="-8.119357520529215"><ele>91.0</ele><time>2026-04-04T20:55:11.998Z</time></trkpt><trkpt lat="42.35437701742818" lon="-8.119414921594306"><ele>91.0</ele><time>2026-04-04T20:55:12.998Z</time></trkpt><trkpt lat="42.35460378295564" lon="-8.119459051737438"><ele>91.0</ele><time>2026-04-04T20:55:13.998Z</time></trkpt><trkpt lat="42.35482508939266" lon="-8.119462410511352"><ele>93.0</ele><time>2026-04-04T20:55:15Z</time></trkpt><trkpt lat="42.35505610778349" lon="-8.119464877355453"><ele>95.0</ele><time>2026-04-04T20:55:16Z</time></trkpt><trkpt lat="42.355264974145534" lon="-8.119445848878984"><ele>97.0</ele><time>2026-04-04T20:55:17Z</time></trkpt><trkpt lat="42.355468686244855" lon="-8.11941143344479"><ele>96.0</ele><time>2026-04-04T20:55:18Z</time></trkpt><trkpt lat="42.355685262321316" lon="-8.119370721077445"><ele>95.0</ele><time>2026-04-04T20:55:19Z</time></trkpt><trkpt lat="42.35590049159716" lon="-8.119314367607815"><ele>94.0</ele><time>2026-04-04T20:55:20Z</time></trkpt><trkpt lat="42.35612093305837" lon="-8.119268185623081"><ele>94.0</ele><time>2026-04-04T20:55:21Z</time></trkpt><trkpt lat="42.35634044338506" lon="-8.11922440308145"><ele>94.0</ele><time>2026-04-04T20:55:22Z</time></trkpt><trkpt lat="42.35656407742831" lon="-8.119183792915258"><ele>94.0</ele><time>2026-04-04T20:55:23Z</time></trkpt><trkpt lat="42.356789591315824" lon="-8.119166964447448"><ele>92.66666666666666</ele><time>2026-04-04T20:55:24Z</time></trkpt><trkpt lat="42.356996329464735" lon="-8.119189589953484"><ele>91.33333333333333</ele><time>2026-04-04T20:55:25Z</time></trkpt><trkpt lat="42.3571966710748" lon="-8.119229250637792"><ele>90.0</ele><time>2026-04-04T20:55:26Z</time></trkpt><trkpt lat="42.35738672626074" lon="-8.119274417901655"><ele>89.0</ele><time>2026-04-04T20:55:27Z</time></trkpt><trkpt lat="42.357576420324285" lon="-8.1193378761768"><ele>88.0</ele><time>2026-04-04T20:55:28Z</time></trkpt><trkpt lat="42.35775896000778" lon="-8.119410145069297"><ele>87.0</ele><time>2026-04-04T20:55:29Z</time></trkpt><trkpt lat="42.35793971688996" lon="-8.119504588922037"><ele>88.33333333333333</ele><time>2026-04-04T20:55:30Z</time></trkpt><trkpt lat="42.35811786894975" lon="-8.119604769367449"><ele>89.66666666666666</ele><time>2026-04-04T20:55:31Z</time></trkpt><trkpt lat="42.35829476679245" lon="-8.119728775709717"><ele>91.0</ele><time>2026-04-04T20:55:32Z</time></trkpt><trkpt lat="42.35847000980398" lon="-8.11985962524801"><ele>90.0</ele><time>2026-04-04T20:55:33Z</time></trkpt><trkpt lat="42.3586447784877" lon="-8.12000743300266"><ele>89.0</ele><time>2026-04-04T20:55:34Z</time></trkpt><trkpt lat="42.358765483649385" lon="-8.120164910416985"><ele>88.0</ele><time>2026-04-04T20:55:35Z</time></trkpt><trkpt lat="42.35889400910924" lon="-8.120298346712431"><ele>92.0</ele><time>2026-04-04T20:55:36Z</time></trkpt><trkpt lat="42.35901786621617" lon="-8.120432266155973"><ele>96.0</ele><time>2026-04-04T20:55:37Z</time></trkpt><trkpt lat="42.359343847229304" lon="-8.120559937454756"><ele>96.0</ele><time>2026-04-04T20:55:38Z</time></trkpt><trkpt lat="42.35952433998518" lon="-8.120715524278458"><ele>96.0</ele><time>2026-04-04T20:55:39Z</time></trkpt><trkpt lat="42.35969941461518" lon="-8.120867331419776"><ele>96.0</ele><time>2026-04-04T20:55:40Z</time></trkpt><trkpt lat="42.35988095750493" lon="-8.121015811491116"><ele>97.0</ele><time>2026-04-04T20:55:41Z</time></trkpt><trkpt lat="42.360055684940505" lon="-8.12115955276919"><ele>98.0</ele><time>2026-04-04T20:55:42Z</time></trkpt><trkpt lat="42.36021553764197" lon="-8.121274618959335"><ele>99.0</ele><time>2026-04-04T20:55:43Z</time></trkpt><trkpt lat="42.360385993503854" lon="-8.121386638290947"><ele>98.66666666666666</ele><time>2026-04-04T20:55:44Z</time></trkpt><trkpt lat="42.36055849434546" lon="-8.121475225789954"><ele>98.33333333333333</ele><time>2026-04-04T20:55:45Z</time></trkpt><trkpt lat="42.36072552954623" lon="-8.121534435116734"><ele>98.0</ele><time>2026-04-04T20:55:46Z</time></trkpt><trkpt lat="42.360901588383854" lon="-8.12156945749522"><ele>98.0</ele><time>2026-04-04T20:55:47Z</time></trkpt><trkpt lat="42.3610841613668" lon="-8.121586912474992"><ele>98.0</ele><time>2026-04-04T20:55:48Z</time></trkpt><trkpt lat="42.36127159363862" lon="-8.121597333886077"><ele>98.0</ele><time>2026-04-04T20:55:49Z</time></trkpt><trkpt lat="42.36146747843347" lon="-8.121578560579197"><ele>100.0</ele><time>2026-04-04T20:55:50Z</time></trkpt><trkpt lat="42.36166847448988" lon="-8.12152938281621"><ele>102.0</ele><time>2026-04-04T20:55:51Z</time></trkpt><trkpt lat="42.36186921629481" lon="-8.121460801596196"><ele>104.0</ele><time>2026-04-04T20:55:52Z</time></trkpt><trkpt lat="42.362067030863564" lon="-8.121379701224921"><ele>102.0</ele><time>2026-04-04T20:55:53Z</time></trkpt><trkpt lat="42.36227334600333" lon="-8.12129789209017"><ele>100.0</ele><time>2026-04-04T20:55:54Z</time></trkpt><trkpt lat="42.36248410026851" lon="-8.12122480255734"><ele>98.0</ele><time>2026-04-04T20:55:55Z</time></trkpt><trkpt lat="42.362702022714274" lon="-8.12115936526141"><ele>98.0</ele><time>2026-04-04T20:55:56Z</time></trkpt><trkpt lat="42.362921320253704" lon="-8.12110019255621"><ele>98.0</ele><time>2026-04-04T20:55:57Z</time></trkpt><trkpt lat="42.3631468196187" lon="-8.121041847818107"><ele>98.5</ele><time>2026-04-04T20:55:58Z</time></trkpt><trkpt lat="42.36337523894334" lon="-8.120987267970165"><ele>99.0</ele><time>2026-04-04T20:55:58.999Z</time></trkpt><trkpt lat="42.363605316816866" lon="-8.120931257244917"><ele>99.0</ele><time>2026-04-04T20:55:59.999Z</time></trkpt><trkpt lat="42.36383518685528" lon="-8.120896011481737"><ele>99.0</ele><time>2026-04-04T20:56:00.999Z</time></trkpt><trkpt lat="42.364069871228416" lon="-8.120873251067565"><ele>99.5</ele><time>2026-04-04T20:56:01.999Z</time></trkpt><trkpt lat="42.364299012674806" lon="-8.120836672734615"><ele>100.0</ele><time>2026-04-04T20:56:02.999Z</time></trkpt><trkpt lat="42.36453633831803" lon="-8.12080830868591"><ele>98.5</ele><time>2026-04-04T20:56:03.999Z</time></trkpt><trkpt lat="42.36477509260425" lon="-8.12078505738465"><ele>97.0</ele><time>2026-04-04T20:56:04.999Z</time></trkpt><trkpt lat="42.364990724827024" lon="-8.120771468697932"><ele>97.0</ele><time>2026-04-04T20:56:05.999Z</time></trkpt><trkpt lat="42.36519287278881" lon="-8.120762093052205"><ele>97.0</ele><time>2026-04-04T20:56:06.999Z</time></trkpt><trkpt lat="42.36540725359488" lon="-8.120742289396514"><ele>97.0</ele><time>2026-04-04T20:56:07.999Z</time></trkpt><trkpt lat="42.36563565967672" lon="-8.120713225057376"><ele>95.33333333333334</ele><time>2026-04-04T20:56:08.999Z</time></trkpt><trkpt lat="42.36583883189973" lon="-8.120656519399459"><ele>93.66666666666667</ele><time>2026-04-04T20:56:09.999Z</time></trkpt><trkpt lat="42.366036273461404" lon="-8.120584959749852"><ele>92.0</ele><time>2026-04-04T20:56:10.999Z</time></trkpt><trkpt lat="42.36625038222162" lon="-8.12049205565217"><ele>89.5</ele><time>2026-04-04T20:56:11.999Z</time></trkpt><trkpt lat="42.366460727728715" lon="-8.120375848099968"><ele>87.0</ele><time>2026-04-04T20:56:12.999Z</time></trkpt><trkpt lat="42.36667046304646" lon="-8.12026188167892"><ele>87.0</ele><time>2026-04-04T20:56:13.999Z</time></trkpt><trkpt lat="42.36687663886521" lon="-8.12012893934905"><ele>87.0</ele><time>2026-04-04T20:56:14.999Z</time></trkpt><trkpt lat="42.36708225640768" lon="-8.119986080007571"><ele>86.66666666666667</ele><time>2026-04-04T20:56:15.999Z</time></trkpt><trkpt lat="42.367260596801835" lon="-8.11985302320103"><ele>86.33333333333334</ele><time>2026-04-04T20:56:16.999Z</time></trkpt><trkpt lat="42.367445461628805" lon="-8.119726097156622"><ele>86.0</ele><time>2026-04-04T20:56:17.999Z</time></trkpt><trkpt lat="42.36764241016496" lon="-8.119624594041351"><ele>86.0</ele><time>2026-04-04T20:56:18.999Z</time></trkpt><trkpt lat="42.36782492893799" lon="-8.119533798857539"><ele>86.0</ele><time>2026-04-04T20:56:19.999Z</time></trkpt><trkpt lat="42.36799254468961" lon="-8.1194447134374"><ele>86.0</ele><time>2026-04-04T20:56:20.999Z</time></trkpt><trkpt lat="42.368168956249676" lon="-8.119370194325974"><ele>86.33333333333334</ele><time>2026-04-04T20:56:21.999Z</time></trkpt><trkpt lat="42.36836169271553" lon="-8.119316925903178"><ele>86.66666666666667</ele><time>2026-04-04T20:56:22.999Z</time></trkpt><trkpt lat="42.3685574446356" lon="-8.119280403924334"><ele>87.0</ele><time>2026-04-04T20:56:23.999Z</time></trkpt><trkpt lat="42.36875230228135" lon="-8.119251286622339"><ele>87.66666666666667</ele><time>2026-04-04T20:56:24.999Z</time></trkpt><trkpt lat="42.36895723938337" lon="-8.119229975538415"><ele>88.33333333333334</ele><time>2026-04-04T20:56:25.999Z</time></trkpt><trkpt lat="42.369167595723034" lon="-8.119221215005481"><ele>89.0</ele><time>2026-04-04T20:56:26.999Z</time></trkpt><trkpt lat="42.36938055653276" lon="-8.119238170323767"><ele>89.0</ele><time>2026-04-04T20:56:27.999Z</time></trkpt><trkpt lat="42.36959117558809" lon="-8.119270918247778"><ele>89.0</ele><time>2026-04-04T20:56:28.999Z</time></trkpt><trkpt lat="42.36980882684934" lon="-8.119311945258984"><ele>89.0</ele><time>2026-04-04T20:56:29.999Z</time></trkpt><trkpt lat="42.3700253917086" lon="-8.119371606598538"><ele>90.66666666666667</ele><time>2026-04-04T20:56:30.999Z</time></trkpt><trkpt lat="42.37023642245733" lon="-8.119441418557464"><ele>92.33333333333333</ele><time>2026-04-04T20:56:31.999Z</time></trkpt><trkpt lat="42.37045139082187" lon="-8.119511668890627"><ele>94.0</ele><time>2026-04-04T20:56:32.999Z</time></trkpt><trkpt lat="42.370655301329755" lon="-8.11954958738656"><ele>94.66666666666666</ele><time>2026-04-04T20:56:33.999Z</time></trkpt><trkpt lat="42.370842550567424" lon="-8.119551046400202"><ele>95.33333333333333</ele><time>2026-04-04T20:56:34.999Z</time></trkpt><trkpt lat="42.37101535116943" lon="-8.119520818497138"><ele>96.0</ele><time>2026-04-04T20:56:35.999Z</time></trkpt><trkpt lat="42.37118597840412" lon="-8.119453136667172"><ele>96.0</ele><time>2026-04-04T20:56:36.999Z</time></trkpt><trkpt lat="42.37133756192008" lon="-8.11934549555398"><ele>96.0</ele><time>2026-04-04T20:56:37.999Z</time></trkpt><trkpt lat="42.37147826155409" lon="-8.11920864525149"><ele>96.0</ele><time>2026-04-04T20:56:38.999Z</time></trkpt><trkpt lat="42.37159686835409" lon="-8.11903678579567"><ele>98.33333333333334</ele><time>2026-04-04T20:56:39.999Z</time></trkpt><trkpt lat="42.37170226517524" lon="-8.118859591856456"><ele>100.66666666666667</ele><time>2026-04-04T20:56:40.999Z</time></trkpt><trkpt lat="42.37179576880156" lon="-8.118652513520678"><ele>103.0</ele><time>2026-04-04T20:56:41.999Z</time></trkpt><trkpt lat="42.37188799128776" lon="-8.118441790973232"><ele>103.0</ele><time>2026-04-04T20:56:42.999Z</time></trkpt><trkpt lat="42.37199260996708" lon="-8.118238865096522"><ele>103.0</ele><time>2026-04-04T20:56:43.999Z</time></trkpt><trkpt lat="42.372104284128056" lon="-8.118037548199498"><ele>103.0</ele><time>2026-04-04T20:56:44.999Z</time></trkpt><trkpt lat="42.37222902135496" lon="-8.117843148154193"><ele>100.0</ele><time>2026-04-04T20:56:45.999Z</time></trkpt><trkpt lat="42.37236481815149" lon="-8.117661043466404"><ele>97.0</ele><time>2026-04-04T20:56:46.999Z</time></trkpt><trkpt lat="42.37251138687327" lon="-8.117487808898101"><ele>94.0</ele><time>2026-04-04T20:56:47.999Z</time></trkpt><trkpt lat="42.3726683372261" lon="-8.11732570770537"><ele>94.0</ele><time>2026-04-04T20:56:48.999Z</time></trkpt><trkpt lat="42.37284000644695" lon="-8.117175451040085"><ele>94.0</ele><time>2026-04-04T20:56:49.999Z</time></trkpt><trkpt lat="42.37302199654962" lon="-8.117039701882119"><ele>94.0</ele><time>2026-04-04T20:56:50.999Z</time></trkpt><trkpt lat="42.373220130657096" lon="-8.116921869849136"><ele>94.0</ele><time>2026-04-04T20:56:51.999Z</time></trkpt><trkpt lat="42.37341688051167" lon="-8.116812544087184"><ele>94.0</ele><time>2026-04-04T20:56:52.999Z</time></trkpt><trkpt lat="42.3736265693588" lon="-8.11671356792798"><ele>94.0</ele><time>2026-04-04T20:56:53.999Z</time></trkpt><trkpt lat="42.37383708668374" lon="-8.116626665009658"><ele>99.5</ele><time>2026-04-04T20:56:54.999Z</time></trkpt><trkpt lat="42.374058445589405" lon="-8.11655607606783"><ele>105.0</ele><time>2026-04-04T20:56:55.999Z</time></trkpt><trkpt lat="42.374281573211896" lon="-8.116501476320586"><ele>105.0</ele><time>2026-04-04T20:56:56.999Z</time></trkpt><trkpt lat="42.374507733618536" lon="-8.116469852207919"><ele>105.0</ele><time>2026-04-04T20:56:57.999Z</time></trkpt><trkpt lat="42.374733703184674" lon="-8.116463688307329"><ele>100.5</ele><time>2026-04-04T20:56:58.999Z</time></trkpt><trkpt lat="42.37496406077685" lon="-8.116479824129753"><ele>96.0</ele><time>2026-04-04T20:56:59.999Z</time></trkpt><trkpt lat="42.375184600151805" lon="-8.116513638465916"><ele>96.0</ele><time>2026-04-04T20:57:00.999Z</time></trkpt><trkpt lat="42.375409044736536" lon="-8.116559881704898"><ele>96.0</ele><time>2026-04-04T20:57:01.999Z</time></trkpt><trkpt lat="42.37563186699192" lon="-8.11661263012975"><ele>94.66666666666667</ele><time>2026-04-04T20:57:02.999Z</time></trkpt><trkpt lat="42.37584977067286" lon="-8.116668547800325"><ele>93.33333333333334</ele><time>2026-04-04T20:57:03.999Z</time></trkpt><trkpt lat="42.376067341517" lon="-8.116746245035745"><ele>92.0</ele><time>2026-04-04T20:57:04.999Z</time></trkpt><trkpt lat="42.376284920327706" lon="-8.116812543520492"><ele>94.0</ele><time>2026-04-04T20:57:05.999Z</time></trkpt><trkpt lat="42.376502628842246" lon="-8.116876757974476"><ele>96.0</ele><time>2026-04-04T20:57:06.999Z</time></trkpt><trkpt lat="42.37672055051502" lon="-8.116937958702179"><ele>98.0</ele><time>2026-04-04T20:57:07.999Z</time></trkpt><trkpt lat="42.37693359819992" lon="-8.117007511737754"><ele>98.0</ele><time>2026-04-04T20:57:08.999Z</time></trkpt><trkpt lat="42.37715739707832" lon="-8.117074588535798"><ele>98.0</ele><time>2026-04-04T20:57:09.999Z</time></trkpt><trkpt lat="42.377374512684305" lon="-8.11714959950117"><ele>96.66666666666666</ele><time>2026-04-04T20:57:10.999Z</time></trkpt><trkpt lat="42.37758460559678" lon="-8.117235215675146"><ele>95.33333333333333</ele><time>2026-04-04T20:57:11.999Z</time></trkpt><trkpt lat="42.377797392676534" lon="-8.117326119559056"><ele>94.0</ele><time>2026-04-04T20:57:12.998Z</time></trkpt><trkpt lat="42.37800304689451" lon="-8.117424401623452"><ele>96.33333333333333</ele><time>2026-04-04T20:57:13.999Z</time></trkpt><trkpt lat="42.378215225336575" lon="-8.117529712969196"><ele>98.66666666666666</ele><time>2026-04-04T20:57:14.998Z</time></trkpt><trkpt lat="42.37841057357157" lon="-8.117640249829607"><ele>101.0</ele><time>2026-04-04T20:57:15.998Z</time></trkpt><trkpt lat="42.378614167770095" lon="-8.117758245972999"><ele>101.0</ele><time>2026-04-04T20:57:16.998Z</time></trkpt><trkpt lat="42.37881171538472" lon="-8.117869048069421"><ele>101.0</ele><time>2026-04-04T20:57:17.998Z</time></trkpt><trkpt lat="42.37901141828605" lon="-8.117981634286233"><ele>101.0</ele><time>2026-04-04T20:57:18.998Z</time></trkpt><trkpt lat="42.3792100759635" lon="-8.118088741172725"><ele>103.0</ele><time>2026-04-04T20:57:19.998Z</time></trkpt><trkpt lat="42.37940306936627" lon="-8.11817452417339"><ele>105.0</ele><time>2026-04-04T20:57:21Z</time></trkpt><trkpt lat="42.37958472252195" lon="-8.118226771976047"><ele>107.0</ele><time>2026-04-04T20:57:22Z</time></trkpt><trkpt lat="42.37977430331996" lon="-8.118242704072259"><ele>111.66666666666666</ele><time>2026-04-04T20:57:23Z</time></trkpt><trkpt lat="42.379960699827734" lon="-8.118210633798755"><ele>116.33333333333334</ele><time>2026-04-04T20:57:24Z</time></trkpt><trkpt lat="42.38010306570237" lon="-8.118168518284877"><ele>121.0</ele><time>2026-04-04T20:57:25Z</time></trkpt><trkpt lat="42.38022296889952" lon="-8.118109231639565"><ele>121.0</ele><time>2026-04-04T20:57:26Z</time></trkpt><trkpt lat="42.38033334328582" lon="-8.118024746754873"><ele>121.0</ele><time>2026-04-04T20:57:27Z</time></trkpt><trkpt lat="42.38044248774215" lon="-8.117923631542595"><ele>121.0</ele><time>2026-04-04T20:57:28Z</time></trkpt><trkpt lat="42.380556956922995" lon="-8.117818476841027"><ele>121.0</ele><time>2026-04-04T20:57:29Z</time></trkpt><trkpt lat="42.38067901814493" lon="-8.117712043778926"><ele>121.0</ele><time>2026-04-04T20:57:30Z</time></trkpt><trkpt lat="42.380806209453034" lon="-8.117607641266867"><ele>121.0</ele><time>2026-04-04T20:57:31Z</time></trkpt><trkpt lat="42.3809423092323" lon="-8.117519722202918"><ele>121.0</ele><time>2026-04-04T20:57:32Z</time></trkpt><trkpt lat="42.381083350581406" lon="-8.117443527639958"><ele>125.0</ele><time>2026-04-04T20:57:33Z</time></trkpt><trkpt lat="42.38123403420268" lon="-8.11738277511622"><ele>129.0</ele><time>2026-04-04T20:57:34Z</time></trkpt><trkpt lat="42.38138714110786" lon="-8.117338661684498"><ele>133.0</ele><time>2026-04-04T20:57:35Z</time></trkpt><trkpt lat="42.38154771889698" lon="-8.11731517118906"><ele>135.0</ele><time>2026-04-04T20:57:36Z</time></trkpt><trkpt lat="42.38170787821159" lon="-8.117301715519883"><ele>137.0</ele><time>2026-04-04T20:57:37Z</time></trkpt><trkpt lat="42.38186920836361" lon="-8.117292469342502"><ele>139.0</ele><time>2026-04-04T20:57:38Z</time></trkpt><trkpt lat="42.38203342998898" lon="-8.117297717804467"><ele>138.66666666666669</ele><time>2026-04-04T20:57:39Z</time></trkpt><trkpt lat="42.38219578826016" lon="-8.117301502260707"><ele>138.33333333333334</ele><time>2026-04-04T20:57:40Z</time></trkpt><trkpt lat="42.382357773276674" lon="-8.117307963762721"><ele>138.0</ele><time>2026-04-04T20:57:41Z</time></trkpt><trkpt lat="42.382529182677764" lon="-8.117308957636903"><ele>138.0</ele><time>2026-04-04T20:57:42Z</time></trkpt><trkpt lat="42.38269498449123" lon="-8.117303029084535"><ele>138.0</ele><time>2026-04-04T20:57:43Z</time></trkpt><trkpt lat="42.382862134657955" lon="-8.11727110508262"><ele>138.0</ele><time>2026-04-04T20:57:44Z</time></trkpt><trkpt lat="42.38302478399266" lon="-8.117270323447082"><ele>141.33333333333334</ele><time>2026-04-04T20:57:45Z</time></trkpt><trkpt lat="42.38318963874685" lon="-8.117189347923679"><ele>144.66666666666669</ele><time>2026-04-04T20:57:46Z</time></trkpt><trkpt lat="42.383351490197924" lon="-8.117129402121865"><ele>148.0</ele><time>2026-04-04T20:57:47Z</time></trkpt><trkpt lat="42.383509036014146" lon="-8.117061611526122"><ele>148.0</ele><time>2026-04-04T20:57:48Z</time></trkpt><trkpt lat="42.3836652754167" lon="-8.1169863555524"><ele>148.0</ele><time>2026-04-04T20:57:49Z</time></trkpt><trkpt lat="42.38382288547362" lon="-8.116908774725392"><ele>148.0</ele><time>2026-04-04T20:57:50Z</time></trkpt><trkpt lat="42.383975318311016" lon="-8.116833366442442"><ele>147.66666666666669</ele><time>2026-04-04T20:57:51Z</time></trkpt><trkpt lat="42.38412854533673" lon="-8.116755998057627"><ele>147.33333333333334</ele><time>2026-04-04T20:57:52Z</time></trkpt><trkpt lat="42.38428134041814" lon="-8.116680388234682"><ele>147.0</ele><time>2026-04-04T20:57:53Z</time></trkpt><trkpt lat="42.3844337652321" lon="-8.11660173273682"><ele>153.66666666666666</ele><time>2026-04-04T20:57:54Z</time></trkpt><trkpt lat="42.384581918945905" lon="-8.1165185566984"><ele>160.33333333333331</ele><time>2026-04-04T20:57:55Z</time></trkpt><trkpt lat="42.384731233156025" lon="-8.116426114289668"><ele>167.0</ele><time>2026-04-04T20:57:56Z</time></trkpt><trkpt lat="42.38487593511484" lon="-8.116330914611863"><ele>167.0</ele><time>2026-04-04T20:57:57Z</time></trkpt><trkpt lat="42.38501678795803" lon="-8.116228168167138"><ele>167.0</ele><time>2026-04-04T20:57:58Z</time></trkpt><trkpt lat="42.38515705811061" lon="-8.116128059591526"><ele>167.0</ele><time>2026-04-04T20:57:59Z</time></trkpt><trkpt lat="42.38529471577024" lon="-8.116023497551224"><ele>167.0</ele><time>2026-04-04T20:58:00Z</time></trkpt><trkpt lat="42.385436559311245" lon="-8.115917198824816"><ele>167.0</ele><time>2026-04-04T20:58:01Z</time></trkpt><trkpt lat="42.38557343762501" lon="-8.115800416728343"><ele>167.0</ele><time>2026-04-04T20:58:02Z</time></trkpt><trkpt lat="42.38570294164734" lon="-8.115679285977212"><ele>170.0</ele><time>2026-04-04T20:58:03Z</time></trkpt><trkpt lat="42.38583378805139" lon="-8.115551528073437"><ele>173.0</ele><time>2026-04-04T20:58:04Z</time></trkpt><trkpt lat="42.38595544340925" lon="-8.115422873241137"><ele>176.0</ele><time>2026-04-04T20:58:05Z</time></trkpt><trkpt lat="42.38608666776737" lon="-8.115294301284663"><ele>176.0</ele><time>2026-04-04T20:58:06Z</time></trkpt><trkpt lat="42.3862053043573" lon="-8.115155392513365"><ele>176.0</ele><time>2026-04-04T20:58:07Z</time></trkpt><trkpt lat="42.38635980465072" lon="-8.115011923855697"><ele>176.0</ele><time>2026-04-04T20:58:08Z</time></trkpt><trkpt lat="42.38651981339758" lon="-8.11486769985525"><ele>175.75</ele><time>2026-04-04T20:58:09Z</time></trkpt><trkpt lat="42.3865778466508" lon="-8.114733908241853"><ele>175.5</ele><time>2026-04-04T20:58:10Z</time></trkpt><trkpt lat="42.38668705214183" lon="-8.11457365544176"><ele>175.25</ele><time>2026-04-04T20:58:11Z</time></trkpt><trkpt lat="42.386785068459645" lon="-8.114403580979534"><ele>175.0</ele><time>2026-04-04T20:58:12Z</time></trkpt><trkpt lat="42.38687786392977" lon="-8.114209870525851"><ele>179.0</ele><time>2026-04-04T20:58:13Z</time></trkpt><trkpt lat="42.386988427079515" lon="-8.114063322795635"><ele>183.0</ele><time>2026-04-04T20:58:13.999Z</time></trkpt><trkpt lat="42.387085234975146" lon="-8.113897047249191"><ele>187.0</ele><time>2026-04-04T20:58:14.999Z</time></trkpt><trkpt lat="42.38718339004372" lon="-8.113722858568634"><ele>187.0</ele><time>2026-04-04T20:58:15.999Z</time></trkpt><trkpt lat="42.38727254882286" lon="-8.113543846040121"><ele>187.0</ele><time>2026-04-04T20:58:16.999Z</time></trkpt><trkpt lat="42.38735326631015" lon="-8.113369049898989"><ele>187.0</ele><time>2026-04-04T20:58:17.999Z</time></trkpt><trkpt lat="42.38744186753875" lon="-8.113187939603204"><ele>190.0</ele><time>2026-04-04T20:58:18.999Z</time></trkpt><trkpt lat="42.387535388210615" lon="-8.113003129172986"><ele>193.0</ele><time>2026-04-04T20:58:19.999Z</time></trkpt><trkpt lat="42.387609656678094" lon="-8.112813132335406"><ele>196.0</ele><time>2026-04-04T20:58:20.999Z</time></trkpt><trkpt lat="42.387705854883876" lon="-8.112632123911467"><ele>196.0</ele><time>2026-04-04T20:58:21.999Z</time></trkpt><trkpt lat="42.38778835381939" lon="-8.112436983520425"><ele>196.0</ele><time>2026-04-04T20:58:22.999Z</time></trkpt><trkpt lat="42.38785242603578" lon="-8.112225865264493"><ele>196.0</ele><time>2026-04-04T20:58:23.999Z</time></trkpt><trkpt lat="42.38791352225894" lon="-8.112025456332134"><ele>195.33333333333331</ele><time>2026-04-04T20:58:24.999Z</time></trkpt><trkpt lat="42.38799642905558" lon="-8.111815965697533"><ele>194.66666666666669</ele><time>2026-04-04T20:58:25.999Z</time></trkpt><trkpt lat="42.38805876331542" lon="-8.111604823413256"><ele>194.0</ele><time>2026-04-04T20:58:26.999Z</time></trkpt><trkpt lat="42.38813608520038" lon="-8.111389321554908"><ele>194.0</ele><time>2026-04-04T20:58:27.999Z</time></trkpt><trkpt lat="42.38821857479914" lon="-8.111170267798009"><ele>194.0</ele><time>2026-04-04T20:58:28.999Z</time></trkpt><trkpt lat="42.38828901240864" lon="-8.110956234893166"><ele>194.0</ele><time>2026-04-04T20:58:29.999Z</time></trkpt><trkpt lat="42.38835230574866" lon="-8.110731691740424"><ele>198.66666666666669</ele><time>2026-04-04T20:58:30.999Z</time></trkpt><trkpt lat="42.38843351210426" lon="-8.11051755699002"><ele>203.33333333333331</ele><time>2026-04-04T20:58:31.999Z</time></trkpt><trkpt lat="42.38851532816241" lon="-8.110300157757075"><ele>208.0</ele><time>2026-04-04T20:58:32.999Z</time></trkpt><trkpt lat="42.38859916634481" lon="-8.110073533054656"><ele>205.66666666666666</ele><time>2026-04-04T20:58:33.999Z</time></trkpt><trkpt lat="42.388671634963345" lon="-8.109848796581105"><ele>203.33333333333331</ele><time>2026-04-04T20:58:34.999Z</time></trkpt><trkpt lat="42.38874959414246" lon="-8.109642017056158"><ele>201.0</ele><time>2026-04-04T20:58:35.999Z</time></trkpt><trkpt lat="42.38885518418407" lon="-8.109446893688366"><ele>201.0</ele><time>2026-04-04T20:58:36.999Z</time></trkpt><trkpt lat="42.388950427065154" lon="-8.109238268985294"><ele>201.0</ele><time>2026-04-04T20:58:37.999Z</time></trkpt><trkpt lat="42.38904782349395" lon="-8.109043026852843"><ele>201.0</ele><time>2026-04-04T20:58:38.999Z</time></trkpt><trkpt lat="42.38914388956975" lon="-8.108843769909235"><ele>206.33333333333331</ele><time>2026-04-04T20:58:39.999Z</time></trkpt><trkpt lat="42.3892466974625" lon="-8.108648263279228"><ele>211.66666666666666</ele><time>2026-04-04T20:58:40.999Z</time></trkpt><trkpt lat="42.389351942970706" lon="-8.10846975788882"><ele>217.0</ele><time>2026-04-04T20:58:41.999Z</time></trkpt><trkpt lat="42.38945888205923" lon="-8.108280464388455"><ele>216.66666666666666</ele><time>2026-04-04T20:58:42.999Z</time></trkpt><trkpt lat="42.38957095020413" lon="-8.108100234618083"><ele>216.33333333333331</ele><time>2026-04-04T20:58:43.999Z</time></trkpt><trkpt lat="42.38967768455304" lon="-8.107923236264357"><ele>216.0</ele><time>2026-04-04T20:58:44.999Z</time></trkpt><trkpt lat="42.38978867096404" lon="-8.107778058341504"><ele>216.0</ele><time>2026-04-04T20:58:45.999Z</time></trkpt><trkpt lat="42.389905169629436" lon="-8.107623807077356"><ele>216.0</ele><time>2026-04-04T20:58:46.999Z</time></trkpt><trkpt lat="42.39002738481113" lon="-8.107473658962833"><ele>216.0</ele><time>2026-04-04T20:58:47.999Z</time></trkpt><trkpt lat="42.39015596914873" lon="-8.107330184856117"><ele>218.33333333333331</ele><time>2026-04-04T20:58:48.999Z</time></trkpt><trkpt lat="42.39028757346326" lon="-8.107194591688534"><ele>220.66666666666666</ele><time>2026-04-04T20:58:49.999Z</time></trkpt><trkpt lat="42.390421996601695" lon="-8.107058707023372"><ele>223.0</ele><time>2026-04-04T20:58:50.999Z</time></trkpt><trkpt lat="42.39056497664029" lon="-8.106930704059367"><ele>223.0</ele><time>2026-04-04T20:58:51.999Z</time></trkpt><trkpt lat="42.39070692750318" lon="-8.106803748384065"><ele>223.0</ele><time>2026-04-04T20:58:52.999Z</time></trkpt><trkpt lat="42.390855089576945" lon="-8.106686526626818"><ele>223.0</ele><time>2026-04-04T20:58:53.999Z</time></trkpt><trkpt lat="42.39100845032949" lon="-8.106578021726646"><ele>228.66666666666666</ele><time>2026-04-04T20:58:54.999Z</time></trkpt><trkpt lat="42.39116968241657" lon="-8.106483060152097"><ele>234.33333333333331</ele><time>2026-04-04T20:58:55.999Z</time></trkpt><trkpt lat="42.39132960374201" lon="-8.106387388772918"><ele>240.0</ele><time>2026-04-04T20:58:56.999Z</time></trkpt><trkpt lat="42.39149279214649" lon="-8.10628989105351"><ele>240.0</ele><time>2026-04-04T20:58:57.999Z</time></trkpt><trkpt lat="42.39165305381158" lon="-8.106185174461727"><ele>240.0</ele><time>2026-04-04T20:58:58.999Z</time></trkpt><trkpt lat="42.39181608636116" lon="-8.10607092459826"><ele>240.0</ele><time>2026-04-04T20:58:59.999Z</time></trkpt><trkpt lat="42.391971895029776" lon="-8.105955871148955"><ele>240.0</ele><time>2026-04-04T20:59:00.999Z</time></trkpt><trkpt lat="42.392129021835785" lon="-8.105832115121547"><ele>240.0</ele><time>2026-04-04T20:59:01.999Z</time></trkpt><trkpt lat="42.39228305712385" lon="-8.105697852274718"><ele>240.0</ele><time>2026-04-04T20:59:02.999Z</time></trkpt><trkpt lat="42.392433563584895" lon="-8.105563882524555"><ele>246.33333333333331</ele><time>2026-04-04T20:59:03.999Z</time></trkpt><trkpt lat="42.3925782656614" lon="-8.105419948354566"><ele>252.66666666666666</ele><time>2026-04-04T20:59:04.999Z</time></trkpt><trkpt lat="42.392723392580926" lon="-8.105264305878078"><ele>259.0</ele><time>2026-04-04T20:59:05.999Z</time></trkpt><trkpt lat="42.392866812086865" lon="-8.105109442826668"><ele>259.0</ele><time>2026-04-04T20:59:06.999Z</time></trkpt><trkpt lat="42.39300431789102" lon="-8.104949894233089"><ele>259.0</ele><time>2026-04-04T20:59:07.999Z</time></trkpt><trkpt lat="42.39313630016848" lon="-8.104784651575898"><ele>259.0</ele><time>2026-04-04T20:59:08.999Z</time></trkpt><trkpt lat="42.39327031205808" lon="-8.104623636207297"><ele>260.3333333333333</ele><time>2026-04-04T20:59:09.999Z</time></trkpt><trkpt lat="42.393398187630126" lon="-8.104460271955988"><ele>261.6666666666667</ele><time>2026-04-04T20:59:10.999Z</time></trkpt><trkpt lat="42.39352744690357" lon="-8.104295532087892"><ele>263.0</ele><time>2026-04-04T20:59:11.999Z</time></trkpt><trkpt lat="42.39365340290288" lon="-8.104134321017556"><ele>261.0</ele><time>2026-04-04T20:59:12.999Z</time></trkpt><trkpt lat="42.39378373106325" lon="-8.103976108736662"><ele>259.0</ele><time>2026-04-04T20:59:13.999Z</time></trkpt><trkpt lat="42.39391280343055" lon="-8.103824332559622"><ele>257.0</ele><time>2026-04-04T20:59:14.999Z</time></trkpt><trkpt lat="42.39404487500242" lon="-8.103670397708058"><ele>257.0</ele><time>2026-04-04T20:59:15.999Z</time></trkpt><trkpt lat="42.394173159948316" lon="-8.103523683341086"><ele>257.0</ele><time>2026-04-04T20:59:16.999Z</time></trkpt><trkpt lat="42.39430472659192" lon="-8.10337285725894"><ele>257.0</ele><time>2026-04-04T20:59:17.999Z</time></trkpt><trkpt lat="42.39443129494126" lon="-8.10322687013504"><ele>256.6666666666667</ele><time>2026-04-04T20:59:18.999Z</time></trkpt><trkpt lat="42.39455691911567" lon="-8.103061002781011"><ele>256.3333333333333</ele><time>2026-04-04T20:59:19.999Z</time></trkpt><trkpt lat="42.39466989520949" lon="-8.10289789671233"><ele>256.0</ele><time>2026-04-04T20:59:20.999Z</time></trkpt><trkpt lat="42.39478176372475" lon="-8.102724235916188"><ele>256.0</ele><time>2026-04-04T20:59:21.999Z</time></trkpt><trkpt lat="42.39489095345639" lon="-8.102546144373555"><ele>256.0</ele><time>2026-04-04T20:59:22.999Z</time></trkpt><trkpt lat="42.39499007851685" lon="-8.102361912363056"><ele>256.0</ele><time>2026-04-04T20:59:23.998Z</time></trkpt><trkpt lat="42.39508721637592" lon="-8.102171724492088"><ele>258.66666666666663</ele><time>2026-04-04T20:59:24.998Z</time></trkpt><trkpt lat="42.39517845855761" lon="-8.10197842282612"><ele>261.3333333333333</ele><time>2026-04-04T20:59:25.998Z</time></trkpt><trkpt lat="42.395261310892835" lon="-8.101764883901042"><ele>264.0</ele><time>2026-04-04T20:59:27Z</time></trkpt><trkpt lat="42.39533849417604" lon="-8.101554505841476"><ele>264.3333333333333</ele><time>2026-04-04T20:59:28Z</time></trkpt><trkpt lat="42.395408165470045" lon="-8.101336068665878"><ele>264.66666666666663</ele><time>2026-04-04T20:59:29Z</time></trkpt><trkpt lat="42.395469381910445" lon="-8.101109591349395"><ele>265.0</ele><time>2026-04-04T20:59:30Z</time></trkpt><trkpt lat="42.39552283668332" lon="-8.1008820867884"><ele>269.3333333333333</ele><time>2026-04-04T20:59:31Z</time></trkpt><trkpt lat="42.39558060735948" lon="-8.100654484381797"><ele>273.6666666666667</ele><time>2026-04-04T20:59:32Z</time></trkpt><trkpt lat="42.395638819220686" lon="-8.100422252246009"><ele>278.0</ele><time>2026-04-04T20:59:33Z</time></trkpt><trkpt lat="42.39569872763991" lon="-8.100193680625932"><ele>278.0</ele><time>2026-04-04T20:59:34Z</time></trkpt><trkpt lat="42.395751129066994" lon="-8.09996440731941"><ele>278.0</ele><time>2026-04-04T20:59:35Z</time></trkpt><trkpt lat="42.39581211628775" lon="-8.099736388357645"><ele>278.0</ele><time>2026-04-04T20:59:36Z</time></trkpt><trkpt lat="42.395875721938346" lon="-8.099503730297167"><ele>278.33333333333337</ele><time>2026-04-04T20:59:37Z</time></trkpt><trkpt lat="42.395933242997266" lon="-8.099271970639933"><ele>278.6666666666667</ele><time>2026-04-04T20:59:38Z</time></trkpt><trkpt lat="42.395984166246" lon="-8.099039807202933"><ele>279.0</ele><time>2026-04-04T20:59:39Z</time></trkpt><trkpt lat="42.39604234455642" lon="-8.098813069262496"><ele>279.3333333333333</ele><time>2026-04-04T20:59:40Z</time></trkpt><trkpt lat="42.396101919281854" lon="-8.098583735777181"><ele>279.66666666666663</ele><time>2026-04-04T20:59:41Z</time></trkpt><trkpt lat="42.396156716457895" lon="-8.098354169006885"><ele>280.0</ele><time>2026-04-04T20:59:42Z</time></trkpt><trkpt lat="42.396208080347876" lon="-8.098130075346374"><ele>285.0</ele><time>2026-04-04T20:59:43Z</time></trkpt><trkpt lat="42.396251322695846" lon="-8.097898490935714"><ele>290.0</ele><time>2026-04-04T20:59:44Z</time></trkpt><trkpt lat="42.396286667897144" lon="-8.097664092775563"><ele>295.0</ele><time>2026-04-04T20:59:45Z</time></trkpt><trkpt lat="42.39632105033933" lon="-8.097434581170383"><ele>291.66666666666663</ele><time>2026-04-04T20:59:46Z</time></trkpt><trkpt lat="42.396347059498765" lon="-8.09720023445206"><ele>288.3333333333333</ele><time>2026-04-04T20:59:47Z</time></trkpt><trkpt lat="42.39636826107561" lon="-8.096965822349716"><ele>285.0</ele><time>2026-04-04T20:59:48Z</time></trkpt><trkpt lat="42.39638186902078" lon="-8.096735770990081"><ele>287.0</ele><time>2026-04-04T20:59:49Z</time></trkpt><trkpt lat="42.396394696409516" lon="-8.09650137520993"><ele>289.0</ele><time>2026-04-04T20:59:50Z</time></trkpt><trkpt lat="42.396401828937044" lon="-8.096267203769246"><ele>291.0</ele><time>2026-04-04T20:59:51Z</time></trkpt><trkpt lat="42.396406943753455" lon="-8.09603294359331"><ele>291.0</ele><time>2026-04-04T20:59:52Z</time></trkpt><trkpt lat="42.39640615052175" lon="-8.09579711624841"><ele>291.0</ele><time>2026-04-04T20:59:53Z</time></trkpt><trkpt lat="42.39639985267135" lon="-8.095565036363173"><ele>291.0</ele><time>2026-04-04T20:59:54Z</time></trkpt><trkpt lat="42.3963898575354" lon="-8.0953264495971"><ele>291.3333333333333</ele><time>2026-04-04T20:59:55Z</time></trkpt><trkpt lat="42.39637641061156" lon="-8.095094138137636"><ele>291.66666666666663</ele><time>2026-04-04T20:59:56Z</time></trkpt><trkpt lat="42.396362987439204" lon="-8.094858685154758"><ele>292.0</ele><time>2026-04-04T20:59:57Z</time></trkpt><trkpt lat="42.39634463710903" lon="-8.094619368422709"><ele>298.66666666666663</ele><time>2026-04-04T20:59:58Z</time></trkpt><trkpt lat="42.396324640873594" lon="-8.094381869344362"><ele>305.3333333333333</ele><time>2026-04-04T20:59:59Z</time></trkpt><trkpt lat="42.39630891673375" lon="-8.094162141702398"><ele>312.0</ele><time>2026-04-04T21:00:00Z</time></trkpt><trkpt lat="42.396300980216274" lon="-8.093959285797679"><ele>313.0</ele><time>2026-04-04T21:00:01Z</time></trkpt><trkpt lat="42.39629525400967" lon="-8.093778125475492"><ele>314.0</ele><time>2026-04-04T21:00:02Z</time></trkpt><trkpt lat="42.396285535929756" lon="-8.093586497152806"><ele>315.0</ele><time>2026-04-04T21:00:03Z</time></trkpt><trkpt lat="42.396265436776076" lon="-8.093396542057771"><ele>316.0</ele><time>2026-04-04T21:00:04Z</time></trkpt><trkpt lat="42.396234052659636" lon="-8.09319115900183"><ele>316.0</ele><time>2026-04-04T21:00:05Z</time></trkpt><trkpt lat="42.39619479127602" lon="-8.092990473801631"><ele>316.0</ele><time>2026-04-04T21:00:06Z</time></trkpt><trkpt lat="42.39615108174985" lon="-8.092781527483778"><ele>316.0</ele><time>2026-04-04T21:00:07Z</time></trkpt><trkpt lat="42.396113699358374" lon="-8.092574281084344"><ele>316.5</ele><time>2026-04-04T21:00:08Z</time></trkpt><trkpt lat="42.396062358752246" lon="-8.092379593479622"><ele>317.0</ele><time>2026-04-04T21:00:09Z</time></trkpt><trkpt lat="42.396038469809156" lon="-8.092178977024037"><ele>317.5</ele><time>2026-04-04T21:00:10Z</time></trkpt><trkpt lat="42.39600287070361" lon="-8.091992189708161"><ele>318.0</ele><time>2026-04-04T21:00:11Z</time></trkpt><trkpt lat="42.395982874590096" lon="-8.09180279455264"><ele>318.0</ele><time>2026-04-04T21:00:12Z</time></trkpt><trkpt lat="42.39599232249006" lon="-8.091622663327753"><ele>318.0</ele><time>2026-04-04T21:00:13Z</time></trkpt><trkpt lat="42.39601413419858" lon="-8.091428950858404"><ele>318.0</ele><time>2026-04-04T21:00:14Z</time></trkpt><trkpt lat="42.39609032086142" lon="-8.091248311886288"><ele>318.0</ele><time>2026-04-04T21:00:15Z</time></trkpt><trkpt lat="42.396176575373495" lon="-8.091070236117313"><ele>319.0</ele><time>2026-04-04T21:00:16Z</time></trkpt><trkpt lat="42.396262863704564" lon="-8.090896633212305"><ele>320.0</ele><time>2026-04-04T21:00:17Z</time></trkpt><trkpt lat="42.39634949065126" lon="-8.090722349051063"><ele>321.0</ele><time>2026-04-04T21:00:18Z</time></trkpt><trkpt lat="42.396436911576984" lon="-8.090546467493736"><ele>321.0</ele><time>2026-04-04T21:00:19Z</time></trkpt><trkpt lat="42.396529030079606" lon="-8.090361134910966"><ele>321.0</ele><time>2026-04-04T21:00:20Z</time></trkpt><trkpt lat="42.39662396177023" lon="-8.090179122545289"><ele>321.0</ele><time>2026-04-04T21:00:21Z</time></trkpt><trkpt lat="42.396721291284415" lon="-8.089999165671404"><ele>324.3333333333333</ele><time>2026-04-04T21:00:21.999Z</time></trkpt><trkpt lat="42.3968263612828" lon="-8.089818850184578"><ele>327.66666666666663</ele><time>2026-04-04T21:00:22.999Z</time></trkpt><trkpt lat="42.39694380399414" lon="-8.089642380422402"><ele>331.0</ele><time>2026-04-04T21:00:23.999Z</time></trkpt><trkpt lat="42.397059613250015" lon="-8.089464532342044"><ele>327.66666666666663</ele><time>2026-04-04T21:00:24.999Z</time></trkpt><trkpt lat="42.39717340432432" lon="-8.089282845922213"><ele>324.3333333333333</ele><time>2026-04-04T21:00:25.999Z</time></trkpt><trkpt lat="42.39728347090533" lon="-8.089109565634578"><ele>321.0</ele><time>2026-04-04T21:00:26.999Z</time></trkpt><trkpt lat="42.39739151603775" lon="-8.088944036180427"><ele>321.0</ele><time>2026-04-04T21:00:27.999Z</time></trkpt><trkpt lat="42.397494194489994" lon="-8.088788634289124"><ele>321.0</ele><time>2026-04-04T21:00:28.999Z</time></trkpt><trkpt lat="42.39759550263676" lon="-8.088638333469303"><ele>321.0</ele><time>2026-04-04T21:00:29.999Z</time></trkpt><trkpt lat="42.39770432170708" lon="-8.08849864566137"><ele>321.0</ele><time>2026-04-04T21:00:30.999Z</time></trkpt><trkpt lat="42.3977777662023" lon="-8.08834253625314"><ele>321.0</ele><time>2026-04-04T21:00:31.999Z</time></trkpt><trkpt lat="42.39783190072695" lon="-8.088176785118236"><ele>321.0</ele><time>2026-04-04T21:00:32.999Z</time></trkpt><trkpt lat="42.39788044926936" lon="-8.087997679560205"><ele>321.0</ele><time>2026-04-04T21:00:33.999Z</time></trkpt><trkpt lat="42.3979306523103" lon="-8.087827526837716"><ele>321.5</ele><time>2026-04-04T21:00:34.999Z</time></trkpt><trkpt lat="42.39798130995814" lon="-8.087673424491241"><ele>322.0</ele><time>2026-04-04T21:00:35.999Z</time></trkpt><trkpt lat="42.398038647127564" lon="-8.087544003980677"><ele>322.5</ele><time>2026-04-04T21:00:36.999Z</time></trkpt><trkpt lat="42.39810752314062" lon="-8.087438988288165"><ele>323.0</ele><time>2026-04-04T21:00:37.999Z</time></trkpt><trkpt lat="42.39821777186596" lon="-8.087357259136992"><ele>325.25</ele><time>2026-04-04T21:00:38.999Z</time></trkpt><trkpt lat="42.39834221998955" lon="-8.087280959611487"><ele>327.5</ele><time>2026-04-04T21:00:39.999Z</time></trkpt><trkpt lat="42.398466856388005" lon="-8.08720725454597"><ele>329.75</ele><time>2026-04-04T21:00:40.999Z</time></trkpt><trkpt lat="42.398589496623934" lon="-8.087137507459559"><ele>332.0</ele><time>2026-04-04T21:00:41.999Z</time></trkpt><trkpt lat="42.39870479189242" lon="-8.087072571372453"><ele>332.0</ele><time>2026-04-04T21:00:42.999Z</time></trkpt><trkpt lat="42.39881043288149" lon="-8.087015425321033"><ele>332.0</ele><time>2026-04-04T21:00:43.999Z</time></trkpt><trkpt lat="42.3988996405019" lon="-8.086968479907792"><ele>332.0</ele><time>2026-04-04T21:00:44.999Z</time></trkpt><trkpt lat="42.398984571183306" lon="-8.086925959748436"><ele>332.0</ele><time>2026-04-04T21:00:45.999Z</time></trkpt><trkpt lat="42.39906173683159" lon="-8.086858418254701"><ele>332.0</ele><time>2026-04-04T21:00:46.999Z</time></trkpt><trkpt lat="42.39913841802891" lon="-8.08676531294794"><ele>329.25</ele><time>2026-04-04T21:00:47.999Z</time></trkpt><trkpt lat="42.39920651090401" lon="-8.086652275822273"><ele>326.5</ele><time>2026-04-04T21:00:48.999Z</time></trkpt><trkpt lat="42.39926915184735" lon="-8.086518119617462"><ele>323.75</ele><time>2026-04-04T21:00:49.999Z</time></trkpt><trkpt lat="42.39933457975305" lon="-8.086371459803244"><ele>321.0</ele><time>2026-04-04T21:00:50.999Z</time></trkpt><trkpt lat="42.3994064472129" lon="-8.086225638415874"><ele>321.0</ele><time>2026-04-04T21:00:51.999Z</time></trkpt><trkpt lat="42.39947810351373" lon="-8.08608546051679"><ele>321.0</ele><time>2026-04-04T21:00:52.999Z</time></trkpt><trkpt lat="42.39954763390686" lon="-8.08594527326839"><ele>321.0</ele><time>2026-04-04T21:00:53.999Z</time></trkpt><trkpt lat="42.39961464010806" lon="-8.08581313549444"><ele>321.0</ele><time>2026-04-04T21:00:54.999Z</time></trkpt><trkpt lat="42.39967839399795" lon="-8.085688195240355"><ele>319.0</ele><time>2026-04-04T21:00:55.999Z</time></trkpt><trkpt lat="42.39975073699698" lon="-8.085582848844698"><ele>317.0</ele><time>2026-04-04T21:00:56.999Z</time></trkpt><trkpt lat="42.399846798802436" lon="-8.08550151553118"><ele>315.0</ele><time>2026-04-04T21:00:57.999Z</time></trkpt><trkpt lat="42.399966719772166" lon="-8.085454713010838"><ele>313.0</ele><time>2026-04-04T21:00:58.999Z</time></trkpt><trkpt lat="42.40010535128963" lon="-8.085428716909144"><ele>313.0</ele><time>2026-04-04T21:00:59.999Z</time></trkpt><trkpt lat="42.40024505588498" lon="-8.085396506884994"><ele>313.0</ele><time>2026-04-04T21:01:00.999Z</time></trkpt><trkpt lat="42.40039853794293" lon="-8.08536135981469"><ele>313.0</ele><time>2026-04-04T21:01:01.999Z</time></trkpt><trkpt lat="42.40055555422498" lon="-8.085323201300024"><ele>311.66666666666663</ele><time>2026-04-04T21:01:02.999Z</time></trkpt><trkpt lat="42.40071969424865" lon="-8.085281435791543"><ele>310.3333333333333</ele><time>2026-04-04T21:01:03.999Z</time></trkpt><trkpt lat="42.400890326112666" lon="-8.085242891353925"><ele>309.0</ele><time>2026-04-04T21:01:04.999Z</time></trkpt><trkpt lat="42.40106249829419" lon="-8.085202337398728"><ele>309.0</ele><time>2026-04-04T21:01:05.999Z</time></trkpt><trkpt lat="42.40123615190067" lon="-8.08517443506954"><ele>309.0</ele><time>2026-04-04T21:01:06.999Z</time></trkpt><trkpt lat="42.40141039427777" lon="-8.085149526755538"><ele>309.0</ele><time>2026-04-04T21:01:07.999Z</time></trkpt><trkpt lat="42.4015662670827" lon="-8.085104806293296"><ele>310.0</ele><time>2026-04-04T21:01:08.999Z</time></trkpt><trkpt lat="42.40168146473141" lon="-8.084986835940265"><ele>311.0</ele><time>2026-04-04T21:01:09.999Z</time></trkpt><trkpt lat="42.40180129851449" lon="-8.084854461751528"><ele>312.0</ele><time>2026-04-04T21:01:10.999Z</time></trkpt><trkpt lat="42.40192493921427" lon="-8.084725133278221"><ele>312.0</ele><time>2026-04-04T21:01:11.999Z</time></trkpt><trkpt lat="42.40204041539959" lon="-8.084569881583485"><ele>312.0</ele><time>2026-04-04T21:01:12.999Z</time></trkpt><trkpt lat="42.402161578078804" lon="-8.084434009852387"><ele>312.0</ele><time>2026-04-04T21:01:13.999Z</time></trkpt><trkpt lat="42.402281043625294" lon="-8.084291968811868"><ele>315.0</ele><time>2026-04-04T21:01:14.999Z</time></trkpt><trkpt lat="42.40240405692903" lon="-8.084147068831095"><ele>318.0</ele><time>2026-04-04T21:01:15.999Z</time></trkpt><trkpt lat="42.40252601092523" lon="-8.083999892111054"><ele>321.0</ele><time>2026-04-04T21:01:16.999Z</time></trkpt><trkpt lat="42.40264953294329" lon="-8.08386172777841"><ele>322.0</ele><time>2026-04-04T21:01:17.999Z</time></trkpt><trkpt lat="42.4027781175087" lon="-8.08372148408704"><ele>323.0</ele><time>2026-04-04T21:01:18.999Z</time></trkpt><trkpt lat="42.40290341275119" lon="-8.083579309673148"><ele>324.0</ele><time>2026-04-04T21:01:19.999Z</time></trkpt><trkpt lat="42.40302823027896" lon="-8.08343632070708"><ele>326.3333333333333</ele><time>2026-04-04T21:01:20.999Z</time></trkpt><trkpt lat="42.403155790374704" lon="-8.083292109447624"><ele>328.66666666666663</ele><time>2026-04-04T21:01:21.999Z</time></trkpt><trkpt lat="42.40328097418432" lon="-8.083151039565964"><ele>331.0</ele><time>2026-04-04T21:01:22.999Z</time></trkpt><trkpt lat="42.40341575060342" lon="-8.082999978063782"><ele>331.66666666666663</ele><time>2026-04-04T21:01:23.999Z</time></trkpt><trkpt lat="42.40354060364535" lon="-8.0828464578905"><ele>332.3333333333333</ele><time>2026-04-04T21:01:24.999Z</time></trkpt><trkpt lat="42.4036669720422" lon="-8.08271023851146"><ele>333.0</ele><time>2026-04-04T21:01:25.999Z</time></trkpt><trkpt lat="42.403797725481205" lon="-8.08256547167864"><ele>336.0</ele><time>2026-04-04T21:01:26.999Z</time></trkpt><trkpt lat="42.40392538139977" lon="-8.08241860924708"><ele>339.0</ele><time>2026-04-04T21:01:27.999Z</time></trkpt><trkpt lat="42.40405101544347" lon="-8.082270050123114"><ele>342.0</ele><time>2026-04-04T21:01:28.999Z</time></trkpt><trkpt lat="42.40417902546169" lon="-8.082117079682087"><ele>342.0</ele><time>2026-04-04T21:01:29.998Z</time></trkpt><trkpt lat="42.40431121926273" lon="-8.081969745782459"><ele>342.0</ele><time>2026-04-04T21:01:30.998Z</time></trkpt><trkpt lat="42.40443983946323" lon="-8.081819637385568"><ele>342.0</ele><time>2026-04-04T21:01:31.998Z</time></trkpt><trkpt lat="42.404560951763195" lon="-8.081673155819047"><ele>343.6666666666667</ele><time>2026-04-04T21:01:33Z</time></trkpt><trkpt lat="42.40469101158429" lon="-8.081527577961255"><ele>345.33333333333337</ele><time>2026-04-04T21:01:34Z</time></trkpt><trkpt lat="42.4048305758006" lon="-8.081392301867908"><ele>347.0</ele><time>2026-04-04T21:01:35Z</time></trkpt><trkpt lat="42.40496938649023" lon="-8.081259307357874"><ele>347.0</ele><time>2026-04-04T21:01:36Z</time></trkpt><trkpt lat="42.40510666251326" lon="-8.081121167658338"><ele>347.0</ele><time>2026-04-04T21:01:37Z</time></trkpt><trkpt lat="42.40523002089549" lon="-8.080972845485634"><ele>347.0</ele><time>2026-04-04T21:01:38Z</time></trkpt><trkpt lat="42.40537119231417" lon="-8.080842710219237"><ele>350.0</ele><time>2026-04-04T21:01:39Z</time></trkpt><trkpt lat="42.4055073622388" lon="-8.080701125181733"><ele>353.0</ele><time>2026-04-04T21:01:40Z</time></trkpt><trkpt lat="42.40564687178058" lon="-8.080561286526658"><ele>356.0</ele><time>2026-04-04T21:01:41Z</time></trkpt><trkpt lat="42.40578384561451" lon="-8.080418450264938"><ele>356.0</ele><time>2026-04-04T21:01:42Z</time></trkpt><trkpt lat="42.405918200230666" lon="-8.08027860257033"><ele>356.0</ele><time>2026-04-04T21:01:43Z</time></trkpt><trkpt lat="42.40605445296577" lon="-8.080146220067322"><ele>356.0</ele><time>2026-04-04T21:01:44Z</time></trkpt><trkpt lat="42.406191816509626" lon="-8.079995274698085"><ele>356.0</ele><time>2026-04-04T21:01:45Z</time></trkpt><trkpt lat="42.40632168966745" lon="-8.079855482973228"><ele>356.0</ele><time>2026-04-04T21:01:46Z</time></trkpt><trkpt lat="42.406445459250584" lon="-8.079737933735954"><ele>356.0</ele><time>2026-04-04T21:01:47Z</time></trkpt><trkpt lat="42.406554481849376" lon="-8.079624829537213"><ele>357.75</ele><time>2026-04-04T21:01:48Z</time></trkpt><trkpt lat="42.406665707414184" lon="-8.079506753980512"><ele>359.5</ele><time>2026-04-04T21:01:49Z</time></trkpt><trkpt lat="42.4067848295879" lon="-8.07938401100881"><ele>361.25</ele><time>2026-04-04T21:01:50Z</time></trkpt><trkpt lat="42.406902827314134" lon="-8.079260074267195"><ele>363.0</ele><time>2026-04-04T21:01:51Z</time></trkpt><trkpt lat="42.407015610245516" lon="-8.079149169235688"><ele>363.0</ele><time>2026-04-04T21:01:52Z</time></trkpt><trkpt lat="42.40712728237821" lon="-8.07905918805472"><ele>363.0</ele><time>2026-04-04T21:01:53Z</time></trkpt><trkpt lat="42.40724908106595" lon="-8.078991567548638"><ele>363.0</ele><time>2026-04-04T21:01:54Z</time></trkpt><trkpt lat="42.407387581913156" lon="-8.078948941836055"><ele>363.0</ele><time>2026-04-04T21:01:55Z</time></trkpt><trkpt lat="42.40753199584776" lon="-8.078921549572414"><ele>365.0</ele><time>2026-04-04T21:01:56Z</time></trkpt><trkpt lat="42.40768006931261" lon="-8.078855405284676"><ele>367.0</ele><time>2026-04-04T21:01:57Z</time></trkpt><trkpt lat="42.40783909589715" lon="-8.078827541499768"><ele>369.0</ele><time>2026-04-04T21:01:58Z</time></trkpt><trkpt lat="42.40799444891393" lon="-8.078751555560807"><ele>371.3333333333333</ele><time>2026-04-04T21:01:59Z</time></trkpt><trkpt lat="42.40816149795546" lon="-8.078715515741502"><ele>373.66666666666663</ele><time>2026-04-04T21:02:00Z</time></trkpt><trkpt lat="42.40832441300469" lon="-8.078643399595611"><ele>376.0</ele><time>2026-04-04T21:02:01Z</time></trkpt><trkpt lat="42.408467138081036" lon="-8.078595905102492"><ele>376.0</ele><time>2026-04-04T21:02:02Z</time></trkpt><trkpt lat="42.408665140567166" lon="-8.078522663434208"><ele>376.0</ele><time>2026-04-04T21:02:03Z</time></trkpt><trkpt lat="42.4088219132324" lon="-8.078444251062445"><ele>376.0</ele><time>2026-04-04T21:02:04Z</time></trkpt><trkpt lat="42.408977939860925" lon="-8.078372659072457"><ele>377.3333333333333</ele><time>2026-04-04T21:02:05Z</time></trkpt><trkpt lat="42.40912860353765" lon="-8.07829343662476"><ele>378.6666666666667</ele><time>2026-04-04T21:02:06Z</time></trkpt><trkpt lat="42.40927868284967" lon="-8.07821475623742"><ele>380.0</ele><time>2026-04-04T21:02:07Z</time></trkpt><trkpt lat="42.40942866503208" lon="-8.078128678614075"><ele>381.6666666666667</ele><time>2026-04-04T21:02:08Z</time></trkpt><trkpt lat="42.40957881169301" lon="-8.0780454832212"><ele>383.33333333333337</ele><time>2026-04-04T21:02:09Z</time></trkpt><trkpt lat="42.40973618548845" lon="-8.077964320846526"><ele>385.0</ele><time>2026-04-04T21:02:10Z</time></trkpt><trkpt lat="42.40988816292159" lon="-8.077896548883842"><ele>387.0</ele><time>2026-04-04T21:02:11Z</time></trkpt><trkpt lat="42.41004432412418" lon="-8.07783561837593"><ele>389.0</ele><time>2026-04-04T21:02:12Z</time></trkpt><trkpt lat="42.41020012423882" lon="-8.077773715555299"><ele>391.0</ele><time>2026-04-04T21:02:13Z</time></trkpt><trkpt lat="42.410358112652" lon="-8.077701196983044"><ele>393.33333333333337</ele><time>2026-04-04T21:02:14Z</time></trkpt><trkpt lat="42.4105268445107" lon="-8.077641667265715"><ele>395.66666666666663</ele><time>2026-04-04T21:02:15Z</time></trkpt><trkpt lat="42.41068067643152" lon="-8.077576886789215"><ele>398.0</ele><time>2026-04-04T21:02:16Z</time></trkpt><trkpt lat="42.410813614150946" lon="-8.077521652023659"><ele>398.0</ele><time>2026-04-04T21:02:17Z</time></trkpt><trkpt lat="42.41098314002492" lon="-8.077477197034545"><ele>398.0</ele><time>2026-04-04T21:02:18Z</time></trkpt><trkpt lat="42.41114650722868" lon="-8.077411435730859"><ele>398.0</ele><time>2026-04-04T21:02:19Z</time></trkpt><trkpt lat="42.41131426977503" lon="-8.07735775836659"><ele>399.0</ele><time>2026-04-04T21:02:20Z</time></trkpt><trkpt lat="42.41148102594136" lon="-8.077314090448063"><ele>400.0</ele><time>2026-04-04T21:02:21Z</time></trkpt><trkpt lat="42.41165625748669" lon="-8.077273849400305"><ele>401.0</ele><time>2026-04-04T21:02:22Z</time></trkpt><trkpt lat="42.41182494957031" lon="-8.077227383164495"><ele>401.0</ele><time>2026-04-04T21:02:23Z</time></trkpt><trkpt lat="42.411991143454166" lon="-8.077177786684313"><ele>401.0</ele><time>2026-04-04T21:02:23.999Z</time></trkpt><trkpt lat="42.41216031300025" lon="-8.077125946149497"><ele>401.0</ele><time>2026-04-04T21:02:24.999Z</time></trkpt><trkpt lat="42.412329883898934" lon="-8.077067359609785"><ele>402.3333333333333</ele><time>2026-04-04T21:02:25.999Z</time></trkpt><trkpt lat="42.41249755031713" lon="-8.077024291998647"><ele>403.66666666666663</ele><time>2026-04-04T21:02:26.999Z</time></trkpt><trkpt lat="42.41267076509388" lon="-8.076970680139091"><ele>405.0</ele><time>2026-04-04T21:02:27.999Z</time></trkpt><trkpt lat="42.412840753604286" lon="-8.076894127042081"><ele>406.0</ele><time>2026-04-04T21:02:28.999Z</time></trkpt><trkpt lat="42.41300831321632" lon="-8.076838582686555"><ele>407.0</ele><time>2026-04-04T21:02:29.999Z</time></trkpt><trkpt lat="42.41318032816533" lon="-8.076780364749206"><ele>408.0</ele><time>2026-04-04T21:02:30.999Z</time></trkpt><trkpt lat="42.413354510828576" lon="-8.07671914368719"><ele>408.0</ele><time>2026-04-04T21:02:31.999Z</time></trkpt><trkpt lat="42.41353643819368" lon="-8.076654410926338"><ele>408.0</ele><time>2026-04-04T21:02:32.999Z</time></trkpt><trkpt lat="42.41371778006456" lon="-8.076589886440324"><ele>408.0</ele><time>2026-04-04T21:02:33.999Z</time></trkpt><trkpt lat="42.41390289265158" lon="-8.076539348591597"><ele>408.0</ele><time>2026-04-04T21:02:34.999Z</time></trkpt><trkpt lat="42.414090450385565" lon="-8.076476923726513"><ele>408.0</ele><time>2026-04-04T21:02:35.999Z</time></trkpt><trkpt lat="42.414279234345926" lon="-8.076387516102848"><ele>408.0</ele><time>2026-04-04T21:02:36.999Z</time></trkpt><trkpt lat="42.414478997832084" lon="-8.076318808961231"><ele>407.33333333333337</ele><time>2026-04-04T21:02:37.999Z</time></trkpt><trkpt lat="42.41468332685293" lon="-8.076252976652155"><ele>406.6666666666667</ele><time>2026-04-04T21:02:38.999Z</time></trkpt><trkpt lat="42.41490196960894" lon="-8.076219761051904"><ele>406.0</ele><time>2026-04-04T21:02:39.999Z</time></trkpt><trkpt lat="42.415092098343365" lon="-8.076171132529097"><ele>406.0</ele><time>2026-04-04T21:02:40.999Z</time></trkpt><trkpt lat="42.415270176767564" lon="-8.076132862513484"><ele>406.0</ele><time>2026-04-04T21:02:41.999Z</time></trkpt><trkpt lat="42.41543830447931" lon="-8.076107036163195"><ele>406.0</ele><time>2026-04-04T21:02:42.999Z</time></trkpt><trkpt lat="42.41560246775037" lon="-8.07609442401123"><ele>406.0</ele><time>2026-04-04T21:02:43.999Z</time></trkpt><trkpt lat="42.41575846719641" lon="-8.076058017338699"><ele>406.0</ele><time>2026-04-04T21:02:44.999Z</time></trkpt><trkpt lat="42.415897498691635" lon="-8.076045129912599"><ele>406.0</ele><time>2026-04-04T21:02:45.999Z</time></trkpt><trkpt lat="42.416030932314385" lon="-8.076057041692344"><ele>406.0</ele><time>2026-04-04T21:02:46.999Z</time></trkpt><trkpt lat="42.416156356140114" lon="-8.076036814267095"><ele>406.0</ele><time>2026-04-04T21:02:47.999Z</time></trkpt><trkpt lat="42.416277630726135" lon="-8.076038154282319"><ele>406.0</ele><time>2026-04-04T21:02:48.999Z</time></trkpt><trkpt lat="42.41638796900472" lon="-8.076044068826713"><ele>406.0</ele><time>2026-04-04T21:02:49.999Z</time></trkpt><trkpt lat="42.416497000479865" lon="-8.076043651835716"><ele>406.0</ele><time>2026-04-04T21:02:50.999Z</time></trkpt><trkpt lat="42.41660778522975" lon="-8.076064636085858"><ele>406.5</ele><time>2026-04-04T21:02:51.999Z</time></trkpt><trkpt lat="42.41672118610251" lon="-8.076099546417591"><ele>407.0</ele><time>2026-04-04T21:02:52.999Z</time></trkpt><trkpt lat="42.41684381384936" lon="-8.076116499427686"><ele>407.5</ele><time>2026-04-04T21:02:53.999Z</time></trkpt><trkpt lat="42.41696966150597" lon="-8.076132653371998"><ele>408.0</ele><time>2026-04-04T21:02:54.999Z</time></trkpt><trkpt lat="42.41709296830362" lon="-8.076159950377114"><ele>408.25</ele><time>2026-04-04T21:02:55.999Z</time></trkpt><trkpt lat="42.41721546223307" lon="-8.076186461716503"><ele>408.5</ele><time>2026-04-04T21:02:56.999Z</time></trkpt><trkpt lat="42.41734204660013" lon="-8.076221057084547"><ele>408.75</ele><time>2026-04-04T21:02:57.999Z</time></trkpt><trkpt lat="42.41747500182111" lon="-8.076255590856814"><ele>409.0</ele><time>2026-04-04T21:02:58.999Z</time></trkpt><trkpt lat="42.41760922429571" lon="-8.076287192470122"><ele>409.0</ele><time>2026-04-04T21:02:59.999Z</time></trkpt><trkpt lat="42.417746737230196" lon="-8.076321831238406"><ele>409.0</ele><time>2026-04-04T21:03:00.999Z</time></trkpt><trkpt lat="42.41788911696356" lon="-8.076357244807749"><ele>409.0</ele><time>2026-04-04T21:03:01.999Z</time></trkpt><trkpt lat="42.41803619159242" lon="-8.076390875671814"><ele>409.0</ele><time>2026-04-04T21:03:02.999Z</time></trkpt><trkpt lat="42.41818834091875" lon="-8.076431612525642"><ele>408.6666666666667</ele><time>2026-04-04T21:03:03.999Z</time></trkpt><trkpt lat="42.41834104904691" lon="-8.076468447389864"><ele>408.33333333333337</ele><time>2026-04-04T21:03:04.999Z</time></trkpt><trkpt lat="42.41849705142438" lon="-8.07651293033695"><ele>408.0</ele><time>2026-04-04T21:03:05.999Z</time></trkpt><trkpt lat="42.418653163149344" lon="-8.076565864143829"><ele>407.33333333333337</ele><time>2026-04-04T21:03:06.999Z</time></trkpt><trkpt lat="42.41881327019705" lon="-8.076609162541098"><ele>406.6666666666667</ele><time>2026-04-04T21:03:07.999Z</time></trkpt><trkpt lat="42.418978337185955" lon="-8.076644450589107"><ele>406.0</ele><time>2026-04-04T21:03:08.999Z</time></trkpt><trkpt lat="42.41914387764929" lon="-8.076680906554929"><ele>406.0</ele><time>2026-04-04T21:03:09.999Z</time></trkpt><trkpt lat="42.41930135243866" lon="-8.07671802270784"><ele>406.0</ele><time>2026-04-04T21:03:10.999Z</time></trkpt><trkpt lat="42.419447668399336" lon="-8.076748780072794"><ele>406.0</ele><time>2026-04-04T21:03:11.999Z</time></trkpt><trkpt lat="42.41957861803694" lon="-8.07677806742092"><ele>406.0</ele><time>2026-04-04T21:03:12.999Z</time></trkpt><trkpt lat="42.41969595886644" lon="-8.076805498410605"><ele>405.4</ele><time>2026-04-04T21:03:13.999Z</time></trkpt><trkpt lat="42.419795173976304" lon="-8.076844704152608"><ele>404.8</ele><time>2026-04-04T21:03:14.999Z</time></trkpt><trkpt lat="42.41989669433754" lon="-8.076880416970258"><ele>404.2</ele><time>2026-04-04T21:03:15.999Z</time></trkpt><trkpt lat="42.41999192944864" lon="-8.07688969442069"><ele>403.59999999999997</ele><time>2026-04-04T21:03:17.999Z</time></trkpt><trkpt lat="42.42006994611806" lon="-8.076908623323572"><ele>403.0</ele><time>2026-04-04T21:03:21.999Z</time></trkpt><trkpt lat="42.42015388008287" lon="-8.076926904417173"><ele>403.0</ele><time>2026-04-04T21:03:24.999Z</time></trkpt><trkpt lat="42.42023381083615" lon="-8.076941157658672"><ele>403.0</ele><time>2026-04-04T21:03:27.999Z</time></trkpt><trkpt lat="42.420342917226755" lon="-8.076947221378179"><ele>403.0</ele><time>2026-04-04T21:04:18Z</time></trkpt><trkpt lat="42.420450190438345" lon="-8.076944894713572"><ele>403.0</ele><time>2026-04-04T21:04:19Z</time></trkpt><trkpt lat="42.42057534889997" lon="-8.076933063923681"><ele>403.0</ele><time>2026-04-04T21:04:20Z</time></trkpt><trkpt lat="42.42070478933531" lon="-8.076927340698955"><ele>400.75</ele><time>2026-04-04T21:04:21Z</time></trkpt><trkpt lat="42.42082951194478" lon="-8.076912246546492"><ele>398.5</ele><time>2026-04-04T21:04:22Z</time></trkpt><trkpt lat="42.42094795160954" lon="-8.076899379503802"><ele>396.25</ele><time>2026-04-04T21:04:23Z</time></trkpt><trkpt lat="42.4210627854338" lon="-8.07689324406602"><ele>394.0</ele><time>2026-04-04T21:04:24Z</time></trkpt><trkpt lat="42.421176261703145" lon="-8.076893237314902"><ele>394.0</ele><time>2026-04-04T21:04:25Z</time></trkpt><trkpt lat="42.42128347132844" lon="-8.076917087267786"><ele>394.0</ele><time>2026-04-04T21:04:25.999Z</time></trkpt><trkpt lat="42.42140074550637" lon="-8.076966730531964"><ele>394.0</ele><time>2026-04-04T21:04:26.999Z</time></trkpt><trkpt lat="42.4215239242558" lon="-8.0770463740076"><ele>394.0</ele><time>2026-04-04T21:04:27.999Z</time></trkpt><trkpt lat="42.42165214821612" lon="-8.07715923795131"><ele>391.6666666666667</ele><time>2026-04-04T21:04:28.999Z</time></trkpt><trkpt lat="42.42178992237946" lon="-8.07728658632575"><ele>389.33333333333337</ele><time>2026-04-04T21:04:29.999Z</time></trkpt><trkpt lat="42.421924824262476" lon="-8.077405927838598"><ele>387.0</ele><time>2026-04-04T21:04:30.999Z</time></trkpt><trkpt lat="42.42205706470431" lon="-8.077512870028183"><ele>385.0</ele><time>2026-04-04T21:04:31.999Z</time></trkpt><trkpt lat="42.422191110843215" lon="-8.07761190184421"><ele>383.0</ele><time>2026-04-04T21:04:32.999Z</time></trkpt><trkpt lat="42.42233517039173" lon="-8.077659922756068"><ele>381.0</ele><time>2026-04-04T21:04:33.999Z</time></trkpt><trkpt lat="42.42246981247239" lon="-8.07771137474672"><ele>379.0</ele><time>2026-04-04T21:04:34.999Z</time></trkpt><trkpt lat="42.42260673512673" lon="-8.07775837600255"><ele>379.0</ele><time>2026-04-04T21:04:35.999Z</time></trkpt><trkpt lat="42.42273684538106" lon="-8.077817406268386"><ele>379.0</ele><time>2026-04-04T21:04:36.999Z</time></trkpt><trkpt lat="42.422874425177405" lon="-8.07786663659652"><ele>379.0</ele><time>2026-04-04T21:04:37.999Z</time></trkpt><trkpt lat="42.42300827948133" lon="-8.077917855753144"><ele>379.0</ele><time>2026-04-04T21:04:38.999Z</time></trkpt><trkpt lat="42.423149366394945" lon="-8.07796466326782"><ele>378.25</ele><time>2026-04-04T21:04:39.999Z</time></trkpt><trkpt lat="42.42329075049986" lon="-8.078007528414018"><ele>377.5</ele><time>2026-04-04T21:04:40.999Z</time></trkpt><trkpt lat="42.42343461936125" lon="-8.078057445989877"><ele>376.75</ele><time>2026-04-04T21:04:41.999Z</time></trkpt><trkpt lat="42.42357495991235" lon="-8.078108381011077"><ele>376.0</ele><time>2026-04-04T21:04:42.999Z</time></trkpt><trkpt lat="42.42370560637683" lon="-8.078161335202411"><ele>376.0</ele><time>2026-04-04T21:04:43.999Z</time></trkpt><trkpt lat="42.42384363789631" lon="-8.078205848262458"><ele>376.0</ele><time>2026-04-04T21:04:44.999Z</time></trkpt><trkpt lat="42.42397967873451" lon="-8.078250710503344"><ele>376.0</ele><time>2026-04-04T21:04:45.999Z</time></trkpt><trkpt lat="42.42411336734199" lon="-8.078307919055066"><ele>376.0</ele><time>2026-04-04T21:04:46.999Z</time></trkpt><trkpt lat="42.424249841447136" lon="-8.078362385615314"><ele>375.0</ele><time>2026-04-04T21:04:47.999Z</time></trkpt><trkpt lat="42.42438917172563" lon="-8.078407670895336"><ele>374.0</ele><time>2026-04-04T21:04:48.999Z</time></trkpt><trkpt lat="42.42453335554336" lon="-8.078462446728008"><ele>373.0</ele><time>2026-04-04T21:04:49.999Z</time></trkpt><trkpt lat="42.42468894577448" lon="-8.078523993755022"><ele>373.0</ele><time>2026-04-04T21:04:50.999Z</time></trkpt><trkpt lat="42.42485100592162" lon="-8.078559091377967"><ele>373.0</ele><time>2026-04-04T21:04:51.999Z</time></trkpt><trkpt lat="42.425011735839995" lon="-8.078614047108001"><ele>373.0</ele><time>2026-04-04T21:04:52.999Z</time></trkpt><trkpt lat="42.42517669588852" lon="-8.078670449200295"><ele>373.0</ele><time>2026-04-04T21:04:53.999Z</time></trkpt><trkpt lat="42.42534010607142" lon="-8.078758778687362"><ele>373.0</ele><time>2026-04-04T21:04:54.999Z</time></trkpt><trkpt lat="42.425504946381984" lon="-8.078803653750455"><ele>373.0</ele><time>2026-04-04T21:04:55.999Z</time></trkpt><trkpt lat="42.4256702152005" lon="-8.07886458326431"><ele>373.66666666666663</ele><time>2026-04-04T21:04:56.999Z</time></trkpt><trkpt lat="42.42583016477615" lon="-8.078913749115259"><ele>374.3333333333333</ele><time>2026-04-04T21:04:57.999Z</time></trkpt><trkpt lat="42.42596985495194" lon="-8.07896110894121"><ele>375.0</ele><time>2026-04-04T21:04:58.999Z</time></trkpt><trkpt lat="42.426112836131274" lon="-8.079011346204897"><ele>375.0</ele><time>2026-04-04T21:04:59.999Z</time></trkpt><trkpt lat="42.426253313696144" lon="-8.079056683516926"><ele>375.0</ele><time>2026-04-04T21:05:00.999Z</time></trkpt><trkpt lat="42.42637993863982" lon="-8.079101349675836"><ele>375.0</ele><time>2026-04-04T21:05:01.999Z</time></trkpt><trkpt lat="42.42649734088052" lon="-8.079129920680453"><ele>375.0</ele><time>2026-04-04T21:05:02.999Z</time></trkpt><trkpt lat="42.42659488468172" lon="-8.079169904893986"><ele>376.8</ele><time>2026-04-04T21:05:03.999Z</time></trkpt><trkpt lat="42.42668356464761" lon="-8.079203181846117"><ele>378.6</ele><time>2026-04-04T21:05:04.999Z</time></trkpt><trkpt lat="42.42679441888962" lon="-8.079242717554083"><ele>380.4</ele><time>2026-04-04T21:05:05.999Z</time></trkpt><trkpt lat="42.42690543966204" lon="-8.07928546017318"><ele>382.2</ele><time>2026-04-04T21:05:06.999Z</time></trkpt><trkpt lat="42.427022520788995" lon="-8.079311096896491"><ele>384.0</ele><time>2026-04-04T21:05:07.999Z</time></trkpt><trkpt lat="42.42713714022173" lon="-8.079357647639117"><ele>386.0</ele><time>2026-04-04T21:05:08.999Z</time></trkpt><trkpt lat="42.42725534211116" lon="-8.079396049451917"><ele>388.0</ele><time>2026-04-04T21:05:09.999Z</time></trkpt><trkpt lat="42.42736348911893" lon="-8.079439378021354"><ele>390.0</ele><time>2026-04-04T21:05:10.999Z</time></trkpt><trkpt lat="42.42746169819726" lon="-8.079475665887552"><ele>392.0</ele><time>2026-04-04T21:05:11.999Z</time></trkpt><trkpt lat="42.427560708029326" lon="-8.079498731174766"><ele>394.0</ele><time>2026-04-04T21:05:12.999Z</time></trkpt><trkpt lat="42.42764856301953" lon="-8.079530270695571"><ele>394.00000000000006</ele><time>2026-04-04T21:05:13.999Z</time></trkpt><trkpt lat="42.42773160292979" lon="-8.079557822882709"><ele>394.0</ele><time>2026-04-04T21:05:14.999Z</time></trkpt><trkpt lat="42.427810614412536" lon="-8.079586594259837"><ele>394.0</ele><time>2026-04-04T21:05:15.999Z</time></trkpt><trkpt lat="42.42788554130948" lon="-8.079610700316335"><ele>394.0</ele><time>2026-04-04T21:05:16.999Z</time></trkpt><trkpt lat="42.427950033228775" lon="-8.079638769613956"><ele>394.00000000000006</ele><time>2026-04-04T21:05:17.999Z</time></trkpt><trkpt lat="42.42802667658573" lon="-8.079647869114147"><ele>394.0</ele><time>2026-04-04T21:05:18.999Z</time></trkpt><trkpt lat="42.42808979771437" lon="-8.079675303976263"><ele>395.0</ele><time>2026-04-04T21:05:19.999Z</time></trkpt><trkpt lat="42.428173823870985" lon="-8.079765226969334"><ele>396.0</ele><time>2026-04-04T21:05:21.999Z</time></trkpt><trkpt lat="42.42822122736317" lon="-8.079892625336806"><ele>397.0</ele><time>2026-04-04T21:05:23.999Z</time></trkpt><trkpt lat="42.428288565232805" lon="-8.08002981243126"><ele>398.0</ele><time>2026-04-04T21:05:25.999Z</time></trkpt><trkpt lat="42.42833318929808" lon="-8.08011441758268"><ele>399.0</ele><time>2026-04-04T21:05:26.999Z</time></trkpt><trkpt lat="42.428389521167055" lon="-8.080213270202758"><ele>399.1666666666667</ele><time>2026-04-04T21:05:27.999Z</time></trkpt><trkpt lat="42.42844209319245" lon="-8.0803126254515"><ele>399.33333333333337</ele><time>2026-04-04T21:05:28.999Z</time></trkpt><trkpt lat="42.42849425818629" lon="-8.08042271169389"><ele>399.5</ele><time>2026-04-04T21:05:29.998Z</time></trkpt><trkpt lat="42.42855464558464" lon="-8.080528960421795"><ele>399.6666666666667</ele><time>2026-04-04T21:05:30.998Z</time></trkpt><trkpt lat="42.42860176104365" lon="-8.080631112807456"><ele>399.83333333333337</ele><time>2026-04-04T21:05:31.998Z</time></trkpt><trkpt lat="42.428635997115194" lon="-8.080713881341236"><ele>400.0</ele><time>2026-04-04T21:05:32.998Z</time></trkpt><trkpt lat="42.42869814782726" lon="-8.080824844409378"><ele>399.0</ele><time>2026-04-04T21:05:34.998Z</time></trkpt><trkpt lat="42.42886986563272" lon="-8.080741722709924"><ele>398.0</ele><time>2026-04-04T21:05:38.998Z</time></trkpt><trkpt lat="42.428953918663304" lon="-8.080669603087587"><ele>397.0</ele><time>2026-04-04T21:05:39.998Z</time></trkpt><trkpt lat="42.429053970152914" lon="-8.080583756392564"><ele>396.0</ele><time>2026-04-04T21:05:40.998Z</time></trkpt><trkpt lat="42.42916502922175" lon="-8.080511455965711"><ele>396.0</ele><time>2026-04-04T21:05:41.998Z</time></trkpt><trkpt lat="42.429244354391905" lon="-8.080440605967395"><ele>396.0</ele><time>2026-04-04T21:05:42.998Z</time></trkpt><trkpt lat="42.429322286790494" lon="-8.080372241347716"><ele>396.0</ele><time>2026-04-04T21:05:43.998Z</time></trkpt><trkpt lat="42.42940864342676" lon="-8.080310064858853"><ele>396.0</ele><time>2026-04-04T21:05:45Z</time></trkpt><trkpt lat="42.42949358999337" lon="-8.080233763641777"><ele>396.0</ele><time>2026-04-04T21:05:46Z</time></trkpt><trkpt lat="42.429590981419686" lon="-8.080150230756782"><ele>397.25</ele><time>2026-04-04T21:05:47Z</time></trkpt><trkpt lat="42.42969120434763" lon="-8.080055727169157"><ele>398.5</ele><time>2026-04-04T21:05:48Z</time></trkpt><trkpt lat="42.429799657346535" lon="-8.079960350378528"><ele>399.75</ele><time>2026-04-04T21:05:49Z</time></trkpt><trkpt lat="42.429909998808796" lon="-8.079862691314021"><ele>401.0</ele><time>2026-04-04T21:05:50Z</time></trkpt><trkpt lat="42.43000974221276" lon="-8.079768860192495"><ele>401.4</ele><time>2026-04-04T21:05:51Z</time></trkpt><trkpt lat="42.43009646570614" lon="-8.079693921488692"><ele>401.8</ele><time>2026-04-04T21:05:52Z</time></trkpt><trkpt lat="42.43017149996752" lon="-8.079633042041793"><ele>402.2</ele><time>2026-04-04T21:05:53Z</time></trkpt><trkpt lat="42.43023149452124" lon="-8.079580667078341"><ele>402.59999999999997</ele><time>2026-04-04T21:05:54Z</time></trkpt><trkpt lat="42.43032992178112" lon="-8.079518648742628"><ele>403.0</ele><time>2026-04-04T21:05:56Z</time></trkpt><trkpt lat="42.43040837766402" lon="-8.079442082291935"><ele>403.00000000000006</ele><time>2026-04-04T21:05:58Z</time></trkpt><trkpt lat="42.4304797999222" lon="-8.079388122154512"><ele>403.0</ele><time>2026-04-04T21:06:02Z</time></trkpt><trkpt lat="42.43046221369427" lon="-8.0793027727468"><ele>403.0</ele><time>2026-04-04T21:24:44Z</time></trkpt><trkpt lat="42.43044111641345" lon="-8.079221771451813"><ele>403.0</ele><time>2026-04-04T21:24:50Z</time></trkpt><trkpt lat="42.43040155345107" lon="-8.079144293922916"><ele>403.00000000000006</ele><time>2026-04-04T21:26:04.999Z</time></trkpt><trkpt lat="42.43040576486118" lon="-8.079246034927335"><ele>403.0</ele><time>2026-04-04T21:26:49Z</time></trkpt><trkpt lat="42.43038424667976" lon="-8.079099137911749"><ele>403.0</ele><time>2026-04-04T21:27:38Z</time></trkpt><trkpt lat="42.430331742865704" lon="-8.079149785466607"><ele>403.0</ele><time>2026-04-04T21:27:43.999Z</time></trkpt><trkpt lat="42.43027255714397" lon="-8.079200441507053"><ele>403.0</ele><time>2026-04-04T21:27:58.999Z</time></trkpt><trkpt lat="42.430332979906616" lon="-8.079166450462974"><ele>403.0</ele><time>2026-04-04T21:28:14.999Z</time></trkpt><trkpt lat="42.43040295841534" lon="-8.079262760108376"><ele>403.0</ele><time>2026-04-04T21:28:35.999Z</time></trkpt><trkpt lat="42.430372658100865" lon="-8.079351550862603"><ele>403.0</ele><time>2026-04-04T21:28:41.999Z</time></trkpt><trkpt lat="42.43043910758531" lon="-8.07938896301552"><ele>403.0</ele><time>2026-04-04T21:28:43.999Z</time></trkpt><trkpt lat="42.43036442905911" lon="-8.079132316641582"><ele>403.0</ele><time>2026-04-04T21:29:13Z</time></trkpt><trkpt lat="42.43020826396448" lon="-8.07925261228686"><ele>403.0</ele><time>2026-04-04T21:29:20Z</time></trkpt><trkpt lat="42.43038101934981" lon="-8.079372677079146"><ele>403.0</ele><time>2026-04-04T21:29:23Z</time></trkpt><trkpt lat="42.430420839755286" lon="-8.079101608662329"><ele>403.0</ele><time>2026-04-04T21:29:36Z</time></trkpt><trkpt lat="42.43051319313094" lon="-8.079333797433964"><ele>403.0</ele><time>2026-04-04T21:29:38Z</time></trkpt><trkpt lat="42.43047527000928" lon="-8.079404215911005"><ele>403.0</ele><time>2026-04-04T21:29:39Z</time></trkpt><trkpt lat="42.4304346077624" lon="-8.079265511990299"><ele>403.0</ele><time>2026-04-04T21:29:43Z</time></trkpt><trkpt lat="42.43043900316083" lon="-8.079179123529032"><ele>403.0</ele><time>2026-04-04T21:29:54.999Z</time></trkpt><trkpt lat="42.43039860369426" lon="-8.079087515565087"><ele>403.00000000000006</ele><time>2026-04-04T21:30:28.999Z</time></trkpt><trkpt lat="42.430399412418296" lon="-8.079245943955653"><ele>403.0</ele><time>2026-04-04T21:31:32Z</time></trkpt><trkpt lat="42.4304384675565" lon="-8.079335255184873"><ele>403.0</ele><time>2026-04-04T21:31:43Z</time></trkpt><trkpt lat="42.4305252275421" lon="-8.079247055913768"><ele>403.0</ele><time>2026-04-04T21:32:53.999Z</time></trkpt><trkpt lat="42.430583771621286" lon="-8.079215510772944"><ele>403.00000000000006</ele><time>2026-04-04T21:32:54.999Z</time></trkpt><trkpt lat="42.430645516986615" lon="-8.07918083296684"><ele>403.0</ele><time>2026-04-04T21:32:55.999Z</time></trkpt><trkpt lat="42.430714938722055" lon="-8.079151295302115"><ele>403.2</ele><time>2026-04-04T21:32:56.999Z</time></trkpt><trkpt lat="42.43080625576632" lon="-8.079105414927024"><ele>403.4</ele><time>2026-04-04T21:32:57.999Z</time></trkpt><trkpt lat="42.43088993249176" lon="-8.07901415867685"><ele>403.59999999999997</ele><time>2026-04-04T21:32:58.999Z</time></trkpt><trkpt lat="42.43097579834722" lon="-8.0789316421765"><ele>403.79999999999995</ele><time>2026-04-04T21:32:59.999Z</time></trkpt><trkpt lat="42.4310445524125" lon="-8.078850534868687"><ele>404.0</ele><time>2026-04-04T21:33:00.999Z</time></trkpt><trkpt lat="42.43114735808521" lon="-8.078826965536148"><ele>404.57142857142856</ele><time>2026-04-04T21:33:01.999Z</time></trkpt><trkpt lat="42.4312127765592" lon="-8.078764006550667"><ele>405.1428571428571</ele><time>2026-04-04T21:33:02.998Z</time></trkpt><trkpt lat="42.431275290532525" lon="-8.078693878708851"><ele>405.7142857142857</ele><time>2026-04-04T21:33:03.998Z</time></trkpt><trkpt lat="42.431338743862895" lon="-8.078634674030825"><ele>406.2857142857143</ele><time>2026-04-04T21:33:04.998Z</time></trkpt><trkpt lat="42.43138242480897" lon="-8.078570669462518"><ele>406.8571428571429</ele><time>2026-04-04T21:33:05.998Z</time></trkpt><trkpt lat="42.43139913453606" lon="-8.078479626755549"><ele>407.42857142857144</ele><time>2026-04-04T21:33:06.998Z</time></trkpt><trkpt lat="42.43140460539219" lon="-8.078392735765132"><ele>408.0</ele><time>2026-04-04T21:33:07.998Z</time></trkpt><trkpt lat="42.43143091379869" lon="-8.078232157395894"><ele>408.0</ele><time>2026-04-04T21:33:09.998Z</time></trkpt><trkpt lat="42.431404407728316" lon="-8.078082765808778"><ele>408.0</ele><time>2026-04-04T21:33:11.998Z</time></trkpt><trkpt lat="42.431364450597464" lon="-8.077942001511339"><ele>408.0</ele><time>2026-04-04T21:33:13.998Z</time></trkpt><trkpt lat="42.43131482958681" lon="-8.077819210382307"><ele>408.0</ele><time>2026-04-04T21:33:15.998Z</time></trkpt><trkpt lat="42.4312393234229" lon="-8.077722992980277"><ele>408.0</ele><time>2026-04-04T21:33:18Z</time></trkpt><trkpt lat="42.431193775063825" lon="-8.077581668541118"><ele>408.0</ele><time>2026-04-04T21:33:20Z</time></trkpt><trkpt lat="42.43113937842862" lon="-8.077438958602475"><ele>408.0</ele><time>2026-04-04T21:33:22Z</time></trkpt><trkpt lat="42.4310719779829" lon="-8.0773253692352"><ele>408.0</ele><time>2026-04-04T21:33:24Z</time></trkpt><trkpt lat="42.43105696441177" lon="-8.07723476157362"><ele>408.0</ele><time>2026-04-04T21:33:25Z</time></trkpt><trkpt lat="42.43104023144129" lon="-8.07713266934082"><ele>408.0</ele><time>2026-04-04T21:33:26Z</time></trkpt><trkpt lat="42.43100225368055" lon="-8.077060248464864"><ele>408.0</ele><time>2026-04-04T21:33:27Z</time></trkpt><trkpt lat="42.43097945198465" lon="-8.076964550034177"><ele>407.7142857142857</ele><time>2026-04-04T21:33:28Z</time></trkpt><trkpt lat="42.4309585549035" lon="-8.076866328143197"><ele>407.42857142857144</ele><time>2026-04-04T21:33:29Z</time></trkpt><trkpt lat="42.43093863000828" lon="-8.076773228148177"><ele>407.1428571428571</ele><time>2026-04-04T21:33:30Z</time></trkpt><trkpt lat="42.43091827246057" lon="-8.076678109093603"><ele>406.8571428571429</ele><time>2026-04-04T21:33:31Z</time></trkpt><trkpt lat="42.430898530213334" lon="-8.076587284049673"><ele>406.57142857142856</ele><time>2026-04-04T21:33:32Z</time></trkpt><trkpt lat="42.43087957198781" lon="-8.076500065784662"><ele>406.2857142857143</ele><time>2026-04-04T21:33:33Z</time></trkpt><trkpt lat="42.430853976072626" lon="-8.076382310520813"><ele>406.0</ele><time>2026-04-04T21:33:35Z</time></trkpt><trkpt lat="42.43083170501706" lon="-8.076279851475206"><ele>406.0</ele><time>2026-04-04T21:33:43Z</time></trkpt><trkpt lat="42.43071816437459" lon="-8.076272198598105"><ele>406.0</ele><time>2026-04-04T21:33:46Z</time></trkpt><trkpt lat="42.430682083069094" lon="-8.076369535937316"><ele>406.0</ele><time>2026-04-04T21:33:47Z</time></trkpt><trkpt lat="42.430611757340984" lon="-8.076512301004385"><ele>406.0</ele><time>2026-04-04T21:33:49Z</time></trkpt><trkpt lat="42.43056803732209" lon="-8.0765802617626"><ele>406.0</ele><time>2026-04-04T21:33:50Z</time></trkpt><trkpt lat="42.43049127155552" lon="-8.076703092538963"><ele>404.8</ele><time>2026-04-04T21:33:52Z</time></trkpt><trkpt lat="42.43040926502028" lon="-8.07660216234572"><ele>403.6</ele><time>2026-04-04T21:33:55.999Z</time></trkpt><trkpt lat="42.43040925923824" lon="-8.07646639513571"><ele>402.4</ele><time>2026-04-04T21:33:56.999Z</time></trkpt><trkpt lat="42.43038412596152" lon="-8.076318181017628"><ele>401.2</ele><time>2026-04-04T21:33:57.999Z</time></trkpt><trkpt lat="42.43034198108537" lon="-8.076178093917607"><ele>400.0</ele><time>2026-04-04T21:33:58.999Z</time></trkpt><trkpt lat="42.43031456754549" lon="-8.076029857712719"><ele>400.00000000000006</ele><time>2026-04-04T21:33:59.999Z</time></trkpt><trkpt lat="42.43030242479474" lon="-8.075890799288972"><ele>400.0</ele><time>2026-04-04T21:34:00.999Z</time></trkpt><trkpt lat="42.43027419376455" lon="-8.075769324294404"><ele>400.0</ele><time>2026-04-04T21:34:01.999Z</time></trkpt><trkpt lat="42.43025139792181" lon="-8.075671652319214"><ele>400.0</ele><time>2026-04-04T21:34:02.999Z</time></trkpt><trkpt lat="42.43022270610355" lon="-8.075548745710778"><ele>400.00000000000006</ele><time>2026-04-04T21:34:03.999Z</time></trkpt><trkpt lat="42.430203067381804" lon="-8.075462009325031"><ele>400.0</ele><time>2026-04-04T21:34:04.999Z</time></trkpt><trkpt lat="42.430201934849144" lon="-8.075362847502063"><ele>400.00000000000006</ele><time>2026-04-04T21:34:05.999Z</time></trkpt><trkpt lat="42.43018302340252" lon="-8.075271838705628"><ele>400.0</ele><time>2026-04-04T21:34:06.999Z</time></trkpt><trkpt lat="42.43015534790014" lon="-8.075186533751701"><ele>400.0</ele><time>2026-04-04T21:34:07.999Z</time></trkpt><trkpt lat="42.430132592028585" lon="-8.075094166464257"><ele>400.0</ele><time>2026-04-04T21:34:08.999Z</time></trkpt><trkpt lat="42.43011920010514" lon="-8.074961550051793"><ele>400.00000000000006</ele><time>2026-04-04T21:34:10.999Z</time></trkpt><trkpt lat="42.43020547276936" lon="-8.074918010557122"><ele>400.0</ele><time>2026-04-04T21:34:13.999Z</time></trkpt><trkpt lat="42.43026646954118" lon="-8.07487211358569"><ele>400.1666666666667</ele><time>2026-04-04T21:34:15.999Z</time></trkpt><trkpt lat="42.43034266364739" lon="-8.074857033225724"><ele>400.33333333333337</ele><time>2026-04-04T21:34:17.999Z</time></trkpt><trkpt lat="42.43041949437268" lon="-8.074834768321159"><ele>400.5</ele><time>2026-04-04T21:34:19.999Z</time></trkpt><trkpt lat="42.4304987801078" lon="-8.074820897693865"><ele>400.66666666666663</ele><time>2026-04-04T21:34:28.999Z</time></trkpt><trkpt lat="42.43056960160911" lon="-8.074918589684103"><ele>400.8333333333333</ele><time>2026-04-04T21:34:30.999Z</time></trkpt><trkpt lat="42.43058135006238" lon="-8.075042371898943"><ele>401.0</ele><time>2026-04-04T21:34:31.999Z</time></trkpt><trkpt lat="42.43059675564977" lon="-8.07514536189586"><ele>401.49999999999994</ele><time>2026-04-04T21:34:32.999Z</time></trkpt><trkpt lat="42.43061852266603" lon="-8.075227564762786"><ele>402.0</ele><time>2026-04-04T21:34:33.999Z</time></trkpt><trkpt lat="42.43065406775879" lon="-8.07534593653613"><ele>402.5</ele><time>2026-04-04T21:34:35.999Z</time></trkpt><trkpt lat="42.430679236745966" lon="-8.075454988041482"><ele>403.0</ele><time>2026-04-04T21:34:37.999Z</time></trkpt><trkpt lat="42.430690601547155" lon="-8.075567098161285"><ele>403.49999999999994</ele><time>2026-04-04T21:34:39.999Z</time></trkpt><trkpt lat="42.43072542592676" lon="-8.075656806796859"><ele>404.0</ele><time>2026-04-04T21:34:40.999Z</time></trkpt><trkpt lat="42.43074237578962" lon="-8.07579197723953"><ele>404.0</ele><time>2026-04-04T21:34:41.999Z</time></trkpt><trkpt lat="42.4307788995254" lon="-8.075890454141263"><ele>404.0</ele><time>2026-04-04T21:34:42.999Z</time></trkpt><trkpt lat="42.43079799079794" lon="-8.07597387150967"><ele>404.0</ele><time>2026-04-04T21:34:43.999Z</time></trkpt><trkpt lat="42.43081738420022" lon="-8.076058608953916"><ele>404.0</ele><time>2026-04-04T21:34:45.999Z</time></trkpt><trkpt lat="42.43096079506812" lon="-8.075940553991224"><ele>404.0</ele><time>2026-04-04T21:34:49.999Z</time></trkpt><trkpt lat="42.43103901965211" lon="-8.075869214227799"><ele>404.0</ele><time>2026-04-04T21:34:51.999Z</time></trkpt><trkpt lat="42.430998277268856" lon="-8.07567432257566"><ele>404.0</ele><time>2026-04-04T21:34:53.999Z</time></trkpt><trkpt lat="42.430977321777846" lon="-8.07552065277346"><ele>404.0</ele><time>2026-04-04T21:34:55.999Z</time></trkpt><trkpt lat="42.431007797032905" lon="-8.075422373283178"><ele>404.0</ele><time>2026-04-04T21:34:58.999Z</time></trkpt><trkpt lat="42.431460184735535" lon="-8.075624092208612"><ele>404.4</ele><time>2026-04-04T21:36:02.999Z</time></trkpt><trkpt lat="42.43156765285513" lon="-8.075646647889416"><ele>404.79999999999995</ele><time>2026-04-04T21:36:03.999Z</time></trkpt><trkpt lat="42.431654760346994" lon="-8.075679239912661"><ele>405.20000000000005</ele><time>2026-04-04T21:36:04.999Z</time></trkpt><trkpt lat="42.431737990756915" lon="-8.075712187199382"><ele>405.6</ele><time>2026-04-04T21:36:05.999Z</time></trkpt><trkpt lat="42.4318580183961" lon="-8.075756108216387"><ele>406.0</ele><time>2026-04-04T21:36:07.999Z</time></trkpt><trkpt lat="42.43192349326179" lon="-8.075779364414181"><ele>406.50000000000006</ele><time>2026-04-04T21:36:08.999Z</time></trkpt><trkpt lat="42.43202482665025" lon="-8.07580660949825"><ele>407.0</ele><time>2026-04-04T21:36:10.999Z</time></trkpt><trkpt lat="42.43212064413132" lon="-8.075825602665553"><ele>407.5</ele><time>2026-04-04T21:36:12.999Z</time></trkpt><trkpt lat="42.43220456045909" lon="-8.075861325751061"><ele>408.0</ele><time>2026-04-04T21:36:14.999Z</time></trkpt><trkpt lat="42.432256349094004" lon="-8.075921887482355"><ele>408.50000000000006</ele><time>2026-04-04T21:36:16.999Z</time></trkpt><trkpt lat="42.43229836860506" lon="-8.075998587151108"><ele>409.0</ele><time>2026-04-04T21:36:18.999Z</time></trkpt><trkpt lat="42.432352629934904" lon="-8.076058875407591"><ele>412.0</ele><time>2026-04-04T21:36:20.999Z</time></trkpt><trkpt lat="42.43240189839708" lon="-8.076116271427127"><ele>412.0</ele><time>2026-04-04T21:36:23.999Z</time></trkpt><trkpt lat="42.432328931016976" lon="-8.076271265871323"><ele>412.0</ele><time>2026-04-04T21:36:37.999Z</time></trkpt></trkseg></trk></gpx>